<?xml version="1.0" encoding="UTF-8" ?>
<gpx xmlns="http://www.topografix.com/GPX/1/1" version="1.1" creator="RouteGadget GPS Tracking" xmlns:xsi="http://www.w3.org/2001/XMLSchema-instance" xmlns:tp1="http://www.garmin.com/xmlschemas/TrackPointExtension/v1" xsi:schemaLocation="http://www.topografix.com/GPX/1/1 http://www.topografix.com/GPX/1/1/gpx.xsd http://www.garmin.com/xmlschemas/TrackPointExtension/v1 http://www.garmin.com/xmlschemas/TrackPointExtensionv1.xsd">
<trk>
<trkseg><trkpt lat="46.04163" lon="13.479905">
<time>2021-07-18T08:40:05Z</time>
</trkpt>
<trkpt lat="46.041598" lon="13.47994">
<time>2021-07-18T08:40:06Z</time>
</trkpt>
<trkpt lat="46.041556" lon="13.479983">
<time>2021-07-18T08:40:07Z</time>
</trkpt>
<trkpt lat="46.04151" lon="13.48003">
<time>2021-07-18T08:40:08Z</time>
</trkpt>
<trkpt lat="46.041456" lon="13.480085">
<time>2021-07-18T08:40:09Z</time>
</trkpt>
<trkpt lat="46.041398" lon="13.480146">
<time>2021-07-18T08:40:10Z</time>
</trkpt>
<trkpt lat="46.041336" lon="13.480211">
<time>2021-07-18T08:40:11Z</time>
</trkpt>
<trkpt lat="46.041273" lon="13.480273">
<time>2021-07-18T08:40:12Z</time>
</trkpt>
<trkpt lat="46.041206" lon="13.48033">
<time>2021-07-18T08:40:13Z</time>
</trkpt>
<trkpt lat="46.041133" lon="13.480373">
<time>2021-07-18T08:40:14Z</time>
</trkpt>
<trkpt lat="46.041061" lon="13.480406">
<time>2021-07-18T08:40:15Z</time>
</trkpt>
<trkpt lat="46.040986" lon="13.480435">
<time>2021-07-18T08:40:16Z</time>
</trkpt>
<trkpt lat="46.04091" lon="13.480455">
<time>2021-07-18T08:40:17Z</time>
</trkpt>
<trkpt lat="46.040838" lon="13.480471">
<time>2021-07-18T08:40:18Z</time>
</trkpt>
<trkpt lat="46.040775" lon="13.480491">
<time>2021-07-18T08:40:19Z</time>
</trkpt>
<trkpt lat="46.040723" lon="13.480511">
<time>2021-07-18T08:40:20Z</time>
</trkpt>
<trkpt lat="46.040685" lon="13.480531">
<time>2021-07-18T08:40:21Z</time>
</trkpt>
<trkpt lat="46.040673" lon="13.480558">
<time>2021-07-18T08:40:22Z</time>
</trkpt>
<trkpt lat="46.04069" lon="13.480591">
<time>2021-07-18T08:40:23Z</time>
</trkpt>
<trkpt lat="46.040716" lon="13.480635">
<time>2021-07-18T08:40:24Z</time>
</trkpt>
<trkpt lat="46.040751" lon="13.480683">
<time>2021-07-18T08:40:25Z</time>
</trkpt>
<trkpt lat="46.04079" lon="13.480733">
<time>2021-07-18T08:40:26Z</time>
</trkpt>
<trkpt lat="46.040835" lon="13.480788">
<time>2021-07-18T08:40:27Z</time>
</trkpt>
<trkpt lat="46.04088" lon="13.480846">
<time>2021-07-18T08:40:28Z</time>
</trkpt>
<trkpt lat="46.040921" lon="13.480908">
<time>2021-07-18T08:40:29Z</time>
</trkpt>
<trkpt lat="46.040968" lon="13.480968">
<time>2021-07-18T08:40:30Z</time>
</trkpt>
<trkpt lat="46.041011" lon="13.48103">
<time>2021-07-18T08:40:31Z</time>
</trkpt>
<trkpt lat="46.04106" lon="13.481096">
<time>2021-07-18T08:40:32Z</time>
</trkpt>
<trkpt lat="46.041113" lon="13.481168">
<time>2021-07-18T08:40:33Z</time>
</trkpt>
<trkpt lat="46.041158" lon="13.481225">
<time>2021-07-18T08:40:34Z</time>
</trkpt>
<trkpt lat="46.041203" lon="13.481278">
<time>2021-07-18T08:40:35Z</time>
</trkpt>
<trkpt lat="46.04124" lon="13.48132">
<time>2021-07-18T08:40:36Z</time>
</trkpt>
<trkpt lat="46.041288" lon="13.48137">
<time>2021-07-18T08:40:37Z</time>
</trkpt>
<trkpt lat="46.041346" lon="13.48143">
<time>2021-07-18T08:40:38Z</time>
</trkpt>
<trkpt lat="46.041398" lon="13.481478">
<time>2021-07-18T08:40:39Z</time>
</trkpt>
<trkpt lat="46.04145" lon="13.481523">
<time>2021-07-18T08:40:40Z</time>
</trkpt>
<trkpt lat="46.041488" lon="13.48156">
<time>2021-07-18T08:40:41Z</time>
</trkpt>
<trkpt lat="46.04154" lon="13.481606">
<time>2021-07-18T08:40:42Z</time>
</trkpt>
<trkpt lat="46.041603" lon="13.48166">
<time>2021-07-18T08:40:43Z</time>
</trkpt>
<trkpt lat="46.041653" lon="13.481706">
<time>2021-07-18T08:40:44Z</time>
</trkpt>
<trkpt lat="46.041696" lon="13.481743">
<time>2021-07-18T08:40:45Z</time>
</trkpt>
<trkpt lat="46.041748" lon="13.481788">
<time>2021-07-18T08:40:46Z</time>
</trkpt>
<trkpt lat="46.0418" lon="13.481833">
<time>2021-07-18T08:40:47Z</time>
</trkpt>
<trkpt lat="46.041851" lon="13.48188">
<time>2021-07-18T08:40:48Z</time>
</trkpt>
<trkpt lat="46.0419" lon="13.481928">
<time>2021-07-18T08:40:49Z</time>
</trkpt>
<trkpt lat="46.041951" lon="13.48198">
<time>2021-07-18T08:40:50Z</time>
</trkpt>
<trkpt lat="46.042003" lon="13.482033">
<time>2021-07-18T08:40:51Z</time>
</trkpt>
<trkpt lat="46.04205" lon="13.482085">
<time>2021-07-18T08:40:52Z</time>
</trkpt>
<trkpt lat="46.042096" lon="13.48214">
<time>2021-07-18T08:40:53Z</time>
</trkpt>
<trkpt lat="46.042143" lon="13.482196">
<time>2021-07-18T08:40:54Z</time>
</trkpt>
<trkpt lat="46.042188" lon="13.482256">
<time>2021-07-18T08:40:55Z</time>
</trkpt>
<trkpt lat="46.042231" lon="13.482311">
<time>2021-07-18T08:40:56Z</time>
</trkpt>
<trkpt lat="46.042278" lon="13.482355">
<time>2021-07-18T08:40:57Z</time>
</trkpt>
<trkpt lat="46.04233" lon="13.48238">
<time>2021-07-18T08:40:58Z</time>
</trkpt>
<trkpt lat="46.04238" lon="13.482375">
<time>2021-07-18T08:40:59Z</time>
</trkpt>
<trkpt lat="46.042428" lon="13.482353">
<time>2021-07-18T08:41:00Z</time>
</trkpt>
<trkpt lat="46.042473" lon="13.482315">
<time>2021-07-18T08:41:01Z</time>
</trkpt>
<trkpt lat="46.04252" lon="13.482271">
<time>2021-07-18T08:41:02Z</time>
</trkpt>
<trkpt lat="46.042563" lon="13.482225">
<time>2021-07-18T08:41:03Z</time>
</trkpt>
<trkpt lat="46.04261" lon="13.482181">
<time>2021-07-18T08:41:04Z</time>
</trkpt>
<trkpt lat="46.04266" lon="13.48214">
<time>2021-07-18T08:41:05Z</time>
</trkpt>
<trkpt lat="46.042708" lon="13.482093">
<time>2021-07-18T08:41:06Z</time>
</trkpt>
<trkpt lat="46.042761" lon="13.482043">
<time>2021-07-18T08:41:07Z</time>
</trkpt>
<trkpt lat="46.042813" lon="13.482008">
<time>2021-07-18T08:41:08Z</time>
</trkpt>
<trkpt lat="46.04287" lon="13.48198">
<time>2021-07-18T08:41:09Z</time>
</trkpt>
<trkpt lat="46.042925" lon="13.481956">
<time>2021-07-18T08:41:10Z</time>
</trkpt>
<trkpt lat="46.042978" lon="13.481936">
<time>2021-07-18T08:41:11Z</time>
</trkpt>
<trkpt lat="46.043033" lon="13.481921">
<time>2021-07-18T08:41:12Z</time>
</trkpt>
<trkpt lat="46.043086" lon="13.481915">
<time>2021-07-18T08:41:13Z</time>
</trkpt>
<trkpt lat="46.043138" lon="13.481913">
<time>2021-07-18T08:41:14Z</time>
</trkpt>
<trkpt lat="46.043196" lon="13.481913">
<time>2021-07-18T08:41:15Z</time>
</trkpt>
<trkpt lat="46.043253" lon="13.48192">
<time>2021-07-18T08:41:16Z</time>
</trkpt>
<trkpt lat="46.043308" lon="13.481926">
<time>2021-07-18T08:41:17Z</time>
</trkpt>
<trkpt lat="46.043366" lon="13.481935">
<time>2021-07-18T08:41:18Z</time>
</trkpt>
<trkpt lat="46.043425" lon="13.481951">
<time>2021-07-18T08:41:19Z</time>
</trkpt>
<trkpt lat="46.043481" lon="13.481976">
<time>2021-07-18T08:41:20Z</time>
</trkpt>
<trkpt lat="46.043535" lon="13.482006">
<time>2021-07-18T08:41:21Z</time>
</trkpt>
<trkpt lat="46.043583" lon="13.482043">
<time>2021-07-18T08:41:22Z</time>
</trkpt>
<trkpt lat="46.043635" lon="13.48209">
<time>2021-07-18T08:41:23Z</time>
</trkpt>
<trkpt lat="46.043683" lon="13.482136">
<time>2021-07-18T08:41:24Z</time>
</trkpt>
<trkpt lat="46.043731" lon="13.482186">
<time>2021-07-18T08:41:25Z</time>
</trkpt>
<trkpt lat="46.043783" lon="13.482235">
<time>2021-07-18T08:41:26Z</time>
</trkpt>
<trkpt lat="46.043833" lon="13.482281">
<time>2021-07-18T08:41:27Z</time>
</trkpt>
<trkpt lat="46.04388" lon="13.482326">
<time>2021-07-18T08:41:28Z</time>
</trkpt>
<trkpt lat="46.04393" lon="13.48237">
<time>2021-07-18T08:41:29Z</time>
</trkpt>
<trkpt lat="46.04398" lon="13.482411">
<time>2021-07-18T08:41:30Z</time>
</trkpt>
<trkpt lat="46.044036" lon="13.482453">
<time>2021-07-18T08:41:31Z</time>
</trkpt>
<trkpt lat="46.044088" lon="13.482493">
<time>2021-07-18T08:41:32Z</time>
</trkpt>
<trkpt lat="46.04414" lon="13.482531">
<time>2021-07-18T08:41:33Z</time>
</trkpt>
<trkpt lat="46.044193" lon="13.48257">
<time>2021-07-18T08:41:34Z</time>
</trkpt>
<trkpt lat="46.044246" lon="13.482605">
<time>2021-07-18T08:41:35Z</time>
</trkpt>
<trkpt lat="46.0443" lon="13.48264">
<time>2021-07-18T08:41:36Z</time>
</trkpt>
<trkpt lat="46.044351" lon="13.482676">
<time>2021-07-18T08:41:37Z</time>
</trkpt>
<trkpt lat="46.044405" lon="13.48271">
<time>2021-07-18T08:41:38Z</time>
</trkpt>
<trkpt lat="46.044455" lon="13.482731">
<time>2021-07-18T08:41:39Z</time>
</trkpt>
<trkpt lat="46.044508" lon="13.482753">
<time>2021-07-18T08:41:40Z</time>
</trkpt>
<trkpt lat="46.04456" lon="13.482771">
<time>2021-07-18T08:41:41Z</time>
</trkpt>
<trkpt lat="46.04461" lon="13.48279">
<time>2021-07-18T08:41:42Z</time>
</trkpt>
<trkpt lat="46.044661" lon="13.482806">
<time>2021-07-18T08:41:43Z</time>
</trkpt>
<trkpt lat="46.044708" lon="13.482821">
<time>2021-07-18T08:41:44Z</time>
</trkpt>
<trkpt lat="46.044753" lon="13.48284">
<time>2021-07-18T08:41:45Z</time>
</trkpt>
<trkpt lat="46.044798" lon="13.482856">
<time>2021-07-18T08:41:46Z</time>
</trkpt>
<trkpt lat="46.044843" lon="13.482875">
<time>2021-07-18T08:41:47Z</time>
</trkpt>
<trkpt lat="46.044885" lon="13.482896">
<time>2021-07-18T08:41:48Z</time>
</trkpt>
<trkpt lat="46.044921" lon="13.482931">
<time>2021-07-18T08:41:49Z</time>
</trkpt>
<trkpt lat="46.044956" lon="13.482976">
<time>2021-07-18T08:41:50Z</time>
</trkpt>
<trkpt lat="46.044983" lon="13.483026">
<time>2021-07-18T08:41:51Z</time>
</trkpt>
<trkpt lat="46.045006" lon="13.48308">
<time>2021-07-18T08:41:52Z</time>
</trkpt>
<trkpt lat="46.045021" lon="13.483138">
<time>2021-07-18T08:41:53Z</time>
</trkpt>
<trkpt lat="46.045026" lon="13.4832">
<time>2021-07-18T08:41:54Z</time>
</trkpt>
<trkpt lat="46.045025" lon="13.483265">
<time>2021-07-18T08:41:55Z</time>
</trkpt>
<trkpt lat="46.04502" lon="13.483331">
<time>2021-07-18T08:41:56Z</time>
</trkpt>
<trkpt lat="46.045006" lon="13.4834">
<time>2021-07-18T08:41:57Z</time>
</trkpt>
<trkpt lat="46.044988" lon="13.483463">
<time>2021-07-18T08:41:58Z</time>
</trkpt>
<trkpt lat="46.04497" lon="13.483523">
<time>2021-07-18T08:41:59Z</time>
</trkpt>
<trkpt lat="46.044948" lon="13.483573">
<time>2021-07-18T08:42:00Z</time>
</trkpt>
<trkpt lat="46.044928" lon="13.483618">
<time>2021-07-18T08:42:01Z</time>
</trkpt>
<trkpt lat="46.044916" lon="13.483658">
<time>2021-07-18T08:42:02Z</time>
</trkpt>
<trkpt lat="46.04492" lon="13.483703">
<time>2021-07-18T08:42:03Z</time>
</trkpt>
<trkpt lat="46.044936" lon="13.483748">
<time>2021-07-18T08:42:04Z</time>
</trkpt>
<trkpt lat="46.044965" lon="13.483788">
<time>2021-07-18T08:42:05Z</time>
</trkpt>
<trkpt lat="46.045005" lon="13.483825">
<time>2021-07-18T08:42:06Z</time>
</trkpt>
<trkpt lat="46.045048" lon="13.48386">
<time>2021-07-18T08:42:07Z</time>
</trkpt>
<trkpt lat="46.045096" lon="13.4839">
<time>2021-07-18T08:42:08Z</time>
</trkpt>
<trkpt lat="46.045145" lon="13.48393">
<time>2021-07-18T08:42:09Z</time>
</trkpt>
<trkpt lat="46.0452" lon="13.48396">
<time>2021-07-18T08:42:10Z</time>
</trkpt>
<trkpt lat="46.045251" lon="13.483996">
<time>2021-07-18T08:42:11Z</time>
</trkpt>
<trkpt lat="46.045295" lon="13.484028">
<time>2021-07-18T08:42:12Z</time>
</trkpt>
<trkpt lat="46.045341" lon="13.484065">
<time>2021-07-18T08:42:13Z</time>
</trkpt>
<trkpt lat="46.045391" lon="13.484108">
<time>2021-07-18T08:42:14Z</time>
</trkpt>
<trkpt lat="46.045445" lon="13.484155">
<time>2021-07-18T08:42:15Z</time>
</trkpt>
<trkpt lat="46.0455" lon="13.4842">
<time>2021-07-18T08:42:16Z</time>
</trkpt>
<trkpt lat="46.04556" lon="13.484255">
<time>2021-07-18T08:42:17Z</time>
</trkpt>
<trkpt lat="46.045621" lon="13.484315">
<time>2021-07-18T08:42:18Z</time>
</trkpt>
<trkpt lat="46.04568" lon="13.484375">
<time>2021-07-18T08:42:19Z</time>
</trkpt>
<trkpt lat="46.045748" lon="13.48443">
<time>2021-07-18T08:42:20Z</time>
</trkpt>
<trkpt lat="46.045813" lon="13.484478">
<time>2021-07-18T08:42:21Z</time>
</trkpt>
<trkpt lat="46.04587" lon="13.484525">
<time>2021-07-18T08:42:22Z</time>
</trkpt>
<trkpt lat="46.04592" lon="13.484553">
<time>2021-07-18T08:42:23Z</time>
</trkpt>
<trkpt lat="46.04597" lon="13.484556">
<time>2021-07-18T08:42:24Z</time>
</trkpt>
<trkpt lat="46.046023" lon="13.484536">
<time>2021-07-18T08:42:25Z</time>
</trkpt>
<trkpt lat="46.046075" lon="13.484503">
<time>2021-07-18T08:42:26Z</time>
</trkpt>
<trkpt lat="46.04612" lon="13.484456">
<time>2021-07-18T08:42:27Z</time>
</trkpt>
<trkpt lat="46.046175" lon="13.484418">
<time>2021-07-18T08:42:28Z</time>
</trkpt>
<trkpt lat="46.046233" lon="13.484391">
<time>2021-07-18T08:42:29Z</time>
</trkpt>
<trkpt lat="46.046288" lon="13.484378">
<time>2021-07-18T08:42:30Z</time>
</trkpt>
<trkpt lat="46.046348" lon="13.484381">
<time>2021-07-18T08:42:31Z</time>
</trkpt>
<trkpt lat="46.046406" lon="13.484391">
<time>2021-07-18T08:42:32Z</time>
</trkpt>
<trkpt lat="46.046465" lon="13.484406">
<time>2021-07-18T08:42:33Z</time>
</trkpt>
<trkpt lat="46.046531" lon="13.484421">
<time>2021-07-18T08:42:34Z</time>
</trkpt>
<trkpt lat="46.046596" lon="13.484441">
<time>2021-07-18T08:42:35Z</time>
</trkpt>
<trkpt lat="46.046666" lon="13.484463">
<time>2021-07-18T08:42:36Z</time>
</trkpt>
<trkpt lat="46.046731" lon="13.484491">
<time>2021-07-18T08:42:37Z</time>
</trkpt>
<trkpt lat="46.046793" lon="13.484521">
<time>2021-07-18T08:42:38Z</time>
</trkpt>
<trkpt lat="46.046861" lon="13.484565">
<time>2021-07-18T08:42:39Z</time>
</trkpt>
<trkpt lat="46.046906" lon="13.484596">
<time>2021-07-18T08:42:40Z</time>
</trkpt>
<trkpt lat="46.04696" lon="13.484638">
<time>2021-07-18T08:42:41Z</time>
</trkpt>
<trkpt lat="46.047011" lon="13.484681">
<time>2021-07-18T08:42:42Z</time>
</trkpt>
<trkpt lat="46.047058" lon="13.484726">
<time>2021-07-18T08:42:43Z</time>
</trkpt>
<trkpt lat="46.047105" lon="13.484766">
<time>2021-07-18T08:42:44Z</time>
</trkpt>
<trkpt lat="46.047151" lon="13.484806">
<time>2021-07-18T08:42:45Z</time>
</trkpt>
<trkpt lat="46.047195" lon="13.484848">
<time>2021-07-18T08:42:46Z</time>
</trkpt>
<trkpt lat="46.047241" lon="13.484893">
<time>2021-07-18T08:42:47Z</time>
</trkpt>
<trkpt lat="46.047285" lon="13.484943">
<time>2021-07-18T08:42:48Z</time>
</trkpt>
<trkpt lat="46.047326" lon="13.48499">
<time>2021-07-18T08:42:49Z</time>
</trkpt>
<trkpt lat="46.047371" lon="13.485036">
<time>2021-07-18T08:42:50Z</time>
</trkpt>
<trkpt lat="46.047418" lon="13.485083">
<time>2021-07-18T08:42:51Z</time>
</trkpt>
<trkpt lat="46.047466" lon="13.485125">
<time>2021-07-18T08:42:52Z</time>
</trkpt>
<trkpt lat="46.047516" lon="13.485168">
<time>2021-07-18T08:42:53Z</time>
</trkpt>
<trkpt lat="46.047563" lon="13.485215">
<time>2021-07-18T08:42:54Z</time>
</trkpt>
<trkpt lat="46.047608" lon="13.485265">
<time>2021-07-18T08:42:55Z</time>
</trkpt>
<trkpt lat="46.047655" lon="13.485311">
<time>2021-07-18T08:42:56Z</time>
</trkpt>
<trkpt lat="46.047698" lon="13.485358">
<time>2021-07-18T08:42:57Z</time>
</trkpt>
<trkpt lat="46.04774" lon="13.4854">
<time>2021-07-18T08:42:58Z</time>
</trkpt>
<trkpt lat="46.047778" lon="13.485441">
<time>2021-07-18T08:42:59Z</time>
</trkpt>
<trkpt lat="46.047808" lon="13.485483">
<time>2021-07-18T08:43:00Z</time>
</trkpt>
<trkpt lat="46.047833" lon="13.485516">
<time>2021-07-18T08:43:01Z</time>
</trkpt>
<trkpt lat="46.04785" lon="13.485541">
<time>2021-07-18T08:43:02Z</time>
</trkpt>
<trkpt lat="46.047856" lon="13.485556">
<time>2021-07-18T08:43:03Z</time>
</trkpt>
<trkpt lat="46.047863" lon="13.485565">
<time>2021-07-18T08:43:04Z</time>
</trkpt>
<trkpt lat="46.047868" lon="13.485573">
<time>2021-07-18T08:43:05Z</time>
</trkpt>
<trkpt lat="46.047873" lon="13.485583">
<time>2021-07-18T08:43:06Z</time>
</trkpt>
<trkpt lat="46.04787" lon="13.485596">
<time>2021-07-18T08:43:07Z</time>
</trkpt>
<trkpt lat="46.047875" lon="13.485611">
<time>2021-07-18T08:43:08Z</time>
</trkpt>
<trkpt lat="46.047883" lon="13.48563">
<time>2021-07-18T08:43:09Z</time>
</trkpt>
<trkpt lat="46.047891" lon="13.485646">
<time>2021-07-18T08:43:10Z</time>
</trkpt>
<trkpt lat="46.047901" lon="13.485668">
<time>2021-07-18T08:43:11Z</time>
</trkpt>
<trkpt lat="46.047915" lon="13.485693">
<time>2021-07-18T08:43:12Z</time>
</trkpt>
<trkpt lat="46.047935" lon="13.485721">
<time>2021-07-18T08:43:13Z</time>
</trkpt>
<trkpt lat="46.047963" lon="13.485751">
<time>2021-07-18T08:43:14Z</time>
</trkpt>
<trkpt lat="46.047991" lon="13.485783">
<time>2021-07-18T08:43:15Z</time>
</trkpt>
<trkpt lat="46.04803" lon="13.485815">
<time>2021-07-18T08:43:16Z</time>
</trkpt>
<trkpt lat="46.048075" lon="13.485851">
<time>2021-07-18T08:43:17Z</time>
</trkpt>
<trkpt lat="46.04812" lon="13.48589">
<time>2021-07-18T08:43:18Z</time>
</trkpt>
<trkpt lat="46.04817" lon="13.485933">
<time>2021-07-18T08:43:19Z</time>
</trkpt>
<trkpt lat="46.048223" lon="13.485978">
<time>2021-07-18T08:43:20Z</time>
</trkpt>
<trkpt lat="46.048278" lon="13.486025">
<time>2021-07-18T08:43:21Z</time>
</trkpt>
<trkpt lat="46.048333" lon="13.486073">
<time>2021-07-18T08:43:22Z</time>
</trkpt>
<trkpt lat="46.048395" lon="13.48612">
<time>2021-07-18T08:43:23Z</time>
</trkpt>
<trkpt lat="46.048441" lon="13.486158">
<time>2021-07-18T08:43:24Z</time>
</trkpt>
<trkpt lat="46.048496" lon="13.486206">
<time>2021-07-18T08:43:25Z</time>
</trkpt>
<trkpt lat="46.048553" lon="13.486256">
<time>2021-07-18T08:43:26Z</time>
</trkpt>
<trkpt lat="46.048616" lon="13.486311">
<time>2021-07-18T08:43:27Z</time>
</trkpt>
<trkpt lat="46.04867" lon="13.486348">
<time>2021-07-18T08:43:28Z</time>
</trkpt>
<trkpt lat="46.048725" lon="13.486376">
<time>2021-07-18T08:43:29Z</time>
</trkpt>
<trkpt lat="46.048781" lon="13.486406">
<time>2021-07-18T08:43:30Z</time>
</trkpt>
<trkpt lat="46.048833" lon="13.48644">
<time>2021-07-18T08:43:31Z</time>
</trkpt>
<trkpt lat="46.048888" lon="13.486478">
<time>2021-07-18T08:43:32Z</time>
</trkpt>
<trkpt lat="46.048938" lon="13.486518">
<time>2021-07-18T08:43:33Z</time>
</trkpt>
<trkpt lat="46.04899" lon="13.48656">
<time>2021-07-18T08:43:34Z</time>
</trkpt>
<trkpt lat="46.04904" lon="13.486598">
<time>2021-07-18T08:43:35Z</time>
</trkpt>
<trkpt lat="46.04909" lon="13.486636">
<time>2021-07-18T08:43:36Z</time>
</trkpt>
<trkpt lat="46.049138" lon="13.486675">
<time>2021-07-18T08:43:37Z</time>
</trkpt>
<trkpt lat="46.049188" lon="13.48671">
<time>2021-07-18T08:43:38Z</time>
</trkpt>
<trkpt lat="46.049235" lon="13.486745">
<time>2021-07-18T08:43:39Z</time>
</trkpt>
<trkpt lat="46.04928" lon="13.486781">
<time>2021-07-18T08:43:40Z</time>
</trkpt>
<trkpt lat="46.049323" lon="13.48682">
<time>2021-07-18T08:43:41Z</time>
</trkpt>
<trkpt lat="46.049361" lon="13.486848">
<time>2021-07-18T08:43:42Z</time>
</trkpt>
<trkpt lat="46.049393" lon="13.486856">
<time>2021-07-18T08:43:43Z</time>
</trkpt>
<trkpt lat="46.049425" lon="13.486843">
<time>2021-07-18T08:43:44Z</time>
</trkpt>
<trkpt lat="46.04945" lon="13.48682">
<time>2021-07-18T08:43:45Z</time>
</trkpt>
<trkpt lat="46.049483" lon="13.48678">
<time>2021-07-18T08:43:46Z</time>
</trkpt>
<trkpt lat="46.049515" lon="13.486726">
<time>2021-07-18T08:43:47Z</time>
</trkpt>
<trkpt lat="46.049548" lon="13.48667">
<time>2021-07-18T08:43:48Z</time>
</trkpt>
<trkpt lat="46.049581" lon="13.486606">
<time>2021-07-18T08:43:49Z</time>
</trkpt>
<trkpt lat="46.049615" lon="13.486541">
<time>2021-07-18T08:43:50Z</time>
</trkpt>
<trkpt lat="46.049648" lon="13.486473">
<time>2021-07-18T08:43:51Z</time>
</trkpt>
<trkpt lat="46.049681" lon="13.486405">
<time>2021-07-18T08:43:52Z</time>
</trkpt>
<trkpt lat="46.049713" lon="13.486336">
<time>2021-07-18T08:43:53Z</time>
</trkpt>
<trkpt lat="46.049745" lon="13.486268">
<time>2021-07-18T08:43:54Z</time>
</trkpt>
<trkpt lat="46.049773" lon="13.486203">
<time>2021-07-18T08:43:55Z</time>
</trkpt>
<trkpt lat="46.049803" lon="13.486136">
<time>2021-07-18T08:43:56Z</time>
</trkpt>
<trkpt lat="46.04983" lon="13.486083">
<time>2021-07-18T08:43:57Z</time>
</trkpt>
<trkpt lat="46.049851" lon="13.486041">
<time>2021-07-18T08:43:58Z</time>
</trkpt>
<trkpt lat="46.049861" lon="13.48601">
<time>2021-07-18T08:43:59Z</time>
</trkpt>
<trkpt lat="46.049856" lon="13.486003">
<time>2021-07-18T08:44:00Z</time>
</trkpt>
<trkpt lat="46.049845" lon="13.486013">
<time>2021-07-18T08:44:01Z</time>
</trkpt>
<trkpt lat="46.04983" lon="13.486038">
<time>2021-07-18T08:44:02Z</time>
</trkpt>
<trkpt lat="46.049811" lon="13.486068">
<time>2021-07-18T08:44:03Z</time>
</trkpt>
<trkpt lat="46.04978" lon="13.486126">
<time>2021-07-18T08:44:04Z</time>
</trkpt>
<trkpt lat="46.049743" lon="13.486178">
<time>2021-07-18T08:44:05Z</time>
</trkpt>
<trkpt lat="46.049713" lon="13.48624">
<time>2021-07-18T08:44:06Z</time>
</trkpt>
<trkpt lat="46.049681" lon="13.486308">
<time>2021-07-18T08:44:07Z</time>
</trkpt>
<trkpt lat="46.04965" lon="13.48638">
<time>2021-07-18T08:44:08Z</time>
</trkpt>
<trkpt lat="46.049618" lon="13.486451">
<time>2021-07-18T08:44:09Z</time>
</trkpt>
<trkpt lat="46.049585" lon="13.486528">
<time>2021-07-18T08:44:10Z</time>
</trkpt>
<trkpt lat="46.049546" lon="13.486596">
<time>2021-07-18T08:44:11Z</time>
</trkpt>
<trkpt lat="46.049503" lon="13.486668">
<time>2021-07-18T08:44:12Z</time>
</trkpt>
<trkpt lat="46.049461" lon="13.486735">
<time>2021-07-18T08:44:13Z</time>
</trkpt>
<trkpt lat="46.04942" lon="13.486803">
<time>2021-07-18T08:44:14Z</time>
</trkpt>
<trkpt lat="46.049381" lon="13.486875">
<time>2021-07-18T08:44:15Z</time>
</trkpt>
<trkpt lat="46.049341" lon="13.486943">
<time>2021-07-18T08:44:16Z</time>
</trkpt>
<trkpt lat="46.049301" lon="13.487016">
<time>2021-07-18T08:44:17Z</time>
</trkpt>
<trkpt lat="46.04926" lon="13.487086">
<time>2021-07-18T08:44:18Z</time>
</trkpt>
<trkpt lat="46.049225" lon="13.487155">
<time>2021-07-18T08:44:19Z</time>
</trkpt>
<trkpt lat="46.049206" lon="13.487223">
<time>2021-07-18T08:44:20Z</time>
</trkpt>
<trkpt lat="46.049211" lon="13.487283">
<time>2021-07-18T08:44:21Z</time>
</trkpt>
<trkpt lat="46.04923" lon="13.487326">
<time>2021-07-18T08:44:22Z</time>
</trkpt>
<trkpt lat="46.049253" lon="13.487358">
<time>2021-07-18T08:44:23Z</time>
</trkpt>
<trkpt lat="46.04928" lon="13.487385">
<time>2021-07-18T08:44:24Z</time>
</trkpt>
<trkpt lat="46.049305" lon="13.487406">
<time>2021-07-18T08:44:25Z</time>
</trkpt>
<trkpt lat="46.049325" lon="13.487421">
<time>2021-07-18T08:44:26Z</time>
</trkpt>
<trkpt lat="46.049341" lon="13.48743">
<time>2021-07-18T08:44:27Z</time>
</trkpt>
<trkpt lat="46.049358" lon="13.487438">
<time>2021-07-18T08:44:28Z</time>
</trkpt>
<trkpt lat="46.049366" lon="13.487441">
<time>2021-07-18T08:44:29Z</time>
</trkpt>
<trkpt lat="46.049371" lon="13.487443">
<time>2021-07-18T08:44:30Z</time>
</trkpt>
<trkpt lat="46.049376" lon="13.487443">
<time>2021-07-18T08:44:31Z</time>
</trkpt>
<trkpt lat="46.049373" lon="13.487438">
<time>2021-07-18T08:44:32Z</time>
</trkpt>
<trkpt lat="46.04937" lon="13.48744">
<time>2021-07-18T08:44:33Z</time>
</trkpt>
<trkpt lat="46.049366" lon="13.487436">
<time>2021-07-18T08:44:34Z</time>
</trkpt>
<trkpt lat="46.04935" lon="13.487423">
<time>2021-07-18T08:44:35Z</time>
</trkpt>
<trkpt lat="46.04933" lon="13.487403">
<time>2021-07-18T08:44:36Z</time>
</trkpt>
<trkpt lat="46.04931" lon="13.487385">
<time>2021-07-18T08:44:37Z</time>
</trkpt>
<trkpt lat="46.049283" lon="13.48736">
<time>2021-07-18T08:44:38Z</time>
</trkpt>
<trkpt lat="46.049253" lon="13.487328">
<time>2021-07-18T08:44:39Z</time>
</trkpt>
<trkpt lat="46.049218" lon="13.4873">
<time>2021-07-18T08:44:40Z</time>
</trkpt>
<trkpt lat="46.04918" lon="13.487283">
<time>2021-07-18T08:44:41Z</time>
</trkpt>
<trkpt lat="46.049146" lon="13.48729">
<time>2021-07-18T08:44:42Z</time>
</trkpt>
<trkpt lat="46.049121" lon="13.487318">
<time>2021-07-18T08:44:43Z</time>
</trkpt>
<trkpt lat="46.049101" lon="13.487363">
<time>2021-07-18T08:44:44Z</time>
</trkpt>
<trkpt lat="46.049081" lon="13.487415">
<time>2021-07-18T08:44:45Z</time>
</trkpt>
<trkpt lat="46.04906" lon="13.487473">
<time>2021-07-18T08:44:46Z</time>
</trkpt>
<trkpt lat="46.049038" lon="13.487536">
<time>2021-07-18T08:44:47Z</time>
</trkpt>
<trkpt lat="46.049011" lon="13.487603">
<time>2021-07-18T08:44:48Z</time>
</trkpt>
<trkpt lat="46.04899" lon="13.487678">
<time>2021-07-18T08:44:49Z</time>
</trkpt>
<trkpt lat="46.04897" lon="13.487758">
<time>2021-07-18T08:44:50Z</time>
</trkpt>
<trkpt lat="46.048953" lon="13.48784">
<time>2021-07-18T08:44:51Z</time>
</trkpt>
<trkpt lat="46.04894" lon="13.487928">
<time>2021-07-18T08:44:52Z</time>
</trkpt>
<trkpt lat="46.048925" lon="13.48802">
<time>2021-07-18T08:44:53Z</time>
</trkpt>
<trkpt lat="46.048913" lon="13.48811">
<time>2021-07-18T08:44:54Z</time>
</trkpt>
<trkpt lat="46.048911" lon="13.488195">
<time>2021-07-18T08:44:55Z</time>
</trkpt>
<trkpt lat="46.048921" lon="13.48827">
<time>2021-07-18T08:44:56Z</time>
</trkpt>
<trkpt lat="46.048948" lon="13.488325">
<time>2021-07-18T08:44:57Z</time>
</trkpt>
<trkpt lat="46.048986" lon="13.488366">
<time>2021-07-18T08:44:58Z</time>
</trkpt>
<trkpt lat="46.049035" lon="13.488405">
<time>2021-07-18T08:44:59Z</time>
</trkpt>
<trkpt lat="46.049085" lon="13.488441">
<time>2021-07-18T08:45:00Z</time>
</trkpt>
<trkpt lat="46.049135" lon="13.488476">
<time>2021-07-18T08:45:01Z</time>
</trkpt>
<trkpt lat="46.049188" lon="13.488513">
<time>2021-07-18T08:45:02Z</time>
</trkpt>
<trkpt lat="46.049231" lon="13.488556">
<time>2021-07-18T08:45:03Z</time>
</trkpt>
<trkpt lat="46.049253" lon="13.488605">
<time>2021-07-18T08:45:04Z</time>
</trkpt>
<trkpt lat="46.049255" lon="13.488656">
<time>2021-07-18T08:45:05Z</time>
</trkpt>
<trkpt lat="46.049243" lon="13.48871">
<time>2021-07-18T08:45:06Z</time>
</trkpt>
<trkpt lat="46.049225" lon="13.48877">
<time>2021-07-18T08:45:07Z</time>
</trkpt>
<trkpt lat="46.049203" lon="13.48883">
<time>2021-07-18T08:45:08Z</time>
</trkpt>
<trkpt lat="46.049183" lon="13.488885">
<time>2021-07-18T08:45:09Z</time>
</trkpt>
<trkpt lat="46.04916" lon="13.488938">
<time>2021-07-18T08:45:10Z</time>
</trkpt>
<trkpt lat="46.049138" lon="13.488981">
<time>2021-07-18T08:45:11Z</time>
</trkpt>
<trkpt lat="46.049121" lon="13.489008">
<time>2021-07-18T08:45:12Z</time>
</trkpt>
<trkpt lat="46.049111" lon="13.489026">
<time>2021-07-18T08:45:13Z</time>
</trkpt>
<trkpt lat="46.049105" lon="13.489028">
<time>2021-07-18T08:45:14Z</time>
</trkpt>
<trkpt lat="46.049101" lon="13.489031">
<time>2021-07-18T08:45:15Z</time>
</trkpt>
<trkpt lat="46.049103" lon="13.489026">
<time>2021-07-18T08:45:16Z</time>
</trkpt>
<trkpt lat="46.0491" lon="13.489025">
<time>2021-07-18T08:45:17Z</time>
</trkpt>
<trkpt lat="46.049105" lon="13.48903">
<time>2021-07-18T08:45:18Z</time>
</trkpt>
<trkpt lat="46.049106" lon="13.489038">
<time>2021-07-18T08:45:19Z</time>
</trkpt>
<trkpt lat="46.049108" lon="13.489055">
<time>2021-07-18T08:45:20Z</time>
</trkpt>
<trkpt lat="46.049115" lon="13.489081">
<time>2021-07-18T08:45:21Z</time>
</trkpt>
<trkpt lat="46.04913" lon="13.489106">
<time>2021-07-18T08:45:22Z</time>
</trkpt>
<trkpt lat="46.049153" lon="13.489133">
<time>2021-07-18T08:45:23Z</time>
</trkpt>
<trkpt lat="46.049186" lon="13.489161">
<time>2021-07-18T08:45:24Z</time>
</trkpt>
<trkpt lat="46.049225" lon="13.489193">
<time>2021-07-18T08:45:25Z</time>
</trkpt>
<trkpt lat="46.04927" lon="13.489226">
<time>2021-07-18T08:45:26Z</time>
</trkpt>
<trkpt lat="46.04931" lon="13.489258">
<time>2021-07-18T08:45:27Z</time>
</trkpt>
<trkpt lat="46.04937" lon="13.489308">
<time>2021-07-18T08:45:28Z</time>
</trkpt>
<trkpt lat="46.049425" lon="13.489353">
<time>2021-07-18T08:45:29Z</time>
</trkpt>
<trkpt lat="46.049481" lon="13.4894">
<time>2021-07-18T08:45:30Z</time>
</trkpt>
<trkpt lat="46.049541" lon="13.489446">
<time>2021-07-18T08:45:31Z</time>
</trkpt>
<trkpt lat="46.0496" lon="13.489493">
<time>2021-07-18T08:45:32Z</time>
</trkpt>
<trkpt lat="46.04966" lon="13.489543">
<time>2021-07-18T08:45:33Z</time>
</trkpt>
<trkpt lat="46.049716" lon="13.489591">
<time>2021-07-18T08:45:34Z</time>
</trkpt>
<trkpt lat="46.049775" lon="13.489636">
<time>2021-07-18T08:45:35Z</time>
</trkpt>
<trkpt lat="46.049835" lon="13.489678">
<time>2021-07-18T08:45:36Z</time>
</trkpt>
<trkpt lat="46.049898" lon="13.489716">
<time>2021-07-18T08:45:37Z</time>
</trkpt>
<trkpt lat="46.049965" lon="13.489755">
<time>2021-07-18T08:45:38Z</time>
</trkpt>
<trkpt lat="46.050033" lon="13.489795">
<time>2021-07-18T08:45:39Z</time>
</trkpt>
<trkpt lat="46.05009" lon="13.48983">
<time>2021-07-18T08:45:40Z</time>
</trkpt>
<trkpt lat="46.050168" lon="13.489888">
<time>2021-07-18T08:45:41Z</time>
</trkpt>
<trkpt lat="46.050236" lon="13.489943">
<time>2021-07-18T08:45:42Z</time>
</trkpt>
<trkpt lat="46.050303" lon="13.49">
<time>2021-07-18T08:45:43Z</time>
</trkpt>
<trkpt lat="46.050366" lon="13.490056">
<time>2021-07-18T08:45:44Z</time>
</trkpt>
<trkpt lat="46.050426" lon="13.490108">
<time>2021-07-18T08:45:45Z</time>
</trkpt>
<trkpt lat="46.05049" lon="13.49016">
<time>2021-07-18T08:45:46Z</time>
</trkpt>
<trkpt lat="46.050538" lon="13.490203">
<time>2021-07-18T08:45:47Z</time>
</trkpt>
<trkpt lat="46.050595" lon="13.490263">
<time>2021-07-18T08:45:48Z</time>
</trkpt>
<trkpt lat="46.050648" lon="13.49033">
<time>2021-07-18T08:45:49Z</time>
</trkpt>
<trkpt lat="46.050696" lon="13.490401">
<time>2021-07-18T08:45:50Z</time>
</trkpt>
<trkpt lat="46.05074" lon="13.490483">
<time>2021-07-18T08:45:51Z</time>
</trkpt>
<trkpt lat="46.050785" lon="13.490583">
<time>2021-07-18T08:45:52Z</time>
</trkpt>
<trkpt lat="46.050815" lon="13.490648">
<time>2021-07-18T08:45:53Z</time>
</trkpt>
<trkpt lat="46.050853" lon="13.490753">
<time>2021-07-18T08:45:54Z</time>
</trkpt>
<trkpt lat="46.050871" lon="13.49082">
<time>2021-07-18T08:45:55Z</time>
</trkpt>
<trkpt lat="46.050891" lon="13.490906">
<time>2021-07-18T08:45:56Z</time>
</trkpt>
<trkpt lat="46.050905" lon="13.490995">
<time>2021-07-18T08:45:57Z</time>
</trkpt>
<trkpt lat="46.050896" lon="13.491106">
<time>2021-07-18T08:45:58Z</time>
</trkpt>
<trkpt lat="46.050888" lon="13.491205">
<time>2021-07-18T08:45:59Z</time>
</trkpt>
<trkpt lat="46.050866" lon="13.491301">
<time>2021-07-18T08:46:00Z</time>
</trkpt>
<trkpt lat="46.050838" lon="13.491405">
<time>2021-07-18T08:46:01Z</time>
</trkpt>
<trkpt lat="46.050803" lon="13.491481">
<time>2021-07-18T08:46:02Z</time>
</trkpt>
<trkpt lat="46.050756" lon="13.491591">
<time>2021-07-18T08:46:03Z</time>
</trkpt>
<trkpt lat="46.050711" lon="13.491681">
<time>2021-07-18T08:46:04Z</time>
</trkpt>
<trkpt lat="46.050666" lon="13.491766">
<time>2021-07-18T08:46:05Z</time>
</trkpt>
<trkpt lat="46.050626" lon="13.49184">
<time>2021-07-18T08:46:06Z</time>
</trkpt>
<trkpt lat="46.050583" lon="13.491931">
<time>2021-07-18T08:46:07Z</time>
</trkpt>
<trkpt lat="46.050531" lon="13.49204">
<time>2021-07-18T08:46:08Z</time>
</trkpt>
<trkpt lat="46.05049" lon="13.49213">
<time>2021-07-18T08:46:09Z</time>
</trkpt>
<trkpt lat="46.050448" lon="13.492223">
<time>2021-07-18T08:46:10Z</time>
</trkpt>
<trkpt lat="46.050406" lon="13.492313">
<time>2021-07-18T08:46:11Z</time>
</trkpt>
<trkpt lat="46.050375" lon="13.492385">
<time>2021-07-18T08:46:12Z</time>
</trkpt>
<trkpt lat="46.050333" lon="13.492488">
<time>2021-07-18T08:46:13Z</time>
</trkpt>
<trkpt lat="46.050316" lon="13.492565">
<time>2021-07-18T08:46:14Z</time>
</trkpt>
<trkpt lat="46.050316" lon="13.492636">
<time>2021-07-18T08:46:15Z</time>
</trkpt>
<trkpt lat="46.05033" lon="13.492698">
<time>2021-07-18T08:46:16Z</time>
</trkpt>
<trkpt lat="46.05036" lon="13.49276">
<time>2021-07-18T08:46:17Z</time>
</trkpt>
<trkpt lat="46.050393" lon="13.492808">
<time>2021-07-18T08:46:18Z</time>
</trkpt>
<trkpt lat="46.050441" lon="13.492881">
<time>2021-07-18T08:46:19Z</time>
</trkpt>
<trkpt lat="46.050475" lon="13.492931">
<time>2021-07-18T08:46:20Z</time>
</trkpt>
<trkpt lat="46.050516" lon="13.492998">
<time>2021-07-18T08:46:21Z</time>
</trkpt>
<trkpt lat="46.050553" lon="13.493073">
<time>2021-07-18T08:46:22Z</time>
</trkpt>
<trkpt lat="46.050585" lon="13.493151">
<time>2021-07-18T08:46:23Z</time>
</trkpt>
<trkpt lat="46.050615" lon="13.49323">
<time>2021-07-18T08:46:24Z</time>
</trkpt>
<trkpt lat="46.050643" lon="13.493306">
<time>2021-07-18T08:46:25Z</time>
</trkpt>
<trkpt lat="46.050673" lon="13.493378">
<time>2021-07-18T08:46:26Z</time>
</trkpt>
<trkpt lat="46.050703" lon="13.493433">
<time>2021-07-18T08:46:27Z</time>
</trkpt>
<trkpt lat="46.050731" lon="13.493466">
<time>2021-07-18T08:46:28Z</time>
</trkpt>
<trkpt lat="46.050755" lon="13.493491">
<time>2021-07-18T08:46:29Z</time>
</trkpt>
<trkpt lat="46.050771" lon="13.493521">
<time>2021-07-18T08:46:30Z</time>
</trkpt>
<trkpt lat="46.050776" lon="13.49356">
<time>2021-07-18T08:46:31Z</time>
</trkpt>
<trkpt lat="46.050775" lon="13.49361">
<time>2021-07-18T08:46:32Z</time>
</trkpt>
<trkpt lat="46.050763" lon="13.493666">
<time>2021-07-18T08:46:33Z</time>
</trkpt>
<trkpt lat="46.050743" lon="13.493731">
<time>2021-07-18T08:46:34Z</time>
</trkpt>
<trkpt lat="46.050721" lon="13.4938">
<time>2021-07-18T08:46:35Z</time>
</trkpt>
<trkpt lat="46.050695" lon="13.493871">
<time>2021-07-18T08:46:36Z</time>
</trkpt>
<trkpt lat="46.05067" lon="13.493945">
<time>2021-07-18T08:46:37Z</time>
</trkpt>
<trkpt lat="46.050648" lon="13.494025">
<time>2021-07-18T08:46:38Z</time>
</trkpt>
<trkpt lat="46.050638" lon="13.49411">
<time>2021-07-18T08:46:39Z</time>
</trkpt>
<trkpt lat="46.050645" lon="13.494196">
<time>2021-07-18T08:46:40Z</time>
</trkpt>
<trkpt lat="46.050663" lon="13.494281">
<time>2021-07-18T08:46:41Z</time>
</trkpt>
<trkpt lat="46.050686" lon="13.494366">
<time>2021-07-18T08:46:42Z</time>
</trkpt>
<trkpt lat="46.05071" lon="13.494451">
<time>2021-07-18T08:46:43Z</time>
</trkpt>
<trkpt lat="46.050736" lon="13.494535">
<time>2021-07-18T08:46:44Z</time>
</trkpt>
<trkpt lat="46.050765" lon="13.494618">
<time>2021-07-18T08:46:45Z</time>
</trkpt>
<trkpt lat="46.050796" lon="13.494698">
<time>2021-07-18T08:46:46Z</time>
</trkpt>
<trkpt lat="46.050835" lon="13.494778">
<time>2021-07-18T08:46:47Z</time>
</trkpt>
<trkpt lat="46.050873" lon="13.494858">
<time>2021-07-18T08:46:48Z</time>
</trkpt>
<trkpt lat="46.050915" lon="13.494938">
<time>2021-07-18T08:46:49Z</time>
</trkpt>
<trkpt lat="46.050955" lon="13.495016">
<time>2021-07-18T08:46:50Z</time>
</trkpt>
<trkpt lat="46.050998" lon="13.49508">
<time>2021-07-18T08:46:51Z</time>
</trkpt>
<trkpt lat="46.05105" lon="13.495128">
<time>2021-07-18T08:46:52Z</time>
</trkpt>
<trkpt lat="46.051108" lon="13.495166">
<time>2021-07-18T08:46:53Z</time>
</trkpt>
<trkpt lat="46.051166" lon="13.495201">
<time>2021-07-18T08:46:54Z</time>
</trkpt>
<trkpt lat="46.051228" lon="13.495238">
<time>2021-07-18T08:46:55Z</time>
</trkpt>
<trkpt lat="46.051288" lon="13.495276">
<time>2021-07-18T08:46:56Z</time>
</trkpt>
<trkpt lat="46.051348" lon="13.495315">
<time>2021-07-18T08:46:57Z</time>
</trkpt>
<trkpt lat="46.051406" lon="13.495356">
<time>2021-07-18T08:46:58Z</time>
</trkpt>
<trkpt lat="46.051471" lon="13.495398">
<time>2021-07-18T08:46:59Z</time>
</trkpt>
<trkpt lat="46.051531" lon="13.49544">
<time>2021-07-18T08:47:00Z</time>
</trkpt>
<trkpt lat="46.051588" lon="13.495483">
<time>2021-07-18T08:47:01Z</time>
</trkpt>
<trkpt lat="46.05164" lon="13.495528">
<time>2021-07-18T08:47:02Z</time>
</trkpt>
<trkpt lat="46.051693" lon="13.495578">
<time>2021-07-18T08:47:03Z</time>
</trkpt>
<trkpt lat="46.051743" lon="13.495628">
<time>2021-07-18T08:47:04Z</time>
</trkpt>
<trkpt lat="46.051795" lon="13.495676">
<time>2021-07-18T08:47:05Z</time>
</trkpt>
<trkpt lat="46.051848" lon="13.495723">
<time>2021-07-18T08:47:06Z</time>
</trkpt>
<trkpt lat="46.051903" lon="13.495768">
<time>2021-07-18T08:47:07Z</time>
</trkpt>
<trkpt lat="46.05196" lon="13.49581">
<time>2021-07-18T08:47:08Z</time>
</trkpt>
<trkpt lat="46.052031" lon="13.495863">
<time>2021-07-18T08:47:09Z</time>
</trkpt>
<trkpt lat="46.052095" lon="13.495905">
<time>2021-07-18T08:47:10Z</time>
</trkpt>
<trkpt lat="46.052156" lon="13.495943">
<time>2021-07-18T08:47:11Z</time>
</trkpt>
<trkpt lat="46.052215" lon="13.49598">
<time>2021-07-18T08:47:12Z</time>
</trkpt>
<trkpt lat="46.052263" lon="13.496001">
<time>2021-07-18T08:47:13Z</time>
</trkpt>
<trkpt lat="46.052326" lon="13.496023">
<time>2021-07-18T08:47:14Z</time>
</trkpt>
<trkpt lat="46.052363" lon="13.49603">
<time>2021-07-18T08:47:15Z</time>
</trkpt>
<trkpt lat="46.052385" lon="13.496038">
<time>2021-07-18T08:47:16Z</time>
</trkpt>
<trkpt lat="46.052391" lon="13.496046">
<time>2021-07-18T08:47:17Z</time>
</trkpt>
<trkpt lat="46.052403" lon="13.496065">
<time>2021-07-18T08:47:18Z</time>
</trkpt>
<trkpt lat="46.05241" lon="13.496093">
<time>2021-07-18T08:47:19Z</time>
</trkpt>
<trkpt lat="46.052406" lon="13.496125">
<time>2021-07-18T08:47:20Z</time>
</trkpt>
<trkpt lat="46.052396" lon="13.49616">
<time>2021-07-18T08:47:21Z</time>
</trkpt>
<trkpt lat="46.05238" lon="13.496196">
<time>2021-07-18T08:47:22Z</time>
</trkpt>
<trkpt lat="46.052363" lon="13.496231">
<time>2021-07-18T08:47:23Z</time>
</trkpt>
<trkpt lat="46.052353" lon="13.496261">
<time>2021-07-18T08:47:24Z</time>
</trkpt>
<trkpt lat="46.052351" lon="13.496276">
<time>2021-07-18T08:47:25Z</time>
</trkpt>
<trkpt lat="46.052355" lon="13.496276">
<time>2021-07-18T08:47:26Z</time>
</trkpt>
<trkpt lat="46.052363" lon="13.496265">
<time>2021-07-18T08:47:27Z</time>
</trkpt>
<trkpt lat="46.052376" lon="13.49625">
<time>2021-07-18T08:47:28Z</time>
</trkpt>
<trkpt lat="46.052396" lon="13.496236">
<time>2021-07-18T08:47:29Z</time>
</trkpt>
<trkpt lat="46.052421" lon="13.496235">
<time>2021-07-18T08:47:30Z</time>
</trkpt>
<trkpt lat="46.052451" lon="13.496243">
<time>2021-07-18T08:47:31Z</time>
</trkpt>
<trkpt lat="46.05248" lon="13.496255">
<time>2021-07-18T08:47:32Z</time>
</trkpt>
<trkpt lat="46.052513" lon="13.49627">
<time>2021-07-18T08:47:33Z</time>
</trkpt>
<trkpt lat="46.05255" lon="13.49629">
<time>2021-07-18T08:47:34Z</time>
</trkpt>
<trkpt lat="46.052591" lon="13.496316">
<time>2021-07-18T08:47:35Z</time>
</trkpt>
<trkpt lat="46.052633" lon="13.496341">
<time>2021-07-18T08:47:36Z</time>
</trkpt>
<trkpt lat="46.052683" lon="13.49637">
<time>2021-07-18T08:47:37Z</time>
</trkpt>
<trkpt lat="46.052733" lon="13.496385">
<time>2021-07-18T08:47:38Z</time>
</trkpt>
<trkpt lat="46.052788" lon="13.496393">
<time>2021-07-18T08:47:39Z</time>
</trkpt>
<trkpt lat="46.052836" lon="13.496408">
<time>2021-07-18T08:47:40Z</time>
</trkpt>
<trkpt lat="46.052881" lon="13.496423">
<time>2021-07-18T08:47:41Z</time>
</trkpt>
<trkpt lat="46.052926" lon="13.496443">
<time>2021-07-18T08:47:42Z</time>
</trkpt>
<trkpt lat="46.052973" lon="13.49647">
<time>2021-07-18T08:47:43Z</time>
</trkpt>
<trkpt lat="46.053023" lon="13.4965">
<time>2021-07-18T08:47:44Z</time>
</trkpt>
<trkpt lat="46.053068" lon="13.496541">
<time>2021-07-18T08:47:45Z</time>
</trkpt>
<trkpt lat="46.053096" lon="13.496595">
<time>2021-07-18T08:47:46Z</time>
</trkpt>
<trkpt lat="46.05311" lon="13.496653">
<time>2021-07-18T08:47:47Z</time>
</trkpt>
<trkpt lat="46.053116" lon="13.49672">
<time>2021-07-18T08:47:48Z</time>
</trkpt>
<trkpt lat="46.053116" lon="13.496786">
<time>2021-07-18T08:47:49Z</time>
</trkpt>
<trkpt lat="46.053108" lon="13.496848">
<time>2021-07-18T08:47:50Z</time>
</trkpt>
<trkpt lat="46.053105" lon="13.496895">
<time>2021-07-18T08:47:51Z</time>
</trkpt>
<trkpt lat="46.053103" lon="13.496926">
<time>2021-07-18T08:47:52Z</time>
</trkpt>
<trkpt lat="46.053105" lon="13.496943">
<time>2021-07-18T08:47:53Z</time>
</trkpt>
<trkpt lat="46.053116" lon="13.496938">
<time>2021-07-18T08:47:54Z</time>
</trkpt>
<trkpt lat="46.053125" lon="13.496918">
<time>2021-07-18T08:47:55Z</time>
</trkpt>
<trkpt lat="46.05313" lon="13.496885">
<time>2021-07-18T08:47:56Z</time>
</trkpt>
<trkpt lat="46.053126" lon="13.496835">
<time>2021-07-18T08:47:57Z</time>
</trkpt>
<trkpt lat="46.053116" lon="13.496775">
<time>2021-07-18T08:47:58Z</time>
</trkpt>
<trkpt lat="46.053106" lon="13.496708">
<time>2021-07-18T08:47:59Z</time>
</trkpt>
<trkpt lat="46.053106" lon="13.496643">
<time>2021-07-18T08:48:00Z</time>
</trkpt>
<trkpt lat="46.053121" lon="13.496591">
<time>2021-07-18T08:48:01Z</time>
</trkpt>
<trkpt lat="46.05315" lon="13.496556">
<time>2021-07-18T08:48:02Z</time>
</trkpt>
<trkpt lat="46.053191" lon="13.496536">
<time>2021-07-18T08:48:03Z</time>
</trkpt>
<trkpt lat="46.05324" lon="13.496523">
<time>2021-07-18T08:48:04Z</time>
</trkpt>
<trkpt lat="46.053291" lon="13.496513">
<time>2021-07-18T08:48:05Z</time>
</trkpt>
<trkpt lat="46.053346" lon="13.496506">
<time>2021-07-18T08:48:06Z</time>
</trkpt>
<trkpt lat="46.053398" lon="13.496496">
<time>2021-07-18T08:48:07Z</time>
</trkpt>
<trkpt lat="46.053448" lon="13.496493">
<time>2021-07-18T08:48:08Z</time>
</trkpt>
<trkpt lat="46.053495" lon="13.496498">
<time>2021-07-18T08:48:09Z</time>
</trkpt>
<trkpt lat="46.053535" lon="13.496501">
<time>2021-07-18T08:48:10Z</time>
</trkpt>
<trkpt lat="46.05357" lon="13.496508">
<time>2021-07-18T08:48:11Z</time>
</trkpt>
<trkpt lat="46.053596" lon="13.49651">
<time>2021-07-18T08:48:12Z</time>
</trkpt>
<trkpt lat="46.053626" lon="13.496505">
<time>2021-07-18T08:48:13Z</time>
</trkpt>
<trkpt lat="46.053656" lon="13.496498">
<time>2021-07-18T08:48:14Z</time>
</trkpt>
<trkpt lat="46.053688" lon="13.496495">
<time>2021-07-18T08:48:15Z</time>
</trkpt>
<trkpt lat="46.053721" lon="13.496493">
<time>2021-07-18T08:48:16Z</time>
</trkpt>
<trkpt lat="46.053758" lon="13.496491">
<time>2021-07-18T08:48:17Z</time>
</trkpt>
<trkpt lat="46.053798" lon="13.496491">
<time>2021-07-18T08:48:18Z</time>
</trkpt>
<trkpt lat="46.053843" lon="13.496491">
<time>2021-07-18T08:48:19Z</time>
</trkpt>
<trkpt lat="46.053891" lon="13.49649">
<time>2021-07-18T08:48:20Z</time>
</trkpt>
<trkpt lat="46.053943" lon="13.496488">
<time>2021-07-18T08:48:21Z</time>
</trkpt>
<trkpt lat="46.053996" lon="13.496486">
<time>2021-07-18T08:48:22Z</time>
</trkpt>
<trkpt lat="46.054048" lon="13.496486">
<time>2021-07-18T08:48:23Z</time>
</trkpt>
<trkpt lat="46.054105" lon="13.496488">
<time>2021-07-18T08:48:24Z</time>
</trkpt>
<trkpt lat="46.054161" lon="13.49649">
<time>2021-07-18T08:48:25Z</time>
</trkpt>
<trkpt lat="46.054218" lon="13.496488">
<time>2021-07-18T08:48:26Z</time>
</trkpt>
<trkpt lat="46.054273" lon="13.49649">
<time>2021-07-18T08:48:27Z</time>
</trkpt>
<trkpt lat="46.054323" lon="13.496495">
<time>2021-07-18T08:48:28Z</time>
</trkpt>
<trkpt lat="46.054363" lon="13.49651">
<time>2021-07-18T08:48:29Z</time>
</trkpt>
<trkpt lat="46.0544" lon="13.496526">
<time>2021-07-18T08:48:30Z</time>
</trkpt>
<trkpt lat="46.054431" lon="13.496543">
<time>2021-07-18T08:48:31Z</time>
</trkpt>
<trkpt lat="46.054466" lon="13.496558">
<time>2021-07-18T08:48:32Z</time>
</trkpt>
<trkpt lat="46.054503" lon="13.496573">
<time>2021-07-18T08:48:33Z</time>
</trkpt>
<trkpt lat="46.054541" lon="13.49659">
<time>2021-07-18T08:48:34Z</time>
</trkpt>
<trkpt lat="46.054578" lon="13.496601">
<time>2021-07-18T08:48:35Z</time>
</trkpt>
<trkpt lat="46.054616" lon="13.49661">
<time>2021-07-18T08:48:36Z</time>
</trkpt>
<trkpt lat="46.054653" lon="13.496618">
<time>2021-07-18T08:48:37Z</time>
</trkpt>
<trkpt lat="46.054685" lon="13.49663">
<time>2021-07-18T08:48:38Z</time>
</trkpt>
<trkpt lat="46.054716" lon="13.496641">
<time>2021-07-18T08:48:39Z</time>
</trkpt>
<trkpt lat="46.054746" lon="13.496655">
<time>2021-07-18T08:48:40Z</time>
</trkpt>
<trkpt lat="46.054771" lon="13.496666">
<time>2021-07-18T08:48:41Z</time>
</trkpt>
<trkpt lat="46.054788" lon="13.496675">
<time>2021-07-18T08:48:42Z</time>
</trkpt>
<trkpt lat="46.054795" lon="13.496683">
<time>2021-07-18T08:48:43Z</time>
</trkpt>
<trkpt lat="46.054785" lon="13.496681">
<time>2021-07-18T08:48:44Z</time>
</trkpt>
<trkpt lat="46.054755" lon="13.496676">
<time>2021-07-18T08:48:45Z</time>
</trkpt>
<trkpt lat="46.054725" lon="13.49667">
<time>2021-07-18T08:48:46Z</time>
</trkpt>
<trkpt lat="46.054693" lon="13.496665">
<time>2021-07-18T08:48:47Z</time>
</trkpt>
<trkpt lat="46.054655" lon="13.496656">
<time>2021-07-18T08:48:48Z</time>
</trkpt>
<trkpt lat="46.054621" lon="13.496648">
<time>2021-07-18T08:48:49Z</time>
</trkpt>
<trkpt lat="46.054583" lon="13.496635">
<time>2021-07-18T08:48:50Z</time>
</trkpt>
<trkpt lat="46.054546" lon="13.496623">
<time>2021-07-18T08:48:51Z</time>
</trkpt>
<trkpt lat="46.054508" lon="13.496616">
<time>2021-07-18T08:48:52Z</time>
</trkpt>
<trkpt lat="46.054471" lon="13.496608">
<time>2021-07-18T08:48:53Z</time>
</trkpt>
<trkpt lat="46.05444" lon="13.496598">
<time>2021-07-18T08:48:54Z</time>
</trkpt>
<trkpt lat="46.05441" lon="13.496585">
<time>2021-07-18T08:48:55Z</time>
</trkpt>
<trkpt lat="46.05438" lon="13.496566">
<time>2021-07-18T08:48:56Z</time>
</trkpt>
<trkpt lat="46.054353" lon="13.49654">
<time>2021-07-18T08:48:57Z</time>
</trkpt>
<trkpt lat="46.054328" lon="13.496501">
<time>2021-07-18T08:48:58Z</time>
</trkpt>
<trkpt lat="46.054306" lon="13.496455">
<time>2021-07-18T08:48:59Z</time>
</trkpt>
<trkpt lat="46.054281" lon="13.496405">
<time>2021-07-18T08:49:00Z</time>
</trkpt>
<trkpt lat="46.054256" lon="13.496353">
<time>2021-07-18T08:49:01Z</time>
</trkpt>
<trkpt lat="46.05423" lon="13.496303">
<time>2021-07-18T08:49:02Z</time>
</trkpt>
<trkpt lat="46.054198" lon="13.496253">
<time>2021-07-18T08:49:03Z</time>
</trkpt>
<trkpt lat="46.054163" lon="13.496198">
<time>2021-07-18T08:49:04Z</time>
</trkpt>
<trkpt lat="46.054123" lon="13.496141">
<time>2021-07-18T08:49:05Z</time>
</trkpt>
<trkpt lat="46.05408" lon="13.496083">
<time>2021-07-18T08:49:06Z</time>
</trkpt>
<trkpt lat="46.054036" lon="13.496023">
<time>2021-07-18T08:49:07Z</time>
</trkpt>
<trkpt lat="46.05399" lon="13.49596">
<time>2021-07-18T08:49:08Z</time>
</trkpt>
<trkpt lat="46.053943" lon="13.495898">
<time>2021-07-18T08:49:09Z</time>
</trkpt>
<trkpt lat="46.053895" lon="13.495833">
<time>2021-07-18T08:49:10Z</time>
</trkpt>
<trkpt lat="46.053845" lon="13.495766">
<time>2021-07-18T08:49:11Z</time>
</trkpt>
<trkpt lat="46.053795" lon="13.495695">
<time>2021-07-18T08:49:12Z</time>
</trkpt>
<trkpt lat="46.053746" lon="13.49562">
<time>2021-07-18T08:49:13Z</time>
</trkpt>
<trkpt lat="46.053698" lon="13.495543">
<time>2021-07-18T08:49:14Z</time>
</trkpt>
<trkpt lat="46.053655" lon="13.495468">
<time>2021-07-18T08:49:15Z</time>
</trkpt>
<trkpt lat="46.053613" lon="13.495393">
<time>2021-07-18T08:49:16Z</time>
</trkpt>
<trkpt lat="46.05357" lon="13.495313">
<time>2021-07-18T08:49:17Z</time>
</trkpt>
<trkpt lat="46.053531" lon="13.495231">
<time>2021-07-18T08:49:18Z</time>
</trkpt>
<trkpt lat="46.053496" lon="13.495158">
<time>2021-07-18T08:49:19Z</time>
</trkpt>
<trkpt lat="46.053465" lon="13.49509">
<time>2021-07-18T08:49:20Z</time>
</trkpt>
<trkpt lat="46.053435" lon="13.495021">
<time>2021-07-18T08:49:21Z</time>
</trkpt>
<trkpt lat="46.053413" lon="13.49496">
<time>2021-07-18T08:49:22Z</time>
</trkpt>
<trkpt lat="46.0534" lon="13.49491">
<time>2021-07-18T08:49:23Z</time>
</trkpt>
<trkpt lat="46.053401" lon="13.494876">
<time>2021-07-18T08:49:24Z</time>
</trkpt>
<trkpt lat="46.053411" lon="13.494851">
<time>2021-07-18T08:49:25Z</time>
</trkpt>
<trkpt lat="46.05342" lon="13.49484">
<time>2021-07-18T08:49:26Z</time>
</trkpt>
<trkpt lat="46.053425" lon="13.494833">
<time>2021-07-18T08:49:27Z</time>
</trkpt>
<trkpt lat="46.053433" lon="13.494835">
<time>2021-07-18T08:49:28Z</time>
</trkpt>
<trkpt lat="46.05344" lon="13.49483">
<time>2021-07-18T08:49:29Z</time>
</trkpt>
<trkpt lat="46.053448" lon="13.494828">
<time>2021-07-18T08:49:30Z</time>
</trkpt>
<trkpt lat="46.053461" lon="13.494826">
<time>2021-07-18T08:49:31Z</time>
</trkpt>
<trkpt lat="46.053483" lon="13.494816">
<time>2021-07-18T08:49:32Z</time>
</trkpt>
<trkpt lat="46.053515" lon="13.494791">
<time>2021-07-18T08:49:33Z</time>
</trkpt>
<trkpt lat="46.05355" lon="13.494758">
<time>2021-07-18T08:49:34Z</time>
</trkpt>
<trkpt lat="46.05359" lon="13.494723">
<time>2021-07-18T08:49:35Z</time>
</trkpt>
<trkpt lat="46.053628" lon="13.494681">
<time>2021-07-18T08:49:36Z</time>
</trkpt>
<trkpt lat="46.053663" lon="13.494635">
<time>2021-07-18T08:49:37Z</time>
</trkpt>
<trkpt lat="46.053695" lon="13.494585">
<time>2021-07-18T08:49:38Z</time>
</trkpt>
<trkpt lat="46.05372" lon="13.494526">
<time>2021-07-18T08:49:39Z</time>
</trkpt>
<trkpt lat="46.053741" lon="13.494463">
<time>2021-07-18T08:49:40Z</time>
</trkpt>
<trkpt lat="46.053761" lon="13.494396">
<time>2021-07-18T08:49:41Z</time>
</trkpt>
<trkpt lat="46.05378" lon="13.494326">
<time>2021-07-18T08:49:42Z</time>
</trkpt>
<trkpt lat="46.053801" lon="13.494255">
<time>2021-07-18T08:49:43Z</time>
</trkpt>
<trkpt lat="46.053826" lon="13.494185">
<time>2021-07-18T08:49:44Z</time>
</trkpt>
<trkpt lat="46.05386" lon="13.49412">
<time>2021-07-18T08:49:45Z</time>
</trkpt>
<trkpt lat="46.053898" lon="13.494056">
<time>2021-07-18T08:49:46Z</time>
</trkpt>
<trkpt lat="46.05394" lon="13.493998">
<time>2021-07-18T08:49:47Z</time>
</trkpt>
<trkpt lat="46.053985" lon="13.493941">
<time>2021-07-18T08:49:48Z</time>
</trkpt>
<trkpt lat="46.054031" lon="13.493888">
<time>2021-07-18T08:49:49Z</time>
</trkpt>
<trkpt lat="46.054076" lon="13.493835">
<time>2021-07-18T08:49:50Z</time>
</trkpt>
<trkpt lat="46.054123" lon="13.493778">
<time>2021-07-18T08:49:51Z</time>
</trkpt>
<trkpt lat="46.05417" lon="13.493726">
<time>2021-07-18T08:49:52Z</time>
</trkpt>
<trkpt lat="46.054218" lon="13.493673">
<time>2021-07-18T08:49:53Z</time>
</trkpt>
<trkpt lat="46.054265" lon="13.49362">
<time>2021-07-18T08:49:54Z</time>
</trkpt>
<trkpt lat="46.054315" lon="13.493566">
<time>2021-07-18T08:49:55Z</time>
</trkpt>
<trkpt lat="46.054361" lon="13.49351">
<time>2021-07-18T08:49:56Z</time>
</trkpt>
<trkpt lat="46.054408" lon="13.493453">
<time>2021-07-18T08:49:57Z</time>
</trkpt>
<trkpt lat="46.054456" lon="13.493393">
<time>2021-07-18T08:49:58Z</time>
</trkpt>
<trkpt lat="46.054505" lon="13.49334">
<time>2021-07-18T08:49:59Z</time>
</trkpt>
<trkpt lat="46.054551" lon="13.493285">
<time>2021-07-18T08:50:00Z</time>
</trkpt>
<trkpt lat="46.0546" lon="13.493231">
<time>2021-07-18T08:50:01Z</time>
</trkpt>
<trkpt lat="46.054646" lon="13.493178">
<time>2021-07-18T08:50:02Z</time>
</trkpt>
<trkpt lat="46.054691" lon="13.493133">
<time>2021-07-18T08:50:03Z</time>
</trkpt>
<trkpt lat="46.054736" lon="13.49311">
<time>2021-07-18T08:50:04Z</time>
</trkpt>
<trkpt lat="46.054778" lon="13.493118">
<time>2021-07-18T08:50:05Z</time>
</trkpt>
<trkpt lat="46.054816" lon="13.493148">
<time>2021-07-18T08:50:06Z</time>
</trkpt>
<trkpt lat="46.054856" lon="13.49319">
<time>2021-07-18T08:50:07Z</time>
</trkpt>
<trkpt lat="46.054896" lon="13.493233">
<time>2021-07-18T08:50:08Z</time>
</trkpt>
<trkpt lat="46.054935" lon="13.493278">
<time>2021-07-18T08:50:09Z</time>
</trkpt>
<trkpt lat="46.054976" lon="13.493323">
<time>2021-07-18T08:50:10Z</time>
</trkpt>
<trkpt lat="46.05502" lon="13.493376">
<time>2021-07-18T08:50:11Z</time>
</trkpt>
<trkpt lat="46.05506" lon="13.493428">
<time>2021-07-18T08:50:12Z</time>
</trkpt>
<trkpt lat="46.055106" lon="13.493476">
<time>2021-07-18T08:50:13Z</time>
</trkpt>
<trkpt lat="46.055146" lon="13.493531">
<time>2021-07-18T08:50:14Z</time>
</trkpt>
<trkpt lat="46.055191" lon="13.493585">
<time>2021-07-18T08:50:15Z</time>
</trkpt>
<trkpt lat="46.05523" lon="13.493638">
<time>2021-07-18T08:50:16Z</time>
</trkpt>
<trkpt lat="46.055275" lon="13.493693">
<time>2021-07-18T08:50:17Z</time>
</trkpt>
<trkpt lat="46.055321" lon="13.493743">
<time>2021-07-18T08:50:18Z</time>
</trkpt>
<trkpt lat="46.05537" lon="13.493791">
<time>2021-07-18T08:50:19Z</time>
</trkpt>
<trkpt lat="46.055418" lon="13.493836">
<time>2021-07-18T08:50:20Z</time>
</trkpt>
<trkpt lat="46.055465" lon="13.493876">
<time>2021-07-18T08:50:21Z</time>
</trkpt>
<trkpt lat="46.055511" lon="13.493921">
<time>2021-07-18T08:50:22Z</time>
</trkpt>
<trkpt lat="46.055555" lon="13.493966">
<time>2021-07-18T08:50:23Z</time>
</trkpt>
<trkpt lat="46.055596" lon="13.494015">
<time>2021-07-18T08:50:24Z</time>
</trkpt>
<trkpt lat="46.055631" lon="13.494068">
<time>2021-07-18T08:50:25Z</time>
</trkpt>
<trkpt lat="46.055655" lon="13.494116">
<time>2021-07-18T08:50:26Z</time>
</trkpt>
<trkpt lat="46.05567" lon="13.494153">
<time>2021-07-18T08:50:27Z</time>
</trkpt>
<trkpt lat="46.055683" lon="13.494186">
<time>2021-07-18T08:50:28Z</time>
</trkpt>
<trkpt lat="46.055693" lon="13.49422">
<time>2021-07-18T08:50:29Z</time>
</trkpt>
<trkpt lat="46.055701" lon="13.494255">
<time>2021-07-18T08:50:30Z</time>
</trkpt>
<trkpt lat="46.05571" lon="13.494288">
<time>2021-07-18T08:50:31Z</time>
</trkpt>
<trkpt lat="46.055726" lon="13.494326">
<time>2021-07-18T08:50:32Z</time>
</trkpt>
<trkpt lat="46.055745" lon="13.494368">
<time>2021-07-18T08:50:33Z</time>
</trkpt>
<trkpt lat="46.055768" lon="13.494415">
<time>2021-07-18T08:50:34Z</time>
</trkpt>
<trkpt lat="46.05579" lon="13.494465">
<time>2021-07-18T08:50:35Z</time>
</trkpt>
<trkpt lat="46.055815" lon="13.494513">
<time>2021-07-18T08:50:36Z</time>
</trkpt>
<trkpt lat="46.055838" lon="13.494561">
<time>2021-07-18T08:50:37Z</time>
</trkpt>
<trkpt lat="46.055861" lon="13.49461">
<time>2021-07-18T08:50:38Z</time>
</trkpt>
<trkpt lat="46.055886" lon="13.494653">
<time>2021-07-18T08:50:39Z</time>
</trkpt>
<trkpt lat="46.055906" lon="13.494685">
<time>2021-07-18T08:50:40Z</time>
</trkpt>
<trkpt lat="46.055923" lon="13.4947">
<time>2021-07-18T08:50:41Z</time>
</trkpt>
<trkpt lat="46.05593" lon="13.494703">
<time>2021-07-18T08:50:42Z</time>
</trkpt>
<trkpt lat="46.055921" lon="13.494696">
<time>2021-07-18T08:50:43Z</time>
</trkpt>
<trkpt lat="46.055906" lon="13.494681">
<time>2021-07-18T08:50:44Z</time>
</trkpt>
<trkpt lat="46.055888" lon="13.494658">
<time>2021-07-18T08:50:45Z</time>
</trkpt>
<trkpt lat="46.05587" lon="13.494628">
<time>2021-07-18T08:50:46Z</time>
</trkpt>
<trkpt lat="46.055853" lon="13.49459">
<time>2021-07-18T08:50:47Z</time>
</trkpt>
<trkpt lat="46.055835" lon="13.494546">
<time>2021-07-18T08:50:48Z</time>
</trkpt>
<trkpt lat="46.055811" lon="13.494501">
<time>2021-07-18T08:50:49Z</time>
</trkpt>
<trkpt lat="46.055788" lon="13.494456">
<time>2021-07-18T08:50:50Z</time>
</trkpt>
<trkpt lat="46.055766" lon="13.494418">
<time>2021-07-18T08:50:51Z</time>
</trkpt>
<trkpt lat="46.055733" lon="13.49436">
<time>2021-07-18T08:50:52Z</time>
</trkpt>
<trkpt lat="46.055696" lon="13.494306">
<time>2021-07-18T08:50:53Z</time>
</trkpt>
<trkpt lat="46.055671" lon="13.494251">
<time>2021-07-18T08:50:54Z</time>
</trkpt>
<trkpt lat="46.055641" lon="13.49419">
<time>2021-07-18T08:50:55Z</time>
</trkpt>
<trkpt lat="46.055611" lon="13.494131">
<time>2021-07-18T08:50:56Z</time>
</trkpt>
<trkpt lat="46.055583" lon="13.494076">
<time>2021-07-18T08:50:57Z</time>
</trkpt>
<trkpt lat="46.055555" lon="13.49402">
<time>2021-07-18T08:50:58Z</time>
</trkpt>
<trkpt lat="46.055525" lon="13.493965">
<time>2021-07-18T08:50:59Z</time>
</trkpt>
<trkpt lat="46.055491" lon="13.493918">
<time>2021-07-18T08:51:00Z</time>
</trkpt>
<trkpt lat="46.055456" lon="13.493876">
<time>2021-07-18T08:51:01Z</time>
</trkpt>
<trkpt lat="46.05542" lon="13.493835">
<time>2021-07-18T08:51:02Z</time>
</trkpt>
<trkpt lat="46.055383" lon="13.493793">
<time>2021-07-18T08:51:03Z</time>
</trkpt>
<trkpt lat="46.055343" lon="13.49375">
<time>2021-07-18T08:51:04Z</time>
</trkpt>
<trkpt lat="46.055303" lon="13.493708">
<time>2021-07-18T08:51:05Z</time>
</trkpt>
<trkpt lat="46.055261" lon="13.493665">
<time>2021-07-18T08:51:06Z</time>
</trkpt>
<trkpt lat="46.055218" lon="13.49362">
<time>2021-07-18T08:51:07Z</time>
</trkpt>
<trkpt lat="46.055176" lon="13.493576">
<time>2021-07-18T08:51:08Z</time>
</trkpt>
<trkpt lat="46.05513" lon="13.49353">
<time>2021-07-18T08:51:09Z</time>
</trkpt>
<trkpt lat="46.055083" lon="13.493483">
<time>2021-07-18T08:51:10Z</time>
</trkpt>
<trkpt lat="46.055035" lon="13.493436">
<time>2021-07-18T08:51:11Z</time>
</trkpt>
<trkpt lat="46.054986" lon="13.49339">
<time>2021-07-18T08:51:12Z</time>
</trkpt>
<trkpt lat="46.05494" lon="13.493341">
<time>2021-07-18T08:51:13Z</time>
</trkpt>
<trkpt lat="46.054891" lon="13.493293">
<time>2021-07-18T08:51:14Z</time>
</trkpt>
<trkpt lat="46.054845" lon="13.493245">
<time>2021-07-18T08:51:15Z</time>
</trkpt>
<trkpt lat="46.0548" lon="13.493196">
<time>2021-07-18T08:51:16Z</time>
</trkpt>
<trkpt lat="46.054755" lon="13.493156">
<time>2021-07-18T08:51:17Z</time>
</trkpt>
<trkpt lat="46.05471" lon="13.493135">
<time>2021-07-18T08:51:18Z</time>
</trkpt>
<trkpt lat="46.054663" lon="13.493138">
<time>2021-07-18T08:51:19Z</time>
</trkpt>
<trkpt lat="46.054616" lon="13.493166">
<time>2021-07-18T08:51:20Z</time>
</trkpt>
<trkpt lat="46.05457" lon="13.493211">
<time>2021-07-18T08:51:21Z</time>
</trkpt>
<trkpt lat="46.05452" lon="13.493268">
<time>2021-07-18T08:51:22Z</time>
</trkpt>
<trkpt lat="46.054468" lon="13.493328">
<time>2021-07-18T08:51:23Z</time>
</trkpt>
<trkpt lat="46.054415" lon="13.493391">
<time>2021-07-18T08:51:24Z</time>
</trkpt>
<trkpt lat="46.05436" lon="13.493456">
<time>2021-07-18T08:51:25Z</time>
</trkpt>
<trkpt lat="46.054293" lon="13.493543">
<time>2021-07-18T08:51:26Z</time>
</trkpt>
<trkpt lat="46.054231" lon="13.493621">
<time>2021-07-18T08:51:27Z</time>
</trkpt>
<trkpt lat="46.054176" lon="13.493685">
<time>2021-07-18T08:51:28Z</time>
</trkpt>
<trkpt lat="46.054126" lon="13.493728">
<time>2021-07-18T08:51:29Z</time>
</trkpt>
<trkpt lat="46.054096" lon="13.493755">
<time>2021-07-18T08:51:30Z</time>
</trkpt>
<trkpt lat="46.054076" lon="13.493763">
<time>2021-07-18T08:51:31Z</time>
</trkpt>
<trkpt lat="46.054063" lon="13.493768">
<time>2021-07-18T08:51:32Z</time>
</trkpt>
<trkpt lat="46.054053" lon="13.49376">
<time>2021-07-18T08:51:33Z</time>
</trkpt>
<trkpt lat="46.054045" lon="13.493753">
<time>2021-07-18T08:51:34Z</time>
</trkpt>
<trkpt lat="46.054035" lon="13.493753">
<time>2021-07-18T08:51:35Z</time>
</trkpt>
<trkpt lat="46.054023" lon="13.49376">
<time>2021-07-18T08:51:36Z</time>
</trkpt>
<trkpt lat="46.054013" lon="13.493773">
<time>2021-07-18T08:51:37Z</time>
</trkpt>
<trkpt lat="46.054" lon="13.493788">
<time>2021-07-18T08:51:38Z</time>
</trkpt>
<trkpt lat="46.053983" lon="13.493803">
<time>2021-07-18T08:51:39Z</time>
</trkpt>
<trkpt lat="46.053965" lon="13.49383">
<time>2021-07-18T08:51:40Z</time>
</trkpt>
<trkpt lat="46.053941" lon="13.493855">
<time>2021-07-18T08:51:41Z</time>
</trkpt>
<trkpt lat="46.053915" lon="13.493885">
<time>2021-07-18T08:51:42Z</time>
</trkpt>
<trkpt lat="46.05388" lon="13.49392">
<time>2021-07-18T08:51:43Z</time>
</trkpt>
<trkpt lat="46.053848" lon="13.493958">
<time>2021-07-18T08:51:44Z</time>
</trkpt>
<trkpt lat="46.053815" lon="13.493998">
<time>2021-07-18T08:51:45Z</time>
</trkpt>
<trkpt lat="46.053783" lon="13.494036">
<time>2021-07-18T08:51:46Z</time>
</trkpt>
<trkpt lat="46.053755" lon="13.494071">
<time>2021-07-18T08:51:47Z</time>
</trkpt>
<trkpt lat="46.053728" lon="13.494101">
<time>2021-07-18T08:51:48Z</time>
</trkpt>
<trkpt lat="46.053705" lon="13.494123">
<time>2021-07-18T08:51:49Z</time>
</trkpt>
<trkpt lat="46.053675" lon="13.494135">
<time>2021-07-18T08:51:50Z</time>
</trkpt>
<trkpt lat="46.053655" lon="13.494128">
<time>2021-07-18T08:51:51Z</time>
</trkpt>
<trkpt lat="46.053628" lon="13.494105">
<time>2021-07-18T08:51:52Z</time>
</trkpt>
<trkpt lat="46.053606" lon="13.494066">
<time>2021-07-18T08:51:53Z</time>
</trkpt>
<trkpt lat="46.053586" lon="13.494023">
<time>2021-07-18T08:51:54Z</time>
</trkpt>
<trkpt lat="46.053568" lon="13.493975">
<time>2021-07-18T08:51:55Z</time>
</trkpt>
<trkpt lat="46.05355" lon="13.493925">
<time>2021-07-18T08:51:56Z</time>
</trkpt>
<trkpt lat="46.053531" lon="13.493875">
<time>2021-07-18T08:51:57Z</time>
</trkpt>
<trkpt lat="46.053511" lon="13.49382">
<time>2021-07-18T08:51:58Z</time>
</trkpt>
<trkpt lat="46.05349" lon="13.493765">
<time>2021-07-18T08:51:59Z</time>
</trkpt>
<trkpt lat="46.053468" lon="13.493705">
<time>2021-07-18T08:52:00Z</time>
</trkpt>
<trkpt lat="46.053445" lon="13.493646">
<time>2021-07-18T08:52:01Z</time>
</trkpt>
<trkpt lat="46.053423" lon="13.493586">
<time>2021-07-18T08:52:02Z</time>
</trkpt>
<trkpt lat="46.053403" lon="13.49353">
<time>2021-07-18T08:52:03Z</time>
</trkpt>
<trkpt lat="46.05338" lon="13.493473">
<time>2021-07-18T08:52:04Z</time>
</trkpt>
<trkpt lat="46.053358" lon="13.49342">
<time>2021-07-18T08:52:05Z</time>
</trkpt>
<trkpt lat="46.053336" lon="13.493368">
<time>2021-07-18T08:52:06Z</time>
</trkpt>
<trkpt lat="46.053311" lon="13.493311">
<time>2021-07-18T08:52:07Z</time>
</trkpt>
<trkpt lat="46.05328" lon="13.493253">
<time>2021-07-18T08:52:08Z</time>
</trkpt>
<trkpt lat="46.053248" lon="13.493188">
<time>2021-07-18T08:52:09Z</time>
</trkpt>
<trkpt lat="46.053216" lon="13.493121">
<time>2021-07-18T08:52:10Z</time>
</trkpt>
<trkpt lat="46.053183" lon="13.493053">
<time>2021-07-18T08:52:11Z</time>
</trkpt>
<trkpt lat="46.053148" lon="13.492983">
<time>2021-07-18T08:52:12Z</time>
</trkpt>
<trkpt lat="46.053113" lon="13.492915">
<time>2021-07-18T08:52:13Z</time>
</trkpt>
<trkpt lat="46.053073" lon="13.492845">
<time>2021-07-18T08:52:14Z</time>
</trkpt>
<trkpt lat="46.053036" lon="13.492775">
<time>2021-07-18T08:52:15Z</time>
</trkpt>
<trkpt lat="46.052998" lon="13.492706">
<time>2021-07-18T08:52:16Z</time>
</trkpt>
<trkpt lat="46.052963" lon="13.492638">
<time>2021-07-18T08:52:17Z</time>
</trkpt>
<trkpt lat="46.05294" lon="13.492568">
<time>2021-07-18T08:52:18Z</time>
</trkpt>
<trkpt lat="46.052935" lon="13.492498">
<time>2021-07-18T08:52:19Z</time>
</trkpt>
<trkpt lat="46.052951" lon="13.49244">
<time>2021-07-18T08:52:20Z</time>
</trkpt>
<trkpt lat="46.05298" lon="13.49239">
<time>2021-07-18T08:52:21Z</time>
</trkpt>
<trkpt lat="46.053016" lon="13.492345">
<time>2021-07-18T08:52:22Z</time>
</trkpt>
<trkpt lat="46.05306" lon="13.4923">
<time>2021-07-18T08:52:23Z</time>
</trkpt>
<trkpt lat="46.053105" lon="13.492253">
<time>2021-07-18T08:52:24Z</time>
</trkpt>
<trkpt lat="46.053151" lon="13.492203">
<time>2021-07-18T08:52:25Z</time>
</trkpt>
<trkpt lat="46.0532" lon="13.492153">
<time>2021-07-18T08:52:26Z</time>
</trkpt>
<trkpt lat="46.053248" lon="13.4921">
<time>2021-07-18T08:52:27Z</time>
</trkpt>
<trkpt lat="46.053298" lon="13.492046">
<time>2021-07-18T08:52:28Z</time>
</trkpt>
<trkpt lat="46.053348" lon="13.491996">
<time>2021-07-18T08:52:29Z</time>
</trkpt>
<trkpt lat="46.053408" lon="13.491956">
<time>2021-07-18T08:52:30Z</time>
</trkpt>
<trkpt lat="46.053453" lon="13.49191">
<time>2021-07-18T08:52:31Z</time>
</trkpt>
<trkpt lat="46.053495" lon="13.491863">
<time>2021-07-18T08:52:32Z</time>
</trkpt>
<trkpt lat="46.053538" lon="13.491818">
<time>2021-07-18T08:52:33Z</time>
</trkpt>
<trkpt lat="46.053581" lon="13.491773">
<time>2021-07-18T08:52:34Z</time>
</trkpt>
<trkpt lat="46.05362" lon="13.49173">
<time>2021-07-18T08:52:35Z</time>
</trkpt>
<trkpt lat="46.053648" lon="13.491683">
<time>2021-07-18T08:52:36Z</time>
</trkpt>
<trkpt lat="46.053665" lon="13.491635">
<time>2021-07-18T08:52:37Z</time>
</trkpt>
<trkpt lat="46.053666" lon="13.491585">
<time>2021-07-18T08:52:38Z</time>
</trkpt>
<trkpt lat="46.053655" lon="13.491533">
<time>2021-07-18T08:52:39Z</time>
</trkpt>
<trkpt lat="46.053633" lon="13.49148">
<time>2021-07-18T08:52:40Z</time>
</trkpt>
<trkpt lat="46.053606" lon="13.491428">
<time>2021-07-18T08:52:41Z</time>
</trkpt>
<trkpt lat="46.053565" lon="13.49137">
<time>2021-07-18T08:52:42Z</time>
</trkpt>
<trkpt lat="46.053525" lon="13.491308">
<time>2021-07-18T08:52:43Z</time>
</trkpt>
<trkpt lat="46.053485" lon="13.491245">
<time>2021-07-18T08:52:44Z</time>
</trkpt>
<trkpt lat="46.053448" lon="13.49117">
<time>2021-07-18T08:52:45Z</time>
</trkpt>
<trkpt lat="46.053408" lon="13.491096">
<time>2021-07-18T08:52:46Z</time>
</trkpt>
<trkpt lat="46.053365" lon="13.491025">
<time>2021-07-18T08:52:47Z</time>
</trkpt>
<trkpt lat="46.053321" lon="13.49095">
<time>2021-07-18T08:52:48Z</time>
</trkpt>
<trkpt lat="46.053288" lon="13.490886">
<time>2021-07-18T08:52:49Z</time>
</trkpt>
<trkpt lat="46.053258" lon="13.490836">
<time>2021-07-18T08:52:50Z</time>
</trkpt>
<trkpt lat="46.053225" lon="13.490811">
<time>2021-07-18T08:52:51Z</time>
</trkpt>
<trkpt lat="46.053191" lon="13.49081">
<time>2021-07-18T08:52:52Z</time>
</trkpt>
<trkpt lat="46.053153" lon="13.490823">
<time>2021-07-18T08:52:53Z</time>
</trkpt>
<trkpt lat="46.05311" lon="13.490823">
<time>2021-07-18T08:52:54Z</time>
</trkpt>
<trkpt lat="46.053085" lon="13.490813">
<time>2021-07-18T08:52:55Z</time>
</trkpt>
<trkpt lat="46.053065" lon="13.490788">
<time>2021-07-18T08:52:56Z</time>
</trkpt>
<trkpt lat="46.053048" lon="13.490758">
<time>2021-07-18T08:52:57Z</time>
</trkpt>
<trkpt lat="46.053028" lon="13.490725">
<time>2021-07-18T08:52:58Z</time>
</trkpt>
<trkpt lat="46.053" lon="13.490685">
<time>2021-07-18T08:52:59Z</time>
</trkpt>
<trkpt lat="46.052975" lon="13.490648">
<time>2021-07-18T08:53:00Z</time>
</trkpt>
<trkpt lat="46.052953" lon="13.490616">
<time>2021-07-18T08:53:01Z</time>
</trkpt>
<trkpt lat="46.052936" lon="13.490588">
<time>2021-07-18T08:53:02Z</time>
</trkpt>
<trkpt lat="46.052921" lon="13.490568">
<time>2021-07-18T08:53:03Z</time>
</trkpt>
<trkpt lat="46.052905" lon="13.490543">
<time>2021-07-18T08:53:04Z</time>
</trkpt>
<trkpt lat="46.052885" lon="13.490511">
<time>2021-07-18T08:53:05Z</time>
</trkpt>
<trkpt lat="46.052873" lon="13.490471">
<time>2021-07-18T08:53:06Z</time>
</trkpt>
<trkpt lat="46.05286" lon="13.490416">
<time>2021-07-18T08:53:07Z</time>
</trkpt>
<trkpt lat="46.052845" lon="13.490355">
<time>2021-07-18T08:53:08Z</time>
</trkpt>
<trkpt lat="46.052823" lon="13.490288">
<time>2021-07-18T08:53:09Z</time>
</trkpt>
<trkpt lat="46.052791" lon="13.490221">
<time>2021-07-18T08:53:10Z</time>
</trkpt>
<trkpt lat="46.052755" lon="13.490156">
<time>2021-07-18T08:53:11Z</time>
</trkpt>
<trkpt lat="46.052716" lon="13.490095">
<time>2021-07-18T08:53:12Z</time>
</trkpt>
<trkpt lat="46.052678" lon="13.49003">
<time>2021-07-18T08:53:13Z</time>
</trkpt>
<trkpt lat="46.052636" lon="13.489958">
<time>2021-07-18T08:53:14Z</time>
</trkpt>
<trkpt lat="46.052598" lon="13.48989">
<time>2021-07-18T08:53:15Z</time>
</trkpt>
<trkpt lat="46.05256" lon="13.489823">
<time>2021-07-18T08:53:16Z</time>
</trkpt>
<trkpt lat="46.052516" lon="13.48976">
<time>2021-07-18T08:53:17Z</time>
</trkpt>
<trkpt lat="46.052475" lon="13.489718">
<time>2021-07-18T08:53:18Z</time>
</trkpt>
<trkpt lat="46.052428" lon="13.489698">
<time>2021-07-18T08:53:19Z</time>
</trkpt>
<trkpt lat="46.052381" lon="13.4897">
<time>2021-07-18T08:53:20Z</time>
</trkpt>
<trkpt lat="46.052331" lon="13.489715">
<time>2021-07-18T08:53:21Z</time>
</trkpt>
<trkpt lat="46.052275" lon="13.489758">
<time>2021-07-18T08:53:22Z</time>
</trkpt>
<trkpt lat="46.052221" lon="13.4898">
<time>2021-07-18T08:53:23Z</time>
</trkpt>
<trkpt lat="46.052168" lon="13.489846">
<time>2021-07-18T08:53:24Z</time>
</trkpt>
<trkpt lat="46.052118" lon="13.489883">
<time>2021-07-18T08:53:25Z</time>
</trkpt>
<trkpt lat="46.052076" lon="13.489921">
<time>2021-07-18T08:53:26Z</time>
</trkpt>
<trkpt lat="46.052035" lon="13.489965">
<time>2021-07-18T08:53:27Z</time>
</trkpt>
<trkpt lat="46.051988" lon="13.490003">
<time>2021-07-18T08:53:28Z</time>
</trkpt>
<trkpt lat="46.051946" lon="13.490055">
<time>2021-07-18T08:53:29Z</time>
</trkpt>
<trkpt lat="46.051895" lon="13.490105">
<time>2021-07-18T08:53:30Z</time>
</trkpt>
<trkpt lat="46.05184" lon="13.49016">
<time>2021-07-18T08:53:31Z</time>
</trkpt>
<trkpt lat="46.051786" lon="13.490231">
<time>2021-07-18T08:53:32Z</time>
</trkpt>
<trkpt lat="46.051738" lon="13.490295">
<time>2021-07-18T08:53:33Z</time>
</trkpt>
<trkpt lat="46.051688" lon="13.490353">
<time>2021-07-18T08:53:34Z</time>
</trkpt>
<trkpt lat="46.051638" lon="13.490415">
<time>2021-07-18T08:53:35Z</time>
</trkpt>
<trkpt lat="46.051583" lon="13.490476">
<time>2021-07-18T08:53:36Z</time>
</trkpt>
<trkpt lat="46.051531" lon="13.490541">
<time>2021-07-18T08:53:37Z</time>
</trkpt>
<trkpt lat="46.051476" lon="13.49061">
<time>2021-07-18T08:53:38Z</time>
</trkpt>
<trkpt lat="46.051425" lon="13.49068">
<time>2021-07-18T08:53:39Z</time>
</trkpt>
<trkpt lat="46.051373" lon="13.490748">
<time>2021-07-18T08:53:40Z</time>
</trkpt>
<trkpt lat="46.051303" lon="13.490813">
<time>2021-07-18T08:53:41Z</time>
</trkpt>
<trkpt lat="46.05125" lon="13.490841">
<time>2021-07-18T08:53:42Z</time>
</trkpt>
<trkpt lat="46.051188" lon="13.49086">
<time>2021-07-18T08:53:43Z</time>
</trkpt>
<trkpt lat="46.051125" lon="13.490866">
<time>2021-07-18T08:53:44Z</time>
</trkpt>
<trkpt lat="46.051061" lon="13.490863">
<time>2021-07-18T08:53:45Z</time>
</trkpt>
<trkpt lat="46.051" lon="13.490861">
<time>2021-07-18T08:53:46Z</time>
</trkpt>
<trkpt lat="46.050945" lon="13.490866">
<time>2021-07-18T08:53:47Z</time>
</trkpt>
<trkpt lat="46.050891" lon="13.490875">
<time>2021-07-18T08:53:48Z</time>
</trkpt>
<trkpt lat="46.050843" lon="13.490885">
<time>2021-07-18T08:53:49Z</time>
</trkpt>
<trkpt lat="46.050805" lon="13.490886">
<time>2021-07-18T08:53:50Z</time>
</trkpt>
<trkpt lat="46.050783" lon="13.490861">
<time>2021-07-18T08:53:51Z</time>
</trkpt>
<trkpt lat="46.05076" lon="13.49081">
<time>2021-07-18T08:53:52Z</time>
</trkpt>
<trkpt lat="46.050746" lon="13.490755">
<time>2021-07-18T08:53:53Z</time>
</trkpt>
<trkpt lat="46.050726" lon="13.490686">
<time>2021-07-18T08:53:54Z</time>
</trkpt>
<trkpt lat="46.050706" lon="13.49061">
<time>2021-07-18T08:53:55Z</time>
</trkpt>
<trkpt lat="46.050695" lon="13.490518">
<time>2021-07-18T08:53:56Z</time>
</trkpt>
<trkpt lat="46.050666" lon="13.490441">
<time>2021-07-18T08:53:57Z</time>
</trkpt>
<trkpt lat="46.05062" lon="13.49037">
<time>2021-07-18T08:53:58Z</time>
</trkpt>
<trkpt lat="46.050583" lon="13.490313">
<time>2021-07-18T08:53:59Z</time>
</trkpt>
<trkpt lat="46.050543" lon="13.490263">
<time>2021-07-18T08:54:00Z</time>
</trkpt>
<trkpt lat="46.050496" lon="13.490203">
<time>2021-07-18T08:54:01Z</time>
</trkpt>
<trkpt lat="46.050435" lon="13.490136">
<time>2021-07-18T08:54:02Z</time>
</trkpt>
<trkpt lat="46.050395" lon="13.490088">
<time>2021-07-18T08:54:03Z</time>
</trkpt>
<trkpt lat="46.050346" lon="13.490046">
<time>2021-07-18T08:54:04Z</time>
</trkpt>
<trkpt lat="46.050295" lon="13.490001">
<time>2021-07-18T08:54:05Z</time>
</trkpt>
<trkpt lat="46.050241" lon="13.489951">
<time>2021-07-18T08:54:06Z</time>
</trkpt>
<trkpt lat="46.050195" lon="13.489913">
<time>2021-07-18T08:54:07Z</time>
</trkpt>
<trkpt lat="46.050143" lon="13.48987">
<time>2021-07-18T08:54:08Z</time>
</trkpt>
<trkpt lat="46.050088" lon="13.489825">
<time>2021-07-18T08:54:09Z</time>
</trkpt>
<trkpt lat="46.050028" lon="13.489781">
<time>2021-07-18T08:54:10Z</time>
</trkpt>
<trkpt lat="46.049965" lon="13.489738">
<time>2021-07-18T08:54:11Z</time>
</trkpt>
<trkpt lat="46.0499" lon="13.489696">
<time>2021-07-18T08:54:12Z</time>
</trkpt>
<trkpt lat="46.049831" lon="13.48965">
<time>2021-07-18T08:54:13Z</time>
</trkpt>
<trkpt lat="46.049761" lon="13.4896">
<time>2021-07-18T08:54:14Z</time>
</trkpt>
<trkpt lat="46.049688" lon="13.489545">
<time>2021-07-18T08:54:15Z</time>
</trkpt>
<trkpt lat="46.049613" lon="13.48949">
<time>2021-07-18T08:54:16Z</time>
</trkpt>
<trkpt lat="46.049535" lon="13.489431">
<time>2021-07-18T08:54:17Z</time>
</trkpt>
<trkpt lat="46.049461" lon="13.489375">
<time>2021-07-18T08:54:18Z</time>
</trkpt>
<trkpt lat="46.049385" lon="13.489316">
<time>2021-07-18T08:54:19Z</time>
</trkpt>
<trkpt lat="46.049311" lon="13.489256">
<time>2021-07-18T08:54:20Z</time>
</trkpt>
<trkpt lat="46.049238" lon="13.489196">
<time>2021-07-18T08:54:21Z</time>
</trkpt>
<trkpt lat="46.049161" lon="13.489146">
<time>2021-07-18T08:54:22Z</time>
</trkpt>
<trkpt lat="46.049081" lon="13.489106">
<time>2021-07-18T08:54:23Z</time>
</trkpt>
<trkpt lat="46.049001" lon="13.489086">
<time>2021-07-18T08:54:24Z</time>
</trkpt>
<trkpt lat="46.048925" lon="13.489085">
<time>2021-07-18T08:54:25Z</time>
</trkpt>
<trkpt lat="46.048848" lon="13.489106">
<time>2021-07-18T08:54:26Z</time>
</trkpt>
<trkpt lat="46.048778" lon="13.489145">
<time>2021-07-18T08:54:27Z</time>
</trkpt>
<trkpt lat="46.04871" lon="13.4892">
<time>2021-07-18T08:54:28Z</time>
</trkpt>
<trkpt lat="46.04865" lon="13.489261">
<time>2021-07-18T08:54:29Z</time>
</trkpt>
<trkpt lat="46.048593" lon="13.48934">
<time>2021-07-18T08:54:30Z</time>
</trkpt>
<trkpt lat="46.048536" lon="13.489425">
<time>2021-07-18T08:54:31Z</time>
</trkpt>
<trkpt lat="46.048483" lon="13.489511">
<time>2021-07-18T08:54:32Z</time>
</trkpt>
<trkpt lat="46.048431" lon="13.489595">
<time>2021-07-18T08:54:33Z</time>
</trkpt>
<trkpt lat="46.04838" lon="13.48968">
<time>2021-07-18T08:54:34Z</time>
</trkpt>
<trkpt lat="46.048326" lon="13.489765">
<time>2021-07-18T08:54:35Z</time>
</trkpt>
<trkpt lat="46.048275" lon="13.489848">
<time>2021-07-18T08:54:36Z</time>
</trkpt>
<trkpt lat="46.048221" lon="13.489933">
<time>2021-07-18T08:54:37Z</time>
</trkpt>
<trkpt lat="46.04817" lon="13.490018">
<time>2021-07-18T08:54:38Z</time>
</trkpt>
<trkpt lat="46.048116" lon="13.490101">
<time>2021-07-18T08:54:39Z</time>
</trkpt>
<trkpt lat="46.048061" lon="13.490185">
<time>2021-07-18T08:54:40Z</time>
</trkpt>
<trkpt lat="46.048005" lon="13.490268">
<time>2021-07-18T08:54:41Z</time>
</trkpt>
<trkpt lat="46.047951" lon="13.490356">
<time>2021-07-18T08:54:42Z</time>
</trkpt>
<trkpt lat="46.047905" lon="13.490453">
<time>2021-07-18T08:54:43Z</time>
</trkpt>
<trkpt lat="46.047875" lon="13.490561">
<time>2021-07-18T08:54:44Z</time>
</trkpt>
<trkpt lat="46.047858" lon="13.490678">
<time>2021-07-18T08:54:45Z</time>
</trkpt>
<trkpt lat="46.047845" lon="13.490796">
<time>2021-07-18T08:54:46Z</time>
</trkpt>
<trkpt lat="46.047855" lon="13.490916">
<time>2021-07-18T08:54:47Z</time>
</trkpt>
<trkpt lat="46.04788" lon="13.49104">
<time>2021-07-18T08:54:48Z</time>
</trkpt>
<trkpt lat="46.047905" lon="13.49116">
<time>2021-07-18T08:54:49Z</time>
</trkpt>
<trkpt lat="46.047926" lon="13.491283">
<time>2021-07-18T08:54:50Z</time>
</trkpt>
<trkpt lat="46.04794" lon="13.491406">
<time>2021-07-18T08:54:51Z</time>
</trkpt>
<trkpt lat="46.047945" lon="13.491528">
<time>2021-07-18T08:54:52Z</time>
</trkpt>
<trkpt lat="46.047938" lon="13.491645">
<time>2021-07-18T08:54:53Z</time>
</trkpt>
<trkpt lat="46.047918" lon="13.491758">
<time>2021-07-18T08:54:54Z</time>
</trkpt>
<trkpt lat="46.047886" lon="13.491868">
<time>2021-07-18T08:54:55Z</time>
</trkpt>
<trkpt lat="46.047843" lon="13.491966">
<time>2021-07-18T08:54:56Z</time>
</trkpt>
<trkpt lat="46.047795" lon="13.49206">
<time>2021-07-18T08:54:57Z</time>
</trkpt>
<trkpt lat="46.047741" lon="13.492151">
<time>2021-07-18T08:54:58Z</time>
</trkpt>
<trkpt lat="46.047683" lon="13.492245">
<time>2021-07-18T08:54:59Z</time>
</trkpt>
<trkpt lat="46.047623" lon="13.492321">
<time>2021-07-18T08:55:00Z</time>
</trkpt>
<trkpt lat="46.047566" lon="13.492395">
<time>2021-07-18T08:55:01Z</time>
</trkpt>
<trkpt lat="46.047521" lon="13.49247">
<time>2021-07-18T08:55:02Z</time>
</trkpt>
<trkpt lat="46.047476" lon="13.49253">
<time>2021-07-18T08:55:03Z</time>
</trkpt>
<trkpt lat="46.047433" lon="13.492565">
<time>2021-07-18T08:55:04Z</time>
</trkpt>
<trkpt lat="46.047396" lon="13.492576">
<time>2021-07-18T08:55:05Z</time>
</trkpt>
<trkpt lat="46.047373" lon="13.49255">
<time>2021-07-18T08:55:06Z</time>
</trkpt>
<trkpt lat="46.047351" lon="13.492505">
<time>2021-07-18T08:55:07Z</time>
</trkpt>
<trkpt lat="46.04733" lon="13.492465">
<time>2021-07-18T08:55:08Z</time>
</trkpt>
<trkpt lat="46.047293" lon="13.492418">
<time>2021-07-18T08:55:09Z</time>
</trkpt>
<trkpt lat="46.047265" lon="13.492385">
<time>2021-07-18T08:55:10Z</time>
</trkpt>
<trkpt lat="46.04723" lon="13.492356">
<time>2021-07-18T08:55:11Z</time>
</trkpt>
<trkpt lat="46.047203" lon="13.492335">
<time>2021-07-18T08:55:12Z</time>
</trkpt>
<trkpt lat="46.047165" lon="13.492305">
<time>2021-07-18T08:55:13Z</time>
</trkpt>
<trkpt lat="46.04712" lon="13.492275">
<time>2021-07-18T08:55:14Z</time>
</trkpt>
<trkpt lat="46.047071" lon="13.49225">
<time>2021-07-18T08:55:15Z</time>
</trkpt>
<trkpt lat="46.047018" lon="13.492221">
<time>2021-07-18T08:55:16Z</time>
</trkpt>
<trkpt lat="46.046963" lon="13.492195">
<time>2021-07-18T08:55:17Z</time>
</trkpt>
<trkpt lat="46.046908" lon="13.492161">
<time>2021-07-18T08:55:18Z</time>
</trkpt>
<trkpt lat="46.046856" lon="13.49212">
<time>2021-07-18T08:55:19Z</time>
</trkpt>
<trkpt lat="46.04681" lon="13.492066">
<time>2021-07-18T08:55:20Z</time>
</trkpt>
<trkpt lat="46.04676" lon="13.492008">
<time>2021-07-18T08:55:21Z</time>
</trkpt>
<trkpt lat="46.04671" lon="13.491951">
<time>2021-07-18T08:55:22Z</time>
</trkpt>
<trkpt lat="46.046663" lon="13.4919">
<time>2021-07-18T08:55:23Z</time>
</trkpt>
<trkpt lat="46.04662" lon="13.49185">
<time>2021-07-18T08:55:24Z</time>
</trkpt>
<trkpt lat="46.046576" lon="13.491798">
<time>2021-07-18T08:55:25Z</time>
</trkpt>
<trkpt lat="46.046536" lon="13.491751">
<time>2021-07-18T08:55:26Z</time>
</trkpt>
<trkpt lat="46.046505" lon="13.491701">
<time>2021-07-18T08:55:27Z</time>
</trkpt>
<trkpt lat="46.046485" lon="13.491645">
<time>2021-07-18T08:55:28Z</time>
</trkpt>
<trkpt lat="46.046475" lon="13.491581">
<time>2021-07-18T08:55:29Z</time>
</trkpt>
<trkpt lat="46.046473" lon="13.491513">
<time>2021-07-18T08:55:30Z</time>
</trkpt>
<trkpt lat="46.046478" lon="13.491436">
<time>2021-07-18T08:55:31Z</time>
</trkpt>
<trkpt lat="46.046478" lon="13.491351">
<time>2021-07-18T08:55:32Z</time>
</trkpt>
<trkpt lat="46.046478" lon="13.491263">
<time>2021-07-18T08:55:33Z</time>
</trkpt>
<trkpt lat="46.046478" lon="13.491171">
<time>2021-07-18T08:55:34Z</time>
</trkpt>
<trkpt lat="46.046475" lon="13.491075">
<time>2021-07-18T08:55:35Z</time>
</trkpt>
<trkpt lat="46.046473" lon="13.49098">
<time>2021-07-18T08:55:36Z</time>
</trkpt>
<trkpt lat="46.046473" lon="13.490885">
<time>2021-07-18T08:55:37Z</time>
</trkpt>
<trkpt lat="46.046471" lon="13.490791">
<time>2021-07-18T08:55:38Z</time>
</trkpt>
<trkpt lat="46.04647" lon="13.490701">
<time>2021-07-18T08:55:39Z</time>
</trkpt>
<trkpt lat="46.046463" lon="13.49061">
<time>2021-07-18T08:55:40Z</time>
</trkpt>
<trkpt lat="46.04646" lon="13.490536">
<time>2021-07-18T08:55:41Z</time>
</trkpt>
<trkpt lat="46.046455" lon="13.490481">
<time>2021-07-18T08:55:42Z</time>
</trkpt>
<trkpt lat="46.046445" lon="13.49044">
<time>2021-07-18T08:55:43Z</time>
</trkpt>
<trkpt lat="46.046433" lon="13.49042">
<time>2021-07-18T08:55:44Z</time>
</trkpt>
<trkpt lat="46.046421" lon="13.490416">
<time>2021-07-18T08:55:45Z</time>
</trkpt>
<trkpt lat="46.046418" lon="13.490423">
<time>2021-07-18T08:55:46Z</time>
</trkpt>
<trkpt lat="46.046418" lon="13.490436">
<time>2021-07-18T08:55:47Z</time>
</trkpt>
<trkpt lat="46.04642" lon="13.49046">
<time>2021-07-18T08:55:48Z</time>
</trkpt>
<trkpt lat="46.046423" lon="13.49049">
<time>2021-07-18T08:55:49Z</time>
</trkpt>
<trkpt lat="46.046426" lon="13.490528">
<time>2021-07-18T08:55:50Z</time>
</trkpt>
<trkpt lat="46.046431" lon="13.490578">
<time>2021-07-18T08:55:51Z</time>
</trkpt>
<trkpt lat="46.046438" lon="13.490636">
<time>2021-07-18T08:55:52Z</time>
</trkpt>
<trkpt lat="46.046443" lon="13.490703">
<time>2021-07-18T08:55:53Z</time>
</trkpt>
<trkpt lat="46.046446" lon="13.490773">
<time>2021-07-18T08:55:54Z</time>
</trkpt>
<trkpt lat="46.046446" lon="13.49085">
<time>2021-07-18T08:55:55Z</time>
</trkpt>
<trkpt lat="46.046448" lon="13.490938">
<time>2021-07-18T08:55:56Z</time>
</trkpt>
<trkpt lat="46.046451" lon="13.491031">
<time>2021-07-18T08:55:57Z</time>
</trkpt>
<trkpt lat="46.046455" lon="13.491126">
<time>2021-07-18T08:55:58Z</time>
</trkpt>
<trkpt lat="46.04646" lon="13.491225">
<time>2021-07-18T08:55:59Z</time>
</trkpt>
<trkpt lat="46.046463" lon="13.491321">
<time>2021-07-18T08:56:00Z</time>
</trkpt>
<trkpt lat="46.046461" lon="13.49142">
<time>2021-07-18T08:56:01Z</time>
</trkpt>
<trkpt lat="46.046461" lon="13.491516">
<time>2021-07-18T08:56:02Z</time>
</trkpt>
<trkpt lat="46.046455" lon="13.49161">
<time>2021-07-18T08:56:03Z</time>
</trkpt>
<trkpt lat="46.046443" lon="13.4917">
<time>2021-07-18T08:56:04Z</time>
</trkpt>
<trkpt lat="46.046421" lon="13.491785">
<time>2021-07-18T08:56:05Z</time>
</trkpt>
<trkpt lat="46.046396" lon="13.491863">
<time>2021-07-18T08:56:06Z</time>
</trkpt>
<trkpt lat="46.046376" lon="13.491943">
<time>2021-07-18T08:56:07Z</time>
</trkpt>
<trkpt lat="46.046366" lon="13.492031">
<time>2021-07-18T08:56:08Z</time>
</trkpt>
<trkpt lat="46.046358" lon="13.492123">
<time>2021-07-18T08:56:09Z</time>
</trkpt>
<trkpt lat="46.046348" lon="13.492218">
<time>2021-07-18T08:56:10Z</time>
</trkpt>
<trkpt lat="46.046338" lon="13.492315">
<time>2021-07-18T08:56:11Z</time>
</trkpt>
<trkpt lat="46.046323" lon="13.492405">
<time>2021-07-18T08:56:12Z</time>
</trkpt>
<trkpt lat="46.046305" lon="13.49249">
<time>2021-07-18T08:56:13Z</time>
</trkpt>
<trkpt lat="46.046283" lon="13.49257">
<time>2021-07-18T08:56:14Z</time>
</trkpt>
<trkpt lat="46.046263" lon="13.492645">
<time>2021-07-18T08:56:15Z</time>
</trkpt>
<trkpt lat="46.046248" lon="13.49272">
<time>2021-07-18T08:56:16Z</time>
</trkpt>
<trkpt lat="46.046235" lon="13.492793">
<time>2021-07-18T08:56:17Z</time>
</trkpt>
<trkpt lat="46.046223" lon="13.49287">
<time>2021-07-18T08:56:18Z</time>
</trkpt>
<trkpt lat="46.04621" lon="13.492943">
<time>2021-07-18T08:56:19Z</time>
</trkpt>
<trkpt lat="46.046193" lon="13.493015">
<time>2021-07-18T08:56:20Z</time>
</trkpt>
<trkpt lat="46.046173" lon="13.493081">
<time>2021-07-18T08:56:21Z</time>
</trkpt>
<trkpt lat="46.046156" lon="13.49315">
<time>2021-07-18T08:56:22Z</time>
</trkpt>
<trkpt lat="46.046151" lon="13.493215">
<time>2021-07-18T08:56:23Z</time>
</trkpt>
<trkpt lat="46.046158" lon="13.49328">
<time>2021-07-18T08:56:24Z</time>
</trkpt>
<trkpt lat="46.046176" lon="13.49334">
<time>2021-07-18T08:56:25Z</time>
</trkpt>
<trkpt lat="46.046208" lon="13.493396">
<time>2021-07-18T08:56:26Z</time>
</trkpt>
<trkpt lat="46.046245" lon="13.493448">
<time>2021-07-18T08:56:27Z</time>
</trkpt>
<trkpt lat="46.04629" lon="13.493501">
<time>2021-07-18T08:56:28Z</time>
</trkpt>
<trkpt lat="46.046328" lon="13.49356">
<time>2021-07-18T08:56:29Z</time>
</trkpt>
<trkpt lat="46.046358" lon="13.493626">
<time>2021-07-18T08:56:30Z</time>
</trkpt>
<trkpt lat="46.046361" lon="13.493696">
<time>2021-07-18T08:56:31Z</time>
</trkpt>
<trkpt lat="46.046355" lon="13.493773">
<time>2021-07-18T08:56:32Z</time>
</trkpt>
<trkpt lat="46.046336" lon="13.493855">
<time>2021-07-18T08:56:33Z</time>
</trkpt>
<trkpt lat="46.046313" lon="13.493943">
<time>2021-07-18T08:56:34Z</time>
</trkpt>
<trkpt lat="46.0463" lon="13.494045">
<time>2021-07-18T08:56:35Z</time>
</trkpt>
<trkpt lat="46.046291" lon="13.494146">
<time>2021-07-18T08:56:36Z</time>
</trkpt>
<trkpt lat="46.046281" lon="13.494241">
<time>2021-07-18T08:56:37Z</time>
</trkpt>
<trkpt lat="46.046273" lon="13.494338">
<time>2021-07-18T08:56:38Z</time>
</trkpt>
<trkpt lat="46.04627" lon="13.494435">
<time>2021-07-18T08:56:39Z</time>
</trkpt>
<trkpt lat="46.046266" lon="13.494533">
<time>2021-07-18T08:56:40Z</time>
</trkpt>
<trkpt lat="46.046263" lon="13.494628">
<time>2021-07-18T08:56:41Z</time>
</trkpt>
<trkpt lat="46.046261" lon="13.494726">
<time>2021-07-18T08:56:42Z</time>
</trkpt>
<trkpt lat="46.046255" lon="13.494821">
<time>2021-07-18T08:56:43Z</time>
</trkpt>
<trkpt lat="46.046248" lon="13.494925">
<time>2021-07-18T08:56:44Z</time>
</trkpt>
<trkpt lat="46.046241" lon="13.495028">
<time>2021-07-18T08:56:45Z</time>
</trkpt>
<trkpt lat="46.046233" lon="13.49513">
<time>2021-07-18T08:56:46Z</time>
</trkpt>
<trkpt lat="46.046225" lon="13.495228">
<time>2021-07-18T08:56:47Z</time>
</trkpt>
<trkpt lat="46.046215" lon="13.495323">
<time>2021-07-18T08:56:48Z</time>
</trkpt>
<trkpt lat="46.046201" lon="13.495436">
<time>2021-07-18T08:56:49Z</time>
</trkpt>
<trkpt lat="46.046185" lon="13.495525">
<time>2021-07-18T08:56:50Z</time>
</trkpt>
<trkpt lat="46.046163" lon="13.495608">
<time>2021-07-18T08:56:51Z</time>
</trkpt>
<trkpt lat="46.046141" lon="13.495671">
<time>2021-07-18T08:56:52Z</time>
</trkpt>
<trkpt lat="46.046111" lon="13.495748">
<time>2021-07-18T08:56:53Z</time>
</trkpt>
<trkpt lat="46.046068" lon="13.49584">
<time>2021-07-18T08:56:54Z</time>
</trkpt>
<trkpt lat="46.046026" lon="13.495918">
<time>2021-07-18T08:56:55Z</time>
</trkpt>
<trkpt lat="46.04598" lon="13.495993">
<time>2021-07-18T08:56:56Z</time>
</trkpt>
<trkpt lat="46.045936" lon="13.496051">
<time>2021-07-18T08:56:57Z</time>
</trkpt>
<trkpt lat="46.04588" lon="13.496115">
<time>2021-07-18T08:56:58Z</time>
</trkpt>
<trkpt lat="46.045803" lon="13.496173">
<time>2021-07-18T08:56:59Z</time>
</trkpt>
<trkpt lat="46.045738" lon="13.496206">
<time>2021-07-18T08:57:00Z</time>
</trkpt>
<trkpt lat="46.045673" lon="13.49623">
<time>2021-07-18T08:57:01Z</time>
</trkpt>
<trkpt lat="46.045611" lon="13.496248">
<time>2021-07-18T08:57:02Z</time>
</trkpt>
<trkpt lat="46.045611" lon="13.496248">
<time>2021-07-18T08:57:03Z</time>
</trkpt>
<trkpt lat="46.045515" lon="13.49628">
<time>2021-07-18T08:57:04Z</time>
</trkpt>
<trkpt lat="46.045468" lon="13.496301">
<time>2021-07-18T08:57:05Z</time>
</trkpt>
<trkpt lat="46.045425" lon="13.496321">
<time>2021-07-18T08:57:06Z</time>
</trkpt>
<trkpt lat="46.045386" lon="13.496338">
<time>2021-07-18T08:57:07Z</time>
</trkpt>
<trkpt lat="46.045353" lon="13.496356">
<time>2021-07-18T08:57:08Z</time>
</trkpt>
<trkpt lat="46.045323" lon="13.496371">
<time>2021-07-18T08:57:09Z</time>
</trkpt>
<trkpt lat="46.045295" lon="13.496386">
<time>2021-07-18T08:57:10Z</time>
</trkpt>
<trkpt lat="46.045266" lon="13.496411">
<time>2021-07-18T08:57:11Z</time>
</trkpt>
<trkpt lat="46.04525" lon="13.49643">
<time>2021-07-18T08:57:12Z</time>
</trkpt>
<trkpt lat="46.045228" lon="13.496453">
<time>2021-07-18T08:57:13Z</time>
</trkpt>
<trkpt lat="46.045206" lon="13.496476">
<time>2021-07-18T08:57:14Z</time>
</trkpt>
<trkpt lat="46.045186" lon="13.496496">
<time>2021-07-18T08:57:15Z</time>
</trkpt>
<trkpt lat="46.045161" lon="13.496513">
<time>2021-07-18T08:57:16Z</time>
</trkpt>
<trkpt lat="46.04514" lon="13.496528">
<time>2021-07-18T08:57:17Z</time>
</trkpt>
<trkpt lat="46.045115" lon="13.49654">
<time>2021-07-18T08:57:18Z</time>
</trkpt>
<trkpt lat="46.045086" lon="13.496545">
<time>2021-07-18T08:57:19Z</time>
</trkpt>
<trkpt lat="46.04506" lon="13.496558">
<time>2021-07-18T08:57:20Z</time>
</trkpt>
<trkpt lat="46.045033" lon="13.496576">
<time>2021-07-18T08:57:21Z</time>
</trkpt>
<trkpt lat="46.04501" lon="13.496595">
<time>2021-07-18T08:57:22Z</time>
</trkpt>
<trkpt lat="46.04498" lon="13.496615">
<time>2021-07-18T08:57:23Z</time>
</trkpt>
<trkpt lat="46.04496" lon="13.49663">
<time>2021-07-18T08:57:24Z</time>
</trkpt>
<trkpt lat="46.044948" lon="13.49664">
<time>2021-07-18T08:57:25Z</time>
</trkpt>
<trkpt lat="46.04493" lon="13.496655">
<time>2021-07-18T08:57:26Z</time>
</trkpt>
<trkpt lat="46.044913" lon="13.496671">
<time>2021-07-18T08:57:27Z</time>
</trkpt>
<trkpt lat="46.0449" lon="13.496695">
<time>2021-07-18T08:57:28Z</time>
</trkpt>
<trkpt lat="46.044888" lon="13.496716">
<time>2021-07-18T08:57:29Z</time>
</trkpt>
<trkpt lat="46.044881" lon="13.496741">
<time>2021-07-18T08:57:30Z</time>
</trkpt>
<trkpt lat="46.04487" lon="13.496768">
<time>2021-07-18T08:57:31Z</time>
</trkpt>
<trkpt lat="46.044856" lon="13.496793">
<time>2021-07-18T08:57:32Z</time>
</trkpt>
<trkpt lat="46.044843" lon="13.496818">
<time>2021-07-18T08:57:33Z</time>
</trkpt>
<trkpt lat="46.044831" lon="13.496843">
<time>2021-07-18T08:57:34Z</time>
</trkpt>
<trkpt lat="46.04482" lon="13.49687">
<time>2021-07-18T08:57:35Z</time>
</trkpt>
<trkpt lat="46.044806" lon="13.496896">
<time>2021-07-18T08:57:36Z</time>
</trkpt>
<trkpt lat="46.044795" lon="13.496921">
<time>2021-07-18T08:57:37Z</time>
</trkpt>
<trkpt lat="46.044783" lon="13.496948">
<time>2021-07-18T08:57:38Z</time>
</trkpt>
<trkpt lat="46.044771" lon="13.496968">
<time>2021-07-18T08:57:39Z</time>
</trkpt>
<trkpt lat="46.044763" lon="13.496993">
<time>2021-07-18T08:57:40Z</time>
</trkpt>
<trkpt lat="46.044756" lon="13.497018">
<time>2021-07-18T08:57:41Z</time>
</trkpt>
<trkpt lat="46.044748" lon="13.497038">
<time>2021-07-18T08:57:42Z</time>
</trkpt>
<trkpt lat="46.044738" lon="13.497058">
<time>2021-07-18T08:57:43Z</time>
</trkpt>
<trkpt lat="46.044728" lon="13.497078">
<time>2021-07-18T08:57:44Z</time>
</trkpt>
<trkpt lat="46.044716" lon="13.497096">
<time>2021-07-18T08:57:45Z</time>
</trkpt>
<trkpt lat="46.044706" lon="13.497113">
<time>2021-07-18T08:57:46Z</time>
</trkpt>
<trkpt lat="46.0447" lon="13.497133">
<time>2021-07-18T08:57:47Z</time>
</trkpt>
<trkpt lat="46.044693" lon="13.497151">
<time>2021-07-18T08:57:48Z</time>
</trkpt>
<trkpt lat="46.044683" lon="13.49717">
<time>2021-07-18T08:57:49Z</time>
</trkpt>
<trkpt lat="46.044671" lon="13.497188">
<time>2021-07-18T08:57:50Z</time>
</trkpt>
<trkpt lat="46.044661" lon="13.49721">
<time>2021-07-18T08:57:51Z</time>
</trkpt>
<trkpt lat="46.04465" lon="13.497231">
<time>2021-07-18T08:57:52Z</time>
</trkpt>
<trkpt lat="46.04464" lon="13.497251">
<time>2021-07-18T08:57:53Z</time>
</trkpt>
<trkpt lat="46.044635" lon="13.497271">
<time>2021-07-18T08:57:54Z</time>
</trkpt>
<trkpt lat="46.044626" lon="13.497286">
<time>2021-07-18T08:57:55Z</time>
</trkpt>
<trkpt lat="46.04462" lon="13.497308">
<time>2021-07-18T08:57:56Z</time>
</trkpt>
<trkpt lat="46.044608" lon="13.497333">
<time>2021-07-18T08:57:57Z</time>
</trkpt>
<trkpt lat="46.044605" lon="13.497355">
<time>2021-07-18T08:57:58Z</time>
</trkpt>
<trkpt lat="46.0446" lon="13.497386">
<time>2021-07-18T08:57:59Z</time>
</trkpt>
<trkpt lat="46.044598" lon="13.497408">
<time>2021-07-18T08:58:00Z</time>
</trkpt>
<trkpt lat="46.044596" lon="13.497431">
<time>2021-07-18T08:58:01Z</time>
</trkpt>
<trkpt lat="46.04459" lon="13.497458">
<time>2021-07-18T08:58:02Z</time>
</trkpt>
<trkpt lat="46.044581" lon="13.497475">
<time>2021-07-18T08:58:03Z</time>
</trkpt>
<trkpt lat="46.044576" lon="13.497493">
<time>2021-07-18T08:58:04Z</time>
</trkpt>
<trkpt lat="46.044566" lon="13.497515">
<time>2021-07-18T08:58:05Z</time>
</trkpt>
<trkpt lat="46.044555" lon="13.49753">
<time>2021-07-18T08:58:06Z</time>
</trkpt>
<trkpt lat="46.044531" lon="13.497541">
<time>2021-07-18T08:58:07Z</time>
</trkpt>
<trkpt lat="46.044511" lon="13.497555">
<time>2021-07-18T08:58:08Z</time>
</trkpt>
<trkpt lat="46.04449" lon="13.497575">
<time>2021-07-18T08:58:09Z</time>
</trkpt>
<trkpt lat="46.044473" lon="13.497593">
<time>2021-07-18T08:58:10Z</time>
</trkpt>
<trkpt lat="46.044456" lon="13.497603">
<time>2021-07-18T08:58:11Z</time>
</trkpt>
<trkpt lat="46.04444" lon="13.49761">
<time>2021-07-18T08:58:12Z</time>
</trkpt>
<trkpt lat="46.04442" lon="13.497615">
<time>2021-07-18T08:58:13Z</time>
</trkpt>
<trkpt lat="46.044396" lon="13.497621">
<time>2021-07-18T08:58:14Z</time>
</trkpt>
<trkpt lat="46.044373" lon="13.497628">
<time>2021-07-18T08:58:15Z</time>
</trkpt>
<trkpt lat="46.044348" lon="13.497635">
<time>2021-07-18T08:58:16Z</time>
</trkpt>
<trkpt lat="46.044326" lon="13.497633">
<time>2021-07-18T08:58:17Z</time>
</trkpt>
<trkpt lat="46.044306" lon="13.497633">
<time>2021-07-18T08:58:18Z</time>
</trkpt>
<trkpt lat="46.04429" lon="13.497633">
<time>2021-07-18T08:58:19Z</time>
</trkpt>
<trkpt lat="46.04427" lon="13.497633">
<time>2021-07-18T08:58:20Z</time>
</trkpt>
<trkpt lat="46.044248" lon="13.49763">
<time>2021-07-18T08:58:21Z</time>
</trkpt>
<trkpt lat="46.04423" lon="13.497633">
<time>2021-07-18T08:58:22Z</time>
</trkpt>
<trkpt lat="46.044205" lon="13.497641">
<time>2021-07-18T08:58:23Z</time>
</trkpt>
<trkpt lat="46.04419" lon="13.497643">
<time>2021-07-18T08:58:24Z</time>
</trkpt>
<trkpt lat="46.044173" lon="13.497646">
<time>2021-07-18T08:58:25Z</time>
</trkpt>
<trkpt lat="46.044155" lon="13.497648">
<time>2021-07-18T08:58:26Z</time>
</trkpt>
<trkpt lat="46.044135" lon="13.49765">
<time>2021-07-18T08:58:27Z</time>
</trkpt>
<trkpt lat="46.044111" lon="13.497651">
<time>2021-07-18T08:58:28Z</time>
</trkpt>
<trkpt lat="46.044098" lon="13.497656">
<time>2021-07-18T08:58:29Z</time>
</trkpt>
<trkpt lat="46.04408" lon="13.497665">
<time>2021-07-18T08:58:30Z</time>
</trkpt>
<trkpt lat="46.044061" lon="13.497675">
<time>2021-07-18T08:58:31Z</time>
</trkpt>
<trkpt lat="46.044038" lon="13.497681">
<time>2021-07-18T08:58:32Z</time>
</trkpt>
<trkpt lat="46.044018" lon="13.497683">
<time>2021-07-18T08:58:33Z</time>
</trkpt>
<trkpt lat="46.043998" lon="13.497686">
<time>2021-07-18T08:58:34Z</time>
</trkpt>
<trkpt lat="46.043983" lon="13.49769">
<time>2021-07-18T08:58:35Z</time>
</trkpt>
<trkpt lat="46.04396" lon="13.497695">
<time>2021-07-18T08:58:36Z</time>
</trkpt>
<trkpt lat="46.04394" lon="13.497698">
<time>2021-07-18T08:58:37Z</time>
</trkpt>
<trkpt lat="46.043921" lon="13.497703">
<time>2021-07-18T08:58:38Z</time>
</trkpt>
<trkpt lat="46.043901" lon="13.497708">
<time>2021-07-18T08:58:39Z</time>
</trkpt>
<trkpt lat="46.043883" lon="13.497715">
<time>2021-07-18T08:58:40Z</time>
</trkpt>
<trkpt lat="46.043863" lon="13.497716">
<time>2021-07-18T08:58:41Z</time>
</trkpt>
<trkpt lat="46.043843" lon="13.49772">
<time>2021-07-18T08:58:42Z</time>
</trkpt>
<trkpt lat="46.043818" lon="13.497726">
<time>2021-07-18T08:58:43Z</time>
</trkpt>
<trkpt lat="46.043803" lon="13.497731">
<time>2021-07-18T08:58:44Z</time>
</trkpt>
<trkpt lat="46.043786" lon="13.49774">
<time>2021-07-18T08:58:45Z</time>
</trkpt>
<trkpt lat="46.043761" lon="13.497738">
<time>2021-07-18T08:58:46Z</time>
</trkpt>
<trkpt lat="46.043736" lon="13.497738">
<time>2021-07-18T08:58:47Z</time>
</trkpt>
<trkpt lat="46.043713" lon="13.497733">
<time>2021-07-18T08:58:48Z</time>
</trkpt>
<trkpt lat="46.043695" lon="13.497726">
<time>2021-07-18T08:58:49Z</time>
</trkpt>
<trkpt lat="46.043675" lon="13.497723">
<time>2021-07-18T08:58:50Z</time>
</trkpt>
<trkpt lat="46.043656" lon="13.497721">
<time>2021-07-18T08:58:51Z</time>
</trkpt>
<trkpt lat="46.04364" lon="13.497713">
<time>2021-07-18T08:58:52Z</time>
</trkpt>
<trkpt lat="46.043618" lon="13.497705">
<time>2021-07-18T08:58:53Z</time>
</trkpt>
<trkpt lat="46.043605" lon="13.497698">
<time>2021-07-18T08:58:54Z</time>
</trkpt>
<trkpt lat="46.043583" lon="13.497686">
<time>2021-07-18T08:58:55Z</time>
</trkpt>
<trkpt lat="46.043568" lon="13.497678">
<time>2021-07-18T08:58:56Z</time>
</trkpt>
<trkpt lat="46.043556" lon="13.497666">
<time>2021-07-18T08:58:57Z</time>
</trkpt>
<trkpt lat="46.043548" lon="13.497655">
<time>2021-07-18T08:58:58Z</time>
</trkpt>
<trkpt lat="46.043535" lon="13.497636">
<time>2021-07-18T08:58:59Z</time>
</trkpt>
<trkpt lat="46.043515" lon="13.497613">
<time>2021-07-18T08:59:00Z</time>
</trkpt>
<trkpt lat="46.043496" lon="13.497591">
<time>2021-07-18T08:59:01Z</time>
</trkpt>
<trkpt lat="46.043478" lon="13.49757">
<time>2021-07-18T08:59:02Z</time>
</trkpt>
<trkpt lat="46.043466" lon="13.497555">
<time>2021-07-18T08:59:03Z</time>
</trkpt>
<trkpt lat="46.043453" lon="13.497541">
<time>2021-07-18T08:59:04Z</time>
</trkpt>
<trkpt lat="46.043446" lon="13.497528">
<time>2021-07-18T08:59:05Z</time>
</trkpt>
<trkpt lat="46.043435" lon="13.497511">
<time>2021-07-18T08:59:06Z</time>
</trkpt>
<trkpt lat="46.043421" lon="13.497491">
<time>2021-07-18T08:59:07Z</time>
</trkpt>
<trkpt lat="46.043413" lon="13.49747">
<time>2021-07-18T08:59:08Z</time>
</trkpt>
<trkpt lat="46.043405" lon="13.497448">
<time>2021-07-18T08:59:09Z</time>
</trkpt>
<trkpt lat="46.043396" lon="13.49742">
<time>2021-07-18T08:59:10Z</time>
</trkpt>
<trkpt lat="46.043386" lon="13.497393">
<time>2021-07-18T08:59:11Z</time>
</trkpt>
<trkpt lat="46.043373" lon="13.497361">
<time>2021-07-18T08:59:12Z</time>
</trkpt>
<trkpt lat="46.043361" lon="13.49734">
<time>2021-07-18T08:59:13Z</time>
</trkpt>
<trkpt lat="46.043351" lon="13.497313">
<time>2021-07-18T08:59:14Z</time>
</trkpt>
<trkpt lat="46.04334" lon="13.497288">
<time>2021-07-18T08:59:15Z</time>
</trkpt>
<trkpt lat="46.043333" lon="13.497266">
<time>2021-07-18T08:59:16Z</time>
</trkpt>
<trkpt lat="46.04332" lon="13.497245">
<time>2021-07-18T08:59:17Z</time>
</trkpt>
<trkpt lat="46.043306" lon="13.497225">
<time>2021-07-18T08:59:18Z</time>
</trkpt>
<trkpt lat="46.04329" lon="13.497208">
<time>2021-07-18T08:59:19Z</time>
</trkpt>
<trkpt lat="46.043266" lon="13.497196">
<time>2021-07-18T08:59:20Z</time>
</trkpt>
<trkpt lat="46.043248" lon="13.497191">
<time>2021-07-18T08:59:21Z</time>
</trkpt>
<trkpt lat="46.043228" lon="13.497196">
<time>2021-07-18T08:59:22Z</time>
</trkpt>
<trkpt lat="46.043208" lon="13.497205">
<time>2021-07-18T08:59:23Z</time>
</trkpt>
<trkpt lat="46.043188" lon="13.497216">
<time>2021-07-18T08:59:24Z</time>
</trkpt>
<trkpt lat="46.043166" lon="13.497225">
<time>2021-07-18T08:59:25Z</time>
</trkpt>
<trkpt lat="46.043145" lon="13.497226">
<time>2021-07-18T08:59:26Z</time>
</trkpt>
<trkpt lat="46.043125" lon="13.497225">
<time>2021-07-18T08:59:27Z</time>
</trkpt>
<trkpt lat="46.043106" lon="13.497216">
<time>2021-07-18T08:59:28Z</time>
</trkpt>
<trkpt lat="46.043093" lon="13.497198">
<time>2021-07-18T08:59:29Z</time>
</trkpt>
<trkpt lat="46.043088" lon="13.497175">
<time>2021-07-18T08:59:30Z</time>
</trkpt>
<trkpt lat="46.043083" lon="13.497146">
<time>2021-07-18T08:59:31Z</time>
</trkpt>
<trkpt lat="46.043081" lon="13.497116">
<time>2021-07-18T08:59:32Z</time>
</trkpt>
<trkpt lat="46.04308" lon="13.497088">
<time>2021-07-18T08:59:33Z</time>
</trkpt>
<trkpt lat="46.04308" lon="13.497061">
<time>2021-07-18T08:59:34Z</time>
</trkpt>
<trkpt lat="46.043078" lon="13.497031">
<time>2021-07-18T08:59:35Z</time>
</trkpt>
<trkpt lat="46.043078" lon="13.497001">
<time>2021-07-18T08:59:36Z</time>
</trkpt>
<trkpt lat="46.043078" lon="13.496971">
<time>2021-07-18T08:59:37Z</time>
</trkpt>
<trkpt lat="46.043078" lon="13.49694">
<time>2021-07-18T08:59:38Z</time>
</trkpt>
<trkpt lat="46.043076" lon="13.496908">
<time>2021-07-18T08:59:39Z</time>
</trkpt>
<trkpt lat="46.043075" lon="13.49688">
<time>2021-07-18T08:59:40Z</time>
</trkpt>
<trkpt lat="46.043071" lon="13.496848">
<time>2021-07-18T08:59:41Z</time>
</trkpt>
<trkpt lat="46.043068" lon="13.496818">
<time>2021-07-18T08:59:42Z</time>
</trkpt>
<trkpt lat="46.043061" lon="13.496785">
<time>2021-07-18T08:59:43Z</time>
</trkpt>
<trkpt lat="46.043055" lon="13.496746">
<time>2021-07-18T08:59:44Z</time>
</trkpt>
<trkpt lat="46.043043" lon="13.496703">
<time>2021-07-18T08:59:45Z</time>
</trkpt>
<trkpt lat="46.043033" lon="13.496656">
<time>2021-07-18T08:59:46Z</time>
</trkpt>
<trkpt lat="46.043016" lon="13.4966">
<time>2021-07-18T08:59:47Z</time>
</trkpt>
<trkpt lat="46.043001" lon="13.496543">
<time>2021-07-18T08:59:48Z</time>
</trkpt>
<trkpt lat="46.042988" lon="13.496481">
<time>2021-07-18T08:59:49Z</time>
</trkpt>
<trkpt lat="46.042971" lon="13.496418">
<time>2021-07-18T08:59:50Z</time>
</trkpt>
<trkpt lat="46.042951" lon="13.496351">
<time>2021-07-18T08:59:51Z</time>
</trkpt>
<trkpt lat="46.042928" lon="13.49628">
<time>2021-07-18T08:59:52Z</time>
</trkpt>
<trkpt lat="46.042903" lon="13.496203">
<time>2021-07-18T08:59:53Z</time>
</trkpt>
<trkpt lat="46.042878" lon="13.496128">
<time>2021-07-18T08:59:54Z</time>
</trkpt>
<trkpt lat="46.042855" lon="13.496051">
<time>2021-07-18T08:59:55Z</time>
</trkpt>
<trkpt lat="46.042828" lon="13.495975">
<time>2021-07-18T08:59:56Z</time>
</trkpt>
<trkpt lat="46.042798" lon="13.49588">
<time>2021-07-18T08:59:57Z</time>
</trkpt>
<trkpt lat="46.042776" lon="13.495813">
<time>2021-07-18T08:59:58Z</time>
</trkpt>
<trkpt lat="46.04275" lon="13.495733">
<time>2021-07-18T08:59:59Z</time>
</trkpt>
<trkpt lat="46.04272" lon="13.49565">
<time>2021-07-18T09:00:00Z</time>
</trkpt>
<trkpt lat="46.042688" lon="13.495565">
<time>2021-07-18T09:00:01Z</time>
</trkpt>
<trkpt lat="46.04266" lon="13.49548">
<time>2021-07-18T09:00:02Z</time>
</trkpt>
<trkpt lat="46.042631" lon="13.495395">
<time>2021-07-18T09:00:03Z</time>
</trkpt>
<trkpt lat="46.042605" lon="13.495311">
<time>2021-07-18T09:00:04Z</time>
</trkpt>
<trkpt lat="46.042576" lon="13.49523">
<time>2021-07-18T09:00:05Z</time>
</trkpt>
<trkpt lat="46.042546" lon="13.495146">
<time>2021-07-18T09:00:06Z</time>
</trkpt>
<trkpt lat="46.042518" lon="13.495063">
<time>2021-07-18T09:00:07Z</time>
</trkpt>
<trkpt lat="46.042488" lon="13.494981">
<time>2021-07-18T09:00:08Z</time>
</trkpt>
<trkpt lat="46.04246" lon="13.494901">
<time>2021-07-18T09:00:09Z</time>
</trkpt>
<trkpt lat="46.042433" lon="13.494818">
<time>2021-07-18T09:00:10Z</time>
</trkpt>
<trkpt lat="46.042411" lon="13.494735">
<time>2021-07-18T09:00:11Z</time>
</trkpt>
<trkpt lat="46.042396" lon="13.494645">
<time>2021-07-18T09:00:12Z</time>
</trkpt>
<trkpt lat="46.042381" lon="13.494546">
<time>2021-07-18T09:00:13Z</time>
</trkpt>
<trkpt lat="46.04237" lon="13.494441">
<time>2021-07-18T09:00:14Z</time>
</trkpt>
<trkpt lat="46.042356" lon="13.494333">
<time>2021-07-18T09:00:15Z</time>
</trkpt>
<trkpt lat="46.042341" lon="13.494216">
<time>2021-07-18T09:00:16Z</time>
</trkpt>
<trkpt lat="46.042321" lon="13.494098">
<time>2021-07-18T09:00:17Z</time>
</trkpt>
<trkpt lat="46.04229" lon="13.493985">
<time>2021-07-18T09:00:18Z</time>
</trkpt>
<trkpt lat="46.04226" lon="13.49389">
<time>2021-07-18T09:00:19Z</time>
</trkpt>
<trkpt lat="46.042221" lon="13.493816">
<time>2021-07-18T09:00:20Z</time>
</trkpt>
<trkpt lat="46.042178" lon="13.493753">
<time>2021-07-18T09:00:21Z</time>
</trkpt>
<trkpt lat="46.042121" lon="13.493713">
<time>2021-07-18T09:00:22Z</time>
</trkpt>
<trkpt lat="46.042061" lon="13.493698">
<time>2021-07-18T09:00:23Z</time>
</trkpt>
<trkpt lat="46.042001" lon="13.493695">
<time>2021-07-18T09:00:24Z</time>
</trkpt>
<trkpt lat="46.041945" lon="13.493696">
<time>2021-07-18T09:00:25Z</time>
</trkpt>
<trkpt lat="46.04189" lon="13.493688">
<time>2021-07-18T09:00:26Z</time>
</trkpt>
<trkpt lat="46.041836" lon="13.493661">
<time>2021-07-18T09:00:27Z</time>
</trkpt>
<trkpt lat="46.041788" lon="13.493628">
<time>2021-07-18T09:00:28Z</time>
</trkpt>
<trkpt lat="46.041743" lon="13.493588">
<time>2021-07-18T09:00:29Z</time>
</trkpt>
<trkpt lat="46.041701" lon="13.493545">
<time>2021-07-18T09:00:30Z</time>
</trkpt>
<trkpt lat="46.041663" lon="13.493505">
<time>2021-07-18T09:00:31Z</time>
</trkpt>
<trkpt lat="46.041625" lon="13.493463">
<time>2021-07-18T09:00:32Z</time>
</trkpt>
<trkpt lat="46.041585" lon="13.493421">
<time>2021-07-18T09:00:33Z</time>
</trkpt>
<trkpt lat="46.041545" lon="13.493383">
<time>2021-07-18T09:00:34Z</time>
</trkpt>
<trkpt lat="46.041506" lon="13.493348">
<time>2021-07-18T09:00:35Z</time>
</trkpt>
<trkpt lat="46.04147" lon="13.493315">
<time>2021-07-18T09:00:36Z</time>
</trkpt>
<trkpt lat="46.041426" lon="13.49327">
<time>2021-07-18T09:00:37Z</time>
</trkpt>
<trkpt lat="46.041381" lon="13.493228">
<time>2021-07-18T09:00:38Z</time>
</trkpt>
<trkpt lat="46.04134" lon="13.493193">
<time>2021-07-18T09:00:39Z</time>
</trkpt>
<trkpt lat="46.041303" lon="13.493163">
<time>2021-07-18T09:00:40Z</time>
</trkpt>
<trkpt lat="46.04126" lon="13.493121">
<time>2021-07-18T09:00:41Z</time>
</trkpt>
<trkpt lat="46.041218" lon="13.493081">
<time>2021-07-18T09:00:42Z</time>
</trkpt>
<trkpt lat="46.041178" lon="13.493043">
<time>2021-07-18T09:00:43Z</time>
</trkpt>
<trkpt lat="46.041138" lon="13.493005">
<time>2021-07-18T09:00:44Z</time>
</trkpt>
<trkpt lat="46.0411" lon="13.492966">
<time>2021-07-18T09:00:45Z</time>
</trkpt>
<trkpt lat="46.041061" lon="13.492933">
<time>2021-07-18T09:00:46Z</time>
</trkpt>
<trkpt lat="46.041021" lon="13.492903">
<time>2021-07-18T09:00:47Z</time>
</trkpt>
<trkpt lat="46.040985" lon="13.492875">
<time>2021-07-18T09:00:48Z</time>
</trkpt>
<trkpt lat="46.040948" lon="13.492845">
<time>2021-07-18T09:00:49Z</time>
</trkpt>
<trkpt lat="46.040915" lon="13.492813">
<time>2021-07-18T09:00:50Z</time>
</trkpt>
<trkpt lat="46.040885" lon="13.492775">
<time>2021-07-18T09:00:51Z</time>
</trkpt>
<trkpt lat="46.040858" lon="13.492736">
<time>2021-07-18T09:00:52Z</time>
</trkpt>
<trkpt lat="46.040831" lon="13.4927">
<time>2021-07-18T09:00:53Z</time>
</trkpt>
<trkpt lat="46.040806" lon="13.492661">
<time>2021-07-18T09:00:54Z</time>
</trkpt>
<trkpt lat="46.040781" lon="13.492616">
<time>2021-07-18T09:00:55Z</time>
</trkpt>
<trkpt lat="46.040756" lon="13.492568">
<time>2021-07-18T09:00:56Z</time>
</trkpt>
<trkpt lat="46.04074" lon="13.49252">
<time>2021-07-18T09:00:57Z</time>
</trkpt>
<trkpt lat="46.040728" lon="13.49247">
<time>2021-07-18T09:00:58Z</time>
</trkpt>
<trkpt lat="46.04072" lon="13.492416">
<time>2021-07-18T09:00:59Z</time>
</trkpt>
<trkpt lat="46.040713" lon="13.492363">
<time>2021-07-18T09:01:00Z</time>
</trkpt>
<trkpt lat="46.040703" lon="13.492303">
<time>2021-07-18T09:01:01Z</time>
</trkpt>
<trkpt lat="46.040693" lon="13.49224">
<time>2021-07-18T09:01:02Z</time>
</trkpt>
<trkpt lat="46.040678" lon="13.492175">
<time>2021-07-18T09:01:03Z</time>
</trkpt>
<trkpt lat="46.04065" lon="13.492118">
<time>2021-07-18T09:01:04Z</time>
</trkpt>
<trkpt lat="46.04062" lon="13.492071">
<time>2021-07-18T09:01:05Z</time>
</trkpt>
<trkpt lat="46.040588" lon="13.492026">
<time>2021-07-18T09:01:06Z</time>
</trkpt>
<trkpt lat="46.040553" lon="13.491975">
<time>2021-07-18T09:01:07Z</time>
</trkpt>
<trkpt lat="46.040523" lon="13.491921">
<time>2021-07-18T09:01:08Z</time>
</trkpt>
<trkpt lat="46.040491" lon="13.491868">
<time>2021-07-18T09:01:09Z</time>
</trkpt>
<trkpt lat="46.040465" lon="13.491818">
<time>2021-07-18T09:01:10Z</time>
</trkpt>
<trkpt lat="46.040436" lon="13.491771">
<time>2021-07-18T09:01:11Z</time>
</trkpt>
<trkpt lat="46.04041" lon="13.491726">
<time>2021-07-18T09:01:12Z</time>
</trkpt>
<trkpt lat="46.040381" lon="13.491685">
<time>2021-07-18T09:01:13Z</time>
</trkpt>
<trkpt lat="46.040355" lon="13.491645">
<time>2021-07-18T09:01:14Z</time>
</trkpt>
<trkpt lat="46.040328" lon="13.491608">
<time>2021-07-18T09:01:15Z</time>
</trkpt>
<trkpt lat="46.040301" lon="13.491576">
<time>2021-07-18T09:01:16Z</time>
</trkpt>
<trkpt lat="46.040276" lon="13.491546">
<time>2021-07-18T09:01:17Z</time>
</trkpt>
<trkpt lat="46.040248" lon="13.49151">
<time>2021-07-18T09:01:18Z</time>
</trkpt>
<trkpt lat="46.040223" lon="13.49147">
<time>2021-07-18T09:01:19Z</time>
</trkpt>
<trkpt lat="46.040196" lon="13.49142">
<time>2021-07-18T09:01:20Z</time>
</trkpt>
<trkpt lat="46.040168" lon="13.491368">
<time>2021-07-18T09:01:21Z</time>
</trkpt>
<trkpt lat="46.040146" lon="13.491315">
<time>2021-07-18T09:01:22Z</time>
</trkpt>
<trkpt lat="46.040125" lon="13.49127">
<time>2021-07-18T09:01:23Z</time>
</trkpt>
<trkpt lat="46.0401" lon="13.491231">
<time>2021-07-18T09:01:24Z</time>
</trkpt>
<trkpt lat="46.04007" lon="13.4912">
<time>2021-07-18T09:01:25Z</time>
</trkpt>
<trkpt lat="46.040031" lon="13.491168">
<time>2021-07-18T09:01:26Z</time>
</trkpt>
<trkpt lat="46.03999" lon="13.491143">
<time>2021-07-18T09:01:27Z</time>
</trkpt>
<trkpt lat="46.039948" lon="13.491113">
<time>2021-07-18T09:01:28Z</time>
</trkpt>
<trkpt lat="46.039901" lon="13.491076">
<time>2021-07-18T09:01:29Z</time>
</trkpt>
<trkpt lat="46.03985" lon="13.491028">
<time>2021-07-18T09:01:30Z</time>
</trkpt>
<trkpt lat="46.039781" lon="13.490951">
<time>2021-07-18T09:01:31Z</time>
</trkpt>
<trkpt lat="46.039725" lon="13.49088">
<time>2021-07-18T09:01:32Z</time>
</trkpt>
<trkpt lat="46.039663" lon="13.490816">
<time>2021-07-18T09:01:33Z</time>
</trkpt>
<trkpt lat="46.03961" lon="13.49077">
<time>2021-07-18T09:01:34Z</time>
</trkpt>
<trkpt lat="46.039563" lon="13.49073">
<time>2021-07-18T09:01:35Z</time>
</trkpt>
<trkpt lat="46.03954" lon="13.490688">
<time>2021-07-18T09:01:36Z</time>
</trkpt>
<trkpt lat="46.039518" lon="13.490643">
<time>2021-07-18T09:01:37Z</time>
</trkpt>
<trkpt lat="46.039508" lon="13.490601">
<time>2021-07-18T09:01:38Z</time>
</trkpt>
<trkpt lat="46.039496" lon="13.49057">
<time>2021-07-18T09:01:39Z</time>
</trkpt>
<trkpt lat="46.039486" lon="13.490548">
<time>2021-07-18T09:01:40Z</time>
</trkpt>
<trkpt lat="46.039465" lon="13.490533">
<time>2021-07-18T09:01:41Z</time>
</trkpt>
<trkpt lat="46.03944" lon="13.490533">
<time>2021-07-18T09:01:42Z</time>
</trkpt>
<trkpt lat="46.039411" lon="13.490543">
<time>2021-07-18T09:01:43Z</time>
</trkpt>
<trkpt lat="46.039371" lon="13.490561">
<time>2021-07-18T09:01:44Z</time>
</trkpt>
<trkpt lat="46.039328" lon="13.490571">
<time>2021-07-18T09:01:45Z</time>
</trkpt>
<trkpt lat="46.039291" lon="13.490586">
<time>2021-07-18T09:01:46Z</time>
</trkpt>
<trkpt lat="46.039261" lon="13.490605">
<time>2021-07-18T09:01:47Z</time>
</trkpt>
<trkpt lat="46.039221" lon="13.490615">
<time>2021-07-18T09:01:48Z</time>
</trkpt>
<trkpt lat="46.03919" lon="13.49063">
<time>2021-07-18T09:01:49Z</time>
</trkpt>
<trkpt lat="46.039148" lon="13.490643">
<time>2021-07-18T09:01:50Z</time>
</trkpt>
<trkpt lat="46.039115" lon="13.490655">
<time>2021-07-18T09:01:51Z</time>
</trkpt>
<trkpt lat="46.039068" lon="13.49067">
<time>2021-07-18T09:01:52Z</time>
</trkpt>
<trkpt lat="46.039015" lon="13.490681">
<time>2021-07-18T09:01:53Z</time>
</trkpt>
<trkpt lat="46.03897" lon="13.490695">
<time>2021-07-18T09:01:54Z</time>
</trkpt>
<trkpt lat="46.038921" lon="13.490715">
<time>2021-07-18T09:01:55Z</time>
</trkpt>
<trkpt lat="46.038883" lon="13.490758">
<time>2021-07-18T09:01:56Z</time>
</trkpt>
<trkpt lat="46.038841" lon="13.490815">
<time>2021-07-18T09:01:57Z</time>
</trkpt>
<trkpt lat="46.038791" lon="13.490861">
<time>2021-07-18T09:01:58Z</time>
</trkpt>
<trkpt lat="46.038741" lon="13.490905">
<time>2021-07-18T09:01:59Z</time>
</trkpt>
<trkpt lat="46.038686" lon="13.490933">
<time>2021-07-18T09:02:00Z</time>
</trkpt>
<trkpt lat="46.038646" lon="13.490945">
<time>2021-07-18T09:02:01Z</time>
</trkpt>
<trkpt lat="46.038613" lon="13.490956">
<time>2021-07-18T09:02:02Z</time>
</trkpt>
<trkpt lat="46.038588" lon="13.490958">
<time>2021-07-18T09:02:03Z</time>
</trkpt>
<trkpt lat="46.03856" lon="13.490968">
<time>2021-07-18T09:02:04Z</time>
</trkpt>
<trkpt lat="46.038535" lon="13.49096">
<time>2021-07-18T09:02:05Z</time>
</trkpt>
<trkpt lat="46.038513" lon="13.490943">
<time>2021-07-18T09:02:06Z</time>
</trkpt>
<trkpt lat="46.038495" lon="13.490953">
<time>2021-07-18T09:02:07Z</time>
</trkpt>
<trkpt lat="46.038485" lon="13.49097">
<time>2021-07-18T09:02:08Z</time>
</trkpt>
<trkpt lat="46.03848" lon="13.490991">
<time>2021-07-18T09:02:09Z</time>
</trkpt>
<trkpt lat="46.038485" lon="13.49102">
<time>2021-07-18T09:02:10Z</time>
</trkpt>
<trkpt lat="46.038495" lon="13.491051">
<time>2021-07-18T09:02:11Z</time>
</trkpt>
<trkpt lat="46.038503" lon="13.491088">
<time>2021-07-18T09:02:12Z</time>
</trkpt>
<trkpt lat="46.038505" lon="13.491125">
<time>2021-07-18T09:02:13Z</time>
</trkpt>
<trkpt lat="46.038501" lon="13.491166">
<time>2021-07-18T09:02:14Z</time>
</trkpt>
<trkpt lat="46.0385" lon="13.491208">
<time>2021-07-18T09:02:15Z</time>
</trkpt>
<trkpt lat="46.038493" lon="13.491241">
<time>2021-07-18T09:02:16Z</time>
</trkpt>
<trkpt lat="46.0385" lon="13.491276">
<time>2021-07-18T09:02:17Z</time>
</trkpt>
<trkpt lat="46.038503" lon="13.491318">
<time>2021-07-18T09:02:18Z</time>
</trkpt>
<trkpt lat="46.038501" lon="13.491373">
<time>2021-07-18T09:02:19Z</time>
</trkpt>
<trkpt lat="46.038498" lon="13.491443">
<time>2021-07-18T09:02:20Z</time>
</trkpt>
<trkpt lat="46.03849" lon="13.49149">
<time>2021-07-18T09:02:21Z</time>
</trkpt>
<trkpt lat="46.038485" lon="13.49153">
<time>2021-07-18T09:02:22Z</time>
</trkpt>
<trkpt lat="46.038486" lon="13.491568">
<time>2021-07-18T09:02:23Z</time>
</trkpt>
<trkpt lat="46.038483" lon="13.491608">
<time>2021-07-18T09:02:24Z</time>
</trkpt>
<trkpt lat="46.038485" lon="13.491656">
<time>2021-07-18T09:02:25Z</time>
</trkpt>
<trkpt lat="46.03849" lon="13.491708">
<time>2021-07-18T09:02:26Z</time>
</trkpt>
<trkpt lat="46.038495" lon="13.491761">
<time>2021-07-18T09:02:27Z</time>
</trkpt>
<trkpt lat="46.038493" lon="13.491821">
<time>2021-07-18T09:02:28Z</time>
</trkpt>
<trkpt lat="46.038495" lon="13.491875">
<time>2021-07-18T09:02:29Z</time>
</trkpt>
<trkpt lat="46.038493" lon="13.491928">
<time>2021-07-18T09:02:30Z</time>
</trkpt>
<trkpt lat="46.038488" lon="13.491976">
<time>2021-07-18T09:02:31Z</time>
</trkpt>
<trkpt lat="46.03848" lon="13.49203">
<time>2021-07-18T09:02:32Z</time>
</trkpt>
<trkpt lat="46.038476" lon="13.492085">
<time>2021-07-18T09:02:33Z</time>
</trkpt>
<trkpt lat="46.038471" lon="13.49214">
<time>2021-07-18T09:02:34Z</time>
</trkpt>
<trkpt lat="46.038463" lon="13.492188">
<time>2021-07-18T09:02:35Z</time>
</trkpt>
<trkpt lat="46.038456" lon="13.492235">
<time>2021-07-18T09:02:36Z</time>
</trkpt>
<trkpt lat="46.038451" lon="13.492278">
<time>2021-07-18T09:02:37Z</time>
</trkpt>
<trkpt lat="46.038445" lon="13.492321">
<time>2021-07-18T09:02:38Z</time>
</trkpt>
<trkpt lat="46.038443" lon="13.49236">
<time>2021-07-18T09:02:39Z</time>
</trkpt>
<trkpt lat="46.038448" lon="13.492393">
<time>2021-07-18T09:02:40Z</time>
</trkpt>
<trkpt lat="46.03845" lon="13.492423">
<time>2021-07-18T09:02:41Z</time>
</trkpt>
<trkpt lat="46.038453" lon="13.492453">
<time>2021-07-18T09:02:42Z</time>
</trkpt>
<trkpt lat="46.03847" lon="13.49248">
<time>2021-07-18T09:02:43Z</time>
</trkpt>
<trkpt lat="46.03848" lon="13.492511">
<time>2021-07-18T09:02:44Z</time>
</trkpt>
<trkpt lat="46.038485" lon="13.492541">
<time>2021-07-18T09:02:45Z</time>
</trkpt>
<trkpt lat="46.038488" lon="13.492573">
<time>2021-07-18T09:02:46Z</time>
</trkpt>
<trkpt lat="46.038495" lon="13.492618">
<time>2021-07-18T09:02:47Z</time>
</trkpt>
<trkpt lat="46.038498" lon="13.492663">
<time>2021-07-18T09:02:48Z</time>
</trkpt>
<trkpt lat="46.038505" lon="13.492705">
<time>2021-07-18T09:02:49Z</time>
</trkpt>
<trkpt lat="46.038503" lon="13.492755">
<time>2021-07-18T09:02:50Z</time>
</trkpt>
<trkpt lat="46.038506" lon="13.492801">
<time>2021-07-18T09:02:51Z</time>
</trkpt>
<trkpt lat="46.03851" lon="13.492836">
<time>2021-07-18T09:02:52Z</time>
</trkpt>
<trkpt lat="46.03852" lon="13.492871">
<time>2021-07-18T09:02:53Z</time>
</trkpt>
<trkpt lat="46.038543" lon="13.49291">
<time>2021-07-18T09:02:54Z</time>
</trkpt>
<trkpt lat="46.038561" lon="13.492951">
<time>2021-07-18T09:02:55Z</time>
</trkpt>
<trkpt lat="46.038575" lon="13.492988">
<time>2021-07-18T09:02:56Z</time>
</trkpt>
<trkpt lat="46.038585" lon="13.493021">
<time>2021-07-18T09:02:57Z</time>
</trkpt>
<trkpt lat="46.038598" lon="13.493053">
<time>2021-07-18T09:02:58Z</time>
</trkpt>
<trkpt lat="46.038615" lon="13.493076">
<time>2021-07-18T09:02:59Z</time>
</trkpt>
<trkpt lat="46.038635" lon="13.493101">
<time>2021-07-18T09:03:00Z</time>
</trkpt>
<trkpt lat="46.03866" lon="13.49313">
<time>2021-07-18T09:03:01Z</time>
</trkpt>
<trkpt lat="46.038683" lon="13.493165">
<time>2021-07-18T09:03:02Z</time>
</trkpt>
<trkpt lat="46.038706" lon="13.493216">
<time>2021-07-18T09:03:03Z</time>
</trkpt>
<trkpt lat="46.038723" lon="13.493261">
<time>2021-07-18T09:03:04Z</time>
</trkpt>
<trkpt lat="46.03874" lon="13.4933">
<time>2021-07-18T09:03:05Z</time>
</trkpt>
<trkpt lat="46.038738" lon="13.493326">
<time>2021-07-18T09:03:06Z</time>
</trkpt>
<trkpt lat="46.038738" lon="13.49334">
<time>2021-07-18T09:03:07Z</time>
</trkpt>
<trkpt lat="46.038735" lon="13.493351">
<time>2021-07-18T09:03:08Z</time>
</trkpt>
<trkpt lat="46.038723" lon="13.49336">
<time>2021-07-18T09:03:09Z</time>
</trkpt>
<trkpt lat="46.038713" lon="13.493361">
<time>2021-07-18T09:03:10Z</time>
</trkpt>
<trkpt lat="46.038696" lon="13.493366">
<time>2021-07-18T09:03:11Z</time>
</trkpt>
<trkpt lat="46.038681" lon="13.493373">
<time>2021-07-18T09:03:12Z</time>
</trkpt>
<trkpt lat="46.038661" lon="13.493388">
<time>2021-07-18T09:03:13Z</time>
</trkpt>
<trkpt lat="46.038643" lon="13.493396">
<time>2021-07-18T09:03:14Z</time>
</trkpt>
<trkpt lat="46.038625" lon="13.49341">
<time>2021-07-18T09:03:15Z</time>
</trkpt>
<trkpt lat="46.03862" lon="13.493416">
<time>2021-07-18T09:03:16Z</time>
</trkpt>
<trkpt lat="46.038613" lon="13.49342">
<time>2021-07-18T09:03:17Z</time>
</trkpt>
<trkpt lat="46.038603" lon="13.493416">
<time>2021-07-18T09:03:18Z</time>
</trkpt>
<trkpt lat="46.03859" lon="13.493415">
<time>2021-07-18T09:03:19Z</time>
</trkpt>
<trkpt lat="46.03858" lon="13.49341">
<time>2021-07-18T09:03:20Z</time>
</trkpt>
<trkpt lat="46.03857" lon="13.493411">
<time>2021-07-18T09:03:21Z</time>
</trkpt>
<trkpt lat="46.038558" lon="13.493421">
<time>2021-07-18T09:03:22Z</time>
</trkpt>
<trkpt lat="46.038545" lon="13.49343">
<time>2021-07-18T09:03:23Z</time>
</trkpt>
<trkpt lat="46.038536" lon="13.493438">
<time>2021-07-18T09:03:24Z</time>
</trkpt>
<trkpt lat="46.038526" lon="13.493448">
<time>2021-07-18T09:03:25Z</time>
</trkpt>
<trkpt lat="46.038516" lon="13.493456">
<time>2021-07-18T09:03:26Z</time>
</trkpt>
<trkpt lat="46.03851" lon="13.493468">
<time>2021-07-18T09:03:27Z</time>
</trkpt>
<trkpt lat="46.038503" lon="13.493486">
<time>2021-07-18T09:03:28Z</time>
</trkpt>
<trkpt lat="46.038498" lon="13.493506">
<time>2021-07-18T09:03:29Z</time>
</trkpt>
<trkpt lat="46.038495" lon="13.493531">
<time>2021-07-18T09:03:30Z</time>
</trkpt>
<trkpt lat="46.038486" lon="13.493546">
<time>2021-07-18T09:03:31Z</time>
</trkpt>
<trkpt lat="46.038471" lon="13.493551">
<time>2021-07-18T09:03:32Z</time>
</trkpt>
<trkpt lat="46.038451" lon="13.493548">
<time>2021-07-18T09:03:33Z</time>
</trkpt>
<trkpt lat="46.038428" lon="13.493543">
<time>2021-07-18T09:03:34Z</time>
</trkpt>
<trkpt lat="46.03839" lon="13.493538">
<time>2021-07-18T09:03:35Z</time>
</trkpt>
<trkpt lat="46.038351" lon="13.49353">
<time>2021-07-18T09:03:36Z</time>
</trkpt>
<trkpt lat="46.03831" lon="13.493523">
<time>2021-07-18T09:03:37Z</time>
</trkpt>
<trkpt lat="46.038266" lon="13.493513">
<time>2021-07-18T09:03:38Z</time>
</trkpt>
<trkpt lat="46.038226" lon="13.493508">
<time>2021-07-18T09:03:39Z</time>
</trkpt>
<trkpt lat="46.038185" lon="13.493508">
<time>2021-07-18T09:03:40Z</time>
</trkpt>
<trkpt lat="46.038138" lon="13.493506">
<time>2021-07-18T09:03:41Z</time>
</trkpt>
<trkpt lat="46.038088" lon="13.493506">
<time>2021-07-18T09:03:42Z</time>
</trkpt>
<trkpt lat="46.038055" lon="13.493506">
<time>2021-07-18T09:03:43Z</time>
</trkpt>
<trkpt lat="46.03801" lon="13.493506">
<time>2021-07-18T09:03:44Z</time>
</trkpt>
<trkpt lat="46.037961" lon="13.493515">
<time>2021-07-18T09:03:45Z</time>
</trkpt>
<trkpt lat="46.037903" lon="13.493525">
<time>2021-07-18T09:03:46Z</time>
</trkpt>
<trkpt lat="46.037833" lon="13.49353">
<time>2021-07-18T09:03:47Z</time>
</trkpt>
<trkpt lat="46.037786" lon="13.493536">
<time>2021-07-18T09:03:48Z</time>
</trkpt>
<trkpt lat="46.03773" lon="13.493546">
<time>2021-07-18T09:03:49Z</time>
</trkpt>
<trkpt lat="46.037665" lon="13.493546">
<time>2021-07-18T09:03:50Z</time>
</trkpt>
<trkpt lat="46.037593" lon="13.493535">
<time>2021-07-18T09:03:51Z</time>
</trkpt>
<trkpt lat="46.037548" lon="13.493511">
<time>2021-07-18T09:03:52Z</time>
</trkpt>
<trkpt lat="46.03749" lon="13.493473">
<time>2021-07-18T09:03:53Z</time>
</trkpt>
<trkpt lat="46.037448" lon="13.493443">
<time>2021-07-18T09:03:54Z</time>
</trkpt>
<trkpt lat="46.037391" lon="13.493411">
<time>2021-07-18T09:03:55Z</time>
</trkpt>
<trkpt lat="46.037323" lon="13.49339">
<time>2021-07-18T09:03:56Z</time>
</trkpt>
<trkpt lat="46.037266" lon="13.493378">
<time>2021-07-18T09:03:57Z</time>
</trkpt>
<trkpt lat="46.037218" lon="13.493376">
<time>2021-07-18T09:03:58Z</time>
</trkpt>
<trkpt lat="46.037161" lon="13.493368">
<time>2021-07-18T09:03:59Z</time>
</trkpt>
<trkpt lat="46.037115" lon="13.493356">
<time>2021-07-18T09:04:00Z</time>
</trkpt>
<trkpt lat="46.037056" lon="13.493318">
<time>2021-07-18T09:04:01Z</time>
</trkpt>
<trkpt lat="46.03702" lon="13.49328">
<time>2021-07-18T09:04:02Z</time>
</trkpt>
<trkpt lat="46.03697" lon="13.493226">
<time>2021-07-18T09:04:03Z</time>
</trkpt>
<trkpt lat="46.036903" lon="13.493168">
<time>2021-07-18T09:04:04Z</time>
</trkpt>
<trkpt lat="46.036848" lon="13.49311">
<time>2021-07-18T09:04:05Z</time>
</trkpt>
<trkpt lat="46.036803" lon="13.493061">
<time>2021-07-18T09:04:06Z</time>
</trkpt>
<trkpt lat="46.036756" lon="13.492998">
<time>2021-07-18T09:04:07Z</time>
</trkpt>
<trkpt lat="46.036716" lon="13.492931">
<time>2021-07-18T09:04:08Z</time>
</trkpt>
<trkpt lat="46.036675" lon="13.49286">
<time>2021-07-18T09:04:09Z</time>
</trkpt>
<trkpt lat="46.036633" lon="13.492801">
<time>2021-07-18T09:04:10Z</time>
</trkpt>
<trkpt lat="46.036598" lon="13.492725">
<time>2021-07-18T09:04:11Z</time>
</trkpt>
<trkpt lat="46.036556" lon="13.492636">
<time>2021-07-18T09:04:12Z</time>
</trkpt>
<trkpt lat="46.036525" lon="13.492575">
<time>2021-07-18T09:04:13Z</time>
</trkpt>
<trkpt lat="46.036483" lon="13.492515">
<time>2021-07-18T09:04:14Z</time>
</trkpt>
<trkpt lat="46.036441" lon="13.492451">
<time>2021-07-18T09:04:15Z</time>
</trkpt>
<trkpt lat="46.0364" lon="13.492393">
<time>2021-07-18T09:04:16Z</time>
</trkpt>
<trkpt lat="46.036336" lon="13.492315">
<time>2021-07-18T09:04:17Z</time>
</trkpt>
<trkpt lat="46.03629" lon="13.492255">
<time>2021-07-18T09:04:18Z</time>
</trkpt>
<trkpt lat="46.036255" lon="13.492206">
<time>2021-07-18T09:04:19Z</time>
</trkpt>
<trkpt lat="46.036196" lon="13.492123">
<time>2021-07-18T09:04:20Z</time>
</trkpt>
<trkpt lat="46.036151" lon="13.492046">
<time>2021-07-18T09:04:21Z</time>
</trkpt>
<trkpt lat="46.036115" lon="13.491981">
<time>2021-07-18T09:04:22Z</time>
</trkpt>
<trkpt lat="46.036076" lon="13.491911">
<time>2021-07-18T09:04:23Z</time>
</trkpt>
<trkpt lat="46.03603" lon="13.491841">
<time>2021-07-18T09:04:24Z</time>
</trkpt>
<trkpt lat="46.035993" lon="13.49182">
<time>2021-07-18T09:04:25Z</time>
</trkpt>
<trkpt lat="46.035961" lon="13.491831">
<time>2021-07-18T09:04:26Z</time>
</trkpt>
<trkpt lat="46.035945" lon="13.49187">
<time>2021-07-18T09:04:27Z</time>
</trkpt>
<trkpt lat="46.035935" lon="13.491958">
<time>2021-07-18T09:04:28Z</time>
</trkpt>
<trkpt lat="46.035911" lon="13.492046">
<time>2021-07-18T09:04:29Z</time>
</trkpt>
<trkpt lat="46.035886" lon="13.492135">
<time>2021-07-18T09:04:30Z</time>
</trkpt>
<trkpt lat="46.03586" lon="13.492223">
<time>2021-07-18T09:04:31Z</time>
</trkpt>
<trkpt lat="46.035835" lon="13.49232">
<time>2021-07-18T09:04:32Z</time>
</trkpt>
<trkpt lat="46.035806" lon="13.49241">
<time>2021-07-18T09:04:33Z</time>
</trkpt>
<trkpt lat="46.035781" lon="13.492501">
<time>2021-07-18T09:04:34Z</time>
</trkpt>
<trkpt lat="46.035758" lon="13.492598">
<time>2021-07-18T09:04:35Z</time>
</trkpt>
<trkpt lat="46.03573" lon="13.492695">
<time>2021-07-18T09:04:36Z</time>
</trkpt>
<trkpt lat="46.035708" lon="13.4928">
<time>2021-07-18T09:04:37Z</time>
</trkpt>
<trkpt lat="46.035693" lon="13.492911">
<time>2021-07-18T09:04:38Z</time>
</trkpt>
<trkpt lat="46.035678" lon="13.493015">
<time>2021-07-18T09:04:39Z</time>
</trkpt>
<trkpt lat="46.035663" lon="13.493121">
<time>2021-07-18T09:04:40Z</time>
</trkpt>
<trkpt lat="46.035651" lon="13.493226">
<time>2021-07-18T09:04:41Z</time>
</trkpt>
<trkpt lat="46.035638" lon="13.493333">
<time>2021-07-18T09:04:42Z</time>
</trkpt>
<trkpt lat="46.035625" lon="13.49344">
<time>2021-07-18T09:04:43Z</time>
</trkpt>
<trkpt lat="46.035613" lon="13.493548">
<time>2021-07-18T09:04:44Z</time>
</trkpt>
<trkpt lat="46.035603" lon="13.493655">
<time>2021-07-18T09:04:45Z</time>
</trkpt>
<trkpt lat="46.035591" lon="13.493761">
<time>2021-07-18T09:04:46Z</time>
</trkpt>
<trkpt lat="46.035578" lon="13.493865">
<time>2021-07-18T09:04:47Z</time>
</trkpt>
<trkpt lat="46.035565" lon="13.49397">
<time>2021-07-18T09:04:48Z</time>
</trkpt>
<trkpt lat="46.035546" lon="13.494071">
<time>2021-07-18T09:04:49Z</time>
</trkpt>
<trkpt lat="46.035528" lon="13.494175">
<time>2021-07-18T09:04:50Z</time>
</trkpt>
<trkpt lat="46.035508" lon="13.494273">
<time>2021-07-18T09:04:51Z</time>
</trkpt>
<trkpt lat="46.035488" lon="13.494373">
<time>2021-07-18T09:04:52Z</time>
</trkpt>
<trkpt lat="46.035466" lon="13.49447">
<time>2021-07-18T09:04:53Z</time>
</trkpt>
<trkpt lat="46.035445" lon="13.494566">
<time>2021-07-18T09:04:54Z</time>
</trkpt>
<trkpt lat="46.035428" lon="13.494665">
<time>2021-07-18T09:04:55Z</time>
</trkpt>
<trkpt lat="46.035411" lon="13.494763">
<time>2021-07-18T09:04:56Z</time>
</trkpt>
<trkpt lat="46.035395" lon="13.494861">
<time>2021-07-18T09:04:57Z</time>
</trkpt>
<trkpt lat="46.035381" lon="13.494961">
<time>2021-07-18T09:04:58Z</time>
</trkpt>
<trkpt lat="46.035371" lon="13.49506">
<time>2021-07-18T09:04:59Z</time>
</trkpt>
<trkpt lat="46.03536" lon="13.495158">
<time>2021-07-18T09:05:00Z</time>
</trkpt>
<trkpt lat="46.03535" lon="13.49526">
<time>2021-07-18T09:05:01Z</time>
</trkpt>
<trkpt lat="46.035338" lon="13.49536">
<time>2021-07-18T09:05:02Z</time>
</trkpt>
<trkpt lat="46.035328" lon="13.49546">
<time>2021-07-18T09:05:03Z</time>
</trkpt>
<trkpt lat="46.035316" lon="13.495581">
<time>2021-07-18T09:05:04Z</time>
</trkpt>
<trkpt lat="46.035313" lon="13.495661">
<time>2021-07-18T09:05:05Z</time>
</trkpt>
<trkpt lat="46.035313" lon="13.495761">
<time>2021-07-18T09:05:06Z</time>
</trkpt>
<trkpt lat="46.035311" lon="13.495863">
<time>2021-07-18T09:05:07Z</time>
</trkpt>
<trkpt lat="46.03531" lon="13.495966">
<time>2021-07-18T09:05:08Z</time>
</trkpt>
<trkpt lat="46.03531" lon="13.496068">
<time>2021-07-18T09:05:09Z</time>
</trkpt>
<trkpt lat="46.035311" lon="13.496166">
<time>2021-07-18T09:05:10Z</time>
</trkpt>
<trkpt lat="46.035313" lon="13.49626">
<time>2021-07-18T09:05:11Z</time>
</trkpt>
<trkpt lat="46.035305" lon="13.496346">
<time>2021-07-18T09:05:12Z</time>
</trkpt>
<trkpt lat="46.035288" lon="13.496428">
<time>2021-07-18T09:05:13Z</time>
</trkpt>
<trkpt lat="46.035261" lon="13.496495">
<time>2021-07-18T09:05:14Z</time>
</trkpt>
<trkpt lat="46.035218" lon="13.496536">
<time>2021-07-18T09:05:15Z</time>
</trkpt>
<trkpt lat="46.035158" lon="13.496546">
<time>2021-07-18T09:05:16Z</time>
</trkpt>
<trkpt lat="46.03509" lon="13.496543">
<time>2021-07-18T09:05:17Z</time>
</trkpt>
<trkpt lat="46.03502" lon="13.496536">
<time>2021-07-18T09:05:18Z</time>
</trkpt>
<trkpt lat="46.034943" lon="13.496518">
<time>2021-07-18T09:05:19Z</time>
</trkpt>
<trkpt lat="46.034866" lon="13.4965">
<time>2021-07-18T09:05:20Z</time>
</trkpt>
<trkpt lat="46.03479" lon="13.49648">
<time>2021-07-18T09:05:21Z</time>
</trkpt>
<trkpt lat="46.034718" lon="13.49646">
<time>2021-07-18T09:05:22Z</time>
</trkpt>
<trkpt lat="46.034646" lon="13.496435">
<time>2021-07-18T09:05:23Z</time>
</trkpt>
<trkpt lat="46.03458" lon="13.496396">
<time>2021-07-18T09:05:24Z</time>
</trkpt>
<trkpt lat="46.034518" lon="13.496345">
<time>2021-07-18T09:05:25Z</time>
</trkpt>
<trkpt lat="46.03446" lon="13.496283">
<time>2021-07-18T09:05:26Z</time>
</trkpt>
<trkpt lat="46.034415" lon="13.496216">
<time>2021-07-18T09:05:27Z</time>
</trkpt>
<trkpt lat="46.03437" lon="13.496158">
<time>2021-07-18T09:05:28Z</time>
</trkpt>
<trkpt lat="46.034326" lon="13.496115">
<time>2021-07-18T09:05:29Z</time>
</trkpt>
<trkpt lat="46.034285" lon="13.496085">
<time>2021-07-18T09:05:30Z</time>
</trkpt>
<trkpt lat="46.034241" lon="13.496061">
<time>2021-07-18T09:05:31Z</time>
</trkpt>
<trkpt lat="46.034195" lon="13.496045">
<time>2021-07-18T09:05:32Z</time>
</trkpt>
<trkpt lat="46.034146" lon="13.496035">
<time>2021-07-18T09:05:33Z</time>
</trkpt>
<trkpt lat="46.034101" lon="13.49602">
<time>2021-07-18T09:05:34Z</time>
</trkpt>
<trkpt lat="46.034061" lon="13.49601">
<time>2021-07-18T09:05:35Z</time>
</trkpt>
<trkpt lat="46.034021" lon="13.495998">
<time>2021-07-18T09:05:36Z</time>
</trkpt>
<trkpt lat="46.033983" lon="13.495983">
<time>2021-07-18T09:05:37Z</time>
</trkpt>
<trkpt lat="46.033945" lon="13.49597">
<time>2021-07-18T09:05:38Z</time>
</trkpt>
<trkpt lat="46.033905" lon="13.495951">
<time>2021-07-18T09:05:39Z</time>
</trkpt>
<trkpt lat="46.033865" lon="13.495938">
<time>2021-07-18T09:05:40Z</time>
</trkpt>
<trkpt lat="46.033826" lon="13.495926">
<time>2021-07-18T09:05:41Z</time>
</trkpt>
<trkpt lat="46.033783" lon="13.495911">
<time>2021-07-18T09:05:42Z</time>
</trkpt>
<trkpt lat="46.033746" lon="13.495888">
<time>2021-07-18T09:05:43Z</time>
</trkpt>
<trkpt lat="46.033706" lon="13.495873">
<time>2021-07-18T09:05:44Z</time>
</trkpt>
<trkpt lat="46.033668" lon="13.495855">
<time>2021-07-18T09:05:45Z</time>
</trkpt>
<trkpt lat="46.033631" lon="13.495835">
<time>2021-07-18T09:05:46Z</time>
</trkpt>
<trkpt lat="46.033598" lon="13.495818">
<time>2021-07-18T09:05:47Z</time>
</trkpt>
<trkpt lat="46.033565" lon="13.495808">
<time>2021-07-18T09:05:48Z</time>
</trkpt>
<trkpt lat="46.033531" lon="13.495801">
<time>2021-07-18T09:05:49Z</time>
</trkpt>
<trkpt lat="46.033501" lon="13.495806">
<time>2021-07-18T09:05:50Z</time>
</trkpt>
<trkpt lat="46.033478" lon="13.495816">
<time>2021-07-18T09:05:51Z</time>
</trkpt>
<trkpt lat="46.033471" lon="13.49583">
<time>2021-07-18T09:05:52Z</time>
</trkpt>
<trkpt lat="46.033473" lon="13.495855">
<time>2021-07-18T09:05:53Z</time>
</trkpt>
<trkpt lat="46.033475" lon="13.495888">
<time>2021-07-18T09:05:54Z</time>
</trkpt>
<trkpt lat="46.033483" lon="13.49593">
<time>2021-07-18T09:05:55Z</time>
</trkpt>
<trkpt lat="46.033495" lon="13.495971">
<time>2021-07-18T09:05:56Z</time>
</trkpt>
<trkpt lat="46.033511" lon="13.496016">
<time>2021-07-18T09:05:57Z</time>
</trkpt>
<trkpt lat="46.033535" lon="13.49607">
<time>2021-07-18T09:05:58Z</time>
</trkpt>
<trkpt lat="46.033553" lon="13.496111">
<time>2021-07-18T09:05:59Z</time>
</trkpt>
<trkpt lat="46.033578" lon="13.496151">
<time>2021-07-18T09:06:00Z</time>
</trkpt>
<trkpt lat="46.033605" lon="13.496185">
<time>2021-07-18T09:06:01Z</time>
</trkpt>
<trkpt lat="46.033631" lon="13.496213">
<time>2021-07-18T09:06:02Z</time>
</trkpt>
<trkpt lat="46.033663" lon="13.496235">
<time>2021-07-18T09:06:03Z</time>
</trkpt>
<trkpt lat="46.033695" lon="13.496253">
<time>2021-07-18T09:06:04Z</time>
</trkpt>
<trkpt lat="46.033725" lon="13.496266">
<time>2021-07-18T09:06:05Z</time>
</trkpt>
<trkpt lat="46.033751" lon="13.496285">
<time>2021-07-18T09:06:06Z</time>
</trkpt>
<trkpt lat="46.033778" lon="13.496298">
<time>2021-07-18T09:06:07Z</time>
</trkpt>
<trkpt lat="46.033798" lon="13.496318">
<time>2021-07-18T09:06:08Z</time>
</trkpt>
<trkpt lat="46.033816" lon="13.496345">
<time>2021-07-18T09:06:09Z</time>
</trkpt>
<trkpt lat="46.033833" lon="13.496375">
<time>2021-07-18T09:06:10Z</time>
</trkpt>
<trkpt lat="46.033845" lon="13.496408">
<time>2021-07-18T09:06:11Z</time>
</trkpt>
<trkpt lat="46.033851" lon="13.496441">
<time>2021-07-18T09:06:12Z</time>
</trkpt>
<trkpt lat="46.033855" lon="13.496475">
<time>2021-07-18T09:06:13Z</time>
</trkpt>
<trkpt lat="46.033853" lon="13.496508">
<time>2021-07-18T09:06:14Z</time>
</trkpt>
<trkpt lat="46.033848" lon="13.496541">
<time>2021-07-18T09:06:15Z</time>
</trkpt>
<trkpt lat="46.033845" lon="13.496573">
<time>2021-07-18T09:06:16Z</time>
</trkpt>
<trkpt lat="46.033835" lon="13.496601">
<time>2021-07-18T09:06:17Z</time>
</trkpt>
<trkpt lat="46.033821" lon="13.49663">
<time>2021-07-18T09:06:18Z</time>
</trkpt>
<trkpt lat="46.033813" lon="13.496656">
<time>2021-07-18T09:06:19Z</time>
</trkpt>
<trkpt lat="46.033803" lon="13.49668">
<time>2021-07-18T09:06:20Z</time>
</trkpt>
<trkpt lat="46.033795" lon="13.496705">
<time>2021-07-18T09:06:21Z</time>
</trkpt>
<trkpt lat="46.033785" lon="13.496726">
<time>2021-07-18T09:06:22Z</time>
</trkpt>
<trkpt lat="46.033773" lon="13.496748">
<time>2021-07-18T09:06:23Z</time>
</trkpt>
<trkpt lat="46.033761" lon="13.496766">
<time>2021-07-18T09:06:24Z</time>
</trkpt>
<trkpt lat="46.03375" lon="13.496783">
<time>2021-07-18T09:06:25Z</time>
</trkpt>
<trkpt lat="46.033735" lon="13.496796">
<time>2021-07-18T09:06:26Z</time>
</trkpt>
<trkpt lat="46.033716" lon="13.496805">
<time>2021-07-18T09:06:27Z</time>
</trkpt>
<trkpt lat="46.033698" lon="13.496813">
<time>2021-07-18T09:06:28Z</time>
</trkpt>
<trkpt lat="46.03368" lon="13.496821">
<time>2021-07-18T09:06:29Z</time>
</trkpt>
<trkpt lat="46.033661" lon="13.496828">
<time>2021-07-18T09:06:30Z</time>
</trkpt>
<trkpt lat="46.03364" lon="13.496836">
<time>2021-07-18T09:06:31Z</time>
</trkpt>
<trkpt lat="46.03362" lon="13.496845">
<time>2021-07-18T09:06:32Z</time>
</trkpt>
<trkpt lat="46.0336" lon="13.496851">
<time>2021-07-18T09:06:33Z</time>
</trkpt>
<trkpt lat="46.033578" lon="13.496856">
<time>2021-07-18T09:06:34Z</time>
</trkpt>
<trkpt lat="46.033558" lon="13.496855">
<time>2021-07-18T09:06:35Z</time>
</trkpt>
<trkpt lat="46.033538" lon="13.496855">
<time>2021-07-18T09:06:36Z</time>
</trkpt>
<trkpt lat="46.033518" lon="13.496851">
<time>2021-07-18T09:06:37Z</time>
</trkpt>
<trkpt lat="46.033496" lon="13.496846">
<time>2021-07-18T09:06:38Z</time>
</trkpt>
<trkpt lat="46.033476" lon="13.49684">
<time>2021-07-18T09:06:39Z</time>
</trkpt>
<trkpt lat="46.033458" lon="13.496831">
<time>2021-07-18T09:06:40Z</time>
</trkpt>
<trkpt lat="46.03344" lon="13.496825">
<time>2021-07-18T09:06:41Z</time>
</trkpt>
<trkpt lat="46.033421" lon="13.496816">
<time>2021-07-18T09:06:42Z</time>
</trkpt>
<trkpt lat="46.033403" lon="13.49681">
<time>2021-07-18T09:06:43Z</time>
</trkpt>
<trkpt lat="46.033385" lon="13.496801">
<time>2021-07-18T09:06:44Z</time>
</trkpt>
<trkpt lat="46.033363" lon="13.496798">
<time>2021-07-18T09:06:45Z</time>
</trkpt>
<trkpt lat="46.033343" lon="13.496796">
<time>2021-07-18T09:06:46Z</time>
</trkpt>
<trkpt lat="46.033325" lon="13.4968">
<time>2021-07-18T09:06:47Z</time>
</trkpt>
<trkpt lat="46.033308" lon="13.496808">
<time>2021-07-18T09:06:48Z</time>
</trkpt>
<trkpt lat="46.033291" lon="13.496821">
<time>2021-07-18T09:06:49Z</time>
</trkpt>
<trkpt lat="46.033275" lon="13.49684">
<time>2021-07-18T09:06:50Z</time>
</trkpt>
<trkpt lat="46.033256" lon="13.496856">
<time>2021-07-18T09:06:51Z</time>
</trkpt>
<trkpt lat="46.03324" lon="13.496875">
<time>2021-07-18T09:06:52Z</time>
</trkpt>
<trkpt lat="46.033223" lon="13.496891">
<time>2021-07-18T09:06:53Z</time>
</trkpt>
<trkpt lat="46.033205" lon="13.496906">
<time>2021-07-18T09:06:54Z</time>
</trkpt>
<trkpt lat="46.033188" lon="13.496923">
<time>2021-07-18T09:06:55Z</time>
</trkpt>
<trkpt lat="46.033171" lon="13.496941">
<time>2021-07-18T09:06:56Z</time>
</trkpt>
<trkpt lat="46.033156" lon="13.496958">
<time>2021-07-18T09:06:57Z</time>
</trkpt>
<trkpt lat="46.03314" lon="13.496976">
<time>2021-07-18T09:06:58Z</time>
</trkpt>
<trkpt lat="46.033123" lon="13.496993">
<time>2021-07-18T09:06:59Z</time>
</trkpt>
<trkpt lat="46.033105" lon="13.497008">
<time>2021-07-18T09:07:00Z</time>
</trkpt>
<trkpt lat="46.033086" lon="13.49702">
<time>2021-07-18T09:07:01Z</time>
</trkpt>
<trkpt lat="46.033066" lon="13.49703">
<time>2021-07-18T09:07:02Z</time>
</trkpt>
<trkpt lat="46.033041" lon="13.497036">
<time>2021-07-18T09:07:03Z</time>
</trkpt>
<trkpt lat="46.03302" lon="13.497043">
<time>2021-07-18T09:07:04Z</time>
</trkpt>
<trkpt lat="46.033" lon="13.49705">
<time>2021-07-18T09:07:05Z</time>
</trkpt>
<trkpt lat="46.03298" lon="13.497053">
<time>2021-07-18T09:07:06Z</time>
</trkpt>
<trkpt lat="46.032965" lon="13.497055">
<time>2021-07-18T09:07:07Z</time>
</trkpt>
<trkpt lat="46.032945" lon="13.49706">
<time>2021-07-18T09:07:08Z</time>
</trkpt>
<trkpt lat="46.032926" lon="13.497061">
<time>2021-07-18T09:07:09Z</time>
</trkpt>
<trkpt lat="46.032901" lon="13.497066">
<time>2021-07-18T09:07:10Z</time>
</trkpt>
<trkpt lat="46.032885" lon="13.497071">
<time>2021-07-18T09:07:11Z</time>
</trkpt>
<trkpt lat="46.032863" lon="13.497076">
<time>2021-07-18T09:07:12Z</time>
</trkpt>
<trkpt lat="46.032838" lon="13.49708">
<time>2021-07-18T09:07:13Z</time>
</trkpt>
<trkpt lat="46.032818" lon="13.497083">
<time>2021-07-18T09:07:14Z</time>
</trkpt>
<trkpt lat="46.032793" lon="13.497088">
<time>2021-07-18T09:07:15Z</time>
</trkpt>
<trkpt lat="46.032775" lon="13.497091">
<time>2021-07-18T09:07:16Z</time>
</trkpt>
<trkpt lat="46.032751" lon="13.497096">
<time>2021-07-18T09:07:17Z</time>
</trkpt>
<trkpt lat="46.032725" lon="13.4971">
<time>2021-07-18T09:07:18Z</time>
</trkpt>
<trkpt lat="46.032705" lon="13.497103">
<time>2021-07-18T09:07:19Z</time>
</trkpt>
<trkpt lat="46.032681" lon="13.49711">
<time>2021-07-18T09:07:20Z</time>
</trkpt>
<trkpt lat="46.032658" lon="13.497116">
<time>2021-07-18T09:07:21Z</time>
</trkpt>
<trkpt lat="46.032635" lon="13.497123">
<time>2021-07-18T09:07:22Z</time>
</trkpt>
<trkpt lat="46.032606" lon="13.497135">
<time>2021-07-18T09:07:23Z</time>
</trkpt>
<trkpt lat="46.032583" lon="13.497141">
<time>2021-07-18T09:07:24Z</time>
</trkpt>
<trkpt lat="46.03256" lon="13.49715">
<time>2021-07-18T09:07:25Z</time>
</trkpt>
<trkpt lat="46.032541" lon="13.497155">
<time>2021-07-18T09:07:26Z</time>
</trkpt>
<trkpt lat="46.03252" lon="13.497163">
<time>2021-07-18T09:07:27Z</time>
</trkpt>
<trkpt lat="46.032493" lon="13.497171">
<time>2021-07-18T09:07:28Z</time>
</trkpt>
<trkpt lat="46.032471" lon="13.49718">
<time>2021-07-18T09:07:29Z</time>
</trkpt>
<trkpt lat="46.032455" lon="13.497185">
<time>2021-07-18T09:07:30Z</time>
</trkpt>
<trkpt lat="46.032433" lon="13.497191">
<time>2021-07-18T09:07:31Z</time>
</trkpt>
<trkpt lat="46.03241" lon="13.497201">
<time>2021-07-18T09:07:32Z</time>
</trkpt>
<trkpt lat="46.032395" lon="13.497208">
<time>2021-07-18T09:07:33Z</time>
</trkpt>
<trkpt lat="46.032375" lon="13.497215">
<time>2021-07-18T09:07:34Z</time>
</trkpt>
<trkpt lat="46.032353" lon="13.497216">
<time>2021-07-18T09:07:35Z</time>
</trkpt>
<trkpt lat="46.032333" lon="13.497213">
<time>2021-07-18T09:07:36Z</time>
</trkpt>
<trkpt lat="46.03231" lon="13.497208">
<time>2021-07-18T09:07:37Z</time>
</trkpt>
<trkpt lat="46.032295" lon="13.497201">
<time>2021-07-18T09:07:38Z</time>
</trkpt>
<trkpt lat="46.032273" lon="13.497191">
<time>2021-07-18T09:07:39Z</time>
</trkpt>
<trkpt lat="46.032255" lon="13.497176">
<time>2021-07-18T09:07:40Z</time>
</trkpt>
<trkpt lat="46.032235" lon="13.497161">
<time>2021-07-18T09:07:41Z</time>
</trkpt>
<trkpt lat="46.032216" lon="13.497145">
<time>2021-07-18T09:07:42Z</time>
</trkpt>
<trkpt lat="46.032196" lon="13.49713">
<time>2021-07-18T09:07:43Z</time>
</trkpt>
<trkpt lat="46.032175" lon="13.497115">
<time>2021-07-18T09:07:44Z</time>
</trkpt>
<trkpt lat="46.032156" lon="13.497096">
<time>2021-07-18T09:07:45Z</time>
</trkpt>
<trkpt lat="46.032135" lon="13.497076">
<time>2021-07-18T09:07:46Z</time>
</trkpt>
<trkpt lat="46.032113" lon="13.497055">
<time>2021-07-18T09:07:47Z</time>
</trkpt>
<trkpt lat="46.032093" lon="13.497028">
<time>2021-07-18T09:07:48Z</time>
</trkpt>
<trkpt lat="46.03208" lon="13.496996">
<time>2021-07-18T09:07:49Z</time>
</trkpt>
<trkpt lat="46.03207" lon="13.496966">
<time>2021-07-18T09:07:50Z</time>
</trkpt>
<trkpt lat="46.032061" lon="13.496928">
<time>2021-07-18T09:07:51Z</time>
</trkpt>
<trkpt lat="46.032061" lon="13.496886">
<time>2021-07-18T09:07:52Z</time>
</trkpt>
<trkpt lat="46.032065" lon="13.49685">
<time>2021-07-18T09:07:53Z</time>
</trkpt>
<trkpt lat="46.032068" lon="13.496811">
<time>2021-07-18T09:07:54Z</time>
</trkpt>
<trkpt lat="46.03207" lon="13.49678">
<time>2021-07-18T09:07:55Z</time>
</trkpt>
<trkpt lat="46.032071" lon="13.496743">
<time>2021-07-18T09:07:56Z</time>
</trkpt>
<trkpt lat="46.032071" lon="13.496698">
<time>2021-07-18T09:07:57Z</time>
</trkpt>
<trkpt lat="46.032068" lon="13.496663">
<time>2021-07-18T09:07:58Z</time>
</trkpt>
<trkpt lat="46.032061" lon="13.496638">
<time>2021-07-18T09:07:59Z</time>
</trkpt>
<trkpt lat="46.03205" lon="13.49662">
<time>2021-07-18T09:08:00Z</time>
</trkpt>
<trkpt lat="46.032035" lon="13.496608">
<time>2021-07-18T09:08:01Z</time>
</trkpt>
<trkpt lat="46.032016" lon="13.496606">
<time>2021-07-18T09:08:02Z</time>
</trkpt>
<trkpt lat="46.031996" lon="13.496611">
<time>2021-07-18T09:08:03Z</time>
</trkpt>
<trkpt lat="46.031976" lon="13.496618">
<time>2021-07-18T09:08:04Z</time>
</trkpt>
<trkpt lat="46.031953" lon="13.496626">
<time>2021-07-18T09:08:05Z</time>
</trkpt>
<trkpt lat="46.031933" lon="13.496635">
<time>2021-07-18T09:08:06Z</time>
</trkpt>
<trkpt lat="46.031916" lon="13.496643">
<time>2021-07-18T09:08:07Z</time>
</trkpt>
<trkpt lat="46.031895" lon="13.496655">
<time>2021-07-18T09:08:08Z</time>
</trkpt>
<trkpt lat="46.031873" lon="13.496671">
<time>2021-07-18T09:08:09Z</time>
</trkpt>
<trkpt lat="46.031853" lon="13.496688">
<time>2021-07-18T09:08:10Z</time>
</trkpt>
<trkpt lat="46.031835" lon="13.49671">
<time>2021-07-18T09:08:11Z</time>
</trkpt>
<trkpt lat="46.031815" lon="13.49673">
<time>2021-07-18T09:08:12Z</time>
</trkpt>
<trkpt lat="46.031795" lon="13.496751">
<time>2021-07-18T09:08:13Z</time>
</trkpt>
<trkpt lat="46.031775" lon="13.496771">
<time>2021-07-18T09:08:14Z</time>
</trkpt>
<trkpt lat="46.031751" lon="13.496793">
<time>2021-07-18T09:08:15Z</time>
</trkpt>
<trkpt lat="46.031733" lon="13.496813">
<time>2021-07-18T09:08:16Z</time>
</trkpt>
<trkpt lat="46.031715" lon="13.496823">
<time>2021-07-18T09:08:17Z</time>
</trkpt>
<trkpt lat="46.031701" lon="13.496828">
<time>2021-07-18T09:08:18Z</time>
</trkpt>
<trkpt lat="46.031686" lon="13.49683">
<time>2021-07-18T09:08:19Z</time>
</trkpt>
<trkpt lat="46.031668" lon="13.496828">
<time>2021-07-18T09:08:20Z</time>
</trkpt>
<trkpt lat="46.031651" lon="13.496826">
<time>2021-07-18T09:08:21Z</time>
</trkpt>
<trkpt lat="46.031638" lon="13.496821">
<time>2021-07-18T09:08:22Z</time>
</trkpt>
<trkpt lat="46.03162" lon="13.496811">
<time>2021-07-18T09:08:23Z</time>
</trkpt>
<trkpt lat="46.031603" lon="13.496801">
<time>2021-07-18T09:08:24Z</time>
</trkpt>
<trkpt lat="46.03158" lon="13.49679">
<time>2021-07-18T09:08:25Z</time>
</trkpt>
<trkpt lat="46.031561" lon="13.496783">
<time>2021-07-18T09:08:26Z</time>
</trkpt>
<trkpt lat="46.031545" lon="13.496775">
<time>2021-07-18T09:08:27Z</time>
</trkpt>
<trkpt lat="46.031523" lon="13.496775">
<time>2021-07-18T09:08:28Z</time>
</trkpt>
<trkpt lat="46.0315" lon="13.49678">
<time>2021-07-18T09:08:29Z</time>
</trkpt>
<trkpt lat="46.03148" lon="13.49679">
<time>2021-07-18T09:08:30Z</time>
</trkpt>
<trkpt lat="46.031465" lon="13.496795">
<time>2021-07-18T09:08:31Z</time>
</trkpt>
<trkpt lat="46.031448" lon="13.496796">
<time>2021-07-18T09:08:32Z</time>
</trkpt>
<trkpt lat="46.031438" lon="13.496798">
<time>2021-07-18T09:08:33Z</time>
</trkpt>
<trkpt lat="46.031433" lon="13.496798">
<time>2021-07-18T09:08:34Z</time>
</trkpt>
<trkpt lat="46.031431" lon="13.496803">
<time>2021-07-18T09:08:35Z</time>
</trkpt>
<trkpt lat="46.031428" lon="13.496806">
<time>2021-07-18T09:08:36Z</time>
</trkpt>
<trkpt lat="46.031421" lon="13.496808">
<time>2021-07-18T09:08:37Z</time>
</trkpt>
<trkpt lat="46.03141" lon="13.49681">
<time>2021-07-18T09:08:38Z</time>
</trkpt>
<trkpt lat="46.031395" lon="13.496808">
<time>2021-07-18T09:08:39Z</time>
</trkpt>
<trkpt lat="46.031385" lon="13.496806">
<time>2021-07-18T09:08:40Z</time>
</trkpt>
<trkpt lat="46.031373" lon="13.496806">
<time>2021-07-18T09:08:41Z</time>
</trkpt>
<trkpt lat="46.031361" lon="13.496801">
<time>2021-07-18T09:08:42Z</time>
</trkpt>
<trkpt lat="46.031355" lon="13.4968">
<time>2021-07-18T09:08:43Z</time>
</trkpt>
<trkpt lat="46.031341" lon="13.4968">
<time>2021-07-18T09:08:44Z</time>
</trkpt>
<trkpt lat="46.031328" lon="13.4968">
<time>2021-07-18T09:08:45Z</time>
</trkpt>
<trkpt lat="46.031315" lon="13.4968">
<time>2021-07-18T09:08:46Z</time>
</trkpt>
<trkpt lat="46.031303" lon="13.496801">
<time>2021-07-18T09:08:47Z</time>
</trkpt>
<trkpt lat="46.031288" lon="13.496803">
<time>2021-07-18T09:08:48Z</time>
</trkpt>
<trkpt lat="46.03127" lon="13.496806">
<time>2021-07-18T09:08:49Z</time>
</trkpt>
<trkpt lat="46.031256" lon="13.496806">
<time>2021-07-18T09:08:50Z</time>
</trkpt>
<trkpt lat="46.031241" lon="13.49681">
<time>2021-07-18T09:08:51Z</time>
</trkpt>
<trkpt lat="46.03123" lon="13.496811">
<time>2021-07-18T09:08:52Z</time>
</trkpt>
<trkpt lat="46.031215" lon="13.496811">
<time>2021-07-18T09:08:53Z</time>
</trkpt>
<trkpt lat="46.031195" lon="13.49681">
<time>2021-07-18T09:08:54Z</time>
</trkpt>
<trkpt lat="46.03118" lon="13.496808">
<time>2021-07-18T09:08:55Z</time>
</trkpt>
<trkpt lat="46.031168" lon="13.496805">
<time>2021-07-18T09:08:56Z</time>
</trkpt>
<trkpt lat="46.031153" lon="13.4968">
<time>2021-07-18T09:08:57Z</time>
</trkpt>
<trkpt lat="46.031136" lon="13.496793">
<time>2021-07-18T09:08:58Z</time>
</trkpt>
<trkpt lat="46.031123" lon="13.496786">
<time>2021-07-18T09:08:59Z</time>
</trkpt>
<trkpt lat="46.03111" lon="13.496778">
<time>2021-07-18T09:09:00Z</time>
</trkpt>
<trkpt lat="46.0311" lon="13.49677">
<time>2021-07-18T09:09:01Z</time>
</trkpt>
<trkpt lat="46.031086" lon="13.496756">
<time>2021-07-18T09:09:02Z</time>
</trkpt>
<trkpt lat="46.031078" lon="13.496748">
<time>2021-07-18T09:09:03Z</time>
</trkpt>
<trkpt lat="46.031071" lon="13.496743">
<time>2021-07-18T09:09:04Z</time>
</trkpt>
<trkpt lat="46.031063" lon="13.496731">
<time>2021-07-18T09:09:05Z</time>
</trkpt>
<trkpt lat="46.031056" lon="13.496725">
<time>2021-07-18T09:09:06Z</time>
</trkpt>
<trkpt lat="46.031045" lon="13.496711">
<time>2021-07-18T09:09:07Z</time>
</trkpt>
<trkpt lat="46.031036" lon="13.496703">
<time>2021-07-18T09:09:08Z</time>
</trkpt>
<trkpt lat="46.031026" lon="13.496693">
<time>2021-07-18T09:09:09Z</time>
</trkpt>
<trkpt lat="46.031018" lon="13.496686">
<time>2021-07-18T09:09:10Z</time>
</trkpt>
<trkpt lat="46.031008" lon="13.496678">
<time>2021-07-18T09:09:11Z</time>
</trkpt>
<trkpt lat="46.030996" lon="13.496671">
<time>2021-07-18T09:09:12Z</time>
</trkpt>
<trkpt lat="46.03099" lon="13.496665">
<time>2021-07-18T09:09:13Z</time>
</trkpt>
<trkpt lat="46.030985" lon="13.496656">
<time>2021-07-18T09:09:14Z</time>
</trkpt>
<trkpt lat="46.030983" lon="13.496651">
<time>2021-07-18T09:09:15Z</time>
</trkpt>
<trkpt lat="46.03098" lon="13.496641">
<time>2021-07-18T09:09:16Z</time>
</trkpt>
<trkpt lat="46.030971" lon="13.496628">
<time>2021-07-18T09:09:17Z</time>
</trkpt>
<trkpt lat="46.030966" lon="13.49662">
<time>2021-07-18T09:09:18Z</time>
</trkpt>
<trkpt lat="46.030961" lon="13.496611">
<time>2021-07-18T09:09:19Z</time>
</trkpt>
<trkpt lat="46.030956" lon="13.496606">
<time>2021-07-18T09:09:20Z</time>
</trkpt>
<trkpt lat="46.030951" lon="13.496593">
<time>2021-07-18T09:09:21Z</time>
</trkpt>
<trkpt lat="46.030946" lon="13.496583">
<time>2021-07-18T09:09:22Z</time>
</trkpt>
<trkpt lat="46.030945" lon="13.496576">
<time>2021-07-18T09:09:23Z</time>
</trkpt>
<trkpt lat="46.030941" lon="13.496571">
<time>2021-07-18T09:09:24Z</time>
</trkpt>
<trkpt lat="46.030938" lon="13.496563">
<time>2021-07-18T09:09:25Z</time>
</trkpt>
<trkpt lat="46.030931" lon="13.49655">
<time>2021-07-18T09:09:26Z</time>
</trkpt>
<trkpt lat="46.030923" lon="13.496535">
<time>2021-07-18T09:09:27Z</time>
</trkpt>
<trkpt lat="46.030918" lon="13.496521">
<time>2021-07-18T09:09:28Z</time>
</trkpt>
<trkpt lat="46.030915" lon="13.496518">
<time>2021-07-18T09:09:29Z</time>
</trkpt>
<trkpt lat="46.03091" lon="13.496511">
<time>2021-07-18T09:09:30Z</time>
</trkpt>
<trkpt lat="46.030905" lon="13.496501">
<time>2021-07-18T09:09:31Z</time>
</trkpt>
<trkpt lat="46.0309" lon="13.496493">
<time>2021-07-18T09:09:32Z</time>
</trkpt>
<trkpt lat="46.030895" lon="13.496486">
<time>2021-07-18T09:09:33Z</time>
</trkpt>
<trkpt lat="46.03089" lon="13.496476">
<time>2021-07-18T09:09:34Z</time>
</trkpt>
<trkpt lat="46.030886" lon="13.496471">
<time>2021-07-18T09:09:35Z</time>
</trkpt>
<trkpt lat="46.030878" lon="13.496461">
<time>2021-07-18T09:09:36Z</time>
</trkpt>
<trkpt lat="46.030871" lon="13.496453">
<time>2021-07-18T09:09:37Z</time>
</trkpt>
<trkpt lat="46.030868" lon="13.496448">
<time>2021-07-18T09:09:38Z</time>
</trkpt>
<trkpt lat="46.030863" lon="13.496438">
<time>2021-07-18T09:09:39Z</time>
</trkpt>
<trkpt lat="46.030858" lon="13.49643">
<time>2021-07-18T09:09:40Z</time>
</trkpt>
<trkpt lat="46.03085" lon="13.496421">
<time>2021-07-18T09:09:41Z</time>
</trkpt>
<trkpt lat="46.030846" lon="13.496415">
<time>2021-07-18T09:09:42Z</time>
</trkpt>
<trkpt lat="46.030841" lon="13.49641">
<time>2021-07-18T09:09:43Z</time>
</trkpt>
<trkpt lat="46.030838" lon="13.496405">
<time>2021-07-18T09:09:44Z</time>
</trkpt>
<trkpt lat="46.030831" lon="13.496396">
<time>2021-07-18T09:09:45Z</time>
</trkpt>
<trkpt lat="46.030825" lon="13.496388">
<time>2021-07-18T09:09:46Z</time>
</trkpt>
<trkpt lat="46.03082" lon="13.496381">
<time>2021-07-18T09:09:47Z</time>
</trkpt>
<trkpt lat="46.030815" lon="13.496375">
<time>2021-07-18T09:09:48Z</time>
</trkpt>
<trkpt lat="46.03081" lon="13.49637">
<time>2021-07-18T09:09:49Z</time>
</trkpt>
<trkpt lat="46.030801" lon="13.49636">
<time>2021-07-18T09:09:50Z</time>
</trkpt>
<trkpt lat="46.030795" lon="13.49635">
<time>2021-07-18T09:09:51Z</time>
</trkpt>
<trkpt lat="46.030786" lon="13.49634">
<time>2021-07-18T09:09:52Z</time>
</trkpt>
<trkpt lat="46.030781" lon="13.496331">
<time>2021-07-18T09:09:53Z</time>
</trkpt>
<trkpt lat="46.030773" lon="13.496323">
<time>2021-07-18T09:09:54Z</time>
</trkpt>
<trkpt lat="46.030765" lon="13.496315">
<time>2021-07-18T09:09:55Z</time>
</trkpt>
<trkpt lat="46.030756" lon="13.49631">
<time>2021-07-18T09:09:56Z</time>
</trkpt>
<trkpt lat="46.030748" lon="13.496303">
<time>2021-07-18T09:09:57Z</time>
</trkpt>
<trkpt lat="46.03074" lon="13.496296">
<time>2021-07-18T09:09:58Z</time>
</trkpt>
<trkpt lat="46.030733" lon="13.496286">
<time>2021-07-18T09:09:59Z</time>
</trkpt>
<trkpt lat="46.030721" lon="13.496275">
<time>2021-07-18T09:10:00Z</time>
</trkpt>
<trkpt lat="46.03071" lon="13.496263">
<time>2021-07-18T09:10:01Z</time>
</trkpt>
<trkpt lat="46.030695" lon="13.496251">
<time>2021-07-18T09:10:02Z</time>
</trkpt>
<trkpt lat="46.030683" lon="13.49624">
<time>2021-07-18T09:10:03Z</time>
</trkpt>
<trkpt lat="46.030666" lon="13.496223">
<time>2021-07-18T09:10:04Z</time>
</trkpt>
<trkpt lat="46.030655" lon="13.496208">
<time>2021-07-18T09:10:05Z</time>
</trkpt>
<trkpt lat="46.030641" lon="13.49619">
<time>2021-07-18T09:10:06Z</time>
</trkpt>
<trkpt lat="46.03063" lon="13.496176">
<time>2021-07-18T09:10:07Z</time>
</trkpt>
<trkpt lat="46.030615" lon="13.496158">
<time>2021-07-18T09:10:08Z</time>
</trkpt>
<trkpt lat="46.030601" lon="13.496138">
<time>2021-07-18T09:10:09Z</time>
</trkpt>
<trkpt lat="46.030586" lon="13.49612">
<time>2021-07-18T09:10:10Z</time>
</trkpt>
<trkpt lat="46.03057" lon="13.496098">
<time>2021-07-18T09:10:11Z</time>
</trkpt>
<trkpt lat="46.030556" lon="13.496078">
<time>2021-07-18T09:10:12Z</time>
</trkpt>
<trkpt lat="46.030545" lon="13.496061">
<time>2021-07-18T09:10:13Z</time>
</trkpt>
<trkpt lat="46.03053" lon="13.496043">
<time>2021-07-18T09:10:14Z</time>
</trkpt>
<trkpt lat="46.030511" lon="13.496023">
<time>2021-07-18T09:10:15Z</time>
</trkpt>
<trkpt lat="46.030496" lon="13.496006">
<time>2021-07-18T09:10:16Z</time>
</trkpt>
<trkpt lat="46.030486" lon="13.495993">
<time>2021-07-18T09:10:17Z</time>
</trkpt>
<trkpt lat="46.030475" lon="13.495978">
<time>2021-07-18T09:10:18Z</time>
</trkpt>
<trkpt lat="46.03046" lon="13.495966">
<time>2021-07-18T09:10:19Z</time>
</trkpt>
<trkpt lat="46.030443" lon="13.495956">
<time>2021-07-18T09:10:20Z</time>
</trkpt>
<trkpt lat="46.030435" lon="13.49595">
<time>2021-07-18T09:10:21Z</time>
</trkpt>
<trkpt lat="46.030425" lon="13.495948">
<time>2021-07-18T09:10:22Z</time>
</trkpt>
<trkpt lat="46.030413" lon="13.495953">
<time>2021-07-18T09:10:23Z</time>
</trkpt>
<trkpt lat="46.0304" lon="13.495965">
<time>2021-07-18T09:10:24Z</time>
</trkpt>
<trkpt lat="46.03039" lon="13.495976">
<time>2021-07-18T09:10:25Z</time>
</trkpt>
<trkpt lat="46.030381" lon="13.495986">
<time>2021-07-18T09:10:26Z</time>
</trkpt>
<trkpt lat="46.030373" lon="13.496003">
<time>2021-07-18T09:10:27Z</time>
</trkpt>
<trkpt lat="46.030368" lon="13.49602">
<time>2021-07-18T09:10:28Z</time>
</trkpt>
<trkpt lat="46.030365" lon="13.49604">
<time>2021-07-18T09:10:29Z</time>
</trkpt>
<trkpt lat="46.030358" lon="13.496068">
<time>2021-07-18T09:10:30Z</time>
</trkpt>
<trkpt lat="46.03035" lon="13.496088">
<time>2021-07-18T09:10:31Z</time>
</trkpt>
<trkpt lat="46.030343" lon="13.496115">
<time>2021-07-18T09:10:32Z</time>
</trkpt>
<trkpt lat="46.030326" lon="13.496131">
<time>2021-07-18T09:10:33Z</time>
</trkpt>
<trkpt lat="46.030311" lon="13.496143">
<time>2021-07-18T09:10:34Z</time>
</trkpt>
<trkpt lat="46.030296" lon="13.496165">
<time>2021-07-18T09:10:35Z</time>
</trkpt>
<trkpt lat="46.03029" lon="13.496183">
<time>2021-07-18T09:10:36Z</time>
</trkpt>
<trkpt lat="46.030283" lon="13.496203">
<time>2021-07-18T09:10:37Z</time>
</trkpt>
<trkpt lat="46.03027" lon="13.49622">
<time>2021-07-18T09:10:38Z</time>
</trkpt>
<trkpt lat="46.03026" lon="13.496228">
<time>2021-07-18T09:10:39Z</time>
</trkpt>
<trkpt lat="46.030246" lon="13.49623">
<time>2021-07-18T09:10:40Z</time>
</trkpt>
<trkpt lat="46.030236" lon="13.49622">
<time>2021-07-18T09:10:41Z</time>
</trkpt>
<trkpt lat="46.030231" lon="13.496203">
<time>2021-07-18T09:10:42Z</time>
</trkpt>
<trkpt lat="46.030231" lon="13.496183">
<time>2021-07-18T09:10:43Z</time>
</trkpt>
<trkpt lat="46.030236" lon="13.496161">
<time>2021-07-18T09:10:44Z</time>
</trkpt>
<trkpt lat="46.030241" lon="13.496146">
<time>2021-07-18T09:10:45Z</time>
</trkpt>
<trkpt lat="46.030248" lon="13.496125">
<time>2021-07-18T09:10:46Z</time>
</trkpt>
<trkpt lat="46.03025" lon="13.496095">
<time>2021-07-18T09:10:47Z</time>
</trkpt>
<trkpt lat="46.030253" lon="13.49606">
<time>2021-07-18T09:10:48Z</time>
</trkpt>
<trkpt lat="46.030255" lon="13.496036">
<time>2021-07-18T09:10:49Z</time>
</trkpt>
<trkpt lat="46.030256" lon="13.496011">
<time>2021-07-18T09:10:50Z</time>
</trkpt>
<trkpt lat="46.03025" lon="13.495988">
<time>2021-07-18T09:10:51Z</time>
</trkpt>
<trkpt lat="46.030243" lon="13.495973">
<time>2021-07-18T09:10:52Z</time>
</trkpt>
<trkpt lat="46.030233" lon="13.495966">
<time>2021-07-18T09:10:53Z</time>
</trkpt>
<trkpt lat="46.030223" lon="13.495971">
<time>2021-07-18T09:10:54Z</time>
</trkpt>
<trkpt lat="46.030215" lon="13.495981">
<time>2021-07-18T09:10:55Z</time>
</trkpt>
<trkpt lat="46.030205" lon="13.495998">
<time>2021-07-18T09:10:56Z</time>
</trkpt>
<trkpt lat="46.030196" lon="13.496028">
<time>2021-07-18T09:10:57Z</time>
</trkpt>
<trkpt lat="46.030185" lon="13.496048">
<time>2021-07-18T09:10:58Z</time>
</trkpt>
<trkpt lat="46.03017" lon="13.496065">
<time>2021-07-18T09:10:59Z</time>
</trkpt>
<trkpt lat="46.030156" lon="13.496073">
<time>2021-07-18T09:11:00Z</time>
</trkpt>
<trkpt lat="46.030143" lon="13.49608">
<time>2021-07-18T09:11:01Z</time>
</trkpt>
<trkpt lat="46.030126" lon="13.49608">
<time>2021-07-18T09:11:02Z</time>
</trkpt>
<trkpt lat="46.030108" lon="13.49608">
<time>2021-07-18T09:11:03Z</time>
</trkpt>
<trkpt lat="46.03009" lon="13.496083">
<time>2021-07-18T09:11:04Z</time>
</trkpt>
<trkpt lat="46.030076" lon="13.496085">
<time>2021-07-18T09:11:05Z</time>
</trkpt>
<trkpt lat="46.03006" lon="13.496088">
<time>2021-07-18T09:11:06Z</time>
</trkpt>
<trkpt lat="46.030045" lon="13.496091">
<time>2021-07-18T09:11:07Z</time>
</trkpt>
<trkpt lat="46.03003" lon="13.496091">
<time>2021-07-18T09:11:08Z</time>
</trkpt>
<trkpt lat="46.030016" lon="13.496091">
<time>2021-07-18T09:11:09Z</time>
</trkpt>
<trkpt lat="46.030001" lon="13.496086">
<time>2021-07-18T09:11:10Z</time>
</trkpt>
<trkpt lat="46.029986" lon="13.496083">
<time>2021-07-18T09:11:11Z</time>
</trkpt>
<trkpt lat="46.029971" lon="13.49608">
<time>2021-07-18T09:11:12Z</time>
</trkpt>
<trkpt lat="46.029956" lon="13.49608">
<time>2021-07-18T09:11:13Z</time>
</trkpt>
<trkpt lat="46.029941" lon="13.496075">
<time>2021-07-18T09:11:14Z</time>
</trkpt>
<trkpt lat="46.029926" lon="13.49607">
<time>2021-07-18T09:11:15Z</time>
</trkpt>
<trkpt lat="46.029911" lon="13.49607">
<time>2021-07-18T09:11:16Z</time>
</trkpt>
<trkpt lat="46.029896" lon="13.496073">
<time>2021-07-18T09:11:17Z</time>
</trkpt>
<trkpt lat="46.029881" lon="13.496076">
<time>2021-07-18T09:11:18Z</time>
</trkpt>
<trkpt lat="46.029865" lon="13.496076">
<time>2021-07-18T09:11:19Z</time>
</trkpt>
<trkpt lat="46.029851" lon="13.496078">
<time>2021-07-18T09:11:20Z</time>
</trkpt>
<trkpt lat="46.029836" lon="13.496078">
<time>2021-07-18T09:11:21Z</time>
</trkpt>
<trkpt lat="46.029823" lon="13.496081">
<time>2021-07-18T09:11:22Z</time>
</trkpt>
<trkpt lat="46.029808" lon="13.496086">
<time>2021-07-18T09:11:23Z</time>
</trkpt>
<trkpt lat="46.029795" lon="13.496093">
<time>2021-07-18T09:11:24Z</time>
</trkpt>
<trkpt lat="46.029781" lon="13.496101">
<time>2021-07-18T09:11:25Z</time>
</trkpt>
<trkpt lat="46.029765" lon="13.496111">
<time>2021-07-18T09:11:26Z</time>
</trkpt>
<trkpt lat="46.029751" lon="13.49612">
<time>2021-07-18T09:11:27Z</time>
</trkpt>
<trkpt lat="46.029736" lon="13.496126">
<time>2021-07-18T09:11:28Z</time>
</trkpt>
<trkpt lat="46.029725" lon="13.496136">
<time>2021-07-18T09:11:29Z</time>
</trkpt>
<trkpt lat="46.02971" lon="13.496145">
<time>2021-07-18T09:11:30Z</time>
</trkpt>
<trkpt lat="46.029695" lon="13.496151">
<time>2021-07-18T09:11:31Z</time>
</trkpt>
<trkpt lat="46.029681" lon="13.496158">
<time>2021-07-18T09:11:32Z</time>
</trkpt>
<trkpt lat="46.029668" lon="13.496166">
<time>2021-07-18T09:11:33Z</time>
</trkpt>
<trkpt lat="46.029653" lon="13.496175">
<time>2021-07-18T09:11:34Z</time>
</trkpt>
<trkpt lat="46.02964" lon="13.496183">
<time>2021-07-18T09:11:35Z</time>
</trkpt>
<trkpt lat="46.02963" lon="13.496193">
<time>2021-07-18T09:11:36Z</time>
</trkpt>
<trkpt lat="46.029618" lon="13.496201">
<time>2021-07-18T09:11:37Z</time>
</trkpt>
<trkpt lat="46.029606" lon="13.496211">
<time>2021-07-18T09:11:38Z</time>
</trkpt>
<trkpt lat="46.029593" lon="13.496223">
<time>2021-07-18T09:11:39Z</time>
</trkpt>
<trkpt lat="46.02958" lon="13.496235">
<time>2021-07-18T09:11:40Z</time>
</trkpt>
<trkpt lat="46.029566" lon="13.496248">
<time>2021-07-18T09:11:41Z</time>
</trkpt>
<trkpt lat="46.029553" lon="13.496261">
<time>2021-07-18T09:11:42Z</time>
</trkpt>
<trkpt lat="46.02954" lon="13.496275">
<time>2021-07-18T09:11:43Z</time>
</trkpt>
<trkpt lat="46.02953" lon="13.496286">
<time>2021-07-18T09:11:44Z</time>
</trkpt>
<trkpt lat="46.029518" lon="13.496298">
<time>2021-07-18T09:11:45Z</time>
</trkpt>
<trkpt lat="46.029505" lon="13.496311">
<time>2021-07-18T09:11:46Z</time>
</trkpt>
<trkpt lat="46.029493" lon="13.496323">
<time>2021-07-18T09:11:47Z</time>
</trkpt>
<trkpt lat="46.029481" lon="13.496335">
<time>2021-07-18T09:11:48Z</time>
</trkpt>
<trkpt lat="46.029471" lon="13.496346">
<time>2021-07-18T09:11:49Z</time>
</trkpt>
<trkpt lat="46.029461" lon="13.496358">
<time>2021-07-18T09:11:50Z</time>
</trkpt>
<trkpt lat="46.029448" lon="13.496375">
<time>2021-07-18T09:11:51Z</time>
</trkpt>
<trkpt lat="46.029436" lon="13.496388">
<time>2021-07-18T09:11:52Z</time>
</trkpt>
<trkpt lat="46.029423" lon="13.496398">
<time>2021-07-18T09:11:53Z</time>
</trkpt>
<trkpt lat="46.02941" lon="13.496405">
<time>2021-07-18T09:11:54Z</time>
</trkpt>
<trkpt lat="46.029396" lon="13.49641">
<time>2021-07-18T09:11:55Z</time>
</trkpt>
<trkpt lat="46.029383" lon="13.496415">
<time>2021-07-18T09:11:56Z</time>
</trkpt>
<trkpt lat="46.02937" lon="13.49642">
<time>2021-07-18T09:11:57Z</time>
</trkpt>
<trkpt lat="46.029356" lon="13.496423">
<time>2021-07-18T09:11:58Z</time>
</trkpt>
<trkpt lat="46.029343" lon="13.49643">
<time>2021-07-18T09:11:59Z</time>
</trkpt>
<trkpt lat="46.029331" lon="13.496435">
<time>2021-07-18T09:12:00Z</time>
</trkpt>
<trkpt lat="46.029318" lon="13.496438">
<time>2021-07-18T09:12:01Z</time>
</trkpt>
<trkpt lat="46.029306" lon="13.49644">
<time>2021-07-18T09:12:02Z</time>
</trkpt>
<trkpt lat="46.029293" lon="13.496443">
<time>2021-07-18T09:12:03Z</time>
</trkpt>
<trkpt lat="46.029278" lon="13.496443">
<time>2021-07-18T09:12:04Z</time>
</trkpt>
<trkpt lat="46.029266" lon="13.496443">
<time>2021-07-18T09:12:05Z</time>
</trkpt>
<trkpt lat="46.029253" lon="13.496443">
<time>2021-07-18T09:12:06Z</time>
</trkpt>
<trkpt lat="46.02924" lon="13.496446">
<time>2021-07-18T09:12:07Z</time>
</trkpt>
<trkpt lat="46.029226" lon="13.49645">
<time>2021-07-18T09:12:08Z</time>
</trkpt>
<trkpt lat="46.029211" lon="13.496451">
<time>2021-07-18T09:12:09Z</time>
</trkpt>
<trkpt lat="46.029198" lon="13.496455">
<time>2021-07-18T09:12:10Z</time>
</trkpt>
<trkpt lat="46.029185" lon="13.49646">
<time>2021-07-18T09:12:11Z</time>
</trkpt>
<trkpt lat="46.02917" lon="13.49646">
<time>2021-07-18T09:12:12Z</time>
</trkpt>
<trkpt lat="46.029156" lon="13.496458">
<time>2021-07-18T09:12:13Z</time>
</trkpt>
<trkpt lat="46.029143" lon="13.49646">
<time>2021-07-18T09:12:14Z</time>
</trkpt>
<trkpt lat="46.02913" lon="13.496458">
<time>2021-07-18T09:12:15Z</time>
</trkpt>
<trkpt lat="46.029115" lon="13.496458">
<time>2021-07-18T09:12:16Z</time>
</trkpt>
<trkpt lat="46.029105" lon="13.49646">
<time>2021-07-18T09:12:17Z</time>
</trkpt>
<trkpt lat="46.02909" lon="13.496461">
<time>2021-07-18T09:12:18Z</time>
</trkpt>
<trkpt lat="46.029075" lon="13.496466">
<time>2021-07-18T09:12:19Z</time>
</trkpt>
<trkpt lat="46.02906" lon="13.49647">
<time>2021-07-18T09:12:20Z</time>
</trkpt>
<trkpt lat="46.029046" lon="13.496471">
<time>2021-07-18T09:12:21Z</time>
</trkpt>
<trkpt lat="46.029033" lon="13.496475">
<time>2021-07-18T09:12:22Z</time>
</trkpt>
<trkpt lat="46.029021" lon="13.496475">
<time>2021-07-18T09:12:23Z</time>
</trkpt>
<trkpt lat="46.02901" lon="13.496475">
<time>2021-07-18T09:12:24Z</time>
</trkpt>
<trkpt lat="46.028998" lon="13.496476">
<time>2021-07-18T09:12:25Z</time>
</trkpt>
<trkpt lat="46.028985" lon="13.496478">
<time>2021-07-18T09:12:26Z</time>
</trkpt>
<trkpt lat="46.02897" lon="13.49648">
<time>2021-07-18T09:12:27Z</time>
</trkpt>
<trkpt lat="46.028958" lon="13.496481">
<time>2021-07-18T09:12:28Z</time>
</trkpt>
<trkpt lat="46.028946" lon="13.496481">
<time>2021-07-18T09:12:29Z</time>
</trkpt>
<trkpt lat="46.028931" lon="13.496478">
<time>2021-07-18T09:12:30Z</time>
</trkpt>
<trkpt lat="46.028913" lon="13.496473">
<time>2021-07-18T09:12:31Z</time>
</trkpt>
<trkpt lat="46.0289" lon="13.496471">
<time>2021-07-18T09:12:32Z</time>
</trkpt>
<trkpt lat="46.028886" lon="13.496468">
<time>2021-07-18T09:12:33Z</time>
</trkpt>
<trkpt lat="46.028875" lon="13.49647">
<time>2021-07-18T09:12:34Z</time>
</trkpt>
<trkpt lat="46.02886" lon="13.496468">
<time>2021-07-18T09:12:35Z</time>
</trkpt>
<trkpt lat="46.028841" lon="13.496465">
<time>2021-07-18T09:12:36Z</time>
</trkpt>
<trkpt lat="46.028825" lon="13.496461">
<time>2021-07-18T09:12:37Z</time>
</trkpt>
<trkpt lat="46.028806" lon="13.496458">
<time>2021-07-18T09:12:38Z</time>
</trkpt>
<trkpt lat="46.028788" lon="13.496456">
<time>2021-07-18T09:12:39Z</time>
</trkpt>
<trkpt lat="46.028771" lon="13.496451">
<time>2021-07-18T09:12:40Z</time>
</trkpt>
<trkpt lat="46.028755" lon="13.496441">
<time>2021-07-18T09:12:41Z</time>
</trkpt>
<trkpt lat="46.028736" lon="13.496435">
<time>2021-07-18T09:12:42Z</time>
</trkpt>
<trkpt lat="46.028718" lon="13.496428">
<time>2021-07-18T09:12:43Z</time>
</trkpt>
<trkpt lat="46.028698" lon="13.496416">
<time>2021-07-18T09:12:44Z</time>
</trkpt>
<trkpt lat="46.028681" lon="13.496406">
<time>2021-07-18T09:12:45Z</time>
</trkpt>
<trkpt lat="46.028665" lon="13.496406">
<time>2021-07-18T09:12:46Z</time>
</trkpt>
<trkpt lat="46.02865" lon="13.496413">
<time>2021-07-18T09:12:47Z</time>
</trkpt>
<trkpt lat="46.028633" lon="13.49643">
<time>2021-07-18T09:12:48Z</time>
</trkpt>
<trkpt lat="46.028613" lon="13.496453">
<time>2021-07-18T09:12:49Z</time>
</trkpt>
<trkpt lat="46.028593" lon="13.496475">
<time>2021-07-18T09:12:50Z</time>
</trkpt>
<trkpt lat="46.028566" lon="13.496495">
<time>2021-07-18T09:12:51Z</time>
</trkpt>
<trkpt lat="46.028533" lon="13.496506">
<time>2021-07-18T09:12:52Z</time>
</trkpt>
<trkpt lat="46.028493" lon="13.496515">
<time>2021-07-18T09:12:53Z</time>
</trkpt>
<trkpt lat="46.02845" lon="13.496516">
<time>2021-07-18T09:12:54Z</time>
</trkpt>
<trkpt lat="46.028408" lon="13.49652">
<time>2021-07-18T09:12:55Z</time>
</trkpt>
<trkpt lat="46.028358" lon="13.496515">
<time>2021-07-18T09:12:56Z</time>
</trkpt>
<trkpt lat="46.028308" lon="13.496516">
<time>2021-07-18T09:12:57Z</time>
</trkpt>
<trkpt lat="46.028261" lon="13.496526">
<time>2021-07-18T09:12:58Z</time>
</trkpt>
<trkpt lat="46.028213" lon="13.496531">
<time>2021-07-18T09:12:59Z</time>
</trkpt>
<trkpt lat="46.028168" lon="13.496543">
<time>2021-07-18T09:13:00Z</time>
</trkpt>
<trkpt lat="46.028123" lon="13.496563">
<time>2021-07-18T09:13:01Z</time>
</trkpt>
<trkpt lat="46.028078" lon="13.496573">
<time>2021-07-18T09:13:02Z</time>
</trkpt>
<trkpt lat="46.028031" lon="13.496586">
<time>2021-07-18T09:13:03Z</time>
</trkpt>
<trkpt lat="46.027981" lon="13.49659">
<time>2021-07-18T09:13:04Z</time>
</trkpt>
<trkpt lat="46.02793" lon="13.496593">
<time>2021-07-18T09:13:05Z</time>
</trkpt>
<trkpt lat="46.027875" lon="13.49659">
<time>2021-07-18T09:13:06Z</time>
</trkpt>
<trkpt lat="46.027823" lon="13.496605">
<time>2021-07-18T09:13:07Z</time>
</trkpt>
<trkpt lat="46.027786" lon="13.496615">
<time>2021-07-18T09:13:08Z</time>
</trkpt>
<trkpt lat="46.027748" lon="13.496621">
<time>2021-07-18T09:13:09Z</time>
</trkpt>
<trkpt lat="46.027708" lon="13.496623">
<time>2021-07-18T09:13:10Z</time>
</trkpt>
<trkpt lat="46.02767" lon="13.496621">
<time>2021-07-18T09:13:11Z</time>
</trkpt>
<trkpt lat="46.02763" lon="13.496618">
<time>2021-07-18T09:13:12Z</time>
</trkpt>
<trkpt lat="46.027595" lon="13.49661">
<time>2021-07-18T09:13:13Z</time>
</trkpt>
<trkpt lat="46.02756" lon="13.496593">
<time>2021-07-18T09:13:14Z</time>
</trkpt>
<trkpt lat="46.027526" lon="13.49657">
<time>2021-07-18T09:13:15Z</time>
</trkpt>
<trkpt lat="46.027496" lon="13.496545">
<time>2021-07-18T09:13:16Z</time>
</trkpt>
<trkpt lat="46.027463" lon="13.496521">
<time>2021-07-18T09:13:17Z</time>
</trkpt>
<trkpt lat="46.02742" lon="13.496483">
<time>2021-07-18T09:13:18Z</time>
</trkpt>
<trkpt lat="46.027375" lon="13.496468">
<time>2021-07-18T09:13:19Z</time>
</trkpt>
<trkpt lat="46.027331" lon="13.496465">
<time>2021-07-18T09:13:20Z</time>
</trkpt>
<trkpt lat="46.027296" lon="13.496468">
<time>2021-07-18T09:13:21Z</time>
</trkpt>
<trkpt lat="46.027265" lon="13.49647">
<time>2021-07-18T09:13:22Z</time>
</trkpt>
<trkpt lat="46.027225" lon="13.496458">
<time>2021-07-18T09:13:23Z</time>
</trkpt>
<trkpt lat="46.027186" lon="13.496441">
<time>2021-07-18T09:13:24Z</time>
</trkpt>
<trkpt lat="46.027153" lon="13.496426">
<time>2021-07-18T09:13:25Z</time>
</trkpt>
<trkpt lat="46.027116" lon="13.496425">
<time>2021-07-18T09:13:26Z</time>
</trkpt>
<trkpt lat="46.027078" lon="13.49643">
<time>2021-07-18T09:13:27Z</time>
</trkpt>
<trkpt lat="46.027045" lon="13.496428">
<time>2021-07-18T09:13:28Z</time>
</trkpt>
<trkpt lat="46.027015" lon="13.496423">
<time>2021-07-18T09:13:29Z</time>
</trkpt>
<trkpt lat="46.026981" lon="13.496405">
<time>2021-07-18T09:13:30Z</time>
</trkpt>
<trkpt lat="46.026945" lon="13.496376">
<time>2021-07-18T09:13:31Z</time>
</trkpt>
<trkpt lat="46.026903" lon="13.496343">
<time>2021-07-18T09:13:32Z</time>
</trkpt>
<trkpt lat="46.026858" lon="13.496308">
<time>2021-07-18T09:13:33Z</time>
</trkpt>
<trkpt lat="46.026818" lon="13.496273">
<time>2021-07-18T09:13:34Z</time>
</trkpt>
<trkpt lat="46.026771" lon="13.496235">
<time>2021-07-18T09:13:35Z</time>
</trkpt>
<trkpt lat="46.026726" lon="13.496193">
<time>2021-07-18T09:13:36Z</time>
</trkpt>
<trkpt lat="46.026675" lon="13.496145">
<time>2021-07-18T09:13:37Z</time>
</trkpt>
<trkpt lat="46.026626" lon="13.496115">
<time>2021-07-18T09:13:38Z</time>
</trkpt>
<trkpt lat="46.026578" lon="13.49609">
<time>2021-07-18T09:13:39Z</time>
</trkpt>
<trkpt lat="46.026535" lon="13.496083">
<time>2021-07-18T09:13:40Z</time>
</trkpt>
<trkpt lat="46.026491" lon="13.496083">
<time>2021-07-18T09:13:41Z</time>
</trkpt>
<trkpt lat="46.026456" lon="13.496088">
<time>2021-07-18T09:13:42Z</time>
</trkpt>
<trkpt lat="46.026416" lon="13.496088">
<time>2021-07-18T09:13:43Z</time>
</trkpt>
<trkpt lat="46.02637" lon="13.496088">
<time>2021-07-18T09:13:44Z</time>
</trkpt>
<trkpt lat="46.02633" lon="13.496061">
<time>2021-07-18T09:13:45Z</time>
</trkpt>
<trkpt lat="46.026291" lon="13.496011">
<time>2021-07-18T09:13:46Z</time>
</trkpt>
<trkpt lat="46.026266" lon="13.495955">
<time>2021-07-18T09:13:47Z</time>
</trkpt>
<trkpt lat="46.02623" lon="13.49589">
<time>2021-07-18T09:13:48Z</time>
</trkpt>
<trkpt lat="46.026191" lon="13.495843">
<time>2021-07-18T09:13:49Z</time>
</trkpt>
<trkpt lat="46.026151" lon="13.495813">
<time>2021-07-18T09:13:50Z</time>
</trkpt>
<trkpt lat="46.026113" lon="13.495795">
<time>2021-07-18T09:13:51Z</time>
</trkpt>
<trkpt lat="46.026075" lon="13.495783">
<time>2021-07-18T09:13:52Z</time>
</trkpt>
<trkpt lat="46.026043" lon="13.49578">
<time>2021-07-18T09:13:53Z</time>
</trkpt>
<trkpt lat="46.026011" lon="13.495775">
<time>2021-07-18T09:13:54Z</time>
</trkpt>
<trkpt lat="46.025985" lon="13.49577">
<time>2021-07-18T09:13:55Z</time>
</trkpt>
<trkpt lat="46.025955" lon="13.495761">
<time>2021-07-18T09:13:56Z</time>
</trkpt>
<trkpt lat="46.025923" lon="13.495751">
<time>2021-07-18T09:13:57Z</time>
</trkpt>
<trkpt lat="46.025895" lon="13.495735">
<time>2021-07-18T09:13:58Z</time>
</trkpt>
<trkpt lat="46.025858" lon="13.495718">
<time>2021-07-18T09:13:59Z</time>
</trkpt>
<trkpt lat="46.025823" lon="13.495701">
<time>2021-07-18T09:14:00Z</time>
</trkpt>
<trkpt lat="46.025786" lon="13.49568">
<time>2021-07-18T09:14:01Z</time>
</trkpt>
<trkpt lat="46.02575" lon="13.495655">
<time>2021-07-18T09:14:02Z</time>
</trkpt>
<trkpt lat="46.025708" lon="13.495628">
<time>2021-07-18T09:14:03Z</time>
</trkpt>
<trkpt lat="46.025668" lon="13.495596">
<time>2021-07-18T09:14:04Z</time>
</trkpt>
<trkpt lat="46.025626" lon="13.495565">
<time>2021-07-18T09:14:05Z</time>
</trkpt>
<trkpt lat="46.025586" lon="13.495533">
<time>2021-07-18T09:14:06Z</time>
</trkpt>
<trkpt lat="46.025548" lon="13.495498">
<time>2021-07-18T09:14:07Z</time>
</trkpt>
<trkpt lat="46.025508" lon="13.495463">
<time>2021-07-18T09:14:08Z</time>
</trkpt>
<trkpt lat="46.025476" lon="13.495436">
<time>2021-07-18T09:14:09Z</time>
</trkpt>
<trkpt lat="46.025428" lon="13.495386">
<time>2021-07-18T09:14:10Z</time>
</trkpt>
<trkpt lat="46.025393" lon="13.495351">
<time>2021-07-18T09:14:11Z</time>
</trkpt>
<trkpt lat="46.025361" lon="13.495318">
<time>2021-07-18T09:14:12Z</time>
</trkpt>
<trkpt lat="46.025338" lon="13.495291">
<time>2021-07-18T09:14:13Z</time>
</trkpt>
<trkpt lat="46.025295" lon="13.495243">
<time>2021-07-18T09:14:14Z</time>
</trkpt>
<trkpt lat="46.02526" lon="13.495201">
<time>2021-07-18T09:14:15Z</time>
</trkpt>
<trkpt lat="46.025226" lon="13.495155">
<time>2021-07-18T09:14:16Z</time>
</trkpt>
<trkpt lat="46.025195" lon="13.4951">
<time>2021-07-18T09:14:17Z</time>
</trkpt>
<trkpt lat="46.02515" lon="13.495031">
<time>2021-07-18T09:14:18Z</time>
</trkpt>
<trkpt lat="46.025103" lon="13.494971">
<time>2021-07-18T09:14:19Z</time>
</trkpt>
<trkpt lat="46.025051" lon="13.494923">
<time>2021-07-18T09:14:20Z</time>
</trkpt>
<trkpt lat="46.024993" lon="13.494876">
<time>2021-07-18T09:14:21Z</time>
</trkpt>
<trkpt lat="46.024928" lon="13.49483">
<time>2021-07-18T09:14:22Z</time>
</trkpt>
<trkpt lat="46.024863" lon="13.49478">
<time>2021-07-18T09:14:23Z</time>
</trkpt>
<trkpt lat="46.024815" lon="13.494728">
<time>2021-07-18T09:14:24Z</time>
</trkpt>
<trkpt lat="46.024755" lon="13.49464">
<time>2021-07-18T09:14:25Z</time>
</trkpt>
<trkpt lat="46.024711" lon="13.494545">
<time>2021-07-18T09:14:26Z</time>
</trkpt>
<trkpt lat="46.024673" lon="13.494448">
<time>2021-07-18T09:14:27Z</time>
</trkpt>
<trkpt lat="46.02463" lon="13.494326">
<time>2021-07-18T09:14:28Z</time>
</trkpt>
<trkpt lat="46.024606" lon="13.494233">
<time>2021-07-18T09:14:29Z</time>
</trkpt>
<trkpt lat="46.024578" lon="13.49409">
<time>2021-07-18T09:14:30Z</time>
</trkpt>
<trkpt lat="46.024563" lon="13.493961">
<time>2021-07-18T09:14:31Z</time>
</trkpt>
<trkpt lat="46.024543" lon="13.49383">
<time>2021-07-18T09:14:32Z</time>
</trkpt>
<trkpt lat="46.024525" lon="13.4937">
<time>2021-07-18T09:14:33Z</time>
</trkpt>
<trkpt lat="46.024506" lon="13.493575">
<time>2021-07-18T09:14:34Z</time>
</trkpt>
<trkpt lat="46.024488" lon="13.493466">
<time>2021-07-18T09:14:35Z</time>
</trkpt>
<trkpt lat="46.024453" lon="13.493371">
<time>2021-07-18T09:14:36Z</time>
</trkpt>
<trkpt lat="46.024408" lon="13.49328">
<time>2021-07-18T09:14:37Z</time>
</trkpt>
<trkpt lat="46.024361" lon="13.493206">
<time>2021-07-18T09:14:38Z</time>
</trkpt>
<trkpt lat="46.024318" lon="13.493133">
<time>2021-07-18T09:14:39Z</time>
</trkpt>
<trkpt lat="46.024266" lon="13.493078">
<time>2021-07-18T09:14:40Z</time>
</trkpt>
<trkpt lat="46.024225" lon="13.493043">
<time>2021-07-18T09:14:41Z</time>
</trkpt>
<trkpt lat="46.024176" lon="13.493028">
<time>2021-07-18T09:14:42Z</time>
</trkpt>
<trkpt lat="46.024125" lon="13.493025">
<time>2021-07-18T09:14:43Z</time>
</trkpt>
<trkpt lat="46.02407" lon="13.493031">
<time>2021-07-18T09:14:44Z</time>
</trkpt>
<trkpt lat="46.024033" lon="13.493018">
<time>2021-07-18T09:14:45Z</time>
</trkpt>
<trkpt lat="46.024011" lon="13.492996">
<time>2021-07-18T09:14:46Z</time>
</trkpt>
<trkpt lat="46.02399" lon="13.492943">
<time>2021-07-18T09:14:47Z</time>
</trkpt>
<trkpt lat="46.023983" lon="13.492878">
<time>2021-07-18T09:14:48Z</time>
</trkpt>
<trkpt lat="46.023981" lon="13.492803">
<time>2021-07-18T09:14:49Z</time>
</trkpt>
<trkpt lat="46.023976" lon="13.492715">
<time>2021-07-18T09:14:50Z</time>
</trkpt>
<trkpt lat="46.023961" lon="13.492623">
<time>2021-07-18T09:14:51Z</time>
</trkpt>
<trkpt lat="46.023936" lon="13.492528">
<time>2021-07-18T09:14:52Z</time>
</trkpt>
<trkpt lat="46.023921" lon="13.492426">
<time>2021-07-18T09:14:53Z</time>
</trkpt>
<trkpt lat="46.023911" lon="13.492326">
<time>2021-07-18T09:14:54Z</time>
</trkpt>
<trkpt lat="46.023903" lon="13.492231">
<time>2021-07-18T09:14:55Z</time>
</trkpt>
<trkpt lat="46.023878" lon="13.492148">
<time>2021-07-18T09:14:56Z</time>
</trkpt>
<trkpt lat="46.023846" lon="13.492056">
<time>2021-07-18T09:14:57Z</time>
</trkpt>
<trkpt lat="46.023805" lon="13.491958">
<time>2021-07-18T09:14:58Z</time>
</trkpt>
<trkpt lat="46.023753" lon="13.491853">
<time>2021-07-18T09:14:59Z</time>
</trkpt>
<trkpt lat="46.023701" lon="13.491755">
<time>2021-07-18T09:15:00Z</time>
</trkpt>
<trkpt lat="46.02363" lon="13.491628">
<time>2021-07-18T09:15:01Z</time>
</trkpt>
<trkpt lat="46.023563" lon="13.491533">
<time>2021-07-18T09:15:02Z</time>
</trkpt>
<trkpt lat="46.023501" lon="13.491443">
<time>2021-07-18T09:15:03Z</time>
</trkpt>
<trkpt lat="46.02344" lon="13.491346">
<time>2021-07-18T09:15:04Z</time>
</trkpt>
<trkpt lat="46.023376" lon="13.49126">
<time>2021-07-18T09:15:05Z</time>
</trkpt>
<trkpt lat="46.023306" lon="13.491173">
<time>2021-07-18T09:15:06Z</time>
</trkpt>
<trkpt lat="46.023231" lon="13.491083">
<time>2021-07-18T09:15:07Z</time>
</trkpt>
<trkpt lat="46.02315" lon="13.491006">
<time>2021-07-18T09:15:08Z</time>
</trkpt>
<trkpt lat="46.023075" lon="13.490956">
<time>2021-07-18T09:15:09Z</time>
</trkpt>
<trkpt lat="46.023003" lon="13.490915">
<time>2021-07-18T09:15:10Z</time>
</trkpt>
<trkpt lat="46.022941" lon="13.490905">
<time>2021-07-18T09:15:11Z</time>
</trkpt>
<trkpt lat="46.022898" lon="13.490893">
<time>2021-07-18T09:15:12Z</time>
</trkpt>
<trkpt lat="46.022863" lon="13.490863">
<time>2021-07-18T09:15:13Z</time>
</trkpt>
<trkpt lat="46.02284" lon="13.490813">
<time>2021-07-18T09:15:14Z</time>
</trkpt>
<trkpt lat="46.022826" lon="13.490741">
<time>2021-07-18T09:15:15Z</time>
</trkpt>
<trkpt lat="46.022798" lon="13.49067">
<time>2021-07-18T09:15:16Z</time>
</trkpt>
<trkpt lat="46.022761" lon="13.490591">
<time>2021-07-18T09:15:17Z</time>
</trkpt>
<trkpt lat="46.022726" lon="13.490506">
<time>2021-07-18T09:15:18Z</time>
</trkpt>
<trkpt lat="46.022685" lon="13.490418">
<time>2021-07-18T09:15:19Z</time>
</trkpt>
<trkpt lat="46.022636" lon="13.490333">
<time>2021-07-18T09:15:20Z</time>
</trkpt>
<trkpt lat="46.022586" lon="13.490255">
<time>2021-07-18T09:15:21Z</time>
</trkpt>
<trkpt lat="46.022543" lon="13.490195">
<time>2021-07-18T09:15:22Z</time>
</trkpt>
<trkpt lat="46.022503" lon="13.490158">
<time>2021-07-18T09:15:23Z</time>
</trkpt>
<trkpt lat="46.022471" lon="13.490136">
<time>2021-07-18T09:15:24Z</time>
</trkpt>
<trkpt lat="46.022453" lon="13.49013">
<time>2021-07-18T09:15:25Z</time>
</trkpt>
<trkpt lat="46.022438" lon="13.490126">
<time>2021-07-18T09:15:26Z</time>
</trkpt>
<trkpt lat="46.022431" lon="13.490126">
<time>2021-07-18T09:15:27Z</time>
</trkpt>
<trkpt lat="46.022426" lon="13.490118">
<time>2021-07-18T09:15:28Z</time>
</trkpt>
<trkpt lat="46.022421" lon="13.490095">
<time>2021-07-18T09:15:29Z</time>
</trkpt>
<trkpt lat="46.022406" lon="13.490058">
<time>2021-07-18T09:15:30Z</time>
</trkpt>
<trkpt lat="46.022386" lon="13.490025">
<time>2021-07-18T09:15:31Z</time>
</trkpt>
<trkpt lat="46.022356" lon="13.489993">
<time>2021-07-18T09:15:32Z</time>
</trkpt>
<trkpt lat="46.022321" lon="13.48996">
<time>2021-07-18T09:15:33Z</time>
</trkpt>
<trkpt lat="46.022278" lon="13.489921">
<time>2021-07-18T09:15:34Z</time>
</trkpt>
<trkpt lat="46.022228" lon="13.489873">
<time>2021-07-18T09:15:35Z</time>
</trkpt>
<trkpt lat="46.02217" lon="13.489813">
<time>2021-07-18T09:15:36Z</time>
</trkpt>
<trkpt lat="46.022103" lon="13.489746">
<time>2021-07-18T09:15:37Z</time>
</trkpt>
<trkpt lat="46.022031" lon="13.48968">
<time>2021-07-18T09:15:38Z</time>
</trkpt>
<trkpt lat="46.021966" lon="13.489608">
<time>2021-07-18T09:15:39Z</time>
</trkpt>
<trkpt lat="46.021893" lon="13.489543">
<time>2021-07-18T09:15:40Z</time>
</trkpt>
<trkpt lat="46.021811" lon="13.489476">
<time>2021-07-18T09:15:41Z</time>
</trkpt>
<trkpt lat="46.021735" lon="13.489415">
<time>2021-07-18T09:15:42Z</time>
</trkpt>
<trkpt lat="46.021646" lon="13.48934">
<time>2021-07-18T09:15:43Z</time>
</trkpt>
<trkpt lat="46.021566" lon="13.489271">
<time>2021-07-18T09:15:44Z</time>
</trkpt>
<trkpt lat="46.02149" lon="13.489225">
<time>2021-07-18T09:15:45Z</time>
</trkpt>
<trkpt lat="46.021415" lon="13.489188">
<time>2021-07-18T09:15:46Z</time>
</trkpt>
<trkpt lat="46.021333" lon="13.48916">
<time>2021-07-18T09:15:47Z</time>
</trkpt>
<trkpt lat="46.021263" lon="13.489116">
<time>2021-07-18T09:15:48Z</time>
</trkpt>
<trkpt lat="46.02119" lon="13.489083">
<time>2021-07-18T09:15:49Z</time>
</trkpt>
<trkpt lat="46.021116" lon="13.489063">
<time>2021-07-18T09:15:50Z</time>
</trkpt>
<trkpt lat="46.02103" lon="13.489063">
<time>2021-07-18T09:15:51Z</time>
</trkpt>
<trkpt lat="46.020946" lon="13.489065">
<time>2021-07-18T09:15:52Z</time>
</trkpt>
<trkpt lat="46.020865" lon="13.489048">
<time>2021-07-18T09:15:53Z</time>
</trkpt>
<trkpt lat="46.020785" lon="13.489025">
<time>2021-07-18T09:15:54Z</time>
</trkpt>
<trkpt lat="46.020706" lon="13.488993">
<time>2021-07-18T09:15:55Z</time>
</trkpt>
<trkpt lat="46.020631" lon="13.488955">
<time>2021-07-18T09:15:56Z</time>
</trkpt>
<trkpt lat="46.020565" lon="13.488906">
<time>2021-07-18T09:15:57Z</time>
</trkpt>
<trkpt lat="46.02049" lon="13.488878">
<time>2021-07-18T09:15:58Z</time>
</trkpt>
<trkpt lat="46.020418" lon="13.488846">
<time>2021-07-18T09:15:59Z</time>
</trkpt>
<trkpt lat="46.020346" lon="13.488821">
<time>2021-07-18T09:16:00Z</time>
</trkpt>
<trkpt lat="46.020276" lon="13.488793">
<time>2021-07-18T09:16:01Z</time>
</trkpt>
<trkpt lat="46.02021" lon="13.488763">
<time>2021-07-18T09:16:02Z</time>
</trkpt>
<trkpt lat="46.020145" lon="13.488733">
<time>2021-07-18T09:16:03Z</time>
</trkpt>
<trkpt lat="46.020085" lon="13.488696">
<time>2021-07-18T09:16:04Z</time>
</trkpt>
<trkpt lat="46.020026" lon="13.488655">
<time>2021-07-18T09:16:05Z</time>
</trkpt>
<trkpt lat="46.019971" lon="13.48861">
<time>2021-07-18T09:16:06Z</time>
</trkpt>
<trkpt lat="46.019918" lon="13.488566">
<time>2021-07-18T09:16:07Z</time>
</trkpt>
<trkpt lat="46.019878" lon="13.488533">
<time>2021-07-18T09:16:08Z</time>
</trkpt>
<trkpt lat="46.019816" lon="13.48849">
<time>2021-07-18T09:16:09Z</time>
</trkpt>
<trkpt lat="46.01978" lon="13.488466">
<time>2021-07-18T09:16:10Z</time>
</trkpt>
<trkpt lat="46.019733" lon="13.488438">
<time>2021-07-18T09:16:11Z</time>
</trkpt>
<trkpt lat="46.019688" lon="13.48841">
<time>2021-07-18T09:16:12Z</time>
</trkpt>
<trkpt lat="46.019646" lon="13.48838">
<time>2021-07-18T09:16:13Z</time>
</trkpt>
<trkpt lat="46.019608" lon="13.488345">
<time>2021-07-18T09:16:14Z</time>
</trkpt>
<trkpt lat="46.019568" lon="13.488311">
<time>2021-07-18T09:16:15Z</time>
</trkpt>
<trkpt lat="46.01953" lon="13.48828">
<time>2021-07-18T09:16:16Z</time>
</trkpt>
<trkpt lat="46.019495" lon="13.488253">
<time>2021-07-18T09:16:17Z</time>
</trkpt>
<trkpt lat="46.019461" lon="13.488228">
<time>2021-07-18T09:16:18Z</time>
</trkpt>
<trkpt lat="46.019428" lon="13.488203">
<time>2021-07-18T09:16:19Z</time>
</trkpt>
<trkpt lat="46.019395" lon="13.48818">
<time>2021-07-18T09:16:20Z</time>
</trkpt>
<trkpt lat="46.019356" lon="13.488156">
<time>2021-07-18T09:16:21Z</time>
</trkpt>
<trkpt lat="46.019333" lon="13.488145">
<time>2021-07-18T09:16:22Z</time>
</trkpt>
<trkpt lat="46.0193" lon="13.488128">
<time>2021-07-18T09:16:23Z</time>
</trkpt>
<trkpt lat="46.019266" lon="13.488108">
<time>2021-07-18T09:16:24Z</time>
</trkpt>
<trkpt lat="46.019225" lon="13.488088">
<time>2021-07-18T09:16:25Z</time>
</trkpt>
<trkpt lat="46.01919" lon="13.488071">
<time>2021-07-18T09:16:26Z</time>
</trkpt>
<trkpt lat="46.019161" lon="13.488058">
<time>2021-07-18T09:16:27Z</time>
</trkpt>
<trkpt lat="46.019126" lon="13.488041">
<time>2021-07-18T09:16:28Z</time>
</trkpt>
<trkpt lat="46.01909" lon="13.488021">
<time>2021-07-18T09:16:29Z</time>
</trkpt>
<trkpt lat="46.019055" lon="13.488">
<time>2021-07-18T09:16:30Z</time>
</trkpt>
<trkpt lat="46.019013" lon="13.48797">
<time>2021-07-18T09:16:31Z</time>
</trkpt>
<trkpt lat="46.018986" lon="13.487946">
<time>2021-07-18T09:16:32Z</time>
</trkpt>
<trkpt lat="46.018948" lon="13.487908">
<time>2021-07-18T09:16:33Z</time>
</trkpt>
<trkpt lat="46.01892" lon="13.487875">
<time>2021-07-18T09:16:34Z</time>
</trkpt>
<trkpt lat="46.018888" lon="13.487836">
<time>2021-07-18T09:16:35Z</time>
</trkpt>
<trkpt lat="46.018861" lon="13.487798">
<time>2021-07-18T09:16:36Z</time>
</trkpt>
<trkpt lat="46.018838" lon="13.487766">
<time>2021-07-18T09:16:37Z</time>
</trkpt>
<trkpt lat="46.018808" lon="13.487723">
<time>2021-07-18T09:16:38Z</time>
</trkpt>
<trkpt lat="46.018776" lon="13.487681">
<time>2021-07-18T09:16:39Z</time>
</trkpt>
<trkpt lat="46.018743" lon="13.487638">
<time>2021-07-18T09:16:40Z</time>
</trkpt>
<trkpt lat="46.01871" lon="13.487593">
<time>2021-07-18T09:16:41Z</time>
</trkpt>
<trkpt lat="46.018675" lon="13.48755">
<time>2021-07-18T09:16:42Z</time>
</trkpt>
<trkpt lat="46.018638" lon="13.487505">
<time>2021-07-18T09:16:43Z</time>
</trkpt>
<trkpt lat="46.018601" lon="13.487461">
<time>2021-07-18T09:16:44Z</time>
</trkpt>
<trkpt lat="46.018566" lon="13.487416">
<time>2021-07-18T09:16:45Z</time>
</trkpt>
<trkpt lat="46.01853" lon="13.487371">
<time>2021-07-18T09:16:46Z</time>
</trkpt>
<trkpt lat="46.018491" lon="13.487326">
<time>2021-07-18T09:16:47Z</time>
</trkpt>
<trkpt lat="46.018453" lon="13.48728">
<time>2021-07-18T09:16:48Z</time>
</trkpt>
<trkpt lat="46.018416" lon="13.487233">
<time>2021-07-18T09:16:49Z</time>
</trkpt>
<trkpt lat="46.01838" lon="13.487188">
<time>2021-07-18T09:16:50Z</time>
</trkpt>
<trkpt lat="46.018338" lon="13.487138">
<time>2021-07-18T09:16:51Z</time>
</trkpt>
<trkpt lat="46.018298" lon="13.487091">
<time>2021-07-18T09:16:52Z</time>
</trkpt>
<trkpt lat="46.01825" lon="13.487031">
<time>2021-07-18T09:16:53Z</time>
</trkpt>
<trkpt lat="46.018206" lon="13.486983">
<time>2021-07-18T09:16:54Z</time>
</trkpt>
<trkpt lat="46.01817" lon="13.486941">
<time>2021-07-18T09:16:55Z</time>
</trkpt>
<trkpt lat="46.018125" lon="13.486888">
<time>2021-07-18T09:16:56Z</time>
</trkpt>
<trkpt lat="46.01808" lon="13.486833">
<time>2021-07-18T09:16:57Z</time>
</trkpt>
<trkpt lat="46.018031" lon="13.486776">
<time>2021-07-18T09:16:58Z</time>
</trkpt>
<trkpt lat="46.017973" lon="13.486706">
<time>2021-07-18T09:16:59Z</time>
</trkpt>
<trkpt lat="46.017933" lon="13.48666">
<time>2021-07-18T09:17:00Z</time>
</trkpt>
<trkpt lat="46.017875" lon="13.486588">
<time>2021-07-18T09:17:01Z</time>
</trkpt>
<trkpt lat="46.017835" lon="13.486533">
<time>2021-07-18T09:17:02Z</time>
</trkpt>
<trkpt lat="46.01781" lon="13.486501">
<time>2021-07-18T09:17:03Z</time>
</trkpt>
<trkpt lat="46.017785" lon="13.486483">
<time>2021-07-18T09:17:04Z</time>
</trkpt>
<trkpt lat="46.017766" lon="13.486481">
<time>2021-07-18T09:17:05Z</time>
</trkpt>
<trkpt lat="46.017751" lon="13.486508">
<time>2021-07-18T09:17:06Z</time>
</trkpt>
<trkpt lat="46.01774" lon="13.486556">
<time>2021-07-18T09:17:07Z</time>
</trkpt>
<trkpt lat="46.017726" lon="13.486631">
<time>2021-07-18T09:17:08Z</time>
</trkpt>
<trkpt lat="46.017708" lon="13.486701">
<time>2021-07-18T09:17:09Z</time>
</trkpt>
<trkpt lat="46.01769" lon="13.486783">
<time>2021-07-18T09:17:10Z</time>
</trkpt>
<trkpt lat="46.01767" lon="13.486871">
<time>2021-07-18T09:17:11Z</time>
</trkpt>
<trkpt lat="46.017638" lon="13.486965">
<time>2021-07-18T09:17:12Z</time>
</trkpt>
<trkpt lat="46.017608" lon="13.48702">
<time>2021-07-18T09:17:13Z</time>
</trkpt>
<trkpt lat="46.017558" lon="13.487081">
<time>2021-07-18T09:17:14Z</time>
</trkpt>
<trkpt lat="46.017493" lon="13.487136">
<time>2021-07-18T09:17:15Z</time>
</trkpt>
<trkpt lat="46.017406" lon="13.487185">
<time>2021-07-18T09:17:16Z</time>
</trkpt>
<trkpt lat="46.01735" lon="13.487218">
<time>2021-07-18T09:17:17Z</time>
</trkpt>
<trkpt lat="46.017275" lon="13.487258">
<time>2021-07-18T09:17:18Z</time>
</trkpt>
<trkpt lat="46.017196" lon="13.487315">
<time>2021-07-18T09:17:19Z</time>
</trkpt>
<trkpt lat="46.017103" lon="13.487378">
<time>2021-07-18T09:17:20Z</time>
</trkpt>
<trkpt lat="46.017043" lon="13.48743">
<time>2021-07-18T09:17:21Z</time>
</trkpt>
<trkpt lat="46.016971" lon="13.487506">
<time>2021-07-18T09:17:22Z</time>
</trkpt>
<trkpt lat="46.016905" lon="13.487591">
<time>2021-07-18T09:17:23Z</time>
</trkpt>
<trkpt lat="46.016841" lon="13.487678">
<time>2021-07-18T09:17:24Z</time>
</trkpt>
<trkpt lat="46.016778" lon="13.487763">
<time>2021-07-18T09:17:25Z</time>
</trkpt>
<trkpt lat="46.016711" lon="13.487835">
<time>2021-07-18T09:17:26Z</time>
</trkpt>
<trkpt lat="46.016645" lon="13.487886">
<time>2021-07-18T09:17:27Z</time>
</trkpt>
<trkpt lat="46.016581" lon="13.487911">
<time>2021-07-18T09:17:28Z</time>
</trkpt>
<trkpt lat="46.01652" lon="13.487918">
<time>2021-07-18T09:17:29Z</time>
</trkpt>
<trkpt lat="46.01646" lon="13.487915">
<time>2021-07-18T09:17:30Z</time>
</trkpt>
<trkpt lat="46.016401" lon="13.487906">
<time>2021-07-18T09:17:31Z</time>
</trkpt>
<trkpt lat="46.016341" lon="13.487891">
<time>2021-07-18T09:17:32Z</time>
</trkpt>
<trkpt lat="46.016285" lon="13.487878">
<time>2021-07-18T09:17:33Z</time>
</trkpt>
<trkpt lat="46.01624" lon="13.487866">
<time>2021-07-18T09:17:34Z</time>
</trkpt>
<trkpt lat="46.016201" lon="13.487856">
<time>2021-07-18T09:17:35Z</time>
</trkpt>
<trkpt lat="46.016193" lon="13.487853">
<time>2021-07-18T09:17:36Z</time>
</trkpt>
<trkpt lat="46.016193" lon="13.487848">
<time>2021-07-18T09:17:37Z</time>
</trkpt>
<trkpt lat="46.01621" lon="13.487846">
<time>2021-07-18T09:17:38Z</time>
</trkpt>
<trkpt lat="46.016235" lon="13.48785">
<time>2021-07-18T09:17:39Z</time>
</trkpt>
<trkpt lat="46.016266" lon="13.487851">
<time>2021-07-18T09:17:40Z</time>
</trkpt>
<trkpt lat="46.016293" lon="13.487855">
<time>2021-07-18T09:17:41Z</time>
</trkpt>
<trkpt lat="46.016326" lon="13.487858">
<time>2021-07-18T09:17:42Z</time>
</trkpt>
<trkpt lat="46.01636" lon="13.487865">
<time>2021-07-18T09:17:43Z</time>
</trkpt>
<trkpt lat="46.016398" lon="13.487871">
<time>2021-07-18T09:17:44Z</time>
</trkpt>
<trkpt lat="46.016445" lon="13.487881">
<time>2021-07-18T09:17:45Z</time>
</trkpt>
<trkpt lat="46.016478" lon="13.487888">
<time>2021-07-18T09:17:46Z</time>
</trkpt>
<trkpt lat="46.016521" lon="13.487896">
<time>2021-07-18T09:17:47Z</time>
</trkpt>
<trkpt lat="46.016565" lon="13.487901">
<time>2021-07-18T09:17:48Z</time>
</trkpt>
<trkpt lat="46.016611" lon="13.487903">
<time>2021-07-18T09:17:49Z</time>
</trkpt>
<trkpt lat="46.016665" lon="13.487896">
<time>2021-07-18T09:17:50Z</time>
</trkpt>
<trkpt lat="46.016701" lon="13.487881">
<time>2021-07-18T09:17:51Z</time>
</trkpt>
<trkpt lat="46.01675" lon="13.487846">
<time>2021-07-18T09:17:52Z</time>
</trkpt>
<trkpt lat="46.016781" lon="13.487813">
<time>2021-07-18T09:17:53Z</time>
</trkpt>
<trkpt lat="46.01682" lon="13.487771">
<time>2021-07-18T09:17:54Z</time>
</trkpt>
<trkpt lat="46.016856" lon="13.487728">
<time>2021-07-18T09:17:55Z</time>
</trkpt>
<trkpt lat="46.016895" lon="13.487686">
<time>2021-07-18T09:17:56Z</time>
</trkpt>
<trkpt lat="46.016928" lon="13.487641">
<time>2021-07-18T09:17:57Z</time>
</trkpt>
<trkpt lat="46.01696" lon="13.487576">
<time>2021-07-18T09:17:58Z</time>
</trkpt>
<trkpt lat="46.016971" lon="13.487518">
<time>2021-07-18T09:17:59Z</time>
</trkpt>
<trkpt lat="46.016971" lon="13.487466">
<time>2021-07-18T09:18:00Z</time>
</trkpt>
<trkpt lat="46.016966" lon="13.487388">
<time>2021-07-18T09:18:01Z</time>
</trkpt>
<trkpt lat="46.016958" lon="13.487318">
<time>2021-07-18T09:18:02Z</time>
</trkpt>
<trkpt lat="46.016951" lon="13.487261">
<time>2021-07-18T09:18:03Z</time>
</trkpt>
<trkpt lat="46.016943" lon="13.487193">
<time>2021-07-18T09:18:04Z</time>
</trkpt>
<trkpt lat="46.016931" lon="13.487121">
<time>2021-07-18T09:18:05Z</time>
</trkpt>
<trkpt lat="46.01692" lon="13.487046">
<time>2021-07-18T09:18:06Z</time>
</trkpt>
<trkpt lat="46.016903" lon="13.486955">
<time>2021-07-18T09:18:07Z</time>
</trkpt>
<trkpt lat="46.016895" lon="13.48689">
<time>2021-07-18T09:18:08Z</time>
</trkpt>
<trkpt lat="46.016883" lon="13.486811">
<time>2021-07-18T09:18:09Z</time>
</trkpt>
<trkpt lat="46.01687" lon="13.486728">
<time>2021-07-18T09:18:10Z</time>
</trkpt>
<trkpt lat="46.016855" lon="13.48664">
<time>2021-07-18T09:18:11Z</time>
</trkpt>
<trkpt lat="46.016838" lon="13.486555">
<time>2021-07-18T09:18:12Z</time>
</trkpt>
<trkpt lat="46.016818" lon="13.48647">
<time>2021-07-18T09:18:13Z</time>
</trkpt>
<trkpt lat="46.016786" lon="13.486393">
<time>2021-07-18T09:18:14Z</time>
</trkpt>
<trkpt lat="46.016751" lon="13.486323">
<time>2021-07-18T09:18:15Z</time>
</trkpt>
<trkpt lat="46.016721" lon="13.486248">
<time>2021-07-18T09:18:16Z</time>
</trkpt>
<trkpt lat="46.0167" lon="13.486163">
<time>2021-07-18T09:18:17Z</time>
</trkpt>
<trkpt lat="46.016683" lon="13.486068">
<time>2021-07-18T09:18:18Z</time>
</trkpt>
<trkpt lat="46.016666" lon="13.485963">
<time>2021-07-18T09:18:19Z</time>
</trkpt>
<trkpt lat="46.01665" lon="13.48585">
<time>2021-07-18T09:18:20Z</time>
</trkpt>
<trkpt lat="46.016633" lon="13.485735">
<time>2021-07-18T09:18:21Z</time>
</trkpt>
<trkpt lat="46.016616" lon="13.485615">
<time>2021-07-18T09:18:22Z</time>
</trkpt>
<trkpt lat="46.016601" lon="13.485495">
<time>2021-07-18T09:18:23Z</time>
</trkpt>
<trkpt lat="46.016585" lon="13.48538">
<time>2021-07-18T09:18:24Z</time>
</trkpt>
<trkpt lat="46.016566" lon="13.48527">
<time>2021-07-18T09:18:25Z</time>
</trkpt>
<trkpt lat="46.016551" lon="13.485168">
<time>2021-07-18T09:18:26Z</time>
</trkpt>
<trkpt lat="46.016545" lon="13.485085">
<time>2021-07-18T09:18:27Z</time>
</trkpt>
<trkpt lat="46.016551" lon="13.485016">
<time>2021-07-18T09:18:28Z</time>
</trkpt>
<trkpt lat="46.01658" lon="13.484961">
<time>2021-07-18T09:18:29Z</time>
</trkpt>
<trkpt lat="46.016608" lon="13.484918">
<time>2021-07-18T09:18:30Z</time>
</trkpt>
<trkpt lat="46.016646" lon="13.484883">
<time>2021-07-18T09:18:31Z</time>
</trkpt>
<trkpt lat="46.01668" lon="13.484853">
<time>2021-07-18T09:18:32Z</time>
</trkpt>
<trkpt lat="46.016706" lon="13.484825">
<time>2021-07-18T09:18:33Z</time>
</trkpt>
<trkpt lat="46.016731" lon="13.484788">
<time>2021-07-18T09:18:34Z</time>
</trkpt>
<trkpt lat="46.016756" lon="13.484753">
<time>2021-07-18T09:18:35Z</time>
</trkpt>
<trkpt lat="46.016788" lon="13.484726">
<time>2021-07-18T09:18:36Z</time>
</trkpt>
<trkpt lat="46.016818" lon="13.484696">
<time>2021-07-18T09:18:37Z</time>
</trkpt>
<trkpt lat="46.016843" lon="13.484663">
<time>2021-07-18T09:18:38Z</time>
</trkpt>
<trkpt lat="46.016868" lon="13.484633">
<time>2021-07-18T09:18:39Z</time>
</trkpt>
<trkpt lat="46.016896" lon="13.484611">
<time>2021-07-18T09:18:40Z</time>
</trkpt>
<trkpt lat="46.016921" lon="13.484581">
<time>2021-07-18T09:18:41Z</time>
</trkpt>
<trkpt lat="46.016943" lon="13.484548">
<time>2021-07-18T09:18:42Z</time>
</trkpt>
<trkpt lat="46.016961" lon="13.484515">
<time>2021-07-18T09:18:43Z</time>
</trkpt>
<trkpt lat="46.01698" lon="13.484478">
<time>2021-07-18T09:18:44Z</time>
</trkpt>
<trkpt lat="46.016996" lon="13.48444">
<time>2021-07-18T09:18:45Z</time>
</trkpt>
<trkpt lat="46.017011" lon="13.484401">
<time>2021-07-18T09:18:46Z</time>
</trkpt>
<trkpt lat="46.017023" lon="13.484363">
<time>2021-07-18T09:18:47Z</time>
</trkpt>
<trkpt lat="46.017035" lon="13.484325">
<time>2021-07-18T09:18:48Z</time>
</trkpt>
<trkpt lat="46.017048" lon="13.484288">
<time>2021-07-18T09:18:49Z</time>
</trkpt>
<trkpt lat="46.017058" lon="13.484251">
<time>2021-07-18T09:18:50Z</time>
</trkpt>
<trkpt lat="46.017068" lon="13.484213">
<time>2021-07-18T09:18:51Z</time>
</trkpt>
<trkpt lat="46.017078" lon="13.484176">
<time>2021-07-18T09:18:52Z</time>
</trkpt>
<trkpt lat="46.017086" lon="13.484138">
<time>2021-07-18T09:18:53Z</time>
</trkpt>
<trkpt lat="46.0171" lon="13.484101">
<time>2021-07-18T09:18:54Z</time>
</trkpt>
<trkpt lat="46.017113" lon="13.484063">
<time>2021-07-18T09:18:55Z</time>
</trkpt>
<trkpt lat="46.017125" lon="13.484025">
<time>2021-07-18T09:18:56Z</time>
</trkpt>
<trkpt lat="46.017136" lon="13.483986">
<time>2021-07-18T09:18:57Z</time>
</trkpt>
<trkpt lat="46.017148" lon="13.483948">
<time>2021-07-18T09:18:58Z</time>
</trkpt>
<trkpt lat="46.017158" lon="13.483906">
<time>2021-07-18T09:18:59Z</time>
</trkpt>
<trkpt lat="46.017168" lon="13.483868">
<time>2021-07-18T09:19:00Z</time>
</trkpt>
<trkpt lat="46.01718" lon="13.483833">
<time>2021-07-18T09:19:01Z</time>
</trkpt>
<trkpt lat="46.017193" lon="13.483798">
<time>2021-07-18T09:19:02Z</time>
</trkpt>
<trkpt lat="46.017205" lon="13.483761">
<time>2021-07-18T09:19:03Z</time>
</trkpt>
<trkpt lat="46.017216" lon="13.483725">
<time>2021-07-18T09:19:04Z</time>
</trkpt>
<trkpt lat="46.01723" lon="13.48369">
<time>2021-07-18T09:19:05Z</time>
</trkpt>
<trkpt lat="46.017243" lon="13.483655">
<time>2021-07-18T09:19:06Z</time>
</trkpt>
<trkpt lat="46.017255" lon="13.483618">
<time>2021-07-18T09:19:07Z</time>
</trkpt>
<trkpt lat="46.017261" lon="13.48358">
<time>2021-07-18T09:19:08Z</time>
</trkpt>
<trkpt lat="46.017265" lon="13.483536">
<time>2021-07-18T09:19:09Z</time>
</trkpt>
<trkpt lat="46.017266" lon="13.48349">
<time>2021-07-18T09:19:10Z</time>
</trkpt>
<trkpt lat="46.017265" lon="13.483435">
<time>2021-07-18T09:19:11Z</time>
</trkpt>
<trkpt lat="46.017263" lon="13.483381">
<time>2021-07-18T09:19:12Z</time>
</trkpt>
<trkpt lat="46.017261" lon="13.483328">
<time>2021-07-18T09:19:13Z</time>
</trkpt>
<trkpt lat="46.01726" lon="13.483271">
<time>2021-07-18T09:19:14Z</time>
</trkpt>
<trkpt lat="46.017263" lon="13.483226">
<time>2021-07-18T09:19:15Z</time>
</trkpt>
<trkpt lat="46.017265" lon="13.483178">
<time>2021-07-18T09:19:16Z</time>
</trkpt>
<trkpt lat="46.017268" lon="13.483131">
<time>2021-07-18T09:19:17Z</time>
</trkpt>
<trkpt lat="46.017271" lon="13.483091">
<time>2021-07-18T09:19:18Z</time>
</trkpt>
<trkpt lat="46.017273" lon="13.483051">
<time>2021-07-18T09:19:19Z</time>
</trkpt>
<trkpt lat="46.017278" lon="13.483011">
<time>2021-07-18T09:19:20Z</time>
</trkpt>
<trkpt lat="46.017283" lon="13.482973">
<time>2021-07-18T09:19:21Z</time>
</trkpt>
<trkpt lat="46.017288" lon="13.482936">
<time>2021-07-18T09:19:22Z</time>
</trkpt>
<trkpt lat="46.017295" lon="13.482903">
<time>2021-07-18T09:19:23Z</time>
</trkpt>
<trkpt lat="46.0173" lon="13.482875">
<time>2021-07-18T09:19:24Z</time>
</trkpt>
<trkpt lat="46.017305" lon="13.482845">
<time>2021-07-18T09:19:25Z</time>
</trkpt>
<trkpt lat="46.017303" lon="13.48281">
<time>2021-07-18T09:19:26Z</time>
</trkpt>
<trkpt lat="46.017298" lon="13.482771">
<time>2021-07-18T09:19:27Z</time>
</trkpt>
<trkpt lat="46.017291" lon="13.482731">
<time>2021-07-18T09:19:28Z</time>
</trkpt>
<trkpt lat="46.017281" lon="13.482688">
<time>2021-07-18T09:19:29Z</time>
</trkpt>
<trkpt lat="46.017268" lon="13.482643">
<time>2021-07-18T09:19:30Z</time>
</trkpt>
<trkpt lat="46.017251" lon="13.482598">
<time>2021-07-18T09:19:31Z</time>
</trkpt>
<trkpt lat="46.017233" lon="13.482553">
<time>2021-07-18T09:19:32Z</time>
</trkpt>
<trkpt lat="46.017213" lon="13.482506">
<time>2021-07-18T09:19:33Z</time>
</trkpt>
<trkpt lat="46.017195" lon="13.482465">
<time>2021-07-18T09:19:34Z</time>
</trkpt>
<trkpt lat="46.017173" lon="13.48242">
<time>2021-07-18T09:19:35Z</time>
</trkpt>
<trkpt lat="46.017156" lon="13.48238">
<time>2021-07-18T09:19:36Z</time>
</trkpt>
<trkpt lat="46.017136" lon="13.48234">
<time>2021-07-18T09:19:37Z</time>
</trkpt>
<trkpt lat="46.017121" lon="13.4823">
<time>2021-07-18T09:19:38Z</time>
</trkpt>
<trkpt lat="46.017111" lon="13.48227">
<time>2021-07-18T09:19:39Z</time>
</trkpt>
<trkpt lat="46.017111" lon="13.482248">
<time>2021-07-18T09:19:40Z</time>
</trkpt>
<trkpt lat="46.017115" lon="13.482221">
<time>2021-07-18T09:19:41Z</time>
</trkpt>
<trkpt lat="46.017111" lon="13.482193">
<time>2021-07-18T09:19:42Z</time>
</trkpt>
<trkpt lat="46.017101" lon="13.482155">
<time>2021-07-18T09:19:43Z</time>
</trkpt>
<trkpt lat="46.017086" lon="13.482115">
<time>2021-07-18T09:19:44Z</time>
</trkpt>
<trkpt lat="46.017066" lon="13.48207">
<time>2021-07-18T09:19:45Z</time>
</trkpt>
<trkpt lat="46.017043" lon="13.482023">
<time>2021-07-18T09:19:46Z</time>
</trkpt>
<trkpt lat="46.017018" lon="13.481971">
<time>2021-07-18T09:19:47Z</time>
</trkpt>
<trkpt lat="46.016995" lon="13.481918">
<time>2021-07-18T09:19:48Z</time>
</trkpt>
<trkpt lat="46.01697" lon="13.481863">
<time>2021-07-18T09:19:49Z</time>
</trkpt>
<trkpt lat="46.016945" lon="13.481808">
<time>2021-07-18T09:19:50Z</time>
</trkpt>
<trkpt lat="46.01692" lon="13.48175">
<time>2021-07-18T09:19:51Z</time>
</trkpt>
<trkpt lat="46.016893" lon="13.481688">
<time>2021-07-18T09:19:52Z</time>
</trkpt>
<trkpt lat="46.016866" lon="13.481623">
<time>2021-07-18T09:19:53Z</time>
</trkpt>
<trkpt lat="46.01684" lon="13.481556">
<time>2021-07-18T09:19:54Z</time>
</trkpt>
<trkpt lat="46.016815" lon="13.481491">
<time>2021-07-18T09:19:55Z</time>
</trkpt>
<trkpt lat="46.016795" lon="13.481421">
<time>2021-07-18T09:19:56Z</time>
</trkpt>
<trkpt lat="46.016793" lon="13.481351">
<time>2021-07-18T09:19:57Z</time>
</trkpt>
<trkpt lat="46.016798" lon="13.481268">
<time>2021-07-18T09:19:58Z</time>
</trkpt>
<trkpt lat="46.016805" lon="13.481171">
<time>2021-07-18T09:19:59Z</time>
</trkpt>
<trkpt lat="46.016821" lon="13.481068">
<time>2021-07-18T09:20:00Z</time>
</trkpt>
<trkpt lat="46.016848" lon="13.480961">
<time>2021-07-18T09:20:01Z</time>
</trkpt>
<trkpt lat="46.016888" lon="13.480855">
<time>2021-07-18T09:20:02Z</time>
</trkpt>
<trkpt lat="46.016936" lon="13.48075">
<time>2021-07-18T09:20:03Z</time>
</trkpt>
<trkpt lat="46.016998" lon="13.480658">
<time>2021-07-18T09:20:04Z</time>
</trkpt>
<trkpt lat="46.017066" lon="13.480578">
<time>2021-07-18T09:20:05Z</time>
</trkpt>
<trkpt lat="46.01713" lon="13.48049">
<time>2021-07-18T09:20:06Z</time>
</trkpt>
<trkpt lat="46.017178" lon="13.48039">
<time>2021-07-18T09:20:07Z</time>
</trkpt>
<trkpt lat="46.017203" lon="13.480275">
<time>2021-07-18T09:20:08Z</time>
</trkpt>
<trkpt lat="46.017205" lon="13.480146">
<time>2021-07-18T09:20:09Z</time>
</trkpt>
<trkpt lat="46.017198" lon="13.48001">
<time>2021-07-18T09:20:10Z</time>
</trkpt>
<trkpt lat="46.017191" lon="13.479873">
<time>2021-07-18T09:20:11Z</time>
</trkpt>
<trkpt lat="46.017178" lon="13.479738">
<time>2021-07-18T09:20:12Z</time>
</trkpt>
<trkpt lat="46.017133" lon="13.479593">
<time>2021-07-18T09:20:13Z</time>
</trkpt>
<trkpt lat="46.01709" lon="13.479508">
<time>2021-07-18T09:20:14Z</time>
</trkpt>
<trkpt lat="46.017026" lon="13.479405">
<time>2021-07-18T09:20:15Z</time>
</trkpt>
<trkpt lat="46.016958" lon="13.479301">
<time>2021-07-18T09:20:16Z</time>
</trkpt>
<trkpt lat="46.016896" lon="13.47919">
<time>2021-07-18T09:20:17Z</time>
</trkpt>
<trkpt lat="46.016855" lon="13.479078">
<time>2021-07-18T09:20:18Z</time>
</trkpt>
<trkpt lat="46.016841" lon="13.478978">
<time>2021-07-18T09:20:19Z</time>
</trkpt>
<trkpt lat="46.016858" lon="13.478898">
<time>2021-07-18T09:20:20Z</time>
</trkpt>
<trkpt lat="46.016901" lon="13.478866">
<time>2021-07-18T09:20:21Z</time>
</trkpt>
<trkpt lat="46.016953" lon="13.478873">
<time>2021-07-18T09:20:22Z</time>
</trkpt>
<trkpt lat="46.017013" lon="13.478913">
<time>2021-07-18T09:20:23Z</time>
</trkpt>
<trkpt lat="46.017075" lon="13.478966">
<time>2021-07-18T09:20:24Z</time>
</trkpt>
<trkpt lat="46.017146" lon="13.479026">
<time>2021-07-18T09:20:25Z</time>
</trkpt>
<trkpt lat="46.017223" lon="13.479083">
<time>2021-07-18T09:20:26Z</time>
</trkpt>
<trkpt lat="46.017301" lon="13.479133">
<time>2021-07-18T09:20:27Z</time>
</trkpt>
<trkpt lat="46.017388" lon="13.479183">
<time>2021-07-18T09:20:28Z</time>
</trkpt>
<trkpt lat="46.017476" lon="13.479235">
<time>2021-07-18T09:20:29Z</time>
</trkpt>
<trkpt lat="46.017565" lon="13.479298">
<time>2021-07-18T09:20:30Z</time>
</trkpt>
<trkpt lat="46.01765" lon="13.479378">
<time>2021-07-18T09:20:31Z</time>
</trkpt>
<trkpt lat="46.017731" lon="13.479475">
<time>2021-07-18T09:20:32Z</time>
</trkpt>
<trkpt lat="46.017813" lon="13.479575">
<time>2021-07-18T09:20:33Z</time>
</trkpt>
<trkpt lat="46.017898" lon="13.47968">
<time>2021-07-18T09:20:34Z</time>
</trkpt>
<trkpt lat="46.017986" lon="13.479788">
<time>2021-07-18T09:20:35Z</time>
</trkpt>
<trkpt lat="46.01807" lon="13.479905">
<time>2021-07-18T09:20:36Z</time>
</trkpt>
<trkpt lat="46.018153" lon="13.48004">
<time>2021-07-18T09:20:37Z</time>
</trkpt>
<trkpt lat="46.018221" lon="13.48016">
<time>2021-07-18T09:20:38Z</time>
</trkpt>
<trkpt lat="46.018285" lon="13.480281">
<time>2021-07-18T09:20:39Z</time>
</trkpt>
<trkpt lat="46.018343" lon="13.480405">
<time>2021-07-18T09:20:40Z</time>
</trkpt>
<trkpt lat="46.018398" lon="13.480518">
<time>2021-07-18T09:20:41Z</time>
</trkpt>
<trkpt lat="46.01846" lon="13.480613">
<time>2021-07-18T09:20:42Z</time>
</trkpt>
<trkpt lat="46.018533" lon="13.480685">
<time>2021-07-18T09:20:43Z</time>
</trkpt>
<trkpt lat="46.018615" lon="13.480708">
<time>2021-07-18T09:20:44Z</time>
</trkpt>
<trkpt lat="46.018696" lon="13.480696">
<time>2021-07-18T09:20:45Z</time>
</trkpt>
<trkpt lat="46.01879" lon="13.480656">
<time>2021-07-18T09:20:46Z</time>
</trkpt>
<trkpt lat="46.018851" lon="13.480625">
<time>2021-07-18T09:20:47Z</time>
</trkpt>
<trkpt lat="46.01889" lon="13.480618">
<time>2021-07-18T09:20:48Z</time>
</trkpt>
<trkpt lat="46.018921" lon="13.480638">
<time>2021-07-18T09:20:49Z</time>
</trkpt>
<trkpt lat="46.01895" lon="13.480675">
<time>2021-07-18T09:20:50Z</time>
</trkpt>
<trkpt lat="46.018983" lon="13.480723">
<time>2021-07-18T09:20:51Z</time>
</trkpt>
<trkpt lat="46.019036" lon="13.480785">
<time>2021-07-18T09:20:52Z</time>
</trkpt>
<trkpt lat="46.019078" lon="13.480836">
<time>2021-07-18T09:20:53Z</time>
</trkpt>
<trkpt lat="46.01914" lon="13.4809">
<time>2021-07-18T09:20:54Z</time>
</trkpt>
<trkpt lat="46.019218" lon="13.48095">
<time>2021-07-18T09:20:55Z</time>
</trkpt>
<trkpt lat="46.01927" lon="13.480958">
<time>2021-07-18T09:20:56Z</time>
</trkpt>
<trkpt lat="46.01934" lon="13.480961">
<time>2021-07-18T09:20:57Z</time>
</trkpt>
<trkpt lat="46.019413" lon="13.48097">
<time>2021-07-18T09:20:58Z</time>
</trkpt>
<trkpt lat="46.019488" lon="13.480985">
<time>2021-07-18T09:20:59Z</time>
</trkpt>
<trkpt lat="46.01956" lon="13.480993">
<time>2021-07-18T09:21:00Z</time>
</trkpt>
<trkpt lat="46.019623" lon="13.480981">
<time>2021-07-18T09:21:01Z</time>
</trkpt>
<trkpt lat="46.019693" lon="13.480943">
<time>2021-07-18T09:21:02Z</time>
</trkpt>
<trkpt lat="46.01973" lon="13.480898">
<time>2021-07-18T09:21:03Z</time>
</trkpt>
<trkpt lat="46.019785" lon="13.480843">
<time>2021-07-18T09:21:04Z</time>
</trkpt>
<trkpt lat="46.019831" lon="13.480806">
<time>2021-07-18T09:21:05Z</time>
</trkpt>
<trkpt lat="46.019873" lon="13.480776">
<time>2021-07-18T09:21:06Z</time>
</trkpt>
<trkpt lat="46.019906" lon="13.480756">
<time>2021-07-18T09:21:07Z</time>
</trkpt>
<trkpt lat="46.01995" lon="13.480728">
<time>2021-07-18T09:21:08Z</time>
</trkpt>
<trkpt lat="46.019991" lon="13.480686">
<time>2021-07-18T09:21:09Z</time>
</trkpt>
<trkpt lat="46.020026" lon="13.480641">
<time>2021-07-18T09:21:10Z</time>
</trkpt>
<trkpt lat="46.020063" lon="13.480615">
<time>2021-07-18T09:21:11Z</time>
</trkpt>
<trkpt lat="46.020101" lon="13.480608">
<time>2021-07-18T09:21:12Z</time>
</trkpt>
<trkpt lat="46.020136" lon="13.480621">
<time>2021-07-18T09:21:13Z</time>
</trkpt>
<trkpt lat="46.020155" lon="13.480665">
<time>2021-07-18T09:21:14Z</time>
</trkpt>
<trkpt lat="46.020163" lon="13.480733">
<time>2021-07-18T09:21:15Z</time>
</trkpt>
<trkpt lat="46.02016" lon="13.480785">
<time>2021-07-18T09:21:16Z</time>
</trkpt>
<trkpt lat="46.020151" lon="13.480846">
<time>2021-07-18T09:21:17Z</time>
</trkpt>
<trkpt lat="46.020136" lon="13.480913">
<time>2021-07-18T09:21:18Z</time>
</trkpt>
<trkpt lat="46.020123" lon="13.480978">
<time>2021-07-18T09:21:19Z</time>
</trkpt>
<trkpt lat="46.02011" lon="13.481041">
<time>2021-07-18T09:21:20Z</time>
</trkpt>
<trkpt lat="46.020095" lon="13.481101">
<time>2021-07-18T09:21:21Z</time>
</trkpt>
<trkpt lat="46.020083" lon="13.481168">
<time>2021-07-18T09:21:22Z</time>
</trkpt>
<trkpt lat="46.020083" lon="13.481235">
<time>2021-07-18T09:21:23Z</time>
</trkpt>
<trkpt lat="46.020091" lon="13.481306">
<time>2021-07-18T09:21:24Z</time>
</trkpt>
<trkpt lat="46.020106" lon="13.48137">
<time>2021-07-18T09:21:25Z</time>
</trkpt>
<trkpt lat="46.020123" lon="13.481426">
<time>2021-07-18T09:21:26Z</time>
</trkpt>
<trkpt lat="46.02014" lon="13.481478">
<time>2021-07-18T09:21:27Z</time>
</trkpt>
<trkpt lat="46.020156" lon="13.481526">
<time>2021-07-18T09:21:28Z</time>
</trkpt>
<trkpt lat="46.020178" lon="13.48158">
<time>2021-07-18T09:21:29Z</time>
</trkpt>
<trkpt lat="46.020195" lon="13.481613">
<time>2021-07-18T09:21:30Z</time>
</trkpt>
<trkpt lat="46.020216" lon="13.481651">
<time>2021-07-18T09:21:31Z</time>
</trkpt>
<trkpt lat="46.020241" lon="13.481691">
<time>2021-07-18T09:21:32Z</time>
</trkpt>
<trkpt lat="46.02027" lon="13.481723">
<time>2021-07-18T09:21:33Z</time>
</trkpt>
<trkpt lat="46.020295" lon="13.481753">
<time>2021-07-18T09:21:34Z</time>
</trkpt>
<trkpt lat="46.020328" lon="13.481783">
<time>2021-07-18T09:21:35Z</time>
</trkpt>
<trkpt lat="46.02035" lon="13.481801">
<time>2021-07-18T09:21:36Z</time>
</trkpt>
<trkpt lat="46.020366" lon="13.481813">
<time>2021-07-18T09:21:37Z</time>
</trkpt>
<trkpt lat="46.020388" lon="13.481826">
<time>2021-07-18T09:21:38Z</time>
</trkpt>
<trkpt lat="46.020411" lon="13.481838">
<time>2021-07-18T09:21:39Z</time>
</trkpt>
<trkpt lat="46.020433" lon="13.48185">
<time>2021-07-18T09:21:40Z</time>
</trkpt>
<trkpt lat="46.020458" lon="13.481858">
<time>2021-07-18T09:21:41Z</time>
</trkpt>
<trkpt lat="46.020481" lon="13.481866">
<time>2021-07-18T09:21:42Z</time>
</trkpt>
<trkpt lat="46.020505" lon="13.481873">
<time>2021-07-18T09:21:43Z</time>
</trkpt>
<trkpt lat="46.020528" lon="13.481883">
<time>2021-07-18T09:21:44Z</time>
</trkpt>
<trkpt lat="46.020553" lon="13.481895">
<time>2021-07-18T09:21:45Z</time>
</trkpt>
<trkpt lat="46.020575" lon="13.481908">
<time>2021-07-18T09:21:46Z</time>
</trkpt>
<trkpt lat="46.020598" lon="13.481923">
<time>2021-07-18T09:21:47Z</time>
</trkpt>
<trkpt lat="46.02062" lon="13.481938">
<time>2021-07-18T09:21:48Z</time>
</trkpt>
<trkpt lat="46.020641" lon="13.481953">
<time>2021-07-18T09:21:49Z</time>
</trkpt>
<trkpt lat="46.020661" lon="13.481966">
<time>2021-07-18T09:21:50Z</time>
</trkpt>
<trkpt lat="46.020683" lon="13.48198">
<time>2021-07-18T09:21:51Z</time>
</trkpt>
<trkpt lat="46.020705" lon="13.481988">
<time>2021-07-18T09:21:52Z</time>
</trkpt>
<trkpt lat="46.020726" lon="13.481996">
<time>2021-07-18T09:21:53Z</time>
</trkpt>
<trkpt lat="46.02075" lon="13.482001">
<time>2021-07-18T09:21:54Z</time>
</trkpt>
<trkpt lat="46.020771" lon="13.482006">
<time>2021-07-18T09:21:55Z</time>
</trkpt>
<trkpt lat="46.020795" lon="13.482011">
<time>2021-07-18T09:21:56Z</time>
</trkpt>
<trkpt lat="46.020818" lon="13.482016">
<time>2021-07-18T09:21:57Z</time>
</trkpt>
<trkpt lat="46.020841" lon="13.48202">
<time>2021-07-18T09:21:58Z</time>
</trkpt>
<trkpt lat="46.020863" lon="13.482023">
<time>2021-07-18T09:21:59Z</time>
</trkpt>
<trkpt lat="46.020885" lon="13.482026">
<time>2021-07-18T09:22:00Z</time>
</trkpt>
<trkpt lat="46.020906" lon="13.482031">
<time>2021-07-18T09:22:01Z</time>
</trkpt>
<trkpt lat="46.020928" lon="13.48204">
<time>2021-07-18T09:22:02Z</time>
</trkpt>
<trkpt lat="46.02095" lon="13.48205">
<time>2021-07-18T09:22:03Z</time>
</trkpt>
<trkpt lat="46.020971" lon="13.48206">
<time>2021-07-18T09:22:04Z</time>
</trkpt>
<trkpt lat="46.020991" lon="13.48207">
<time>2021-07-18T09:22:05Z</time>
</trkpt>
<trkpt lat="46.021011" lon="13.482081">
<time>2021-07-18T09:22:06Z</time>
</trkpt>
<trkpt lat="46.021031" lon="13.482091">
<time>2021-07-18T09:22:07Z</time>
</trkpt>
<trkpt lat="46.02105" lon="13.482105">
<time>2021-07-18T09:22:08Z</time>
</trkpt>
<trkpt lat="46.02107" lon="13.482116">
<time>2021-07-18T09:22:09Z</time>
</trkpt>
<trkpt lat="46.021091" lon="13.482126">
<time>2021-07-18T09:22:10Z</time>
</trkpt>
<trkpt lat="46.021111" lon="13.482135">
<time>2021-07-18T09:22:11Z</time>
</trkpt>
<trkpt lat="46.021131" lon="13.482145">
<time>2021-07-18T09:22:12Z</time>
</trkpt>
<trkpt lat="46.021153" lon="13.482153">
<time>2021-07-18T09:22:13Z</time>
</trkpt>
<trkpt lat="46.021173" lon="13.482161">
<time>2021-07-18T09:22:14Z</time>
</trkpt>
<trkpt lat="46.021195" lon="13.48217">
<time>2021-07-18T09:22:15Z</time>
</trkpt>
<trkpt lat="46.02122" lon="13.482176">
<time>2021-07-18T09:22:16Z</time>
</trkpt>
<trkpt lat="46.021245" lon="13.482186">
<time>2021-07-18T09:22:17Z</time>
</trkpt>
<trkpt lat="46.021271" lon="13.482196">
<time>2021-07-18T09:22:18Z</time>
</trkpt>
<trkpt lat="46.021296" lon="13.482206">
<time>2021-07-18T09:22:19Z</time>
</trkpt>
<trkpt lat="46.021323" lon="13.482218">
<time>2021-07-18T09:22:20Z</time>
</trkpt>
<trkpt lat="46.021351" lon="13.482228">
<time>2021-07-18T09:22:21Z</time>
</trkpt>
<trkpt lat="46.021381" lon="13.482238">
<time>2021-07-18T09:22:22Z</time>
</trkpt>
<trkpt lat="46.021413" lon="13.482251">
<time>2021-07-18T09:22:23Z</time>
</trkpt>
<trkpt lat="46.021446" lon="13.482265">
<time>2021-07-18T09:22:24Z</time>
</trkpt>
<trkpt lat="46.021478" lon="13.482275">
<time>2021-07-18T09:22:25Z</time>
</trkpt>
<trkpt lat="46.021513" lon="13.482286">
<time>2021-07-18T09:22:26Z</time>
</trkpt>
<trkpt lat="46.02155" lon="13.4823">
<time>2021-07-18T09:22:27Z</time>
</trkpt>
<trkpt lat="46.021586" lon="13.48231">
<time>2021-07-18T09:22:28Z</time>
</trkpt>
<trkpt lat="46.021623" lon="13.482321">
<time>2021-07-18T09:22:29Z</time>
</trkpt>
<trkpt lat="46.021661" lon="13.482333">
<time>2021-07-18T09:22:30Z</time>
</trkpt>
<trkpt lat="46.0217" lon="13.482346">
<time>2021-07-18T09:22:31Z</time>
</trkpt>
<trkpt lat="46.021738" lon="13.482363">
<time>2021-07-18T09:22:32Z</time>
</trkpt>
<trkpt lat="46.021778" lon="13.48238">
<time>2021-07-18T09:22:33Z</time>
</trkpt>
<trkpt lat="46.021818" lon="13.482398">
<time>2021-07-18T09:22:34Z</time>
</trkpt>
<trkpt lat="46.02186" lon="13.482418">
<time>2021-07-18T09:22:35Z</time>
</trkpt>
<trkpt lat="46.021903" lon="13.48244">
<time>2021-07-18T09:22:36Z</time>
</trkpt>
<trkpt lat="46.021946" lon="13.482463">
<time>2021-07-18T09:22:37Z</time>
</trkpt>
<trkpt lat="46.02199" lon="13.482488">
<time>2021-07-18T09:22:38Z</time>
</trkpt>
<trkpt lat="46.022035" lon="13.482515">
<time>2021-07-18T09:22:39Z</time>
</trkpt>
<trkpt lat="46.022081" lon="13.482541">
<time>2021-07-18T09:22:40Z</time>
</trkpt>
<trkpt lat="46.02213" lon="13.482568">
<time>2021-07-18T09:22:41Z</time>
</trkpt>
<trkpt lat="46.022176" lon="13.482598">
<time>2021-07-18T09:22:42Z</time>
</trkpt>
<trkpt lat="46.02223" lon="13.482628">
<time>2021-07-18T09:22:43Z</time>
</trkpt>
<trkpt lat="46.022285" lon="13.482658">
<time>2021-07-18T09:22:44Z</time>
</trkpt>
<trkpt lat="46.022343" lon="13.482685">
<time>2021-07-18T09:22:45Z</time>
</trkpt>
<trkpt lat="46.022403" lon="13.482713">
<time>2021-07-18T09:22:46Z</time>
</trkpt>
<trkpt lat="46.022463" lon="13.482741">
<time>2021-07-18T09:22:47Z</time>
</trkpt>
<trkpt lat="46.022521" lon="13.482771">
<time>2021-07-18T09:22:48Z</time>
</trkpt>
<trkpt lat="46.022585" lon="13.4828">
<time>2021-07-18T09:22:49Z</time>
</trkpt>
<trkpt lat="46.022645" lon="13.482831">
<time>2021-07-18T09:22:50Z</time>
</trkpt>
<trkpt lat="46.022706" lon="13.482863">
<time>2021-07-18T09:22:51Z</time>
</trkpt>
<trkpt lat="46.022768" lon="13.482895">
<time>2021-07-18T09:22:52Z</time>
</trkpt>
<trkpt lat="46.022831" lon="13.48293">
<time>2021-07-18T09:22:53Z</time>
</trkpt>
<trkpt lat="46.022893" lon="13.482965">
<time>2021-07-18T09:22:54Z</time>
</trkpt>
<trkpt lat="46.022965" lon="13.483006">
<time>2021-07-18T09:22:55Z</time>
</trkpt>
<trkpt lat="46.02301" lon="13.483033">
<time>2021-07-18T09:22:56Z</time>
</trkpt>
<trkpt lat="46.023066" lon="13.483071">
<time>2021-07-18T09:22:57Z</time>
</trkpt>
<trkpt lat="46.023125" lon="13.483111">
<time>2021-07-18T09:22:58Z</time>
</trkpt>
<trkpt lat="46.023185" lon="13.483156">
<time>2021-07-18T09:22:59Z</time>
</trkpt>
<trkpt lat="46.023246" lon="13.483198">
<time>2021-07-18T09:23:00Z</time>
</trkpt>
<trkpt lat="46.023305" lon="13.483243">
<time>2021-07-18T09:23:01Z</time>
</trkpt>
<trkpt lat="46.023368" lon="13.483285">
<time>2021-07-18T09:23:02Z</time>
</trkpt>
<trkpt lat="46.023448" lon="13.48333">
<time>2021-07-18T09:23:03Z</time>
</trkpt>
<trkpt lat="46.02352" lon="13.483366">
<time>2021-07-18T09:23:04Z</time>
</trkpt>
<trkpt lat="46.023581" lon="13.483391">
<time>2021-07-18T09:23:05Z</time>
</trkpt>
<trkpt lat="46.02366" lon="13.483413">
<time>2021-07-18T09:23:06Z</time>
</trkpt>
<trkpt lat="46.023743" lon="13.48342">
<time>2021-07-18T09:23:07Z</time>
</trkpt>
<trkpt lat="46.023826" lon="13.483423">
<time>2021-07-18T09:23:08Z</time>
</trkpt>
<trkpt lat="46.02391" lon="13.483425">
<time>2021-07-18T09:23:09Z</time>
</trkpt>
<trkpt lat="46.023991" lon="13.483431">
<time>2021-07-18T09:23:10Z</time>
</trkpt>
<trkpt lat="46.02407" lon="13.483451">
<time>2021-07-18T09:23:11Z</time>
</trkpt>
<trkpt lat="46.02414" lon="13.483486">
<time>2021-07-18T09:23:12Z</time>
</trkpt>
<trkpt lat="46.024203" lon="13.48353">
<time>2021-07-18T09:23:13Z</time>
</trkpt>
<trkpt lat="46.024261" lon="13.483575">
<time>2021-07-18T09:23:14Z</time>
</trkpt>
<trkpt lat="46.024311" lon="13.483616">
<time>2021-07-18T09:23:15Z</time>
</trkpt>
<trkpt lat="46.024355" lon="13.483645">
<time>2021-07-18T09:23:16Z</time>
</trkpt>
<trkpt lat="46.024391" lon="13.483665">
<time>2021-07-18T09:23:17Z</time>
</trkpt>
<trkpt lat="46.024423" lon="13.483681">
<time>2021-07-18T09:23:18Z</time>
</trkpt>
<trkpt lat="46.024451" lon="13.483691">
<time>2021-07-18T09:23:19Z</time>
</trkpt>
<trkpt lat="46.024476" lon="13.483696">
<time>2021-07-18T09:23:20Z</time>
</trkpt>
<trkpt lat="46.024498" lon="13.483701">
<time>2021-07-18T09:23:21Z</time>
</trkpt>
<trkpt lat="46.024523" lon="13.483705">
<time>2021-07-18T09:23:22Z</time>
</trkpt>
<trkpt lat="46.02455" lon="13.483708">
<time>2021-07-18T09:23:23Z</time>
</trkpt>
<trkpt lat="46.024575" lon="13.483711">
<time>2021-07-18T09:23:24Z</time>
</trkpt>
<trkpt lat="46.024598" lon="13.483718">
<time>2021-07-18T09:23:25Z</time>
</trkpt>
<trkpt lat="46.024621" lon="13.483726">
<time>2021-07-18T09:23:26Z</time>
</trkpt>
<trkpt lat="46.024646" lon="13.483733">
<time>2021-07-18T09:23:27Z</time>
</trkpt>
<trkpt lat="46.024671" lon="13.483735">
<time>2021-07-18T09:23:28Z</time>
</trkpt>
<trkpt lat="46.0247" lon="13.483731">
<time>2021-07-18T09:23:29Z</time>
</trkpt>
<trkpt lat="46.024725" lon="13.483725">
<time>2021-07-18T09:23:30Z</time>
</trkpt>
<trkpt lat="46.024751" lon="13.483715">
<time>2021-07-18T09:23:31Z</time>
</trkpt>
<trkpt lat="46.024775" lon="13.483701">
<time>2021-07-18T09:23:32Z</time>
</trkpt>
<trkpt lat="46.024801" lon="13.48369">
<time>2021-07-18T09:23:33Z</time>
</trkpt>
<trkpt lat="46.024825" lon="13.483676">
<time>2021-07-18T09:23:34Z</time>
</trkpt>
<trkpt lat="46.024851" lon="13.483663">
<time>2021-07-18T09:23:35Z</time>
</trkpt>
<trkpt lat="46.024876" lon="13.483651">
<time>2021-07-18T09:23:36Z</time>
</trkpt>
<trkpt lat="46.024901" lon="13.48364">
<time>2021-07-18T09:23:37Z</time>
</trkpt>
<trkpt lat="46.024926" lon="13.483628">
<time>2021-07-18T09:23:38Z</time>
</trkpt>
<trkpt lat="46.024955" lon="13.483618">
<time>2021-07-18T09:23:39Z</time>
</trkpt>
<trkpt lat="46.024983" lon="13.483606">
<time>2021-07-18T09:23:40Z</time>
</trkpt>
<trkpt lat="46.025011" lon="13.483596">
<time>2021-07-18T09:23:41Z</time>
</trkpt>
<trkpt lat="46.02504" lon="13.48359">
<time>2021-07-18T09:23:42Z</time>
</trkpt>
<trkpt lat="46.025065" lon="13.483586">
<time>2021-07-18T09:23:43Z</time>
</trkpt>
<trkpt lat="46.025093" lon="13.483585">
<time>2021-07-18T09:23:44Z</time>
</trkpt>
<trkpt lat="46.025121" lon="13.483585">
<time>2021-07-18T09:23:45Z</time>
</trkpt>
<trkpt lat="46.025151" lon="13.48359">
<time>2021-07-18T09:23:46Z</time>
</trkpt>
<trkpt lat="46.025181" lon="13.483598">
<time>2021-07-18T09:23:47Z</time>
</trkpt>
<trkpt lat="46.02521" lon="13.483603">
<time>2021-07-18T09:23:48Z</time>
</trkpt>
<trkpt lat="46.025243" lon="13.48361">
<time>2021-07-18T09:23:49Z</time>
</trkpt>
<trkpt lat="46.025276" lon="13.48362">
<time>2021-07-18T09:23:50Z</time>
</trkpt>
<trkpt lat="46.02531" lon="13.483626">
<time>2021-07-18T09:23:51Z</time>
</trkpt>
<trkpt lat="46.025348" lon="13.483631">
<time>2021-07-18T09:23:52Z</time>
</trkpt>
<trkpt lat="46.025386" lon="13.48364">
<time>2021-07-18T09:23:53Z</time>
</trkpt>
<trkpt lat="46.025428" lon="13.483645">
<time>2021-07-18T09:23:54Z</time>
</trkpt>
<trkpt lat="46.025466" lon="13.483655">
<time>2021-07-18T09:23:55Z</time>
</trkpt>
<trkpt lat="46.025508" lon="13.483665">
<time>2021-07-18T09:23:56Z</time>
</trkpt>
<trkpt lat="46.025553" lon="13.483678">
<time>2021-07-18T09:23:57Z</time>
</trkpt>
<trkpt lat="46.025596" lon="13.483698">
<time>2021-07-18T09:23:58Z</time>
</trkpt>
<trkpt lat="46.025638" lon="13.483725">
<time>2021-07-18T09:23:59Z</time>
</trkpt>
<trkpt lat="46.025676" lon="13.483758">
<time>2021-07-18T09:24:00Z</time>
</trkpt>
<trkpt lat="46.02571" lon="13.4838">
<time>2021-07-18T09:24:01Z</time>
</trkpt>
<trkpt lat="46.025736" lon="13.483848">
<time>2021-07-18T09:24:02Z</time>
</trkpt>
<trkpt lat="46.025758" lon="13.483893">
<time>2021-07-18T09:24:03Z</time>
</trkpt>
<trkpt lat="46.025778" lon="13.48393">
<time>2021-07-18T09:24:04Z</time>
</trkpt>
<trkpt lat="46.025791" lon="13.48394">
<time>2021-07-18T09:24:05Z</time>
</trkpt>
<trkpt lat="46.025803" lon="13.483945">
<time>2021-07-18T09:24:06Z</time>
</trkpt>
<trkpt lat="46.02581" lon="13.483935">
<time>2021-07-18T09:24:07Z</time>
</trkpt>
<trkpt lat="46.025811" lon="13.483915">
<time>2021-07-18T09:24:08Z</time>
</trkpt>
<trkpt lat="46.02581" lon="13.483885">
<time>2021-07-18T09:24:09Z</time>
</trkpt>
<trkpt lat="46.025806" lon="13.48385">
<time>2021-07-18T09:24:10Z</time>
</trkpt>
<trkpt lat="46.025811" lon="13.483818">
<time>2021-07-18T09:24:11Z</time>
</trkpt>
<trkpt lat="46.025825" lon="13.483791">
<time>2021-07-18T09:24:12Z</time>
</trkpt>
<trkpt lat="46.025848" lon="13.483776">
<time>2021-07-18T09:24:13Z</time>
</trkpt>
<trkpt lat="46.025876" lon="13.48378">
<time>2021-07-18T09:24:14Z</time>
</trkpt>
<trkpt lat="46.025906" lon="13.483795">
<time>2021-07-18T09:24:15Z</time>
</trkpt>
<trkpt lat="46.025938" lon="13.483816">
<time>2021-07-18T09:24:16Z</time>
</trkpt>
<trkpt lat="46.025975" lon="13.483848">
<time>2021-07-18T09:24:17Z</time>
</trkpt>
<trkpt lat="46.026006" lon="13.483871">
<time>2021-07-18T09:24:18Z</time>
</trkpt>
<trkpt lat="46.02604" lon="13.4839">
<time>2021-07-18T09:24:19Z</time>
</trkpt>
<trkpt lat="46.026066" lon="13.48393">
<time>2021-07-18T09:24:20Z</time>
</trkpt>
<trkpt lat="46.026095" lon="13.483953">
<time>2021-07-18T09:24:21Z</time>
</trkpt>
<trkpt lat="46.026118" lon="13.483986">
<time>2021-07-18T09:24:22Z</time>
</trkpt>
<trkpt lat="46.026138" lon="13.484015">
<time>2021-07-18T09:24:23Z</time>
</trkpt>
<trkpt lat="46.026156" lon="13.484046">
<time>2021-07-18T09:24:24Z</time>
</trkpt>
<trkpt lat="46.02617" lon="13.484081">
<time>2021-07-18T09:24:25Z</time>
</trkpt>
<trkpt lat="46.026183" lon="13.484118">
<time>2021-07-18T09:24:26Z</time>
</trkpt>
<trkpt lat="46.026195" lon="13.484151">
<time>2021-07-18T09:24:27Z</time>
</trkpt>
<trkpt lat="46.026206" lon="13.484186">
<time>2021-07-18T09:24:28Z</time>
</trkpt>
<trkpt lat="46.026218" lon="13.48422">
<time>2021-07-18T09:24:29Z</time>
</trkpt>
<trkpt lat="46.026231" lon="13.48425">
<time>2021-07-18T09:24:30Z</time>
</trkpt>
<trkpt lat="46.026241" lon="13.484276">
<time>2021-07-18T09:24:31Z</time>
</trkpt>
<trkpt lat="46.026253" lon="13.484303">
<time>2021-07-18T09:24:32Z</time>
</trkpt>
<trkpt lat="46.026263" lon="13.48433">
<time>2021-07-18T09:24:33Z</time>
</trkpt>
<trkpt lat="46.026275" lon="13.484355">
<time>2021-07-18T09:24:34Z</time>
</trkpt>
<trkpt lat="46.026288" lon="13.48438">
<time>2021-07-18T09:24:35Z</time>
</trkpt>
<trkpt lat="46.026301" lon="13.484401">
<time>2021-07-18T09:24:36Z</time>
</trkpt>
<trkpt lat="46.026313" lon="13.484426">
<time>2021-07-18T09:24:37Z</time>
</trkpt>
<trkpt lat="46.026325" lon="13.484451">
<time>2021-07-18T09:24:38Z</time>
</trkpt>
<trkpt lat="46.026336" lon="13.484476">
<time>2021-07-18T09:24:39Z</time>
</trkpt>
<trkpt lat="46.02635" lon="13.484501">
<time>2021-07-18T09:24:40Z</time>
</trkpt>
<trkpt lat="46.02636" lon="13.484525">
<time>2021-07-18T09:24:41Z</time>
</trkpt>
<trkpt lat="46.026371" lon="13.48455">
<time>2021-07-18T09:24:42Z</time>
</trkpt>
<trkpt lat="46.026381" lon="13.484573">
<time>2021-07-18T09:24:43Z</time>
</trkpt>
<trkpt lat="46.02639" lon="13.484595">
<time>2021-07-18T09:24:44Z</time>
</trkpt>
<trkpt lat="46.0264" lon="13.484616">
<time>2021-07-18T09:24:45Z</time>
</trkpt>
<trkpt lat="46.026408" lon="13.484636">
<time>2021-07-18T09:24:46Z</time>
</trkpt>
<trkpt lat="46.026418" lon="13.484653">
<time>2021-07-18T09:24:47Z</time>
</trkpt>
<trkpt lat="46.026428" lon="13.484671">
<time>2021-07-18T09:24:48Z</time>
</trkpt>
<trkpt lat="46.026436" lon="13.484688">
<time>2021-07-18T09:24:49Z</time>
</trkpt>
<trkpt lat="46.026446" lon="13.484705">
<time>2021-07-18T09:24:50Z</time>
</trkpt>
<trkpt lat="46.026456" lon="13.48472">
<time>2021-07-18T09:24:51Z</time>
</trkpt>
<trkpt lat="46.026468" lon="13.484735">
<time>2021-07-18T09:24:52Z</time>
</trkpt>
<trkpt lat="46.02648" lon="13.484746">
<time>2021-07-18T09:24:53Z</time>
</trkpt>
<trkpt lat="46.026493" lon="13.484756">
<time>2021-07-18T09:24:54Z</time>
</trkpt>
<trkpt lat="46.026506" lon="13.484765">
<time>2021-07-18T09:24:55Z</time>
</trkpt>
<trkpt lat="46.02652" lon="13.484773">
<time>2021-07-18T09:24:56Z</time>
</trkpt>
<trkpt lat="46.026533" lon="13.484778">
<time>2021-07-18T09:24:57Z</time>
</trkpt>
<trkpt lat="46.026546" lon="13.484778">
<time>2021-07-18T09:24:58Z</time>
</trkpt>
<trkpt lat="46.02656" lon="13.48478">
<time>2021-07-18T09:24:59Z</time>
</trkpt>
<trkpt lat="46.026573" lon="13.484781">
<time>2021-07-18T09:25:00Z</time>
</trkpt>
<trkpt lat="46.026588" lon="13.484781">
<time>2021-07-18T09:25:01Z</time>
</trkpt>
<trkpt lat="46.026603" lon="13.484785">
<time>2021-07-18T09:25:02Z</time>
</trkpt>
<trkpt lat="46.026618" lon="13.484788">
<time>2021-07-18T09:25:03Z</time>
</trkpt>
<trkpt lat="46.026631" lon="13.484791">
<time>2021-07-18T09:25:04Z</time>
</trkpt>
<trkpt lat="46.026645" lon="13.484791">
<time>2021-07-18T09:25:05Z</time>
</trkpt>
<trkpt lat="46.026656" lon="13.484788">
<time>2021-07-18T09:25:06Z</time>
</trkpt>
<trkpt lat="46.02667" lon="13.484786">
<time>2021-07-18T09:25:07Z</time>
</trkpt>
<trkpt lat="46.026681" lon="13.484785">
<time>2021-07-18T09:25:08Z</time>
</trkpt>
<trkpt lat="46.0267" lon="13.484785">
<time>2021-07-18T09:25:09Z</time>
</trkpt>
<trkpt lat="46.026711" lon="13.484788">
<time>2021-07-18T09:25:10Z</time>
</trkpt>
<trkpt lat="46.026726" lon="13.484795">
<time>2021-07-18T09:25:11Z</time>
</trkpt>
<trkpt lat="46.02674" lon="13.4848">
<time>2021-07-18T09:25:12Z</time>
</trkpt>
<trkpt lat="46.026753" lon="13.484803">
<time>2021-07-18T09:25:13Z</time>
</trkpt>
<trkpt lat="46.026766" lon="13.484805">
<time>2021-07-18T09:25:14Z</time>
</trkpt>
<trkpt lat="46.026778" lon="13.484805">
<time>2021-07-18T09:25:15Z</time>
</trkpt>
<trkpt lat="46.026791" lon="13.484808">
<time>2021-07-18T09:25:16Z</time>
</trkpt>
<trkpt lat="46.026806" lon="13.48481">
<time>2021-07-18T09:25:17Z</time>
</trkpt>
<trkpt lat="46.02682" lon="13.484815">
<time>2021-07-18T09:25:18Z</time>
</trkpt>
<trkpt lat="46.026833" lon="13.48482">
<time>2021-07-18T09:25:19Z</time>
</trkpt>
<trkpt lat="46.026846" lon="13.484826">
<time>2021-07-18T09:25:20Z</time>
</trkpt>
<trkpt lat="46.026858" lon="13.484833">
<time>2021-07-18T09:25:21Z</time>
</trkpt>
<trkpt lat="46.026871" lon="13.484838">
<time>2021-07-18T09:25:22Z</time>
</trkpt>
<trkpt lat="46.026885" lon="13.484843">
<time>2021-07-18T09:25:23Z</time>
</trkpt>
<trkpt lat="46.026896" lon="13.484843">
<time>2021-07-18T09:25:24Z</time>
</trkpt>
<trkpt lat="46.02691" lon="13.484843">
<time>2021-07-18T09:25:25Z</time>
</trkpt>
<trkpt lat="46.026923" lon="13.484846">
<time>2021-07-18T09:25:26Z</time>
</trkpt>
<trkpt lat="46.026936" lon="13.484851">
<time>2021-07-18T09:25:27Z</time>
</trkpt>
<trkpt lat="46.02695" lon="13.484858">
<time>2021-07-18T09:25:28Z</time>
</trkpt>
<trkpt lat="46.026961" lon="13.484866">
<time>2021-07-18T09:25:29Z</time>
</trkpt>
<trkpt lat="46.026973" lon="13.484876">
<time>2021-07-18T09:25:30Z</time>
</trkpt>
<trkpt lat="46.026985" lon="13.484888">
<time>2021-07-18T09:25:31Z</time>
</trkpt>
<trkpt lat="46.026993" lon="13.484901">
<time>2021-07-18T09:25:32Z</time>
</trkpt>
<trkpt lat="46.027003" lon="13.484915">
<time>2021-07-18T09:25:33Z</time>
</trkpt>
<trkpt lat="46.027013" lon="13.484928">
<time>2021-07-18T09:25:34Z</time>
</trkpt>
<trkpt lat="46.027023" lon="13.48494">
<time>2021-07-18T09:25:35Z</time>
</trkpt>
<trkpt lat="46.027033" lon="13.484951">
<time>2021-07-18T09:25:36Z</time>
</trkpt>
<trkpt lat="46.027045" lon="13.484963">
<time>2021-07-18T09:25:37Z</time>
</trkpt>
<trkpt lat="46.027056" lon="13.484971">
<time>2021-07-18T09:25:38Z</time>
</trkpt>
<trkpt lat="46.027068" lon="13.484983">
<time>2021-07-18T09:25:39Z</time>
</trkpt>
<trkpt lat="46.02708" lon="13.484995">
<time>2021-07-18T09:25:40Z</time>
</trkpt>
<trkpt lat="46.027091" lon="13.485005">
<time>2021-07-18T09:25:41Z</time>
</trkpt>
<trkpt lat="46.027101" lon="13.485016">
<time>2021-07-18T09:25:42Z</time>
</trkpt>
<trkpt lat="46.027113" lon="13.485031">
<time>2021-07-18T09:25:43Z</time>
</trkpt>
<trkpt lat="46.027121" lon="13.485046">
<time>2021-07-18T09:25:44Z</time>
</trkpt>
<trkpt lat="46.02713" lon="13.485061">
<time>2021-07-18T09:25:45Z</time>
</trkpt>
<trkpt lat="46.027136" lon="13.485078">
<time>2021-07-18T09:25:46Z</time>
</trkpt>
<trkpt lat="46.027146" lon="13.485091">
<time>2021-07-18T09:25:47Z</time>
</trkpt>
<trkpt lat="46.027156" lon="13.485105">
<time>2021-07-18T09:25:48Z</time>
</trkpt>
<trkpt lat="46.027168" lon="13.485116">
<time>2021-07-18T09:25:49Z</time>
</trkpt>
<trkpt lat="46.027181" lon="13.48513">
<time>2021-07-18T09:25:50Z</time>
</trkpt>
<trkpt lat="46.027193" lon="13.48514">
<time>2021-07-18T09:25:51Z</time>
</trkpt>
<trkpt lat="46.027205" lon="13.48515">
<time>2021-07-18T09:25:52Z</time>
</trkpt>
<trkpt lat="46.027216" lon="13.485158">
<time>2021-07-18T09:25:53Z</time>
</trkpt>
<trkpt lat="46.027226" lon="13.48517">
<time>2021-07-18T09:25:54Z</time>
</trkpt>
<trkpt lat="46.027236" lon="13.485181">
<time>2021-07-18T09:25:55Z</time>
</trkpt>
<trkpt lat="46.027248" lon="13.485191">
<time>2021-07-18T09:25:56Z</time>
</trkpt>
<trkpt lat="46.027261" lon="13.485198">
<time>2021-07-18T09:25:57Z</time>
</trkpt>
<trkpt lat="46.027273" lon="13.485203">
<time>2021-07-18T09:25:58Z</time>
</trkpt>
<trkpt lat="46.027286" lon="13.48521">
<time>2021-07-18T09:25:59Z</time>
</trkpt>
<trkpt lat="46.0273" lon="13.485216">
<time>2021-07-18T09:26:00Z</time>
</trkpt>
<trkpt lat="46.027313" lon="13.485221">
<time>2021-07-18T09:26:01Z</time>
</trkpt>
<trkpt lat="46.027328" lon="13.485228">
<time>2021-07-18T09:26:02Z</time>
</trkpt>
<trkpt lat="46.027341" lon="13.485235">
<time>2021-07-18T09:26:03Z</time>
</trkpt>
<trkpt lat="46.027355" lon="13.485245">
<time>2021-07-18T09:26:04Z</time>
</trkpt>
<trkpt lat="46.027368" lon="13.485253">
<time>2021-07-18T09:26:05Z</time>
</trkpt>
<trkpt lat="46.02738" lon="13.485266">
<time>2021-07-18T09:26:06Z</time>
</trkpt>
<trkpt lat="46.02739" lon="13.485276">
<time>2021-07-18T09:26:07Z</time>
</trkpt>
<trkpt lat="46.027401" lon="13.485286">
<time>2021-07-18T09:26:08Z</time>
</trkpt>
<trkpt lat="46.027413" lon="13.485298">
<time>2021-07-18T09:26:09Z</time>
</trkpt>
<trkpt lat="46.027426" lon="13.485308">
<time>2021-07-18T09:26:10Z</time>
</trkpt>
<trkpt lat="46.02744" lon="13.48532">
<time>2021-07-18T09:26:11Z</time>
</trkpt>
<trkpt lat="46.027455" lon="13.485335">
<time>2021-07-18T09:26:12Z</time>
</trkpt>
<trkpt lat="46.027468" lon="13.485355">
<time>2021-07-18T09:26:13Z</time>
</trkpt>
<trkpt lat="46.027485" lon="13.485375">
<time>2021-07-18T09:26:14Z</time>
</trkpt>
<trkpt lat="46.027505" lon="13.485398">
<time>2021-07-18T09:26:15Z</time>
</trkpt>
<trkpt lat="46.027518" lon="13.485411">
<time>2021-07-18T09:26:16Z</time>
</trkpt>
<trkpt lat="46.027531" lon="13.485431">
<time>2021-07-18T09:26:17Z</time>
</trkpt>
<trkpt lat="46.02755" lon="13.485451">
<time>2021-07-18T09:26:18Z</time>
</trkpt>
<trkpt lat="46.027568" lon="13.485475">
<time>2021-07-18T09:26:19Z</time>
</trkpt>
<trkpt lat="46.027585" lon="13.485501">
<time>2021-07-18T09:26:20Z</time>
</trkpt>
<trkpt lat="46.027598" lon="13.485523">
<time>2021-07-18T09:26:21Z</time>
</trkpt>
<trkpt lat="46.027615" lon="13.485545">
<time>2021-07-18T09:26:22Z</time>
</trkpt>
<trkpt lat="46.027641" lon="13.485573">
<time>2021-07-18T09:26:23Z</time>
</trkpt>
<trkpt lat="46.02766" lon="13.485598">
<time>2021-07-18T09:26:24Z</time>
</trkpt>
<trkpt lat="46.027673" lon="13.485618">
<time>2021-07-18T09:26:25Z</time>
</trkpt>
<trkpt lat="46.02769" lon="13.485638">
<time>2021-07-18T09:26:26Z</time>
</trkpt>
<trkpt lat="46.027713" lon="13.48567">
<time>2021-07-18T09:26:27Z</time>
</trkpt>
<trkpt lat="46.027736" lon="13.4857">
<time>2021-07-18T09:26:28Z</time>
</trkpt>
<trkpt lat="46.027751" lon="13.485735">
<time>2021-07-18T09:26:29Z</time>
</trkpt>
<trkpt lat="46.027766" lon="13.485763">
<time>2021-07-18T09:26:30Z</time>
</trkpt>
<trkpt lat="46.027786" lon="13.48579">
<time>2021-07-18T09:26:31Z</time>
</trkpt>
<trkpt lat="46.027806" lon="13.485816">
<time>2021-07-18T09:26:32Z</time>
</trkpt>
<trkpt lat="46.027828" lon="13.485843">
<time>2021-07-18T09:26:33Z</time>
</trkpt>
<trkpt lat="46.02785" lon="13.48587">
<time>2021-07-18T09:26:34Z</time>
</trkpt>
<trkpt lat="46.027868" lon="13.48589">
<time>2021-07-18T09:26:35Z</time>
</trkpt>
<trkpt lat="46.02789" lon="13.485911">
<time>2021-07-18T09:26:36Z</time>
</trkpt>
<trkpt lat="46.027913" lon="13.485936">
<time>2021-07-18T09:26:37Z</time>
</trkpt>
<trkpt lat="46.02794" lon="13.485966">
<time>2021-07-18T09:26:38Z</time>
</trkpt>
<trkpt lat="46.027965" lon="13.485991">
<time>2021-07-18T09:26:39Z</time>
</trkpt>
<trkpt lat="46.027988" lon="13.486011">
<time>2021-07-18T09:26:40Z</time>
</trkpt>
<trkpt lat="46.028013" lon="13.486036">
<time>2021-07-18T09:26:41Z</time>
</trkpt>
<trkpt lat="46.028038" lon="13.486068">
<time>2021-07-18T09:26:42Z</time>
</trkpt>
<trkpt lat="46.028068" lon="13.486105">
<time>2021-07-18T09:26:43Z</time>
</trkpt>
<trkpt lat="46.028091" lon="13.486136">
<time>2021-07-18T09:26:44Z</time>
</trkpt>
<trkpt lat="46.028118" lon="13.486163">
<time>2021-07-18T09:26:45Z</time>
</trkpt>
<trkpt lat="46.028136" lon="13.486186">
<time>2021-07-18T09:26:46Z</time>
</trkpt>
<trkpt lat="46.028166" lon="13.486213">
<time>2021-07-18T09:26:47Z</time>
</trkpt>
<trkpt lat="46.028195" lon="13.48623">
<time>2021-07-18T09:26:48Z</time>
</trkpt>
<trkpt lat="46.028223" lon="13.48624">
<time>2021-07-18T09:26:49Z</time>
</trkpt>
<trkpt lat="46.02825" lon="13.48625">
<time>2021-07-18T09:26:50Z</time>
</trkpt>
<trkpt lat="46.028273" lon="13.48626">
<time>2021-07-18T09:26:51Z</time>
</trkpt>
<trkpt lat="46.0283" lon="13.486271">
<time>2021-07-18T09:26:52Z</time>
</trkpt>
<trkpt lat="46.02833" lon="13.486281">
<time>2021-07-18T09:26:53Z</time>
</trkpt>
<trkpt lat="46.028353" lon="13.486286">
<time>2021-07-18T09:26:54Z</time>
</trkpt>
<trkpt lat="46.028375" lon="13.486296">
<time>2021-07-18T09:26:55Z</time>
</trkpt>
<trkpt lat="46.028396" lon="13.486305">
<time>2021-07-18T09:26:56Z</time>
</trkpt>
<trkpt lat="46.028416" lon="13.486315">
<time>2021-07-18T09:26:57Z</time>
</trkpt>
<trkpt lat="46.02844" lon="13.486323">
<time>2021-07-18T09:26:58Z</time>
</trkpt>
<trkpt lat="46.02846" lon="13.486335">
<time>2021-07-18T09:26:59Z</time>
</trkpt>
<trkpt lat="46.02848" lon="13.486343">
<time>2021-07-18T09:27:00Z</time>
</trkpt>
<trkpt lat="46.0285" lon="13.486353">
<time>2021-07-18T09:27:01Z</time>
</trkpt>
<trkpt lat="46.028521" lon="13.486363">
<time>2021-07-18T09:27:02Z</time>
</trkpt>
<trkpt lat="46.02854" lon="13.486371">
<time>2021-07-18T09:27:03Z</time>
</trkpt>
<trkpt lat="46.028555" lon="13.48638">
<time>2021-07-18T09:27:04Z</time>
</trkpt>
<trkpt lat="46.028571" lon="13.486391">
<time>2021-07-18T09:27:05Z</time>
</trkpt>
<trkpt lat="46.028585" lon="13.4864">
<time>2021-07-18T09:27:06Z</time>
</trkpt>
<trkpt lat="46.028603" lon="13.486413">
<time>2021-07-18T09:27:07Z</time>
</trkpt>
<trkpt lat="46.028618" lon="13.486423">
<time>2021-07-18T09:27:08Z</time>
</trkpt>
<trkpt lat="46.028631" lon="13.486431">
<time>2021-07-18T09:27:09Z</time>
</trkpt>
<trkpt lat="46.028646" lon="13.48644">
<time>2021-07-18T09:27:10Z</time>
</trkpt>
<trkpt lat="46.02866" lon="13.486446">
<time>2021-07-18T09:27:11Z</time>
</trkpt>
<trkpt lat="46.028673" lon="13.486455">
<time>2021-07-18T09:27:12Z</time>
</trkpt>
<trkpt lat="46.028685" lon="13.486461">
<time>2021-07-18T09:27:13Z</time>
</trkpt>
<trkpt lat="46.0287" lon="13.486466">
<time>2021-07-18T09:27:14Z</time>
</trkpt>
<trkpt lat="46.028713" lon="13.486471">
<time>2021-07-18T09:27:15Z</time>
</trkpt>
<trkpt lat="46.028726" lon="13.486476">
<time>2021-07-18T09:27:16Z</time>
</trkpt>
<trkpt lat="46.02874" lon="13.486483">
<time>2021-07-18T09:27:17Z</time>
</trkpt>
<trkpt lat="46.028755" lon="13.48649">
<time>2021-07-18T09:27:18Z</time>
</trkpt>
<trkpt lat="46.028768" lon="13.486496">
<time>2021-07-18T09:27:19Z</time>
</trkpt>
<trkpt lat="46.028783" lon="13.486503">
<time>2021-07-18T09:27:20Z</time>
</trkpt>
<trkpt lat="46.028798" lon="13.48651">
<time>2021-07-18T09:27:21Z</time>
</trkpt>
<trkpt lat="46.028811" lon="13.486516">
<time>2021-07-18T09:27:22Z</time>
</trkpt>
<trkpt lat="46.028825" lon="13.486521">
<time>2021-07-18T09:27:23Z</time>
</trkpt>
<trkpt lat="46.028838" lon="13.486526">
<time>2021-07-18T09:27:24Z</time>
</trkpt>
<trkpt lat="46.028853" lon="13.486533">
<time>2021-07-18T09:27:25Z</time>
</trkpt>
<trkpt lat="46.028866" lon="13.486536">
<time>2021-07-18T09:27:26Z</time>
</trkpt>
<trkpt lat="46.02888" lon="13.486543">
<time>2021-07-18T09:27:27Z</time>
</trkpt>
<trkpt lat="46.028891" lon="13.486553">
<time>2021-07-18T09:27:28Z</time>
</trkpt>
<trkpt lat="46.028903" lon="13.486561">
<time>2021-07-18T09:27:29Z</time>
</trkpt>
<trkpt lat="46.028915" lon="13.486566">
<time>2021-07-18T09:27:30Z</time>
</trkpt>
<trkpt lat="46.028928" lon="13.486571">
<time>2021-07-18T09:27:31Z</time>
</trkpt>
<trkpt lat="46.028943" lon="13.486576">
<time>2021-07-18T09:27:32Z</time>
</trkpt>
<trkpt lat="46.028958" lon="13.486581">
<time>2021-07-18T09:27:33Z</time>
</trkpt>
<trkpt lat="46.02897" lon="13.486586">
<time>2021-07-18T09:27:34Z</time>
</trkpt>
<trkpt lat="46.028981" lon="13.486593">
<time>2021-07-18T09:27:35Z</time>
</trkpt>
<trkpt lat="46.028993" lon="13.486603">
<time>2021-07-18T09:27:36Z</time>
</trkpt>
<trkpt lat="46.029005" lon="13.48661">
<time>2021-07-18T09:27:37Z</time>
</trkpt>
<trkpt lat="46.029015" lon="13.486615">
<time>2021-07-18T09:27:38Z</time>
</trkpt>
<trkpt lat="46.029025" lon="13.48662">
<time>2021-07-18T09:27:39Z</time>
</trkpt>
<trkpt lat="46.029036" lon="13.486625">
<time>2021-07-18T09:27:40Z</time>
</trkpt>
<trkpt lat="46.02905" lon="13.48663">
<time>2021-07-18T09:27:41Z</time>
</trkpt>
<trkpt lat="46.029063" lon="13.486633">
<time>2021-07-18T09:27:42Z</time>
</trkpt>
<trkpt lat="46.029076" lon="13.486638">
<time>2021-07-18T09:27:43Z</time>
</trkpt>
<trkpt lat="46.02909" lon="13.486645">
<time>2021-07-18T09:27:44Z</time>
</trkpt>
<trkpt lat="46.029101" lon="13.486655">
<time>2021-07-18T09:27:45Z</time>
</trkpt>
<trkpt lat="46.029111" lon="13.486665">
<time>2021-07-18T09:27:46Z</time>
</trkpt>
<trkpt lat="46.029123" lon="13.486671">
<time>2021-07-18T09:27:47Z</time>
</trkpt>
<trkpt lat="46.029133" lon="13.48668">
<time>2021-07-18T09:27:48Z</time>
</trkpt>
<trkpt lat="46.029146" lon="13.486686">
<time>2021-07-18T09:27:49Z</time>
</trkpt>
<trkpt lat="46.02916" lon="13.486695">
<time>2021-07-18T09:27:50Z</time>
</trkpt>
<trkpt lat="46.029171" lon="13.4867">
<time>2021-07-18T09:27:51Z</time>
</trkpt>
<trkpt lat="46.029183" lon="13.486705">
<time>2021-07-18T09:27:52Z</time>
</trkpt>
<trkpt lat="46.029196" lon="13.486711">
<time>2021-07-18T09:27:53Z</time>
</trkpt>
<trkpt lat="46.029206" lon="13.486718">
<time>2021-07-18T09:27:54Z</time>
</trkpt>
<trkpt lat="46.029218" lon="13.486725">
<time>2021-07-18T09:27:55Z</time>
</trkpt>
<trkpt lat="46.029233" lon="13.486726">
<time>2021-07-18T09:27:56Z</time>
</trkpt>
<trkpt lat="46.029248" lon="13.486728">
<time>2021-07-18T09:27:57Z</time>
</trkpt>
<trkpt lat="46.029266" lon="13.486726">
<time>2021-07-18T09:27:58Z</time>
</trkpt>
<trkpt lat="46.029285" lon="13.48673">
<time>2021-07-18T09:27:59Z</time>
</trkpt>
<trkpt lat="46.0293" lon="13.48673">
<time>2021-07-18T09:28:00Z</time>
</trkpt>
<trkpt lat="46.029315" lon="13.486735">
<time>2021-07-18T09:28:01Z</time>
</trkpt>
<trkpt lat="46.029331" lon="13.486741">
<time>2021-07-18T09:28:02Z</time>
</trkpt>
<trkpt lat="46.029346" lon="13.486745">
<time>2021-07-18T09:28:03Z</time>
</trkpt>
<trkpt lat="46.029363" lon="13.486746">
<time>2021-07-18T09:28:04Z</time>
</trkpt>
<trkpt lat="46.029376" lon="13.48675">
<time>2021-07-18T09:28:05Z</time>
</trkpt>
<trkpt lat="46.029395" lon="13.486755">
<time>2021-07-18T09:28:06Z</time>
</trkpt>
<trkpt lat="46.029415" lon="13.48676">
<time>2021-07-18T09:28:07Z</time>
</trkpt>
<trkpt lat="46.02944" lon="13.486768">
<time>2021-07-18T09:28:08Z</time>
</trkpt>
<trkpt lat="46.029458" lon="13.486775">
<time>2021-07-18T09:28:09Z</time>
</trkpt>
<trkpt lat="46.029478" lon="13.486785">
<time>2021-07-18T09:28:10Z</time>
</trkpt>
<trkpt lat="46.029498" lon="13.486795">
<time>2021-07-18T09:28:11Z</time>
</trkpt>
<trkpt lat="46.029513" lon="13.486806">
<time>2021-07-18T09:28:12Z</time>
</trkpt>
<trkpt lat="46.029538" lon="13.486818">
<time>2021-07-18T09:28:13Z</time>
</trkpt>
<trkpt lat="46.029558" lon="13.486831">
<time>2021-07-18T09:28:14Z</time>
</trkpt>
<trkpt lat="46.029575" lon="13.486843">
<time>2021-07-18T09:28:15Z</time>
</trkpt>
<trkpt lat="46.029598" lon="13.486856">
<time>2021-07-18T09:28:16Z</time>
</trkpt>
<trkpt lat="46.029616" lon="13.486868">
<time>2021-07-18T09:28:17Z</time>
</trkpt>
<trkpt lat="46.029635" lon="13.486881">
<time>2021-07-18T09:28:18Z</time>
</trkpt>
<trkpt lat="46.029651" lon="13.486893">
<time>2021-07-18T09:28:19Z</time>
</trkpt>
<trkpt lat="46.029668" lon="13.486908">
<time>2021-07-18T09:28:20Z</time>
</trkpt>
<trkpt lat="46.029685" lon="13.486925">
<time>2021-07-18T09:28:21Z</time>
</trkpt>
<trkpt lat="46.0297" lon="13.48694">
<time>2021-07-18T09:28:22Z</time>
</trkpt>
<trkpt lat="46.029713" lon="13.486958">
<time>2021-07-18T09:28:23Z</time>
</trkpt>
<trkpt lat="46.02973" lon="13.486975">
<time>2021-07-18T09:28:24Z</time>
</trkpt>
<trkpt lat="46.029745" lon="13.486991">
<time>2021-07-18T09:28:25Z</time>
</trkpt>
<trkpt lat="46.029758" lon="13.487008">
<time>2021-07-18T09:28:26Z</time>
</trkpt>
<trkpt lat="46.029775" lon="13.487031">
<time>2021-07-18T09:28:27Z</time>
</trkpt>
<trkpt lat="46.029791" lon="13.487053">
<time>2021-07-18T09:28:28Z</time>
</trkpt>
<trkpt lat="46.029806" lon="13.487073">
<time>2021-07-18T09:28:29Z</time>
</trkpt>
<trkpt lat="46.029823" lon="13.487096">
<time>2021-07-18T09:28:30Z</time>
</trkpt>
<trkpt lat="46.02984" lon="13.487113">
<time>2021-07-18T09:28:31Z</time>
</trkpt>
<trkpt lat="46.029858" lon="13.487136">
<time>2021-07-18T09:28:32Z</time>
</trkpt>
<trkpt lat="46.02988" lon="13.48717">
<time>2021-07-18T09:28:33Z</time>
</trkpt>
<trkpt lat="46.029895" lon="13.487196">
<time>2021-07-18T09:28:34Z</time>
</trkpt>
<trkpt lat="46.029905" lon="13.48722">
<time>2021-07-18T09:28:35Z</time>
</trkpt>
<trkpt lat="46.029921" lon="13.48724">
<time>2021-07-18T09:28:36Z</time>
</trkpt>
<trkpt lat="46.029936" lon="13.487256">
<time>2021-07-18T09:28:37Z</time>
</trkpt>
<trkpt lat="46.029958" lon="13.487276">
<time>2021-07-18T09:28:38Z</time>
</trkpt>
<trkpt lat="46.029975" lon="13.487293">
<time>2021-07-18T09:28:39Z</time>
</trkpt>
<trkpt lat="46.029988" lon="13.487305">
<time>2021-07-18T09:28:40Z</time>
</trkpt>
<trkpt lat="46.030001" lon="13.487325">
<time>2021-07-18T09:28:41Z</time>
</trkpt>
<trkpt lat="46.030015" lon="13.487348">
<time>2021-07-18T09:28:42Z</time>
</trkpt>
<trkpt lat="46.030028" lon="13.487376">
<time>2021-07-18T09:28:43Z</time>
</trkpt>
<trkpt lat="46.030038" lon="13.487406">
<time>2021-07-18T09:28:44Z</time>
</trkpt>
<trkpt lat="46.030046" lon="13.487435">
<time>2021-07-18T09:28:45Z</time>
</trkpt>
<trkpt lat="46.030056" lon="13.48748">
<time>2021-07-18T09:28:46Z</time>
</trkpt>
<trkpt lat="46.03006" lon="13.487515">
<time>2021-07-18T09:28:47Z</time>
</trkpt>
<trkpt lat="46.03006" lon="13.487576">
<time>2021-07-18T09:28:48Z</time>
</trkpt>
<trkpt lat="46.030058" lon="13.487635">
<time>2021-07-18T09:28:49Z</time>
</trkpt>
<trkpt lat="46.03006" lon="13.487693">
<time>2021-07-18T09:28:50Z</time>
</trkpt>
<trkpt lat="46.030066" lon="13.487741">
<time>2021-07-18T09:28:51Z</time>
</trkpt>
<trkpt lat="46.030078" lon="13.487803">
<time>2021-07-18T09:28:52Z</time>
</trkpt>
<trkpt lat="46.030101" lon="13.487866">
<time>2021-07-18T09:28:53Z</time>
</trkpt>
<trkpt lat="46.030125" lon="13.487911">
<time>2021-07-18T09:28:54Z</time>
</trkpt>
<trkpt lat="46.03015" lon="13.487963">
<time>2021-07-18T09:28:55Z</time>
</trkpt>
<trkpt lat="46.030175" lon="13.488013">
<time>2021-07-18T09:28:56Z</time>
</trkpt>
<trkpt lat="46.030195" lon="13.488056">
<time>2021-07-18T09:28:57Z</time>
</trkpt>
<trkpt lat="46.03023" lon="13.48812">
<time>2021-07-18T09:28:58Z</time>
</trkpt>
<trkpt lat="46.03026" lon="13.48818">
<time>2021-07-18T09:28:59Z</time>
</trkpt>
<trkpt lat="46.030293" lon="13.488248">
<time>2021-07-18T09:29:00Z</time>
</trkpt>
<trkpt lat="46.030323" lon="13.488325">
<time>2021-07-18T09:29:01Z</time>
</trkpt>
<trkpt lat="46.030353" lon="13.488406">
<time>2021-07-18T09:29:02Z</time>
</trkpt>
<trkpt lat="46.03038" lon="13.488513">
<time>2021-07-18T09:29:03Z</time>
</trkpt>
<trkpt lat="46.030406" lon="13.488611">
<time>2021-07-18T09:29:04Z</time>
</trkpt>
<trkpt lat="46.03044" lon="13.488701">
<time>2021-07-18T09:29:05Z</time>
</trkpt>
<trkpt lat="46.030468" lon="13.48879">
<time>2021-07-18T09:29:06Z</time>
</trkpt>
<trkpt lat="46.03049" lon="13.488885">
<time>2021-07-18T09:29:07Z</time>
</trkpt>
<trkpt lat="46.030508" lon="13.488988">
<time>2021-07-18T09:29:08Z</time>
</trkpt>
<trkpt lat="46.030528" lon="13.489083">
<time>2021-07-18T09:29:09Z</time>
</trkpt>
<trkpt lat="46.030548" lon="13.489166">
<time>2021-07-18T09:29:10Z</time>
</trkpt>
<trkpt lat="46.030566" lon="13.489246">
<time>2021-07-18T09:29:11Z</time>
</trkpt>
<trkpt lat="46.030585" lon="13.489325">
<time>2021-07-18T09:29:12Z</time>
</trkpt>
<trkpt lat="46.030606" lon="13.489398">
<time>2021-07-18T09:29:13Z</time>
</trkpt>
<trkpt lat="46.030621" lon="13.48947">
<time>2021-07-18T09:29:14Z</time>
</trkpt>
<trkpt lat="46.030633" lon="13.48954">
<time>2021-07-18T09:29:15Z</time>
</trkpt>
<trkpt lat="46.030641" lon="13.489613">
<time>2021-07-18T09:29:16Z</time>
</trkpt>
<trkpt lat="46.030645" lon="13.489681">
<time>2021-07-18T09:29:17Z</time>
</trkpt>
<trkpt lat="46.030641" lon="13.489743">
<time>2021-07-18T09:29:18Z</time>
</trkpt>
<trkpt lat="46.030641" lon="13.489776">
<time>2021-07-18T09:29:19Z</time>
</trkpt>
<trkpt lat="46.030651" lon="13.48979">
<time>2021-07-18T09:29:20Z</time>
</trkpt>
<trkpt lat="46.030665" lon="13.4898">
<time>2021-07-18T09:29:21Z</time>
</trkpt>
<trkpt lat="46.030693" lon="13.48981">
<time>2021-07-18T09:29:22Z</time>
</trkpt>
<trkpt lat="46.030725" lon="13.489825">
<time>2021-07-18T09:29:23Z</time>
</trkpt>
<trkpt lat="46.030761" lon="13.489838">
<time>2021-07-18T09:29:24Z</time>
</trkpt>
<trkpt lat="46.030808" lon="13.489846">
<time>2021-07-18T09:29:25Z</time>
</trkpt>
<trkpt lat="46.03086" lon="13.489856">
<time>2021-07-18T09:29:26Z</time>
</trkpt>
<trkpt lat="46.030918" lon="13.48987">
<time>2021-07-18T09:29:27Z</time>
</trkpt>
<trkpt lat="46.030985" lon="13.48989">
<time>2021-07-18T09:29:28Z</time>
</trkpt>
<trkpt lat="46.031045" lon="13.489916">
<time>2021-07-18T09:29:29Z</time>
</trkpt>
<trkpt lat="46.0311" lon="13.489943">
<time>2021-07-18T09:29:30Z</time>
</trkpt>
<trkpt lat="46.031153" lon="13.489968">
<time>2021-07-18T09:29:31Z</time>
</trkpt>
<trkpt lat="46.031208" lon="13.489991">
<time>2021-07-18T09:29:32Z</time>
</trkpt>
<trkpt lat="46.03126" lon="13.490006">
<time>2021-07-18T09:29:33Z</time>
</trkpt>
<trkpt lat="46.031306" lon="13.490011">
<time>2021-07-18T09:29:34Z</time>
</trkpt>
<trkpt lat="46.031353" lon="13.490013">
<time>2021-07-18T09:29:35Z</time>
</trkpt>
<trkpt lat="46.031398" lon="13.490021">
<time>2021-07-18T09:29:36Z</time>
</trkpt>
<trkpt lat="46.031443" lon="13.490026">
<time>2021-07-18T09:29:37Z</time>
</trkpt>
<trkpt lat="46.031488" lon="13.49003">
<time>2021-07-18T09:29:38Z</time>
</trkpt>
<trkpt lat="46.031526" lon="13.490036">
<time>2021-07-18T09:29:39Z</time>
</trkpt>
<trkpt lat="46.031563" lon="13.490043">
<time>2021-07-18T09:29:40Z</time>
</trkpt>
<trkpt lat="46.031595" lon="13.490051">
<time>2021-07-18T09:29:41Z</time>
</trkpt>
<trkpt lat="46.031631" lon="13.490061">
<time>2021-07-18T09:29:42Z</time>
</trkpt>
<trkpt lat="46.03167" lon="13.490078">
<time>2021-07-18T09:29:43Z</time>
</trkpt>
<trkpt lat="46.031705" lon="13.490098">
<time>2021-07-18T09:29:44Z</time>
</trkpt>
<trkpt lat="46.031738" lon="13.490118">
<time>2021-07-18T09:29:45Z</time>
</trkpt>
<trkpt lat="46.031771" lon="13.490133">
<time>2021-07-18T09:29:46Z</time>
</trkpt>
<trkpt lat="46.031808" lon="13.490145">
<time>2021-07-18T09:29:47Z</time>
</trkpt>
<trkpt lat="46.031863" lon="13.490153">
<time>2021-07-18T09:29:48Z</time>
</trkpt>
<trkpt lat="46.031908" lon="13.490153">
<time>2021-07-18T09:29:49Z</time>
</trkpt>
<trkpt lat="46.031953" lon="13.490136">
<time>2021-07-18T09:29:50Z</time>
</trkpt>
<trkpt lat="46.031973" lon="13.49012">
<time>2021-07-18T09:29:51Z</time>
</trkpt>
<trkpt lat="46.031986" lon="13.490093">
<time>2021-07-18T09:29:52Z</time>
</trkpt>
<trkpt lat="46.031996" lon="13.490055">
<time>2021-07-18T09:29:53Z</time>
</trkpt>
<trkpt lat="46.032006" lon="13.490018">
<time>2021-07-18T09:29:54Z</time>
</trkpt>
<trkpt lat="46.032013" lon="13.48998">
<time>2021-07-18T09:29:55Z</time>
</trkpt>
<trkpt lat="46.032011" lon="13.489938">
<time>2021-07-18T09:29:56Z</time>
</trkpt>
<trkpt lat="46.032015" lon="13.489885">
<time>2021-07-18T09:29:57Z</time>
</trkpt>
<trkpt lat="46.032015" lon="13.489838">
<time>2021-07-18T09:29:58Z</time>
</trkpt>
<trkpt lat="46.032025" lon="13.489801">
<time>2021-07-18T09:29:59Z</time>
</trkpt>
<trkpt lat="46.032035" lon="13.489766">
<time>2021-07-18T09:30:00Z</time>
</trkpt>
<trkpt lat="46.032045" lon="13.489736">
<time>2021-07-18T09:30:01Z</time>
</trkpt>
<trkpt lat="46.032058" lon="13.489696">
<time>2021-07-18T09:30:02Z</time>
</trkpt>
<trkpt lat="46.032073" lon="13.489651">
<time>2021-07-18T09:30:03Z</time>
</trkpt>
<trkpt lat="46.03209" lon="13.489595">
<time>2021-07-18T09:30:04Z</time>
</trkpt>
<trkpt lat="46.032103" lon="13.489541">
<time>2021-07-18T09:30:05Z</time>
</trkpt>
<trkpt lat="46.032111" lon="13.489491">
<time>2021-07-18T09:30:06Z</time>
</trkpt>
<trkpt lat="46.032125" lon="13.489436">
<time>2021-07-18T09:30:07Z</time>
</trkpt>
<trkpt lat="46.03214" lon="13.489375">
<time>2021-07-18T09:30:08Z</time>
</trkpt>
<trkpt lat="46.032161" lon="13.489311">
<time>2021-07-18T09:30:09Z</time>
</trkpt>
<trkpt lat="46.032183" lon="13.48926">
<time>2021-07-18T09:30:10Z</time>
</trkpt>
<trkpt lat="46.032196" lon="13.489206">
<time>2021-07-18T09:30:11Z</time>
</trkpt>
<trkpt lat="46.032205" lon="13.489165">
<time>2021-07-18T09:30:12Z</time>
</trkpt>
<trkpt lat="46.032221" lon="13.489125">
<time>2021-07-18T09:30:13Z</time>
</trkpt>
<trkpt lat="46.032236" lon="13.48909">
<time>2021-07-18T09:30:14Z</time>
</trkpt>
<trkpt lat="46.032248" lon="13.489058">
<time>2021-07-18T09:30:15Z</time>
</trkpt>
<trkpt lat="46.032261" lon="13.489018">
<time>2021-07-18T09:30:16Z</time>
</trkpt>
<trkpt lat="46.032263" lon="13.488975">
<time>2021-07-18T09:30:17Z</time>
</trkpt>
<trkpt lat="46.03227" lon="13.488928">
<time>2021-07-18T09:30:18Z</time>
</trkpt>
<trkpt lat="46.032278" lon="13.488883">
<time>2021-07-18T09:30:19Z</time>
</trkpt>
<trkpt lat="46.032288" lon="13.488851">
<time>2021-07-18T09:30:20Z</time>
</trkpt>
<trkpt lat="46.032296" lon="13.48882">
<time>2021-07-18T09:30:21Z</time>
</trkpt>
<trkpt lat="46.032301" lon="13.488763">
<time>2021-07-18T09:30:22Z</time>
</trkpt>
<trkpt lat="46.032328" lon="13.488663">
<time>2021-07-18T09:30:23Z</time>
</trkpt>
<trkpt lat="46.032338" lon="13.488568">
<time>2021-07-18T09:30:24Z</time>
</trkpt>
<trkpt lat="46.03235" lon="13.488481">
<time>2021-07-18T09:30:25Z</time>
</trkpt>
<trkpt lat="46.032351" lon="13.488411">
<time>2021-07-18T09:30:26Z</time>
</trkpt>
<trkpt lat="46.032353" lon="13.488353">
<time>2021-07-18T09:30:27Z</time>
</trkpt>
<trkpt lat="46.032355" lon="13.488288">
<time>2021-07-18T09:30:28Z</time>
</trkpt>
<trkpt lat="46.03234" lon="13.488205">
<time>2021-07-18T09:30:29Z</time>
</trkpt>
<trkpt lat="46.032331" lon="13.488145">
<time>2021-07-18T09:30:30Z</time>
</trkpt>
<trkpt lat="46.032341" lon="13.4881">
<time>2021-07-18T09:30:31Z</time>
</trkpt>
<trkpt lat="46.03235" lon="13.488051">
<time>2021-07-18T09:30:32Z</time>
</trkpt>
<trkpt lat="46.032358" lon="13.488013">
<time>2021-07-18T09:30:33Z</time>
</trkpt>
<trkpt lat="46.032368" lon="13.487981">
<time>2021-07-18T09:30:34Z</time>
</trkpt>
<trkpt lat="46.032375" lon="13.487958">
<time>2021-07-18T09:30:35Z</time>
</trkpt>
<trkpt lat="46.032396" lon="13.487943">
<time>2021-07-18T09:30:36Z</time>
</trkpt>
<trkpt lat="46.032411" lon="13.487916">
<time>2021-07-18T09:30:37Z</time>
</trkpt>
<trkpt lat="46.032433" lon="13.487886">
<time>2021-07-18T09:30:38Z</time>
</trkpt>
<trkpt lat="46.03246" lon="13.487855">
<time>2021-07-18T09:30:39Z</time>
</trkpt>
<trkpt lat="46.03249" lon="13.487816">
<time>2021-07-18T09:30:40Z</time>
</trkpt>
<trkpt lat="46.032516" lon="13.487773">
<time>2021-07-18T09:30:41Z</time>
</trkpt>
<trkpt lat="46.032548" lon="13.48773">
<time>2021-07-18T09:30:42Z</time>
</trkpt>
<trkpt lat="46.032578" lon="13.487675">
<time>2021-07-18T09:30:43Z</time>
</trkpt>
<trkpt lat="46.032608" lon="13.487616">
<time>2021-07-18T09:30:44Z</time>
</trkpt>
<trkpt lat="46.032633" lon="13.487548">
<time>2021-07-18T09:30:45Z</time>
</trkpt>
<trkpt lat="46.032648" lon="13.487461">
<time>2021-07-18T09:30:46Z</time>
</trkpt>
<trkpt lat="46.032655" lon="13.487378">
<time>2021-07-18T09:30:47Z</time>
</trkpt>
<trkpt lat="46.032658" lon="13.487288">
<time>2021-07-18T09:30:48Z</time>
</trkpt>
<trkpt lat="46.032671" lon="13.48721">
<time>2021-07-18T09:30:49Z</time>
</trkpt>
<trkpt lat="46.032683" lon="13.487133">
<time>2021-07-18T09:30:50Z</time>
</trkpt>
<trkpt lat="46.032695" lon="13.487043">
<time>2021-07-18T09:30:51Z</time>
</trkpt>
<trkpt lat="46.032705" lon="13.486955">
<time>2021-07-18T09:30:52Z</time>
</trkpt>
<trkpt lat="46.032703" lon="13.486875">
<time>2021-07-18T09:30:53Z</time>
</trkpt>
<trkpt lat="46.032701" lon="13.486786">
<time>2021-07-18T09:30:54Z</time>
</trkpt>
<trkpt lat="46.032708" lon="13.486685">
<time>2021-07-18T09:30:55Z</time>
</trkpt>
<trkpt lat="46.032721" lon="13.486601">
<time>2021-07-18T09:30:56Z</time>
</trkpt>
<trkpt lat="46.032741" lon="13.486493">
<time>2021-07-18T09:30:57Z</time>
</trkpt>
<trkpt lat="46.032766" lon="13.486406">
<time>2021-07-18T09:30:58Z</time>
</trkpt>
<trkpt lat="46.032793" lon="13.486323">
<time>2021-07-18T09:30:59Z</time>
</trkpt>
<trkpt lat="46.032818" lon="13.486235">
<time>2021-07-18T09:31:00Z</time>
</trkpt>
<trkpt lat="46.03285" lon="13.486155">
<time>2021-07-18T09:31:01Z</time>
</trkpt>
<trkpt lat="46.03288" lon="13.486073">
<time>2021-07-18T09:31:02Z</time>
</trkpt>
<trkpt lat="46.032913" lon="13.485995">
<time>2021-07-18T09:31:03Z</time>
</trkpt>
<trkpt lat="46.032933" lon="13.485926">
<time>2021-07-18T09:31:04Z</time>
</trkpt>
<trkpt lat="46.03295" lon="13.485855">
<time>2021-07-18T09:31:05Z</time>
</trkpt>
<trkpt lat="46.032975" lon="13.485786">
<time>2021-07-18T09:31:06Z</time>
</trkpt>
<trkpt lat="46.03299" lon="13.48572">
<time>2021-07-18T09:31:07Z</time>
</trkpt>
<trkpt lat="46.032996" lon="13.485661">
<time>2021-07-18T09:31:08Z</time>
</trkpt>
<trkpt lat="46.03299" lon="13.485588">
<time>2021-07-18T09:31:09Z</time>
</trkpt>
<trkpt lat="46.032965" lon="13.485531">
<time>2021-07-18T09:31:10Z</time>
</trkpt>
<trkpt lat="46.032941" lon="13.48547">
<time>2021-07-18T09:31:11Z</time>
</trkpt>
<trkpt lat="46.032911" lon="13.485425">
<time>2021-07-18T09:31:12Z</time>
</trkpt>
<trkpt lat="46.032885" lon="13.485403">
<time>2021-07-18T09:31:13Z</time>
</trkpt>
<trkpt lat="46.032863" lon="13.485376">
<time>2021-07-18T09:31:14Z</time>
</trkpt>
<trkpt lat="46.032845" lon="13.48535">
<time>2021-07-18T09:31:15Z</time>
</trkpt>
<trkpt lat="46.032821" lon="13.485341">
<time>2021-07-18T09:31:16Z</time>
</trkpt>
<trkpt lat="46.032791" lon="13.485336">
<time>2021-07-18T09:31:17Z</time>
</trkpt>
<trkpt lat="46.032756" lon="13.48533">
<time>2021-07-18T09:31:18Z</time>
</trkpt>
<trkpt lat="46.032716" lon="13.485316">
<time>2021-07-18T09:31:19Z</time>
</trkpt>
<trkpt lat="46.032671" lon="13.485303">
<time>2021-07-18T09:31:20Z</time>
</trkpt>
<trkpt lat="46.032623" lon="13.485291">
<time>2021-07-18T09:31:21Z</time>
</trkpt>
<trkpt lat="46.03258" lon="13.485283">
<time>2021-07-18T09:31:22Z</time>
</trkpt>
<trkpt lat="46.03254" lon="13.485278">
<time>2021-07-18T09:31:23Z</time>
</trkpt>
<trkpt lat="46.03251" lon="13.485276">
<time>2021-07-18T09:31:24Z</time>
</trkpt>
<trkpt lat="46.032476" lon="13.485281">
<time>2021-07-18T09:31:25Z</time>
</trkpt>
<trkpt lat="46.032441" lon="13.485283">
<time>2021-07-18T09:31:26Z</time>
</trkpt>
<trkpt lat="46.032405" lon="13.485283">
<time>2021-07-18T09:31:27Z</time>
</trkpt>
<trkpt lat="46.032368" lon="13.485273">
<time>2021-07-18T09:31:28Z</time>
</trkpt>
<trkpt lat="46.032328" lon="13.485253">
<time>2021-07-18T09:31:29Z</time>
</trkpt>
<trkpt lat="46.032291" lon="13.485226">
<time>2021-07-18T09:31:30Z</time>
</trkpt>
<trkpt lat="46.032258" lon="13.485203">
<time>2021-07-18T09:31:31Z</time>
</trkpt>
<trkpt lat="46.032231" lon="13.485185">
<time>2021-07-18T09:31:32Z</time>
</trkpt>
<trkpt lat="46.032208" lon="13.485153">
<time>2021-07-18T09:31:33Z</time>
</trkpt>
<trkpt lat="46.03219" lon="13.485115">
<time>2021-07-18T09:31:34Z</time>
</trkpt>
<trkpt lat="46.032171" lon="13.48506">
<time>2021-07-18T09:31:35Z</time>
</trkpt>
<trkpt lat="46.032161" lon="13.485">
<time>2021-07-18T09:31:36Z</time>
</trkpt>
<trkpt lat="46.032158" lon="13.484951">
<time>2021-07-18T09:31:37Z</time>
</trkpt>
<trkpt lat="46.032156" lon="13.484908">
<time>2021-07-18T09:31:38Z</time>
</trkpt>
<trkpt lat="46.032155" lon="13.484858">
<time>2021-07-18T09:31:39Z</time>
</trkpt>
<trkpt lat="46.032153" lon="13.484808">
<time>2021-07-18T09:31:40Z</time>
</trkpt>
<trkpt lat="46.032145" lon="13.484755">
<time>2021-07-18T09:31:41Z</time>
</trkpt>
<trkpt lat="46.03213" lon="13.484703">
<time>2021-07-18T09:31:42Z</time>
</trkpt>
<trkpt lat="46.032115" lon="13.484656">
<time>2021-07-18T09:31:43Z</time>
</trkpt>
<trkpt lat="46.032101" lon="13.484608">
<time>2021-07-18T09:31:44Z</time>
</trkpt>
<trkpt lat="46.03209" lon="13.484556">
<time>2021-07-18T09:31:45Z</time>
</trkpt>
<trkpt lat="46.03208" lon="13.484496">
<time>2021-07-18T09:31:46Z</time>
</trkpt>
<trkpt lat="46.032066" lon="13.484416">
<time>2021-07-18T09:31:47Z</time>
</trkpt>
<trkpt lat="46.032058" lon="13.484331">
<time>2021-07-18T09:31:48Z</time>
</trkpt>
<trkpt lat="46.032051" lon="13.484245">
<time>2021-07-18T09:31:49Z</time>
</trkpt>
<trkpt lat="46.032046" lon="13.48414">
<time>2021-07-18T09:31:50Z</time>
</trkpt>
<trkpt lat="46.032053" lon="13.484036">
<time>2021-07-18T09:31:51Z</time>
</trkpt>
<trkpt lat="46.032073" lon="13.483936">
<time>2021-07-18T09:31:52Z</time>
</trkpt>
<trkpt lat="46.032108" lon="13.48384">
<time>2021-07-18T09:31:53Z</time>
</trkpt>
<trkpt lat="46.032156" lon="13.483746">
<time>2021-07-18T09:31:54Z</time>
</trkpt>
<trkpt lat="46.032213" lon="13.483661">
<time>2021-07-18T09:31:55Z</time>
</trkpt>
<trkpt lat="46.032278" lon="13.483573">
<time>2021-07-18T09:31:56Z</time>
</trkpt>
<trkpt lat="46.032325" lon="13.483508">
<time>2021-07-18T09:31:57Z</time>
</trkpt>
<trkpt lat="46.032383" lon="13.483441">
<time>2021-07-18T09:31:58Z</time>
</trkpt>
<trkpt lat="46.032445" lon="13.483376">
<time>2021-07-18T09:31:59Z</time>
</trkpt>
<trkpt lat="46.032511" lon="13.483311">
<time>2021-07-18T09:32:00Z</time>
</trkpt>
<trkpt lat="46.032571" lon="13.483235">
<time>2021-07-18T09:32:01Z</time>
</trkpt>
<trkpt lat="46.03262" lon="13.483153">
<time>2021-07-18T09:32:02Z</time>
</trkpt>
<trkpt lat="46.032656" lon="13.483055">
<time>2021-07-18T09:32:03Z</time>
</trkpt>
<trkpt lat="46.032688" lon="13.48294">
<time>2021-07-18T09:32:04Z</time>
</trkpt>
<trkpt lat="46.032718" lon="13.482846">
<time>2021-07-18T09:32:05Z</time>
</trkpt>
<trkpt lat="46.032765" lon="13.482711">
<time>2021-07-18T09:32:06Z</time>
</trkpt>
<trkpt lat="46.032806" lon="13.482598">
<time>2021-07-18T09:32:07Z</time>
</trkpt>
<trkpt lat="46.032855" lon="13.482496">
<time>2021-07-18T09:32:08Z</time>
</trkpt>
<trkpt lat="46.032913" lon="13.482398">
<time>2021-07-18T09:32:09Z</time>
</trkpt>
<trkpt lat="46.03297" lon="13.482298">
<time>2021-07-18T09:32:10Z</time>
</trkpt>
<trkpt lat="46.033015" lon="13.48218">
<time>2021-07-18T09:32:11Z</time>
</trkpt>
<trkpt lat="46.033038" lon="13.482055">
<time>2021-07-18T09:32:12Z</time>
</trkpt>
<trkpt lat="46.033038" lon="13.481925">
<time>2021-07-18T09:32:13Z</time>
</trkpt>
<trkpt lat="46.03302" lon="13.481791">
<time>2021-07-18T09:32:14Z</time>
</trkpt>
<trkpt lat="46.032991" lon="13.48166">
<time>2021-07-18T09:32:15Z</time>
</trkpt>
<trkpt lat="46.03296" lon="13.481535">
<time>2021-07-18T09:32:16Z</time>
</trkpt>
<trkpt lat="46.032925" lon="13.481415">
<time>2021-07-18T09:32:17Z</time>
</trkpt>
<trkpt lat="46.032891" lon="13.481293">
<time>2021-07-18T09:32:18Z</time>
</trkpt>
<trkpt lat="46.032856" lon="13.481175">
<time>2021-07-18T09:32:19Z</time>
</trkpt>
<trkpt lat="46.03282" lon="13.481063">
<time>2021-07-18T09:32:20Z</time>
</trkpt>
<trkpt lat="46.032781" lon="13.48096">
<time>2021-07-18T09:32:21Z</time>
</trkpt>
<trkpt lat="46.032753" lon="13.480865">
<time>2021-07-18T09:32:22Z</time>
</trkpt>
<trkpt lat="46.032745" lon="13.48079">
<time>2021-07-18T09:32:23Z</time>
</trkpt>
<trkpt lat="46.032756" lon="13.480735">
<time>2021-07-18T09:32:24Z</time>
</trkpt>
<trkpt lat="46.032783" lon="13.48071">
<time>2021-07-18T09:32:25Z</time>
</trkpt>
<trkpt lat="46.032825" lon="13.480711">
<time>2021-07-18T09:32:26Z</time>
</trkpt>
<trkpt lat="46.032873" lon="13.48074">
<time>2021-07-18T09:32:27Z</time>
</trkpt>
<trkpt lat="46.032925" lon="13.480768">
<time>2021-07-18T09:32:28Z</time>
</trkpt>
<trkpt lat="46.03298" lon="13.480801">
<time>2021-07-18T09:32:29Z</time>
</trkpt>
<trkpt lat="46.033028" lon="13.480828">
<time>2021-07-18T09:32:30Z</time>
</trkpt>
<trkpt lat="46.033103" lon="13.480865">
<time>2021-07-18T09:32:31Z</time>
</trkpt>
<trkpt lat="46.033168" lon="13.480895">
<time>2021-07-18T09:32:32Z</time>
</trkpt>
<trkpt lat="46.033235" lon="13.480921">
<time>2021-07-18T09:32:33Z</time>
</trkpt>
<trkpt lat="46.033305" lon="13.480946">
<time>2021-07-18T09:32:34Z</time>
</trkpt>
<trkpt lat="46.033365" lon="13.480966">
<time>2021-07-18T09:32:35Z</time>
</trkpt>
<trkpt lat="46.033453" lon="13.480993">
<time>2021-07-18T09:32:36Z</time>
</trkpt>
<trkpt lat="46.03353" lon="13.481015">
<time>2021-07-18T09:32:37Z</time>
</trkpt>
<trkpt lat="46.033605" lon="13.481035">
<time>2021-07-18T09:32:38Z</time>
</trkpt>
<trkpt lat="46.033665" lon="13.481053">
<time>2021-07-18T09:32:39Z</time>
</trkpt>
<trkpt lat="46.033755" lon="13.48108">
<time>2021-07-18T09:32:40Z</time>
</trkpt>
<trkpt lat="46.033816" lon="13.481098">
<time>2021-07-18T09:32:41Z</time>
</trkpt>
<trkpt lat="46.033903" lon="13.481125">
<time>2021-07-18T09:32:42Z</time>
</trkpt>
<trkpt lat="46.033975" lon="13.481138">
<time>2021-07-18T09:32:43Z</time>
</trkpt>
<trkpt lat="46.03404" lon="13.48113">
<time>2021-07-18T09:32:44Z</time>
</trkpt>
<trkpt lat="46.034078" lon="13.481096">
<time>2021-07-18T09:32:45Z</time>
</trkpt>
<trkpt lat="46.034118" lon="13.481035">
<time>2021-07-18T09:32:46Z</time>
</trkpt>
<trkpt lat="46.034161" lon="13.480945">
<time>2021-07-18T09:32:47Z</time>
</trkpt>
<trkpt lat="46.03419" lon="13.480846">
<time>2021-07-18T09:32:48Z</time>
</trkpt>
<trkpt lat="46.034223" lon="13.480753">
<time>2021-07-18T09:32:49Z</time>
</trkpt>
<trkpt lat="46.034255" lon="13.480656">
<time>2021-07-18T09:32:50Z</time>
</trkpt>
<trkpt lat="46.034276" lon="13.480555">
<time>2021-07-18T09:32:51Z</time>
</trkpt>
<trkpt lat="46.034293" lon="13.480445">
<time>2021-07-18T09:32:52Z</time>
</trkpt>
<trkpt lat="46.034306" lon="13.480333">
<time>2021-07-18T09:32:53Z</time>
</trkpt>
<trkpt lat="46.03432" lon="13.480221">
<time>2021-07-18T09:32:54Z</time>
</trkpt>
<trkpt lat="46.034333" lon="13.480111">
<time>2021-07-18T09:32:55Z</time>
</trkpt>
<trkpt lat="46.034346" lon="13.480008">
<time>2021-07-18T09:32:56Z</time>
</trkpt>
<trkpt lat="46.03436" lon="13.479906">
<time>2021-07-18T09:32:57Z</time>
</trkpt>
<trkpt lat="46.034373" lon="13.479815">
<time>2021-07-18T09:32:58Z</time>
</trkpt>
<trkpt lat="46.03438" lon="13.479733">
<time>2021-07-18T09:32:59Z</time>
</trkpt>
<trkpt lat="46.034388" lon="13.479675">
<time>2021-07-18T09:33:00Z</time>
</trkpt>
<trkpt lat="46.034395" lon="13.479635">
<time>2021-07-18T09:33:01Z</time>
</trkpt>
<trkpt lat="46.034406" lon="13.479591">
<time>2021-07-18T09:33:02Z</time>
</trkpt>
<trkpt lat="46.034423" lon="13.479571">
<time>2021-07-18T09:33:03Z</time>
</trkpt>
<trkpt lat="46.03444" lon="13.479561">
<time>2021-07-18T09:33:04Z</time>
</trkpt>
<trkpt lat="46.034465" lon="13.47957">
<time>2021-07-18T09:33:05Z</time>
</trkpt>
<trkpt lat="46.034496" lon="13.47959">
<time>2021-07-18T09:33:06Z</time>
</trkpt>
<trkpt lat="46.034533" lon="13.47962">
<time>2021-07-18T09:33:07Z</time>
</trkpt>
<trkpt lat="46.034573" lon="13.479653">
<time>2021-07-18T09:33:08Z</time>
</trkpt>
<trkpt lat="46.034615" lon="13.47969">
<time>2021-07-18T09:33:09Z</time>
</trkpt>
<trkpt lat="46.034666" lon="13.479745">
<time>2021-07-18T09:33:10Z</time>
</trkpt>
<trkpt lat="46.03472" lon="13.479791">
<time>2021-07-18T09:33:11Z</time>
</trkpt>
<trkpt lat="46.034773" lon="13.479835">
<time>2021-07-18T09:33:12Z</time>
</trkpt>
<trkpt lat="46.034828" lon="13.479876">
<time>2021-07-18T09:33:13Z</time>
</trkpt>
<trkpt lat="46.034871" lon="13.479913">
<time>2021-07-18T09:33:14Z</time>
</trkpt>
<trkpt lat="46.034936" lon="13.479958">
<time>2021-07-18T09:33:15Z</time>
</trkpt>
<trkpt lat="46.034993" lon="13.479998">
<time>2021-07-18T09:33:16Z</time>
</trkpt>
<trkpt lat="46.03505" lon="13.480041">
<time>2021-07-18T09:33:17Z</time>
</trkpt>
<trkpt lat="46.035105" lon="13.480085">
<time>2021-07-18T09:33:18Z</time>
</trkpt>
<trkpt lat="46.03515" lon="13.48012">
<time>2021-07-18T09:33:19Z</time>
</trkpt>
<trkpt lat="46.035206" lon="13.480155">
<time>2021-07-18T09:33:20Z</time>
</trkpt>
<trkpt lat="46.03527" lon="13.480168">
<time>2021-07-18T09:33:21Z</time>
</trkpt>
<trkpt lat="46.035321" lon="13.480153">
<time>2021-07-18T09:33:22Z</time>
</trkpt>
<trkpt lat="46.03537" lon="13.480125">
<time>2021-07-18T09:33:23Z</time>
</trkpt>
<trkpt lat="46.03542" lon="13.48009">
<time>2021-07-18T09:33:24Z</time>
</trkpt>
<trkpt lat="46.03547" lon="13.48005">
<time>2021-07-18T09:33:25Z</time>
</trkpt>
<trkpt lat="46.035518" lon="13.480008">
<time>2021-07-18T09:33:26Z</time>
</trkpt>
<trkpt lat="46.035568" lon="13.479965">
<time>2021-07-18T09:33:27Z</time>
</trkpt>
<trkpt lat="46.035621" lon="13.479923">
<time>2021-07-18T09:33:28Z</time>
</trkpt>
<trkpt lat="46.035676" lon="13.479883">
<time>2021-07-18T09:33:29Z</time>
</trkpt>
<trkpt lat="46.035733" lon="13.479843">
<time>2021-07-18T09:33:30Z</time>
</trkpt>
<trkpt lat="46.035788" lon="13.479813">
<time>2021-07-18T09:33:31Z</time>
</trkpt>
<trkpt lat="46.035841" lon="13.479771">
<time>2021-07-18T09:33:32Z</time>
</trkpt>
<trkpt lat="46.035896" lon="13.479726">
<time>2021-07-18T09:33:33Z</time>
</trkpt>
<trkpt lat="46.035953" lon="13.47968">
<time>2021-07-18T09:33:34Z</time>
</trkpt>
<trkpt lat="46.036006" lon="13.479633">
<time>2021-07-18T09:33:35Z</time>
</trkpt>
<trkpt lat="46.03606" lon="13.479588">
<time>2021-07-18T09:33:36Z</time>
</trkpt>
<trkpt lat="46.036113" lon="13.479546">
<time>2021-07-18T09:33:37Z</time>
</trkpt>
<trkpt lat="46.036163" lon="13.479503">
<time>2021-07-18T09:33:38Z</time>
</trkpt>
<trkpt lat="46.036211" lon="13.479458">
<time>2021-07-18T09:33:39Z</time>
</trkpt>
<trkpt lat="46.036256" lon="13.479413">
<time>2021-07-18T09:33:40Z</time>
</trkpt>
<trkpt lat="46.0363" lon="13.479371">
<time>2021-07-18T09:33:41Z</time>
</trkpt>
<trkpt lat="46.036341" lon="13.479341">
<time>2021-07-18T09:33:42Z</time>
</trkpt>
<trkpt lat="46.036385" lon="13.479333">
<time>2021-07-18T09:33:43Z</time>
</trkpt>
<trkpt lat="46.036425" lon="13.47935">
<time>2021-07-18T09:33:44Z</time>
</trkpt>
<trkpt lat="46.036461" lon="13.479385">
<time>2021-07-18T09:33:45Z</time>
</trkpt>
<trkpt lat="46.036498" lon="13.47943">
<time>2021-07-18T09:33:46Z</time>
</trkpt>
<trkpt lat="46.036531" lon="13.479485">
<time>2021-07-18T09:33:47Z</time>
</trkpt>
<trkpt lat="46.036565" lon="13.479555">
<time>2021-07-18T09:33:48Z</time>
</trkpt>
<trkpt lat="46.036601" lon="13.479623">
<time>2021-07-18T09:33:49Z</time>
</trkpt>
<trkpt lat="46.036635" lon="13.479691">
<time>2021-07-18T09:33:50Z</time>
</trkpt>
<trkpt lat="46.036668" lon="13.47976">
<time>2021-07-18T09:33:51Z</time>
</trkpt>
<trkpt lat="46.036701" lon="13.479831">
<time>2021-07-18T09:33:52Z</time>
</trkpt>
<trkpt lat="46.036738" lon="13.479895">
<time>2021-07-18T09:33:53Z</time>
</trkpt>
<trkpt lat="46.036773" lon="13.479963">
<time>2021-07-18T09:33:54Z</time>
</trkpt>
<trkpt lat="46.03681" lon="13.480025">
<time>2021-07-18T09:33:55Z</time>
</trkpt>
<trkpt lat="46.036843" lon="13.480085">
<time>2021-07-18T09:33:56Z</time>
</trkpt>
<trkpt lat="46.036881" lon="13.480136">
<time>2021-07-18T09:33:57Z</time>
</trkpt>
<trkpt lat="46.036921" lon="13.48017">
<time>2021-07-18T09:33:58Z</time>
</trkpt>
<trkpt lat="46.036963" lon="13.480173">
<time>2021-07-18T09:33:59Z</time>
</trkpt>
<trkpt lat="46.03701" lon="13.48016">
<time>2021-07-18T09:34:00Z</time>
</trkpt>
<trkpt lat="46.03706" lon="13.480146">
<time>2021-07-18T09:34:01Z</time>
</trkpt>
<trkpt lat="46.03711" lon="13.48014">
<time>2021-07-18T09:34:02Z</time>
</trkpt>
<trkpt lat="46.03716" lon="13.48014">
<time>2021-07-18T09:34:03Z</time>
</trkpt>
<trkpt lat="46.037211" lon="13.480148">
<time>2021-07-18T09:34:04Z</time>
</trkpt>
<trkpt lat="46.037263" lon="13.480161">
<time>2021-07-18T09:34:05Z</time>
</trkpt>
<trkpt lat="46.037321" lon="13.48018">
<time>2021-07-18T09:34:06Z</time>
</trkpt>
<trkpt lat="46.037358" lon="13.4802">
<time>2021-07-18T09:34:07Z</time>
</trkpt>
<trkpt lat="46.037388" lon="13.480236">
<time>2021-07-18T09:34:08Z</time>
</trkpt>
<trkpt lat="46.037403" lon="13.480288">
<time>2021-07-18T09:34:09Z</time>
</trkpt>
<trkpt lat="46.037401" lon="13.48035">
<time>2021-07-18T09:34:10Z</time>
</trkpt>
<trkpt lat="46.037391" lon="13.480418">
<time>2021-07-18T09:34:11Z</time>
</trkpt>
<trkpt lat="46.03738" lon="13.48049">
<time>2021-07-18T09:34:12Z</time>
</trkpt>
<trkpt lat="46.037365" lon="13.480561">
<time>2021-07-18T09:34:13Z</time>
</trkpt>
<trkpt lat="46.03735" lon="13.480636">
<time>2021-07-18T09:34:14Z</time>
</trkpt>
<trkpt lat="46.037336" lon="13.480715">
<time>2021-07-18T09:34:15Z</time>
</trkpt>
<trkpt lat="46.037321" lon="13.480795">
<time>2021-07-18T09:34:16Z</time>
</trkpt>
<trkpt lat="46.037313" lon="13.480878">
<time>2021-07-18T09:34:17Z</time>
</trkpt>
<trkpt lat="46.037305" lon="13.480961">
<time>2021-07-18T09:34:18Z</time>
</trkpt>
<trkpt lat="46.037298" lon="13.481046">
<time>2021-07-18T09:34:19Z</time>
</trkpt>
<trkpt lat="46.037291" lon="13.481133">
<time>2021-07-18T09:34:20Z</time>
</trkpt>
<trkpt lat="46.037285" lon="13.481218">
<time>2021-07-18T09:34:21Z</time>
</trkpt>
<trkpt lat="46.037276" lon="13.481303">
<time>2021-07-18T09:34:22Z</time>
</trkpt>
<trkpt lat="46.037265" lon="13.48139">
<time>2021-07-18T09:34:23Z</time>
</trkpt>
<trkpt lat="46.037248" lon="13.481478">
<time>2021-07-18T09:34:24Z</time>
</trkpt>
<trkpt lat="46.037226" lon="13.481568">
<time>2021-07-18T09:34:25Z</time>
</trkpt>
<trkpt lat="46.037201" lon="13.481653">
<time>2021-07-18T09:34:26Z</time>
</trkpt>
<trkpt lat="46.037173" lon="13.481735">
<time>2021-07-18T09:34:27Z</time>
</trkpt>
<trkpt lat="46.037148" lon="13.481813">
<time>2021-07-18T09:34:28Z</time>
</trkpt>
<trkpt lat="46.037133" lon="13.481886">
<time>2021-07-18T09:34:29Z</time>
</trkpt>
<trkpt lat="46.037136" lon="13.48195">
<time>2021-07-18T09:34:30Z</time>
</trkpt>
<trkpt lat="46.03716" lon="13.482003">
<time>2021-07-18T09:34:31Z</time>
</trkpt>
<trkpt lat="46.037198" lon="13.482046">
<time>2021-07-18T09:34:32Z</time>
</trkpt>
<trkpt lat="46.037246" lon="13.482086">
<time>2021-07-18T09:34:33Z</time>
</trkpt>
<trkpt lat="46.0373" lon="13.482125">
<time>2021-07-18T09:34:34Z</time>
</trkpt>
<trkpt lat="46.037356" lon="13.482163">
<time>2021-07-18T09:34:35Z</time>
</trkpt>
<trkpt lat="46.037416" lon="13.482201">
<time>2021-07-18T09:34:36Z</time>
</trkpt>
<trkpt lat="46.037483" lon="13.482246">
<time>2021-07-18T09:34:37Z</time>
</trkpt>
<trkpt lat="46.037546" lon="13.482291">
<time>2021-07-18T09:34:38Z</time>
</trkpt>
<trkpt lat="46.037611" lon="13.482336">
<time>2021-07-18T09:34:39Z</time>
</trkpt>
<trkpt lat="46.037673" lon="13.48239">
<time>2021-07-18T09:34:40Z</time>
</trkpt>
<trkpt lat="46.037736" lon="13.482446">
<time>2021-07-18T09:34:41Z</time>
</trkpt>
<trkpt lat="46.0378" lon="13.482506">
<time>2021-07-18T09:34:42Z</time>
</trkpt>
<trkpt lat="46.037861" lon="13.482568">
<time>2021-07-18T09:34:43Z</time>
</trkpt>
<trkpt lat="46.037923" lon="13.482631">
<time>2021-07-18T09:34:44Z</time>
</trkpt>
<trkpt lat="46.037983" lon="13.482698">
<time>2021-07-18T09:34:45Z</time>
</trkpt>
<trkpt lat="46.038045" lon="13.482763">
<time>2021-07-18T09:34:46Z</time>
</trkpt>
<trkpt lat="46.038105" lon="13.482828">
<time>2021-07-18T09:34:47Z</time>
</trkpt>
<trkpt lat="46.038166" lon="13.482893">
<time>2021-07-18T09:34:48Z</time>
</trkpt>
<trkpt lat="46.038226" lon="13.482958">
<time>2021-07-18T09:34:49Z</time>
</trkpt>
<trkpt lat="46.038276" lon="13.48301">
<time>2021-07-18T09:34:50Z</time>
</trkpt>
<trkpt lat="46.038348" lon="13.483086">
<time>2021-07-18T09:34:51Z</time>
</trkpt>
<trkpt lat="46.038408" lon="13.48315">
<time>2021-07-18T09:34:52Z</time>
</trkpt>
<trkpt lat="46.038471" lon="13.483211">
<time>2021-07-18T09:34:53Z</time>
</trkpt>
<trkpt lat="46.038533" lon="13.483271">
<time>2021-07-18T09:34:54Z</time>
</trkpt>
<trkpt lat="46.038583" lon="13.483318">
<time>2021-07-18T09:34:55Z</time>
</trkpt>
<trkpt lat="46.038656" lon="13.483386">
<time>2021-07-18T09:34:56Z</time>
</trkpt>
<trkpt lat="46.03872" lon="13.483431">
<time>2021-07-18T09:34:57Z</time>
</trkpt>
<trkpt lat="46.03878" lon="13.483456">
<time>2021-07-18T09:34:58Z</time>
</trkpt>
<trkpt lat="46.038838" lon="13.483451">
<time>2021-07-18T09:34:59Z</time>
</trkpt>
<trkpt lat="46.03889" lon="13.483425">
<time>2021-07-18T09:35:00Z</time>
</trkpt>
<trkpt lat="46.038928" lon="13.483396">
<time>2021-07-18T09:35:01Z</time>
</trkpt>
<trkpt lat="46.03898" lon="13.483376">
<time>2021-07-18T09:35:02Z</time>
</trkpt>
<trkpt lat="46.039025" lon="13.483383">
<time>2021-07-18T09:35:03Z</time>
</trkpt>
<trkpt lat="46.039075" lon="13.483401">
<time>2021-07-18T09:35:04Z</time>
</trkpt>
<trkpt lat="46.03913" lon="13.483425">
<time>2021-07-18T09:35:05Z</time>
</trkpt>
<trkpt lat="46.039186" lon="13.483451">
<time>2021-07-18T09:35:06Z</time>
</trkpt>
<trkpt lat="46.039243" lon="13.483478">
<time>2021-07-18T09:35:07Z</time>
</trkpt>
<trkpt lat="46.039301" lon="13.48351">
<time>2021-07-18T09:35:08Z</time>
</trkpt>
<trkpt lat="46.039353" lon="13.483548">
<time>2021-07-18T09:35:09Z</time>
</trkpt>
<trkpt lat="46.039408" lon="13.483585">
<time>2021-07-18T09:35:10Z</time>
</trkpt>
<trkpt lat="46.039455" lon="13.483623">
<time>2021-07-18T09:35:11Z</time>
</trkpt>
<trkpt lat="46.039501" lon="13.483658">
<time>2021-07-18T09:35:12Z</time>
</trkpt>
<trkpt lat="46.039543" lon="13.48369">
<time>2021-07-18T09:35:13Z</time>
</trkpt>
<trkpt lat="46.039586" lon="13.483728">
<time>2021-07-18T09:35:14Z</time>
</trkpt>
<trkpt lat="46.039626" lon="13.483763">
<time>2021-07-18T09:35:15Z</time>
</trkpt>
<trkpt lat="46.039663" lon="13.483785">
<time>2021-07-18T09:35:16Z</time>
</trkpt>
<trkpt lat="46.03969" lon="13.483785">
<time>2021-07-18T09:35:17Z</time>
</trkpt>
<trkpt lat="46.03971" lon="13.483768">
<time>2021-07-18T09:35:18Z</time>
</trkpt>
<trkpt lat="46.039711" lon="13.48374">
<time>2021-07-18T09:35:19Z</time>
</trkpt>
<trkpt lat="46.039706" lon="13.483703">
<time>2021-07-18T09:35:20Z</time>
</trkpt>
<trkpt lat="46.0397" lon="13.48366">
<time>2021-07-18T09:35:21Z</time>
</trkpt>
<trkpt lat="46.039681" lon="13.4836">
<time>2021-07-18T09:35:22Z</time>
</trkpt>
<trkpt lat="46.039665" lon="13.483543">
<time>2021-07-18T09:35:23Z</time>
</trkpt>
<trkpt lat="46.03965" lon="13.483485">
<time>2021-07-18T09:35:24Z</time>
</trkpt>
<trkpt lat="46.039638" lon="13.48343">
<time>2021-07-18T09:35:25Z</time>
</trkpt>
<trkpt lat="46.03963" lon="13.48338">
<time>2021-07-18T09:35:26Z</time>
</trkpt>
<trkpt lat="46.039625" lon="13.483328">
<time>2021-07-18T09:35:27Z</time>
</trkpt>
<trkpt lat="46.039625" lon="13.483278">
<time>2021-07-18T09:35:28Z</time>
</trkpt>
<trkpt lat="46.039628" lon="13.483233">
<time>2021-07-18T09:35:29Z</time>
</trkpt>
<trkpt lat="46.039635" lon="13.483188">
<time>2021-07-18T09:35:30Z</time>
</trkpt>
<trkpt lat="46.039646" lon="13.483145">
<time>2021-07-18T09:35:31Z</time>
</trkpt>
<trkpt lat="46.03966" lon="13.483095">
<time>2021-07-18T09:35:32Z</time>
</trkpt>
<trkpt lat="46.039675" lon="13.483035">
<time>2021-07-18T09:35:33Z</time>
</trkpt>
<trkpt lat="46.039693" lon="13.482971">
<time>2021-07-18T09:35:34Z</time>
</trkpt>
<trkpt lat="46.039715" lon="13.482911">
<time>2021-07-18T09:35:35Z</time>
</trkpt>
<trkpt lat="46.039745" lon="13.482853">
<time>2021-07-18T09:35:36Z</time>
</trkpt>
<trkpt lat="46.039775" lon="13.482796">
<time>2021-07-18T09:35:37Z</time>
</trkpt>
<trkpt lat="46.039813" lon="13.482745">
<time>2021-07-18T09:35:38Z</time>
</trkpt>
<trkpt lat="46.039848" lon="13.482711">
<time>2021-07-18T09:35:39Z</time>
</trkpt>
<trkpt lat="46.039901" lon="13.482666">
<time>2021-07-18T09:35:40Z</time>
</trkpt>
<trkpt lat="46.039948" lon="13.482631">
<time>2021-07-18T09:35:41Z</time>
</trkpt>
<trkpt lat="46.039995" lon="13.4826">
<time>2021-07-18T09:35:42Z</time>
</trkpt>
<trkpt lat="46.040043" lon="13.482566">
<time>2021-07-18T09:35:43Z</time>
</trkpt>
<trkpt lat="46.040093" lon="13.482536">
<time>2021-07-18T09:35:44Z</time>
</trkpt>
<trkpt lat="46.040143" lon="13.482505">
<time>2021-07-18T09:35:45Z</time>
</trkpt>
<trkpt lat="46.040195" lon="13.48248">
<time>2021-07-18T09:35:46Z</time>
</trkpt>
<trkpt lat="46.040248" lon="13.482458">
<time>2021-07-18T09:35:47Z</time>
</trkpt>
<trkpt lat="46.040301" lon="13.48244">
<time>2021-07-18T09:35:48Z</time>
</trkpt>
<trkpt lat="46.040355" lon="13.482428">
<time>2021-07-18T09:35:49Z</time>
</trkpt>
<trkpt lat="46.04041" lon="13.482418">
<time>2021-07-18T09:35:50Z</time>
</trkpt>
<trkpt lat="46.040466" lon="13.48241">
<time>2021-07-18T09:35:51Z</time>
</trkpt>
<trkpt lat="46.040523" lon="13.4824">
<time>2021-07-18T09:35:52Z</time>
</trkpt>
<trkpt lat="46.04058" lon="13.48239">
<time>2021-07-18T09:35:53Z</time>
</trkpt>
<trkpt lat="46.040636" lon="13.482381">
<time>2021-07-18T09:35:54Z</time>
</trkpt>
<trkpt lat="46.040691" lon="13.482381">
<time>2021-07-18T09:35:55Z</time>
</trkpt>
<trkpt lat="46.040738" lon="13.482388">
<time>2021-07-18T09:35:56Z</time>
</trkpt>
<trkpt lat="46.040771" lon="13.48241">
<time>2021-07-18T09:35:57Z</time>
</trkpt>
<trkpt lat="46.040798" lon="13.48243">
<time>2021-07-18T09:35:58Z</time>
</trkpt>
<trkpt lat="46.040816" lon="13.48244">
<time>2021-07-18T09:35:59Z</time>
</trkpt>
<trkpt lat="46.040828" lon="13.482438">
<time>2021-07-18T09:36:00Z</time>
</trkpt>
<trkpt lat="46.040838" lon="13.482418">
<time>2021-07-18T09:36:01Z</time>
</trkpt>
<trkpt lat="46.040855" lon="13.48239">
<time>2021-07-18T09:36:02Z</time>
</trkpt>
<trkpt lat="46.040876" lon="13.482353">
<time>2021-07-18T09:36:03Z</time>
</trkpt>
<trkpt lat="46.040903" lon="13.482316">
<time>2021-07-18T09:36:04Z</time>
</trkpt>
<trkpt lat="46.040936" lon="13.482285">
<time>2021-07-18T09:36:05Z</time>
</trkpt>
<trkpt lat="46.040973" lon="13.482255">
<time>2021-07-18T09:36:06Z</time>
</trkpt>
<trkpt lat="46.041005" lon="13.482215">
<time>2021-07-18T09:36:07Z</time>
</trkpt>
<trkpt lat="46.041036" lon="13.482183">
<time>2021-07-18T09:36:08Z</time>
</trkpt>
<trkpt lat="46.041068" lon="13.482166">
<time>2021-07-18T09:36:09Z</time>
</trkpt>
<trkpt lat="46.041098" lon="13.48217">
<time>2021-07-18T09:36:10Z</time>
</trkpt>
<trkpt lat="46.04113" lon="13.482198">
<time>2021-07-18T09:36:11Z</time>
</trkpt>
<trkpt lat="46.04116" lon="13.48225">
<time>2021-07-18T09:36:12Z</time>
</trkpt>
<trkpt lat="46.041186" lon="13.48232">
<time>2021-07-18T09:36:13Z</time>
</trkpt>
<trkpt lat="46.041215" lon="13.482396">
<time>2021-07-18T09:36:14Z</time>
</trkpt>
<trkpt lat="46.041245" lon="13.482481">
<time>2021-07-18T09:36:15Z</time>
</trkpt>
<trkpt lat="46.041276" lon="13.482568">
<time>2021-07-18T09:36:16Z</time>
</trkpt>
<trkpt lat="46.04131" lon="13.482655">
<time>2021-07-18T09:36:17Z</time>
</trkpt>
<trkpt lat="46.041345" lon="13.482738">
<time>2021-07-18T09:36:18Z</time>
</trkpt>
<trkpt lat="46.041381" lon="13.482815">
<time>2021-07-18T09:36:19Z</time>
</trkpt>
<trkpt lat="46.041426" lon="13.482878">
<time>2021-07-18T09:36:20Z</time>
</trkpt>
<trkpt lat="46.041478" lon="13.482923">
<time>2021-07-18T09:36:21Z</time>
</trkpt>
<trkpt lat="46.041526" lon="13.48294">
<time>2021-07-18T09:36:22Z</time>
</trkpt>
<trkpt lat="46.04158" lon="13.48293">
<time>2021-07-18T09:36:23Z</time>
</trkpt>
<trkpt lat="46.041636" lon="13.482898">
<time>2021-07-18T09:36:24Z</time>
</trkpt>
<trkpt lat="46.041695" lon="13.482853">
<time>2021-07-18T09:36:25Z</time>
</trkpt>
<trkpt lat="46.041753" lon="13.482806">
<time>2021-07-18T09:36:26Z</time>
</trkpt>
<trkpt lat="46.04182" lon="13.482755">
<time>2021-07-18T09:36:27Z</time>
</trkpt>
<trkpt lat="46.04188" lon="13.482703">
<time>2021-07-18T09:36:28Z</time>
</trkpt>
<trkpt lat="46.041943" lon="13.48265">
<time>2021-07-18T09:36:29Z</time>
</trkpt>
<trkpt lat="46.042008" lon="13.4826">
<time>2021-07-18T09:36:30Z</time>
</trkpt>
<trkpt lat="46.042071" lon="13.482551">
<time>2021-07-18T09:36:31Z</time>
</trkpt>
<trkpt lat="46.042138" lon="13.482503">
<time>2021-07-18T09:36:32Z</time>
</trkpt>
<trkpt lat="46.042203" lon="13.482453">
<time>2021-07-18T09:36:33Z</time>
</trkpt>
<trkpt lat="46.042271" lon="13.482405">
<time>2021-07-18T09:36:34Z</time>
</trkpt>
<trkpt lat="46.042336" lon="13.482356">
<time>2021-07-18T09:36:35Z</time>
</trkpt>
<trkpt lat="46.042405" lon="13.482311">
<time>2021-07-18T09:36:36Z</time>
</trkpt>
<trkpt lat="46.042466" lon="13.482256">
<time>2021-07-18T09:36:37Z</time>
</trkpt>
<trkpt lat="46.042526" lon="13.482203">
<time>2021-07-18T09:36:38Z</time>
</trkpt>
<trkpt lat="46.042586" lon="13.482146">
<time>2021-07-18T09:36:39Z</time>
</trkpt>
<trkpt lat="46.042648" lon="13.482095">
<time>2021-07-18T09:36:40Z</time>
</trkpt>
<trkpt lat="46.042711" lon="13.482046">
<time>2021-07-18T09:36:41Z</time>
</trkpt>
<trkpt lat="46.042773" lon="13.482001">
<time>2021-07-18T09:36:42Z</time>
</trkpt>
<trkpt lat="46.042835" lon="13.481953">
<time>2021-07-18T09:36:43Z</time>
</trkpt>
<trkpt lat="46.042885" lon="13.481893">
<time>2021-07-18T09:36:44Z</time>
</trkpt>
<trkpt lat="46.04292" lon="13.481823">
<time>2021-07-18T09:36:45Z</time>
</trkpt>
<trkpt lat="46.042945" lon="13.481745">
<time>2021-07-18T09:36:46Z</time>
</trkpt>
<trkpt lat="46.042958" lon="13.481681">
<time>2021-07-18T09:36:47Z</time>
</trkpt>
<trkpt lat="46.042976" lon="13.481586">
<time>2021-07-18T09:36:48Z</time>
</trkpt>
<trkpt lat="46.04299" lon="13.481508">
<time>2021-07-18T09:36:49Z</time>
</trkpt>
<trkpt lat="46.043003" lon="13.481431">
<time>2021-07-18T09:36:50Z</time>
</trkpt>
<trkpt lat="46.043015" lon="13.481351">
<time>2021-07-18T09:36:51Z</time>
</trkpt>
<trkpt lat="46.04303" lon="13.481268">
<time>2021-07-18T09:36:52Z</time>
</trkpt>
<trkpt lat="46.043045" lon="13.481186">
<time>2021-07-18T09:36:53Z</time>
</trkpt>
<trkpt lat="46.043058" lon="13.481101">
<time>2021-07-18T09:36:54Z</time>
</trkpt>
<trkpt lat="46.043066" lon="13.481013">
<time>2021-07-18T09:36:55Z</time>
</trkpt>
<trkpt lat="46.043076" lon="13.480925">
<time>2021-07-18T09:36:56Z</time>
</trkpt>
<trkpt lat="46.043085" lon="13.480835">
<time>2021-07-18T09:36:57Z</time>
</trkpt>
<trkpt lat="46.043096" lon="13.480746">
<time>2021-07-18T09:36:58Z</time>
</trkpt>
<trkpt lat="46.04311" lon="13.480658">
<time>2021-07-18T09:36:59Z</time>
</trkpt>
<trkpt lat="46.043121" lon="13.48057">
<time>2021-07-18T09:37:00Z</time>
</trkpt>
<trkpt lat="46.043131" lon="13.48048">
<time>2021-07-18T09:37:01Z</time>
</trkpt>
<trkpt lat="46.043141" lon="13.480411">
<time>2021-07-18T09:37:02Z</time>
</trkpt>
<trkpt lat="46.043156" lon="13.480306">
<time>2021-07-18T09:37:03Z</time>
</trkpt>
<trkpt lat="46.043168" lon="13.48022">
<time>2021-07-18T09:37:04Z</time>
</trkpt>
<trkpt lat="46.043181" lon="13.480133">
<time>2021-07-18T09:37:05Z</time>
</trkpt>
<trkpt lat="46.043195" lon="13.480046">
<time>2021-07-18T09:37:06Z</time>
</trkpt>
<trkpt lat="46.043205" lon="13.479978">
<time>2021-07-18T09:37:07Z</time>
</trkpt>
<trkpt lat="46.04322" lon="13.479875">
<time>2021-07-18T09:37:08Z</time>
</trkpt>
<trkpt lat="46.04323" lon="13.479786">
<time>2021-07-18T09:37:09Z</time>
</trkpt>
<trkpt lat="46.043243" lon="13.479701">
<time>2021-07-18T09:37:10Z</time>
</trkpt>
<trkpt lat="46.043255" lon="13.479616">
<time>2021-07-18T09:37:11Z</time>
</trkpt>
<trkpt lat="46.043268" lon="13.479533">
<time>2021-07-18T09:37:12Z</time>
</trkpt>
<trkpt lat="46.04328" lon="13.47945">
<time>2021-07-18T09:37:13Z</time>
</trkpt>
<trkpt lat="46.043293" lon="13.47937">
<time>2021-07-18T09:37:14Z</time>
</trkpt>
<trkpt lat="46.043305" lon="13.47929">
<time>2021-07-18T09:37:15Z</time>
</trkpt>
<trkpt lat="46.043313" lon="13.479211">
<time>2021-07-18T09:37:16Z</time>
</trkpt>
<trkpt lat="46.04332" lon="13.479133">
<time>2021-07-18T09:37:17Z</time>
</trkpt>
<trkpt lat="46.04333" lon="13.479058">
<time>2021-07-18T09:37:18Z</time>
</trkpt>
<trkpt lat="46.043348" lon="13.47899">
<time>2021-07-18T09:37:19Z</time>
</trkpt>
<trkpt lat="46.043375" lon="13.478926">
<time>2021-07-18T09:37:20Z</time>
</trkpt>
<trkpt lat="46.043411" lon="13.478876">
<time>2021-07-18T09:37:21Z</time>
</trkpt>
<trkpt lat="46.04345" lon="13.478828">
<time>2021-07-18T09:37:22Z</time>
</trkpt>
<trkpt lat="46.043491" lon="13.47878">
<time>2021-07-18T09:37:23Z</time>
</trkpt>
<trkpt lat="46.043533" lon="13.478735">
<time>2021-07-18T09:37:24Z</time>
</trkpt>
<trkpt lat="46.043576" lon="13.478688">
<time>2021-07-18T09:37:25Z</time>
</trkpt>
<trkpt lat="46.04362" lon="13.478643">
<time>2021-07-18T09:37:26Z</time>
</trkpt>
<trkpt lat="46.043658" lon="13.478598">
<time>2021-07-18T09:37:27Z</time>
</trkpt>
<trkpt lat="46.043686" lon="13.478555">
<time>2021-07-18T09:37:28Z</time>
</trkpt>
<trkpt lat="46.043698" lon="13.478506">
<time>2021-07-18T09:37:29Z</time>
</trkpt>
<trkpt lat="46.043696" lon="13.47845">
<time>2021-07-18T09:37:30Z</time>
</trkpt>
<trkpt lat="46.043688" lon="13.478386">
<time>2021-07-18T09:37:31Z</time>
</trkpt>
<trkpt lat="46.043678" lon="13.478318">
<time>2021-07-18T09:37:32Z</time>
</trkpt>
<trkpt lat="46.043675" lon="13.478246">
<time>2021-07-18T09:37:33Z</time>
</trkpt>
<trkpt lat="46.043685" lon="13.478178">
<time>2021-07-18T09:37:34Z</time>
</trkpt>
<trkpt lat="46.043706" lon="13.478113">
<time>2021-07-18T09:37:35Z</time>
</trkpt>
<trkpt lat="46.043738" lon="13.478051">
<time>2021-07-18T09:37:36Z</time>
</trkpt>
<trkpt lat="46.043783" lon="13.477998">
<time>2021-07-18T09:37:37Z</time>
</trkpt>
<trkpt lat="46.043835" lon="13.477955">
<time>2021-07-18T09:37:38Z</time>
</trkpt>
<trkpt lat="46.043891" lon="13.47792">
<time>2021-07-18T09:37:39Z</time>
</trkpt>
<trkpt lat="46.043953" lon="13.477888">
<time>2021-07-18T09:37:40Z</time>
</trkpt>
<trkpt lat="46.044018" lon="13.477865">
<time>2021-07-18T09:37:41Z</time>
</trkpt>
<trkpt lat="46.044086" lon="13.47785">
<time>2021-07-18T09:37:42Z</time>
</trkpt>
<trkpt lat="46.044155" lon="13.477843">
<time>2021-07-18T09:37:43Z</time>
</trkpt>
<trkpt lat="46.044225" lon="13.477846">
<time>2021-07-18T09:37:44Z</time>
</trkpt>
<trkpt lat="46.044296" lon="13.477851">
<time>2021-07-18T09:37:45Z</time>
</trkpt>
<trkpt lat="46.044361" lon="13.477863">
<time>2021-07-18T09:37:46Z</time>
</trkpt>
<trkpt lat="46.044431" lon="13.477878">
<time>2021-07-18T09:37:47Z</time>
</trkpt>
<trkpt lat="46.044501" lon="13.477896">
<time>2021-07-18T09:37:48Z</time>
</trkpt>
<trkpt lat="46.044576" lon="13.477915">
<time>2021-07-18T09:37:49Z</time>
</trkpt>
<trkpt lat="46.044651" lon="13.477933">
<time>2021-07-18T09:37:50Z</time>
</trkpt>
<trkpt lat="46.044726" lon="13.477951">
<time>2021-07-18T09:37:51Z</time>
</trkpt>
<trkpt lat="46.0448" lon="13.477973">
<time>2021-07-18T09:37:52Z</time>
</trkpt>
<trkpt lat="46.044873" lon="13.477995">
<time>2021-07-18T09:37:53Z</time>
</trkpt>
<trkpt lat="46.044943" lon="13.478018">
<time>2021-07-18T09:37:54Z</time>
</trkpt>
<trkpt lat="46.045013" lon="13.478041">
<time>2021-07-18T09:37:55Z</time>
</trkpt>
<trkpt lat="46.045088" lon="13.478068">
<time>2021-07-18T09:37:56Z</time>
</trkpt>
<trkpt lat="46.04516" lon="13.4781">
<time>2021-07-18T09:37:57Z</time>
</trkpt>
<trkpt lat="46.045228" lon="13.478131">
<time>2021-07-18T09:37:58Z</time>
</trkpt>
<trkpt lat="46.045296" lon="13.478168">
<time>2021-07-18T09:37:59Z</time>
</trkpt>
<trkpt lat="46.045363" lon="13.4782">
<time>2021-07-18T09:38:00Z</time>
</trkpt>
<trkpt lat="46.045428" lon="13.478226">
<time>2021-07-18T09:38:01Z</time>
</trkpt>
<trkpt lat="46.045495" lon="13.478256">
<time>2021-07-18T09:38:02Z</time>
</trkpt>
<trkpt lat="46.045558" lon="13.478283">
<time>2021-07-18T09:38:03Z</time>
</trkpt>
<trkpt lat="46.045616" lon="13.478306">
<time>2021-07-18T09:38:04Z</time>
</trkpt>
<trkpt lat="46.045671" lon="13.478325">
<time>2021-07-18T09:38:05Z</time>
</trkpt>
<trkpt lat="46.045718" lon="13.478331">
<time>2021-07-18T09:38:06Z</time>
</trkpt>
<trkpt lat="46.04575" lon="13.478325">
<time>2021-07-18T09:38:07Z</time>
</trkpt>
<trkpt lat="46.045768" lon="13.478311">
<time>2021-07-18T09:38:08Z</time>
</trkpt>
<trkpt lat="46.045775" lon="13.4783">
<time>2021-07-18T09:38:09Z</time>
</trkpt>
<trkpt lat="46.045773" lon="13.478288">
<time>2021-07-18T09:38:10Z</time>
</trkpt>
<trkpt lat="46.045768" lon="13.478271">
<time>2021-07-18T09:38:11Z</time>
</trkpt>
<trkpt lat="46.045761" lon="13.47825">
<time>2021-07-18T09:38:12Z</time>
</trkpt>
<trkpt lat="46.045753" lon="13.478215">
<time>2021-07-18T09:38:13Z</time>
</trkpt>
<trkpt lat="46.045746" lon="13.478175">
<time>2021-07-18T09:38:14Z</time>
</trkpt>
<trkpt lat="46.045738" lon="13.478128">
<time>2021-07-18T09:38:15Z</time>
</trkpt>
<trkpt lat="46.045728" lon="13.478071">
<time>2021-07-18T09:38:16Z</time>
</trkpt>
<trkpt lat="46.045718" lon="13.478006">
<time>2021-07-18T09:38:17Z</time>
</trkpt>
<trkpt lat="46.045711" lon="13.477931">
<time>2021-07-18T09:38:18Z</time>
</trkpt>
<trkpt lat="46.045713" lon="13.477853">
<time>2021-07-18T09:38:19Z</time>
</trkpt>
<trkpt lat="46.045721" lon="13.477768">
<time>2021-07-18T09:38:20Z</time>
</trkpt>
<trkpt lat="46.045745" lon="13.477676">
<time>2021-07-18T09:38:21Z</time>
</trkpt>
<trkpt lat="46.045785" lon="13.477576">
<time>2021-07-18T09:38:22Z</time>
</trkpt>
<trkpt lat="46.04584" lon="13.477486">
<time>2021-07-18T09:38:23Z</time>
</trkpt>
<trkpt lat="46.045906" lon="13.477421">
<time>2021-07-18T09:38:24Z</time>
</trkpt>
<trkpt lat="46.045981" lon="13.477371">
<time>2021-07-18T09:38:25Z</time>
</trkpt>
<trkpt lat="46.04606" lon="13.477331">
<time>2021-07-18T09:38:26Z</time>
</trkpt>
<trkpt lat="46.04614" lon="13.477295">
<time>2021-07-18T09:38:27Z</time>
</trkpt>
<trkpt lat="46.046218" lon="13.47726">
<time>2021-07-18T09:38:28Z</time>
</trkpt>
<trkpt lat="46.0463" lon="13.477226">
<time>2021-07-18T09:38:29Z</time>
</trkpt>
<trkpt lat="46.046381" lon="13.477191">
<time>2021-07-18T09:38:30Z</time>
</trkpt>
<trkpt lat="46.046461" lon="13.477155">
<time>2021-07-18T09:38:31Z</time>
</trkpt>
<trkpt lat="46.046543" lon="13.477116">
<time>2021-07-18T09:38:32Z</time>
</trkpt>
<trkpt lat="46.04662" lon="13.477066">
<time>2021-07-18T09:38:33Z</time>
</trkpt>
<trkpt lat="46.046693" lon="13.477006">
<time>2021-07-18T09:38:34Z</time>
</trkpt>
<trkpt lat="46.046766" lon="13.476933">
<time>2021-07-18T09:38:35Z</time>
</trkpt>
<trkpt lat="46.04683" lon="13.476861">
<time>2021-07-18T09:38:36Z</time>
</trkpt>
<trkpt lat="46.046906" lon="13.47678">
<time>2021-07-18T09:38:37Z</time>
</trkpt>
<trkpt lat="46.046958" lon="13.476723">
<time>2021-07-18T09:38:38Z</time>
</trkpt>
<trkpt lat="46.047023" lon="13.476656">
<time>2021-07-18T09:38:39Z</time>
</trkpt>
<trkpt lat="46.04709" lon="13.476593">
<time>2021-07-18T09:38:40Z</time>
</trkpt>
<trkpt lat="46.047156" lon="13.47653">
<time>2021-07-18T09:38:41Z</time>
</trkpt>
<trkpt lat="46.047223" lon="13.476466">
<time>2021-07-18T09:38:42Z</time>
</trkpt>
<trkpt lat="46.047285" lon="13.476395">
<time>2021-07-18T09:38:43Z</time>
</trkpt>
<trkpt lat="46.047338" lon="13.476313">
<time>2021-07-18T09:38:44Z</time>
</trkpt>
<trkpt lat="46.047388" lon="13.476228">
<time>2021-07-18T09:38:45Z</time>
</trkpt>
<trkpt lat="46.047436" lon="13.476126">
<time>2021-07-18T09:38:46Z</time>
</trkpt>
<trkpt lat="46.047488" lon="13.476031">
<time>2021-07-18T09:38:47Z</time>
</trkpt>
<trkpt lat="46.04754" lon="13.475945">
<time>2021-07-18T09:38:48Z</time>
</trkpt>
<trkpt lat="46.047591" lon="13.475858">
<time>2021-07-18T09:38:49Z</time>
</trkpt>
<trkpt lat="46.047648" lon="13.475776">
<time>2021-07-18T09:38:50Z</time>
</trkpt>
<trkpt lat="46.047701" lon="13.475695">
<time>2021-07-18T09:38:51Z</time>
</trkpt>
<trkpt lat="46.047753" lon="13.475611">
<time>2021-07-18T09:38:52Z</time>
</trkpt>
<trkpt lat="46.0478" lon="13.475523">
<time>2021-07-18T09:38:53Z</time>
</trkpt>
<trkpt lat="46.047846" lon="13.475443">
<time>2021-07-18T09:38:54Z</time>
</trkpt>
<trkpt lat="46.047901" lon="13.475348">
<time>2021-07-18T09:38:55Z</time>
</trkpt>
<trkpt lat="46.047936" lon="13.475285">
<time>2021-07-18T09:38:56Z</time>
</trkpt>
<trkpt lat="46.047978" lon="13.475203">
<time>2021-07-18T09:38:57Z</time>
</trkpt>
<trkpt lat="46.04802" lon="13.475123">
<time>2021-07-18T09:38:58Z</time>
</trkpt>
<trkpt lat="46.048061" lon="13.475041">
<time>2021-07-18T09:38:59Z</time>
</trkpt>
<trkpt lat="46.0481" lon="13.47496">
<time>2021-07-18T09:39:00Z</time>
</trkpt>
<trkpt lat="46.048136" lon="13.474878">
<time>2021-07-18T09:39:01Z</time>
</trkpt>
<trkpt lat="46.048173" lon="13.474795">
<time>2021-07-18T09:39:02Z</time>
</trkpt>
<trkpt lat="46.048211" lon="13.474716">
<time>2021-07-18T09:39:03Z</time>
</trkpt>
<trkpt lat="46.048253" lon="13.474638">
<time>2021-07-18T09:39:04Z</time>
</trkpt>
<trkpt lat="46.048303" lon="13.474551">
<time>2021-07-18T09:39:05Z</time>
</trkpt>
<trkpt lat="46.048338" lon="13.474496">
<time>2021-07-18T09:39:06Z</time>
</trkpt>
<trkpt lat="46.048381" lon="13.47443">
<time>2021-07-18T09:39:07Z</time>
</trkpt>
<trkpt lat="46.04843" lon="13.474371">
<time>2021-07-18T09:39:08Z</time>
</trkpt>
<trkpt lat="46.048483" lon="13.47432">
<time>2021-07-18T09:39:09Z</time>
</trkpt>
<trkpt lat="46.048541" lon="13.474273">
<time>2021-07-18T09:39:10Z</time>
</trkpt>
<trkpt lat="46.048613" lon="13.474218">
<time>2021-07-18T09:39:11Z</time>
</trkpt>
<trkpt lat="46.04866" lon="13.474183">
<time>2021-07-18T09:39:12Z</time>
</trkpt>
<trkpt lat="46.048718" lon="13.474133">
<time>2021-07-18T09:39:13Z</time>
</trkpt>
<trkpt lat="46.048771" lon="13.47408">
<time>2021-07-18T09:39:14Z</time>
</trkpt>
<trkpt lat="46.048826" lon="13.474023">
<time>2021-07-18T09:39:15Z</time>
</trkpt>
<trkpt lat="46.04888" lon="13.473966">
<time>2021-07-18T09:39:16Z</time>
</trkpt>
<trkpt lat="46.04893" lon="13.473906">
<time>2021-07-18T09:39:17Z</time>
</trkpt>
<trkpt lat="46.048976" lon="13.473843">
<time>2021-07-18T09:39:18Z</time>
</trkpt>
<trkpt lat="46.049021" lon="13.473778">
<time>2021-07-18T09:39:19Z</time>
</trkpt>
<trkpt lat="46.049065" lon="13.473713">
<time>2021-07-18T09:39:20Z</time>
</trkpt>
<trkpt lat="46.049108" lon="13.473646">
<time>2021-07-18T09:39:21Z</time>
</trkpt>
<trkpt lat="46.049153" lon="13.47358">
<time>2021-07-18T09:39:22Z</time>
</trkpt>
<trkpt lat="46.049196" lon="13.473513">
<time>2021-07-18T09:39:23Z</time>
</trkpt>
<trkpt lat="46.04924" lon="13.473446">
<time>2021-07-18T09:39:24Z</time>
</trkpt>
<trkpt lat="46.049281" lon="13.473381">
<time>2021-07-18T09:39:25Z</time>
</trkpt>
<trkpt lat="46.049326" lon="13.473316">
<time>2021-07-18T09:39:26Z</time>
</trkpt>
<trkpt lat="46.04937" lon="13.473256">
<time>2021-07-18T09:39:27Z</time>
</trkpt>
<trkpt lat="46.049413" lon="13.473195">
<time>2021-07-18T09:39:28Z</time>
</trkpt>
<trkpt lat="46.049456" lon="13.473136">
<time>2021-07-18T09:39:29Z</time>
</trkpt>
<trkpt lat="46.049498" lon="13.473081">
<time>2021-07-18T09:39:30Z</time>
</trkpt>
<trkpt lat="46.049541" lon="13.47303">
<time>2021-07-18T09:39:31Z</time>
</trkpt>
<trkpt lat="46.04958" lon="13.472983">
<time>2021-07-18T09:39:32Z</time>
</trkpt>
<trkpt lat="46.049606" lon="13.472931">
<time>2021-07-18T09:39:33Z</time>
</trkpt>
<trkpt lat="46.049625" lon="13.472881">
<time>2021-07-18T09:39:34Z</time>
</trkpt>
<trkpt lat="46.049628" lon="13.472833">
<time>2021-07-18T09:39:35Z</time>
</trkpt>
<trkpt lat="46.049625" lon="13.472791">
<time>2021-07-18T09:39:36Z</time>
</trkpt>
<trkpt lat="46.049618" lon="13.472756">
<time>2021-07-18T09:39:37Z</time>
</trkpt>
<trkpt lat="46.049613" lon="13.472726">
<time>2021-07-18T09:39:38Z</time>
</trkpt>
<trkpt lat="46.049606" lon="13.4727">
<time>2021-07-18T09:39:39Z</time>
</trkpt>
<trkpt lat="46.0496" lon="13.472673">
<time>2021-07-18T09:39:40Z</time>
</trkpt>
<trkpt lat="46.049596" lon="13.472653">
<time>2021-07-18T09:39:41Z</time>
</trkpt>
<trkpt lat="46.049595" lon="13.472635">
<time>2021-07-18T09:39:42Z</time>
</trkpt>
<trkpt lat="46.049591" lon="13.472618">
<time>2021-07-18T09:39:43Z</time>
</trkpt>
<trkpt lat="46.049588" lon="13.472603">
<time>2021-07-18T09:39:44Z</time>
</trkpt>
<trkpt lat="46.049583" lon="13.47259">
<time>2021-07-18T09:39:45Z</time>
</trkpt>
<trkpt lat="46.049578" lon="13.472575">
<time>2021-07-18T09:39:46Z</time>
</trkpt>
<trkpt lat="46.049575" lon="13.47256">
<time>2021-07-18T09:39:47Z</time>
</trkpt>
<trkpt lat="46.049571" lon="13.472543">
<time>2021-07-18T09:39:48Z</time>
</trkpt>
<trkpt lat="46.049568" lon="13.472528">
<time>2021-07-18T09:39:49Z</time>
</trkpt>
<trkpt lat="46.049565" lon="13.472518">
<time>2021-07-18T09:39:50Z</time>
</trkpt>
<trkpt lat="46.049561" lon="13.472506">
<time>2021-07-18T09:39:51Z</time>
</trkpt>
<trkpt lat="46.049556" lon="13.472496">
<time>2021-07-18T09:39:52Z</time>
</trkpt>
<trkpt lat="46.049553" lon="13.472485">
<time>2021-07-18T09:39:53Z</time>
</trkpt>
<trkpt lat="46.04955" lon="13.472471">
<time>2021-07-18T09:39:54Z</time>
</trkpt>
<trkpt lat="46.049545" lon="13.472456">
<time>2021-07-18T09:39:55Z</time>
</trkpt>
<trkpt lat="46.049541" lon="13.472443">
<time>2021-07-18T09:39:56Z</time>
</trkpt>
<trkpt lat="46.049536" lon="13.472431">
<time>2021-07-18T09:39:57Z</time>
</trkpt>
<trkpt lat="46.049531" lon="13.47242">
<time>2021-07-18T09:39:58Z</time>
</trkpt>
<trkpt lat="46.049525" lon="13.472406">
<time>2021-07-18T09:39:59Z</time>
</trkpt>
<trkpt lat="46.049523" lon="13.472395">
<time>2021-07-18T09:40:00Z</time>
</trkpt>
<trkpt lat="46.049521" lon="13.472381">
<time>2021-07-18T09:40:01Z</time>
</trkpt>
<trkpt lat="46.049523" lon="13.472365">
<time>2021-07-18T09:40:02Z</time>
</trkpt>
<trkpt lat="46.049523" lon="13.472348">
<time>2021-07-18T09:40:03Z</time>
</trkpt>
<trkpt lat="46.049521" lon="13.472328">
<time>2021-07-18T09:40:04Z</time>
</trkpt>
<trkpt lat="46.049523" lon="13.472313">
<time>2021-07-18T09:40:05Z</time>
</trkpt>
<trkpt lat="46.049523" lon="13.4723">
<time>2021-07-18T09:40:06Z</time>
</trkpt>
<trkpt lat="46.049523" lon="13.472285">
<time>2021-07-18T09:40:07Z</time>
</trkpt>
<trkpt lat="46.049525" lon="13.47227">
<time>2021-07-18T09:40:08Z</time>
</trkpt>
<trkpt lat="46.049523" lon="13.472253">
<time>2021-07-18T09:40:09Z</time>
</trkpt>
<trkpt lat="46.049521" lon="13.47224">
<time>2021-07-18T09:40:10Z</time>
</trkpt>
<trkpt lat="46.04952" lon="13.472225">
<time>2021-07-18T09:40:11Z</time>
</trkpt>
<trkpt lat="46.049518" lon="13.47221">
<time>2021-07-18T09:40:12Z</time>
</trkpt>
<trkpt lat="46.049516" lon="13.472195">
<time>2021-07-18T09:40:13Z</time>
</trkpt>
<trkpt lat="46.049513" lon="13.47218">
<time>2021-07-18T09:40:14Z</time>
</trkpt>
<trkpt lat="46.049511" lon="13.472163">
<time>2021-07-18T09:40:15Z</time>
</trkpt>
<trkpt lat="46.04951" lon="13.472146">
<time>2021-07-18T09:40:16Z</time>
</trkpt>
<trkpt lat="46.049506" lon="13.47213">
<time>2021-07-18T09:40:17Z</time>
</trkpt>
<trkpt lat="46.049503" lon="13.472115">
<time>2021-07-18T09:40:18Z</time>
</trkpt>
<trkpt lat="46.049501" lon="13.472098">
<time>2021-07-18T09:40:19Z</time>
</trkpt>
<trkpt lat="46.0495" lon="13.472083">
<time>2021-07-18T09:40:20Z</time>
</trkpt>
<trkpt lat="46.049498" lon="13.472068">
<time>2021-07-18T09:40:21Z</time>
</trkpt>
<trkpt lat="46.049496" lon="13.472051">
<time>2021-07-18T09:40:22Z</time>
</trkpt>
<trkpt lat="46.049493" lon="13.472036">
<time>2021-07-18T09:40:23Z</time>
</trkpt>
<trkpt lat="46.049491" lon="13.47202">
<time>2021-07-18T09:40:24Z</time>
</trkpt>
<trkpt lat="46.049488" lon="13.472001">
<time>2021-07-18T09:40:25Z</time>
</trkpt>
<trkpt lat="46.049486" lon="13.471983">
<time>2021-07-18T09:40:26Z</time>
</trkpt>
<trkpt lat="46.049485" lon="13.471966">
<time>2021-07-18T09:40:27Z</time>
</trkpt>
<trkpt lat="46.049483" lon="13.471951">
<time>2021-07-18T09:40:28Z</time>
</trkpt>
<trkpt lat="46.04948" lon="13.471938">
<time>2021-07-18T09:40:29Z</time>
</trkpt>
<trkpt lat="46.049475" lon="13.471925">
<time>2021-07-18T09:40:30Z</time>
</trkpt>
<trkpt lat="46.049473" lon="13.47191">
<time>2021-07-18T09:40:31Z</time>
</trkpt>
<trkpt lat="46.049471" lon="13.471893">
<time>2021-07-18T09:40:32Z</time>
</trkpt>
<trkpt lat="46.04947" lon="13.471878">
<time>2021-07-18T09:40:33Z</time>
</trkpt>
<trkpt lat="46.04947" lon="13.471863">
<time>2021-07-18T09:40:34Z</time>
</trkpt>
<trkpt lat="46.049466" lon="13.471851">
<time>2021-07-18T09:40:35Z</time>
</trkpt>
<trkpt lat="46.049465" lon="13.471838">
<time>2021-07-18T09:40:36Z</time>
</trkpt>
<trkpt lat="46.049461" lon="13.471823">
<time>2021-07-18T09:40:37Z</time>
</trkpt>
<trkpt lat="46.049458" lon="13.471808">
<time>2021-07-18T09:40:38Z</time>
</trkpt>
<trkpt lat="46.049453" lon="13.47179">
<time>2021-07-18T09:40:39Z</time>
</trkpt>
<trkpt lat="46.04945" lon="13.471775">
<time>2021-07-18T09:40:40Z</time>
</trkpt>
<trkpt lat="46.049446" lon="13.471756">
<time>2021-07-18T09:40:41Z</time>
</trkpt>
<trkpt lat="46.049445" lon="13.47174">
<time>2021-07-18T09:40:42Z</time>
</trkpt>
<trkpt lat="46.049443" lon="13.471725">
<time>2021-07-18T09:40:43Z</time>
</trkpt>
<trkpt lat="46.049443" lon="13.47171">
<time>2021-07-18T09:40:44Z</time>
</trkpt>
<trkpt lat="46.049443" lon="13.471695">
<time>2021-07-18T09:40:45Z</time>
</trkpt>
<trkpt lat="46.049441" lon="13.47168">
<time>2021-07-18T09:40:46Z</time>
</trkpt>
<trkpt lat="46.049441" lon="13.471665">
<time>2021-07-18T09:40:47Z</time>
</trkpt>
<trkpt lat="46.049441" lon="13.471651">
<time>2021-07-18T09:40:48Z</time>
</trkpt>
<trkpt lat="46.049443" lon="13.471638">
<time>2021-07-18T09:40:49Z</time>
</trkpt>
<trkpt lat="46.049443" lon="13.471625">
<time>2021-07-18T09:40:50Z</time>
</trkpt>
<trkpt lat="46.049441" lon="13.471613">
<time>2021-07-18T09:40:51Z</time>
</trkpt>
<trkpt lat="46.04944" lon="13.4716">
<time>2021-07-18T09:40:52Z</time>
</trkpt>
<trkpt lat="46.049438" lon="13.471585">
<time>2021-07-18T09:40:53Z</time>
</trkpt>
<trkpt lat="46.049436" lon="13.471566">
<time>2021-07-18T09:40:54Z</time>
</trkpt>
<trkpt lat="46.049436" lon="13.471546">
<time>2021-07-18T09:40:55Z</time>
</trkpt>
<trkpt lat="46.049436" lon="13.47153">
<time>2021-07-18T09:40:56Z</time>
</trkpt>
<trkpt lat="46.049438" lon="13.47151">
<time>2021-07-18T09:40:57Z</time>
</trkpt>
<trkpt lat="46.049438" lon="13.471491">
<time>2021-07-18T09:40:58Z</time>
</trkpt>
<trkpt lat="46.04944" lon="13.471471">
<time>2021-07-18T09:40:59Z</time>
</trkpt>
<trkpt lat="46.049441" lon="13.471453">
<time>2021-07-18T09:41:00Z</time>
</trkpt>
<trkpt lat="46.049443" lon="13.471435">
<time>2021-07-18T09:41:01Z</time>
</trkpt>
<trkpt lat="46.049443" lon="13.471415">
<time>2021-07-18T09:41:02Z</time>
</trkpt>
<trkpt lat="46.049441" lon="13.471393">
<time>2021-07-18T09:41:03Z</time>
</trkpt>
<trkpt lat="46.04944" lon="13.471375">
<time>2021-07-18T09:41:04Z</time>
</trkpt>
<trkpt lat="46.049438" lon="13.471358">
<time>2021-07-18T09:41:05Z</time>
</trkpt>
<trkpt lat="46.049438" lon="13.47134">
<time>2021-07-18T09:41:06Z</time>
</trkpt>
<trkpt lat="46.049436" lon="13.471321">
<time>2021-07-18T09:41:07Z</time>
</trkpt>
<trkpt lat="46.049435" lon="13.471306">
<time>2021-07-18T09:41:08Z</time>
</trkpt>
<trkpt lat="46.049436" lon="13.471291">
<time>2021-07-18T09:41:09Z</time>
</trkpt>
<trkpt lat="46.049436" lon="13.471278">
<time>2021-07-18T09:41:10Z</time>
</trkpt>
<trkpt lat="46.049436" lon="13.471263">
<time>2021-07-18T09:41:11Z</time>
</trkpt>
<trkpt lat="46.049436" lon="13.471246">
<time>2021-07-18T09:41:12Z</time>
</trkpt>
<trkpt lat="46.049435" lon="13.471233">
<time>2021-07-18T09:41:13Z</time>
</trkpt>
<trkpt lat="46.049435" lon="13.47122">
<time>2021-07-18T09:41:14Z</time>
</trkpt>
<trkpt lat="46.049435" lon="13.471205">
<time>2021-07-18T09:41:15Z</time>
</trkpt>
<trkpt lat="46.049431" lon="13.471188">
<time>2021-07-18T09:41:16Z</time>
</trkpt>
<trkpt lat="46.04943" lon="13.471168">
<time>2021-07-18T09:41:17Z</time>
</trkpt>
<trkpt lat="46.04943" lon="13.47115">
<time>2021-07-18T09:41:18Z</time>
</trkpt>
<trkpt lat="46.04943" lon="13.471128">
<time>2021-07-18T09:41:19Z</time>
</trkpt>
<trkpt lat="46.049431" lon="13.471111">
<time>2021-07-18T09:41:20Z</time>
</trkpt>
<trkpt lat="46.049431" lon="13.471095">
<time>2021-07-18T09:41:21Z</time>
</trkpt>
<trkpt lat="46.049431" lon="13.471078">
<time>2021-07-18T09:41:22Z</time>
</trkpt>
<trkpt lat="46.049431" lon="13.471063">
<time>2021-07-18T09:41:23Z</time>
</trkpt>
<trkpt lat="46.049431" lon="13.471048">
<time>2021-07-18T09:41:24Z</time>
</trkpt>
<trkpt lat="46.049433" lon="13.471031">
<time>2021-07-18T09:41:25Z</time>
</trkpt>
<trkpt lat="46.049431" lon="13.471016">
<time>2021-07-18T09:41:26Z</time>
</trkpt>
<trkpt lat="46.049431" lon="13.471">
<time>2021-07-18T09:41:27Z</time>
</trkpt>
<trkpt lat="46.049431" lon="13.470983">
<time>2021-07-18T09:41:28Z</time>
</trkpt>
<trkpt lat="46.049431" lon="13.470968">
<time>2021-07-18T09:41:29Z</time>
</trkpt>
<trkpt lat="46.049431" lon="13.470951">
<time>2021-07-18T09:41:30Z</time>
</trkpt>
<trkpt lat="46.049431" lon="13.470936">
<time>2021-07-18T09:41:31Z</time>
</trkpt>
<trkpt lat="46.049431" lon="13.47092">
<time>2021-07-18T09:41:32Z</time>
</trkpt>
<trkpt lat="46.04943" lon="13.470903">
<time>2021-07-18T09:41:33Z</time>
</trkpt>
<trkpt lat="46.04943" lon="13.470886">
<time>2021-07-18T09:41:34Z</time>
</trkpt>
<trkpt lat="46.04943" lon="13.47087">
<time>2021-07-18T09:41:35Z</time>
</trkpt>
<trkpt lat="46.04943" lon="13.470856">
<time>2021-07-18T09:41:36Z</time>
</trkpt>
<trkpt lat="46.04943" lon="13.47084">
<time>2021-07-18T09:41:37Z</time>
</trkpt>
<trkpt lat="46.04943" lon="13.470823">
<time>2021-07-18T09:41:38Z</time>
</trkpt>
<trkpt lat="46.04943" lon="13.470808">
<time>2021-07-18T09:41:39Z</time>
</trkpt>
<trkpt lat="46.049426" lon="13.470791">
<time>2021-07-18T09:41:40Z</time>
</trkpt>
<trkpt lat="46.049425" lon="13.470776">
<time>2021-07-18T09:41:41Z</time>
</trkpt>
<trkpt lat="46.049425" lon="13.470761">
<time>2021-07-18T09:41:42Z</time>
</trkpt>
<trkpt lat="46.049426" lon="13.470745">
<time>2021-07-18T09:41:43Z</time>
</trkpt>
<trkpt lat="46.049425" lon="13.470725">
<time>2021-07-18T09:41:44Z</time>
</trkpt>
<trkpt lat="46.049423" lon="13.470706">
<time>2021-07-18T09:41:45Z</time>
</trkpt>
<trkpt lat="46.049423" lon="13.470688">
<time>2021-07-18T09:41:46Z</time>
</trkpt>
<trkpt lat="46.049421" lon="13.470673">
<time>2021-07-18T09:41:47Z</time>
</trkpt>
<trkpt lat="46.049416" lon="13.470656">
<time>2021-07-18T09:41:48Z</time>
</trkpt>
<trkpt lat="46.049415" lon="13.470645">
<time>2021-07-18T09:41:49Z</time>
</trkpt>
<trkpt lat="46.049411" lon="13.470633">
<time>2021-07-18T09:41:50Z</time>
</trkpt>
<trkpt lat="46.04941" lon="13.470621">
<time>2021-07-18T09:41:51Z</time>
</trkpt>
<trkpt lat="46.04941" lon="13.47061">
<time>2021-07-18T09:41:52Z</time>
</trkpt>
<trkpt lat="46.049408" lon="13.470595">
<time>2021-07-18T09:41:53Z</time>
</trkpt>
<trkpt lat="46.049405" lon="13.470578">
<time>2021-07-18T09:41:54Z</time>
</trkpt>
<trkpt lat="46.049403" lon="13.470558">
<time>2021-07-18T09:41:55Z</time>
</trkpt>
<trkpt lat="46.049401" lon="13.470543">
<time>2021-07-18T09:41:56Z</time>
</trkpt>
<trkpt lat="46.049405" lon="13.470526">
<time>2021-07-18T09:41:57Z</time>
</trkpt>
<trkpt lat="46.049403" lon="13.470506">
<time>2021-07-18T09:41:58Z</time>
</trkpt>
<trkpt lat="46.049401" lon="13.470481">
<time>2021-07-18T09:41:59Z</time>
</trkpt>
<trkpt lat="46.049401" lon="13.470456">
<time>2021-07-18T09:42:00Z</time>
</trkpt>
<trkpt lat="46.049401" lon="13.47043">
<time>2021-07-18T09:42:01Z</time>
</trkpt>
<trkpt lat="46.049403" lon="13.470401">
<time>2021-07-18T09:42:02Z</time>
</trkpt>
<trkpt lat="46.049406" lon="13.470376">
<time>2021-07-18T09:42:03Z</time>
</trkpt>
<trkpt lat="46.04941" lon="13.470361">
<time>2021-07-18T09:42:04Z</time>
</trkpt>
<trkpt lat="46.049408" lon="13.470356">
<time>2021-07-18T09:42:05Z</time>
</trkpt>
<trkpt lat="46.04941" lon="13.470366">
<time>2021-07-18T09:42:06Z</time>
</trkpt>
<trkpt lat="46.04941" lon="13.470388">
<time>2021-07-18T09:42:07Z</time>
</trkpt>
<trkpt lat="46.04941" lon="13.470416">
<time>2021-07-18T09:42:08Z</time>
</trkpt>
<trkpt lat="46.04941" lon="13.470455">
<time>2021-07-18T09:42:09Z</time>
</trkpt>
<trkpt lat="46.049415" lon="13.470491">
<time>2021-07-18T09:42:10Z</time>
</trkpt>
<trkpt lat="46.049418" lon="13.470531">
<time>2021-07-18T09:42:11Z</time>
</trkpt>
<trkpt lat="46.049425" lon="13.47058">
<time>2021-07-18T09:42:12Z</time>
</trkpt>
<trkpt lat="46.04943" lon="13.47064">
<time>2021-07-18T09:42:13Z</time>
</trkpt>
<trkpt lat="46.049435" lon="13.470708">
<time>2021-07-18T09:42:14Z</time>
</trkpt>
<trkpt lat="46.049438" lon="13.470788">
<time>2021-07-18T09:42:15Z</time>
</trkpt>
<trkpt lat="46.049438" lon="13.470878">
<time>2021-07-18T09:42:16Z</time>
</trkpt>
<trkpt lat="46.04944" lon="13.470971">
<time>2021-07-18T09:42:17Z</time>
</trkpt>
<trkpt lat="46.049438" lon="13.471063">
<time>2021-07-18T09:42:18Z</time>
</trkpt>
<trkpt lat="46.049438" lon="13.471153">
<time>2021-07-18T09:42:19Z</time>
</trkpt>
<trkpt lat="46.049443" lon="13.471236">
<time>2021-07-18T09:42:20Z</time>
</trkpt>
<trkpt lat="46.049445" lon="13.471333">
<time>2021-07-18T09:42:21Z</time>
</trkpt>
<trkpt lat="46.049445" lon="13.47143">
<time>2021-07-18T09:42:22Z</time>
</trkpt>
<trkpt lat="46.049446" lon="13.471526">
<time>2021-07-18T09:42:23Z</time>
</trkpt>
<trkpt lat="46.049451" lon="13.471616">
<time>2021-07-18T09:42:24Z</time>
</trkpt>
<trkpt lat="46.049455" lon="13.47171">
<time>2021-07-18T09:42:25Z</time>
</trkpt>
<trkpt lat="46.049465" lon="13.471803">
<time>2021-07-18T09:42:26Z</time>
</trkpt>
<trkpt lat="46.049476" lon="13.471901">
<time>2021-07-18T09:42:27Z</time>
</trkpt>
<trkpt lat="46.049488" lon="13.472">
<time>2021-07-18T09:42:28Z</time>
</trkpt>
<trkpt lat="46.0495" lon="13.472093">
<time>2021-07-18T09:42:29Z</time>
</trkpt>
<trkpt lat="46.049508" lon="13.472181">
<time>2021-07-18T09:42:30Z</time>
</trkpt>
<trkpt lat="46.049516" lon="13.472265">
<time>2021-07-18T09:42:31Z</time>
</trkpt>
<trkpt lat="46.04952" lon="13.47235">
<time>2021-07-18T09:42:32Z</time>
</trkpt>
<trkpt lat="46.049521" lon="13.472431">
<time>2021-07-18T09:42:33Z</time>
</trkpt>
<trkpt lat="46.049528" lon="13.472505">
<time>2021-07-18T09:42:34Z</time>
</trkpt>
<trkpt lat="46.049535" lon="13.472578">
<time>2021-07-18T09:42:35Z</time>
</trkpt>
<trkpt lat="46.049543" lon="13.472656">
<time>2021-07-18T09:42:36Z</time>
</trkpt>
<trkpt lat="46.049551" lon="13.472733">
<time>2021-07-18T09:42:37Z</time>
</trkpt>
<trkpt lat="46.04956" lon="13.4728">
<time>2021-07-18T09:42:38Z</time>
</trkpt>
<trkpt lat="46.04957" lon="13.472856">
<time>2021-07-18T09:42:39Z</time>
</trkpt>
<trkpt lat="46.049581" lon="13.472905">
<time>2021-07-18T09:42:40Z</time>
</trkpt>
<trkpt lat="46.0496" lon="13.472941">
<time>2021-07-18T09:42:41Z</time>
</trkpt>
<trkpt lat="46.049621" lon="13.472958">
<time>2021-07-18T09:42:42Z</time>
</trkpt>
<trkpt lat="46.04965" lon="13.472953">
<time>2021-07-18T09:42:43Z</time>
</trkpt>
<trkpt lat="46.049675" lon="13.47294">
<time>2021-07-18T09:42:44Z</time>
</trkpt>
<trkpt lat="46.049705" lon="13.472918">
<time>2021-07-18T09:42:45Z</time>
</trkpt>
<trkpt lat="46.049738" lon="13.472888">
<time>2021-07-18T09:42:46Z</time>
</trkpt>
<trkpt lat="46.049773" lon="13.472855">
<time>2021-07-18T09:42:47Z</time>
</trkpt>
<trkpt lat="46.049815" lon="13.47282">
<time>2021-07-18T09:42:48Z</time>
</trkpt>
<trkpt lat="46.049863" lon="13.472775">
<time>2021-07-18T09:42:49Z</time>
</trkpt>
<trkpt lat="46.049905" lon="13.472736">
<time>2021-07-18T09:42:50Z</time>
</trkpt>
<trkpt lat="46.049946" lon="13.472698">
<time>2021-07-18T09:42:51Z</time>
</trkpt>
<trkpt lat="46.049993" lon="13.472656">
<time>2021-07-18T09:42:52Z</time>
</trkpt>
<trkpt lat="46.050036" lon="13.472613">
<time>2021-07-18T09:42:53Z</time>
</trkpt>
<trkpt lat="46.050078" lon="13.47257">
<time>2021-07-18T09:42:54Z</time>
</trkpt>
<trkpt lat="46.050121" lon="13.472528">
<time>2021-07-18T09:42:55Z</time>
</trkpt>
<trkpt lat="46.050163" lon="13.472483">
<time>2021-07-18T09:42:56Z</time>
</trkpt>
<trkpt lat="46.050206" lon="13.47244">
<time>2021-07-18T09:42:57Z</time>
</trkpt>
<trkpt lat="46.050248" lon="13.472393">
<time>2021-07-18T09:42:58Z</time>
</trkpt>
<trkpt lat="46.050291" lon="13.47235">
<time>2021-07-18T09:42:59Z</time>
</trkpt>
<trkpt lat="46.050336" lon="13.472308">
<time>2021-07-18T09:43:00Z</time>
</trkpt>
<trkpt lat="46.050383" lon="13.472271">
<time>2021-07-18T09:43:01Z</time>
</trkpt>
<trkpt lat="46.05043" lon="13.472231">
<time>2021-07-18T09:43:02Z</time>
</trkpt>
<trkpt lat="46.05048" lon="13.472195">
<time>2021-07-18T09:43:03Z</time>
</trkpt>
<trkpt lat="46.050531" lon="13.47216">
<time>2021-07-18T09:43:04Z</time>
</trkpt>
<trkpt lat="46.050585" lon="13.47213">
<time>2021-07-18T09:43:05Z</time>
</trkpt>
<trkpt lat="46.050651" lon="13.472105">
<time>2021-07-18T09:43:06Z</time>
</trkpt>
<trkpt lat="46.050706" lon="13.472083">
<time>2021-07-18T09:43:07Z</time>
</trkpt>
<trkpt lat="46.050765" lon="13.472061">
<time>2021-07-18T09:43:08Z</time>
</trkpt>
<trkpt lat="46.050811" lon="13.472045">
<time>2021-07-18T09:43:09Z</time>
</trkpt>
<trkpt lat="46.050883" lon="13.472021">
<time>2021-07-18T09:43:10Z</time>
</trkpt>
<trkpt lat="46.050945" lon="13.472003">
<time>2021-07-18T09:43:11Z</time>
</trkpt>
<trkpt lat="46.051006" lon="13.471985">
<time>2021-07-18T09:43:12Z</time>
</trkpt>
<trkpt lat="46.05107" lon="13.47197">
<time>2021-07-18T09:43:13Z</time>
</trkpt>
<trkpt lat="46.051133" lon="13.471961">
<time>2021-07-18T09:43:14Z</time>
</trkpt>
<trkpt lat="46.051198" lon="13.471955">
<time>2021-07-18T09:43:15Z</time>
</trkpt>
<trkpt lat="46.051261" lon="13.471956">
<time>2021-07-18T09:43:16Z</time>
</trkpt>
<trkpt lat="46.051326" lon="13.471963">
<time>2021-07-18T09:43:17Z</time>
</trkpt>
<trkpt lat="46.051378" lon="13.471973">
<time>2021-07-18T09:43:18Z</time>
</trkpt>
<trkpt lat="46.051438" lon="13.471993">
<time>2021-07-18T09:43:19Z</time>
</trkpt>
<trkpt lat="46.051501" lon="13.472013">
<time>2021-07-18T09:43:20Z</time>
</trkpt>
<trkpt lat="46.051561" lon="13.472026">
<time>2021-07-18T09:43:21Z</time>
</trkpt>
<trkpt lat="46.051623" lon="13.472036">
<time>2021-07-18T09:43:22Z</time>
</trkpt>
<trkpt lat="46.051685" lon="13.47205">
<time>2021-07-18T09:43:23Z</time>
</trkpt>
<trkpt lat="46.051748" lon="13.472066">
<time>2021-07-18T09:43:24Z</time>
</trkpt>
<trkpt lat="46.051808" lon="13.472091">
<time>2021-07-18T09:43:25Z</time>
</trkpt>
<trkpt lat="46.051866" lon="13.47212">
<time>2021-07-18T09:43:26Z</time>
</trkpt>
<trkpt lat="46.051923" lon="13.472148">
<time>2021-07-18T09:43:27Z</time>
</trkpt>
<trkpt lat="46.051976" lon="13.472163">
<time>2021-07-18T09:43:28Z</time>
</trkpt>
<trkpt lat="46.05203" lon="13.472165">
<time>2021-07-18T09:43:29Z</time>
</trkpt>
<trkpt lat="46.052085" lon="13.472158">
<time>2021-07-18T09:43:30Z</time>
</trkpt>
<trkpt lat="46.052143" lon="13.47214">
<time>2021-07-18T09:43:31Z</time>
</trkpt>
<trkpt lat="46.052201" lon="13.472121">
<time>2021-07-18T09:43:32Z</time>
</trkpt>
<trkpt lat="46.05226" lon="13.472103">
<time>2021-07-18T09:43:33Z</time>
</trkpt>
<trkpt lat="46.052321" lon="13.472095">
<time>2021-07-18T09:43:34Z</time>
</trkpt>
<trkpt lat="46.052385" lon="13.472093">
<time>2021-07-18T09:43:35Z</time>
</trkpt>
<trkpt lat="46.052446" lon="13.472095">
<time>2021-07-18T09:43:36Z</time>
</trkpt>
<trkpt lat="46.052508" lon="13.472098">
<time>2021-07-18T09:43:37Z</time>
</trkpt>
<trkpt lat="46.052573" lon="13.472101">
<time>2021-07-18T09:43:38Z</time>
</trkpt>
<trkpt lat="46.052638" lon="13.472101">
<time>2021-07-18T09:43:39Z</time>
</trkpt>
<trkpt lat="46.052701" lon="13.472101">
<time>2021-07-18T09:43:40Z</time>
</trkpt>
<trkpt lat="46.052765" lon="13.4721">
<time>2021-07-18T09:43:41Z</time>
</trkpt>
<trkpt lat="46.052828" lon="13.472101">
<time>2021-07-18T09:43:42Z</time>
</trkpt>
<trkpt lat="46.052891" lon="13.472113">
<time>2021-07-18T09:43:43Z</time>
</trkpt>
<trkpt lat="46.052953" lon="13.472133">
<time>2021-07-18T09:43:44Z</time>
</trkpt>
<trkpt lat="46.053015" lon="13.472168">
<time>2021-07-18T09:43:45Z</time>
</trkpt>
<trkpt lat="46.053073" lon="13.47221">
<time>2021-07-18T09:43:46Z</time>
</trkpt>
<trkpt lat="46.053131" lon="13.472246">
<time>2021-07-18T09:43:47Z</time>
</trkpt>
<trkpt lat="46.05319" lon="13.472281">
<time>2021-07-18T09:43:48Z</time>
</trkpt>
<trkpt lat="46.053251" lon="13.472311">
<time>2021-07-18T09:43:49Z</time>
</trkpt>
<trkpt lat="46.053315" lon="13.472336">
<time>2021-07-18T09:43:50Z</time>
</trkpt>
<trkpt lat="46.05338" lon="13.472355">
<time>2021-07-18T09:43:51Z</time>
</trkpt>
<trkpt lat="46.053445" lon="13.472366">
<time>2021-07-18T09:43:52Z</time>
</trkpt>
<trkpt lat="46.053505" lon="13.47237">
<time>2021-07-18T09:43:53Z</time>
</trkpt>
<trkpt lat="46.053553" lon="13.472355">
<time>2021-07-18T09:43:54Z</time>
</trkpt>
<trkpt lat="46.053591" lon="13.472323">
<time>2021-07-18T09:43:55Z</time>
</trkpt>
<trkpt lat="46.053636" lon="13.472276">
<time>2021-07-18T09:43:56Z</time>
</trkpt>
<trkpt lat="46.053663" lon="13.47225">
<time>2021-07-18T09:43:57Z</time>
</trkpt>
<trkpt lat="46.053698" lon="13.472231">
<time>2021-07-18T09:43:58Z</time>
</trkpt>
<trkpt lat="46.05374" lon="13.472226">
<time>2021-07-18T09:43:59Z</time>
</trkpt>
<trkpt lat="46.053766" lon="13.472228">
<time>2021-07-18T09:44:00Z</time>
</trkpt>
<trkpt lat="46.053795" lon="13.472236">
<time>2021-07-18T09:44:01Z</time>
</trkpt>
<trkpt lat="46.053813" lon="13.472248">
<time>2021-07-18T09:44:02Z</time>
</trkpt>
<trkpt lat="46.053821" lon="13.472265">
<time>2021-07-18T09:44:03Z</time>
</trkpt>
<trkpt lat="46.05382" lon="13.472281">
<time>2021-07-18T09:44:04Z</time>
</trkpt>
<trkpt lat="46.053818" lon="13.472308">
<time>2021-07-18T09:44:05Z</time>
</trkpt>
<trkpt lat="46.053818" lon="13.472335">
<time>2021-07-18T09:44:06Z</time>
</trkpt>
<trkpt lat="46.053825" lon="13.47236">
<time>2021-07-18T09:44:07Z</time>
</trkpt>
<trkpt lat="46.05383" lon="13.472391">
<time>2021-07-18T09:44:08Z</time>
</trkpt>
<trkpt lat="46.053825" lon="13.47242">
<time>2021-07-18T09:44:09Z</time>
</trkpt>
<trkpt lat="46.053826" lon="13.472443">
<time>2021-07-18T09:44:10Z</time>
</trkpt>
<trkpt lat="46.053823" lon="13.472468">
<time>2021-07-18T09:44:11Z</time>
</trkpt>
<trkpt lat="46.053816" lon="13.472491">
<time>2021-07-18T09:44:12Z</time>
</trkpt>
<trkpt lat="46.053803" lon="13.47251">
<time>2021-07-18T09:44:13Z</time>
</trkpt>
<trkpt lat="46.053786" lon="13.472525">
<time>2021-07-18T09:44:14Z</time>
</trkpt>
<trkpt lat="46.05377" lon="13.472541">
<time>2021-07-18T09:44:15Z</time>
</trkpt>
<trkpt lat="46.053751" lon="13.472553">
<time>2021-07-18T09:44:16Z</time>
</trkpt>
<trkpt lat="46.053736" lon="13.472565">
<time>2021-07-18T09:44:17Z</time>
</trkpt>
<trkpt lat="46.053721" lon="13.472573">
<time>2021-07-18T09:44:18Z</time>
</trkpt>
<trkpt lat="46.053706" lon="13.47258">
<time>2021-07-18T09:44:19Z</time>
</trkpt>
<trkpt lat="46.053691" lon="13.47259">
<time>2021-07-18T09:44:20Z</time>
</trkpt>
<trkpt lat="46.053678" lon="13.472603">
<time>2021-07-18T09:44:21Z</time>
</trkpt>
<trkpt lat="46.053665" lon="13.472618">
<time>2021-07-18T09:44:22Z</time>
</trkpt>
<trkpt lat="46.053651" lon="13.472635">
<time>2021-07-18T09:44:23Z</time>
</trkpt>
<trkpt lat="46.053636" lon="13.472646">
<time>2021-07-18T09:44:24Z</time>
</trkpt>
<trkpt lat="46.053625" lon="13.472661">
<time>2021-07-18T09:44:25Z</time>
</trkpt>
<trkpt lat="46.053603" lon="13.472666">
<time>2021-07-18T09:44:26Z</time>
</trkpt>
<trkpt lat="46.053586" lon="13.472681">
<time>2021-07-18T09:44:27Z</time>
</trkpt>
<trkpt lat="46.053571" lon="13.47269">
<time>2021-07-18T09:44:28Z</time>
</trkpt>
<trkpt lat="46.05356" lon="13.472696">
<time>2021-07-18T09:44:29Z</time>
</trkpt>
<trkpt lat="46.053543" lon="13.472705">
<time>2021-07-18T09:44:30Z</time>
</trkpt>
<trkpt lat="46.05353" lon="13.472716">
<time>2021-07-18T09:44:31Z</time>
</trkpt>
<trkpt lat="46.053518" lon="13.472733">
<time>2021-07-18T09:44:32Z</time>
</trkpt>
<trkpt lat="46.053505" lon="13.472743">
<time>2021-07-18T09:44:33Z</time>
</trkpt>
<trkpt lat="46.053488" lon="13.47275">
<time>2021-07-18T09:44:34Z</time>
</trkpt>
<trkpt lat="46.053471" lon="13.472751">
<time>2021-07-18T09:44:35Z</time>
</trkpt>
<trkpt lat="46.053455" lon="13.472755">
<time>2021-07-18T09:44:36Z</time>
</trkpt>
<trkpt lat="46.053438" lon="13.472755">
<time>2021-07-18T09:44:37Z</time>
</trkpt>
<trkpt lat="46.053423" lon="13.472756">
<time>2021-07-18T09:44:38Z</time>
</trkpt>
<trkpt lat="46.053408" lon="13.472766">
<time>2021-07-18T09:44:39Z</time>
</trkpt>
<trkpt lat="46.053395" lon="13.472783">
<time>2021-07-18T09:44:40Z</time>
</trkpt>
<trkpt lat="46.053383" lon="13.472801">
<time>2021-07-18T09:44:41Z</time>
</trkpt>
<trkpt lat="46.053376" lon="13.472823">
<time>2021-07-18T09:44:42Z</time>
</trkpt>
<trkpt lat="46.053375" lon="13.472838">
<time>2021-07-18T09:44:43Z</time>
</trkpt>
<trkpt lat="46.05338" lon="13.472865">
<time>2021-07-18T09:44:44Z</time>
</trkpt>
<trkpt lat="46.053385" lon="13.472871">
<time>2021-07-18T09:44:45Z</time>
</trkpt>
<trkpt lat="46.053391" lon="13.472876">
<time>2021-07-18T09:44:46Z</time>
</trkpt>
<trkpt lat="46.053395" lon="13.472881">
<time>2021-07-18T09:44:47Z</time>
</trkpt>
<trkpt lat="46.053403" lon="13.472886">
<time>2021-07-18T09:44:48Z</time>
</trkpt>
<trkpt lat="46.053413" lon="13.472886">
<time>2021-07-18T09:44:49Z</time>
</trkpt>
<trkpt lat="46.05342" lon="13.472891">
<time>2021-07-18T09:44:50Z</time>
</trkpt>
<trkpt lat="46.053435" lon="13.4729">
<time>2021-07-18T09:44:51Z</time>
</trkpt>
<trkpt lat="46.053446" lon="13.472903">
<time>2021-07-18T09:44:52Z</time>
</trkpt>
<trkpt lat="46.05346" lon="13.472906">
<time>2021-07-18T09:44:53Z</time>
</trkpt>
<trkpt lat="46.053473" lon="13.472913">
<time>2021-07-18T09:44:54Z</time>
</trkpt>
<trkpt lat="46.053486" lon="13.472918">
<time>2021-07-18T09:44:55Z</time>
</trkpt>
<trkpt lat="46.053503" lon="13.472925">
<time>2021-07-18T09:44:56Z</time>
</trkpt>
<trkpt lat="46.05352" lon="13.472935">
<time>2021-07-18T09:44:57Z</time>
</trkpt>
<trkpt lat="46.053533" lon="13.472943">
<time>2021-07-18T09:44:58Z</time>
</trkpt>
<trkpt lat="46.05355" lon="13.472951">
<time>2021-07-18T09:44:59Z</time>
</trkpt>
<trkpt lat="46.053566" lon="13.47296">
<time>2021-07-18T09:45:00Z</time>
</trkpt>
<trkpt lat="46.053585" lon="13.472973">
<time>2021-07-18T09:45:01Z</time>
</trkpt>
<trkpt lat="46.053601" lon="13.472986">
<time>2021-07-18T09:45:02Z</time>
</trkpt>
<trkpt lat="46.053615" lon="13.472995">
<time>2021-07-18T09:45:03Z</time>
</trkpt>
<trkpt lat="46.053626" lon="13.473003">
<time>2021-07-18T09:45:04Z</time>
</trkpt>
<trkpt lat="46.05364" lon="13.473015">
<time>2021-07-18T09:45:05Z</time>
</trkpt>
<trkpt lat="46.053653" lon="13.47302">
<time>2021-07-18T09:45:06Z</time>
</trkpt>
<trkpt lat="46.05367" lon="13.473025">
<time>2021-07-18T09:45:07Z</time>
</trkpt>
<trkpt lat="46.053685" lon="13.47303">
<time>2021-07-18T09:45:08Z</time>
</trkpt>
<trkpt lat="46.053698" lon="13.473038">
<time>2021-07-18T09:45:09Z</time>
</trkpt>
<trkpt lat="46.053716" lon="13.473048">
<time>2021-07-18T09:45:10Z</time>
</trkpt>
<trkpt lat="46.053736" lon="13.473061">
<time>2021-07-18T09:45:11Z</time>
</trkpt>
<trkpt lat="46.053756" lon="13.473075">
<time>2021-07-18T09:45:12Z</time>
</trkpt>
<trkpt lat="46.05378" lon="13.473095">
<time>2021-07-18T09:45:13Z</time>
</trkpt>
<trkpt lat="46.053798" lon="13.473113">
<time>2021-07-18T09:45:14Z</time>
</trkpt>
<trkpt lat="46.053821" lon="13.47313">
<time>2021-07-18T09:45:15Z</time>
</trkpt>
<trkpt lat="46.053831" lon="13.47316">
<time>2021-07-18T09:45:16Z</time>
</trkpt>
<trkpt lat="46.05384" lon="13.473181">
<time>2021-07-18T09:45:17Z</time>
</trkpt>
<trkpt lat="46.053851" lon="13.473211">
<time>2021-07-18T09:45:18Z</time>
</trkpt>
<trkpt lat="46.053853" lon="13.473233">
<time>2021-07-18T09:45:19Z</time>
</trkpt>
<trkpt lat="46.053858" lon="13.473253">
<time>2021-07-18T09:45:20Z</time>
</trkpt>
<trkpt lat="46.05386" lon="13.473271">
<time>2021-07-18T09:45:21Z</time>
</trkpt>
<trkpt lat="46.05386" lon="13.473283">
<time>2021-07-18T09:45:22Z</time>
</trkpt>
<trkpt lat="46.05386" lon="13.47329">
<time>2021-07-18T09:45:23Z</time>
</trkpt>
<trkpt lat="46.05386" lon="13.4733">
<time>2021-07-18T09:45:24Z</time>
</trkpt>
<trkpt lat="46.053861" lon="13.473308">
<time>2021-07-18T09:45:25Z</time>
</trkpt>
<trkpt lat="46.053858" lon="13.473318">
<time>2021-07-18T09:45:26Z</time>
</trkpt>
<trkpt lat="46.053853" lon="13.473335">
<time>2021-07-18T09:45:27Z</time>
</trkpt>
<trkpt lat="46.053843" lon="13.473348">
<time>2021-07-18T09:45:28Z</time>
</trkpt>
<trkpt lat="46.053833" lon="13.47336">
<time>2021-07-18T09:45:29Z</time>
</trkpt>
<trkpt lat="46.053828" lon="13.47337">
<time>2021-07-18T09:45:30Z</time>
</trkpt>
<trkpt lat="46.053826" lon="13.473378">
<time>2021-07-18T09:45:31Z</time>
</trkpt>
<trkpt lat="46.053818" lon="13.473388">
<time>2021-07-18T09:45:32Z</time>
</trkpt>
<trkpt lat="46.053813" lon="13.473396">
<time>2021-07-18T09:45:33Z</time>
</trkpt>
<trkpt lat="46.053808" lon="13.473405">
<time>2021-07-18T09:45:34Z</time>
</trkpt>
<trkpt lat="46.053801" lon="13.473413">
<time>2021-07-18T09:45:35Z</time>
</trkpt>
<trkpt lat="46.053796" lon="13.473423">
<time>2021-07-18T09:45:36Z</time>
</trkpt>
<trkpt lat="46.053793" lon="13.473433">
<time>2021-07-18T09:45:37Z</time>
</trkpt>
<trkpt lat="46.05379" lon="13.473446">
<time>2021-07-18T09:45:38Z</time>
</trkpt>
<trkpt lat="46.053788" lon="13.473456">
<time>2021-07-18T09:45:39Z</time>
</trkpt>
<trkpt lat="46.053786" lon="13.473473">
<time>2021-07-18T09:45:40Z</time>
</trkpt>
<trkpt lat="46.053783" lon="13.473486">
<time>2021-07-18T09:45:41Z</time>
</trkpt>
<trkpt lat="46.053778" lon="13.473498">
<time>2021-07-18T09:45:42Z</time>
</trkpt>
<trkpt lat="46.053775" lon="13.47351">
<time>2021-07-18T09:45:43Z</time>
</trkpt>
<trkpt lat="46.053768" lon="13.473523">
<time>2021-07-18T09:45:44Z</time>
</trkpt>
<trkpt lat="46.053763" lon="13.473535">
<time>2021-07-18T09:45:45Z</time>
</trkpt>
<trkpt lat="46.053758" lon="13.473548">
<time>2021-07-18T09:45:46Z</time>
</trkpt>
<trkpt lat="46.053755" lon="13.47356">
<time>2021-07-18T09:45:47Z</time>
</trkpt>
<trkpt lat="46.053751" lon="13.473571">
<time>2021-07-18T09:45:48Z</time>
</trkpt>
<trkpt lat="46.053746" lon="13.473583">
<time>2021-07-18T09:45:49Z</time>
</trkpt>
<trkpt lat="46.053741" lon="13.473595">
<time>2021-07-18T09:45:50Z</time>
</trkpt>
<trkpt lat="46.053736" lon="13.473606">
<time>2021-07-18T09:45:51Z</time>
</trkpt>
<trkpt lat="46.053731" lon="13.473618">
<time>2021-07-18T09:45:52Z</time>
</trkpt>
<trkpt lat="46.053728" lon="13.473631">
<time>2021-07-18T09:45:53Z</time>
</trkpt>
<trkpt lat="46.053721" lon="13.473643">
<time>2021-07-18T09:45:54Z</time>
</trkpt>
<trkpt lat="46.053716" lon="13.473655">
<time>2021-07-18T09:45:55Z</time>
</trkpt>
<trkpt lat="46.053713" lon="13.473663">
<time>2021-07-18T09:45:56Z</time>
</trkpt>
<trkpt lat="46.05371" lon="13.473673">
<time>2021-07-18T09:45:57Z</time>
</trkpt>
<trkpt lat="46.053706" lon="13.473683">
<time>2021-07-18T09:45:58Z</time>
</trkpt>
<trkpt lat="46.053703" lon="13.473691">
<time>2021-07-18T09:45:59Z</time>
</trkpt>
<trkpt lat="46.0537" lon="13.473701">
<time>2021-07-18T09:46:00Z</time>
</trkpt>
<trkpt lat="46.053695" lon="13.47371">
<time>2021-07-18T09:46:01Z</time>
</trkpt>
<trkpt lat="46.053688" lon="13.47372">
<time>2021-07-18T09:46:02Z</time>
</trkpt>
<trkpt lat="46.053681" lon="13.47373">
<time>2021-07-18T09:46:03Z</time>
</trkpt>
<trkpt lat="46.053678" lon="13.473738">
<time>2021-07-18T09:46:04Z</time>
</trkpt>
<trkpt lat="46.053673" lon="13.473746">
<time>2021-07-18T09:46:05Z</time>
</trkpt>
<trkpt lat="46.053666" lon="13.473753">
<time>2021-07-18T09:46:06Z</time>
</trkpt>
<trkpt lat="46.053661" lon="13.47376">
<time>2021-07-18T09:46:07Z</time>
</trkpt>
<trkpt lat="46.053656" lon="13.47377">
<time>2021-07-18T09:46:08Z</time>
</trkpt>
<trkpt lat="46.053653" lon="13.473776">
<time>2021-07-18T09:46:09Z</time>
</trkpt>
<trkpt lat="46.05365" lon="13.473786">
<time>2021-07-18T09:46:10Z</time>
</trkpt>
<trkpt lat="46.05365" lon="13.473796">
<time>2021-07-18T09:46:11Z</time>
</trkpt>
<trkpt lat="46.053645" lon="13.473806">
<time>2021-07-18T09:46:12Z</time>
</trkpt>
<trkpt lat="46.05364" lon="13.473818">
<time>2021-07-18T09:46:13Z</time>
</trkpt>
<trkpt lat="46.053636" lon="13.473826">
<time>2021-07-18T09:46:14Z</time>
</trkpt>
<trkpt lat="46.053631" lon="13.473835">
<time>2021-07-18T09:46:15Z</time>
</trkpt>
<trkpt lat="46.053625" lon="13.473846">
<time>2021-07-18T09:46:16Z</time>
</trkpt>
<trkpt lat="46.053623" lon="13.473855">
<time>2021-07-18T09:46:17Z</time>
</trkpt>
<trkpt lat="46.053618" lon="13.473865">
<time>2021-07-18T09:46:18Z</time>
</trkpt>
<trkpt lat="46.053611" lon="13.473876">
<time>2021-07-18T09:46:19Z</time>
</trkpt>
<trkpt lat="46.053603" lon="13.473885">
<time>2021-07-18T09:46:20Z</time>
</trkpt>
<trkpt lat="46.053596" lon="13.47389">
<time>2021-07-18T09:46:21Z</time>
</trkpt>
<trkpt lat="46.05359" lon="13.473898">
<time>2021-07-18T09:46:22Z</time>
</trkpt>
<trkpt lat="46.053583" lon="13.473905">
<time>2021-07-18T09:46:23Z</time>
</trkpt>
<trkpt lat="46.053576" lon="13.473911">
<time>2021-07-18T09:46:24Z</time>
</trkpt>
<trkpt lat="46.05357" lon="13.473916">
<time>2021-07-18T09:46:25Z</time>
</trkpt>
<trkpt lat="46.053563" lon="13.473925">
<time>2021-07-18T09:46:26Z</time>
</trkpt>
<trkpt lat="46.053556" lon="13.473933">
<time>2021-07-18T09:46:27Z</time>
</trkpt>
<trkpt lat="46.053551" lon="13.473945">
<time>2021-07-18T09:46:28Z</time>
</trkpt>
<trkpt lat="46.053548" lon="13.473956">
<time>2021-07-18T09:46:29Z</time>
</trkpt>
<trkpt lat="46.053546" lon="13.473966">
<time>2021-07-18T09:46:30Z</time>
</trkpt>
<trkpt lat="46.053543" lon="13.473976">
<time>2021-07-18T09:46:31Z</time>
</trkpt>
<trkpt lat="46.053538" lon="13.47399">
<time>2021-07-18T09:46:32Z</time>
</trkpt>
<trkpt lat="46.053533" lon="13.474003">
<time>2021-07-18T09:46:33Z</time>
</trkpt>
<trkpt lat="46.053531" lon="13.474015">
<time>2021-07-18T09:46:34Z</time>
</trkpt>
<trkpt lat="46.053526" lon="13.474026">
<time>2021-07-18T09:46:35Z</time>
</trkpt>
<trkpt lat="46.053521" lon="13.474041">
<time>2021-07-18T09:46:36Z</time>
</trkpt>
<trkpt lat="46.053518" lon="13.474055">
<time>2021-07-18T09:46:37Z</time>
</trkpt>
<trkpt lat="46.053513" lon="13.474065">
<time>2021-07-18T09:46:38Z</time>
</trkpt>
<trkpt lat="46.053511" lon="13.474073">
<time>2021-07-18T09:46:39Z</time>
</trkpt>
<trkpt lat="46.053511" lon="13.474083">
<time>2021-07-18T09:46:40Z</time>
</trkpt>
<trkpt lat="46.053508" lon="13.474095">
<time>2021-07-18T09:46:41Z</time>
</trkpt>
<trkpt lat="46.053508" lon="13.474106">
<time>2021-07-18T09:46:42Z</time>
</trkpt>
<trkpt lat="46.053506" lon="13.474118">
<time>2021-07-18T09:46:43Z</time>
</trkpt>
<trkpt lat="46.053506" lon="13.474131">
<time>2021-07-18T09:46:44Z</time>
</trkpt>
<trkpt lat="46.053503" lon="13.474145">
<time>2021-07-18T09:46:45Z</time>
</trkpt>
<trkpt lat="46.053498" lon="13.474158">
<time>2021-07-18T09:46:46Z</time>
</trkpt>
<trkpt lat="46.053493" lon="13.474173">
<time>2021-07-18T09:46:47Z</time>
</trkpt>
<trkpt lat="46.053486" lon="13.474186">
<time>2021-07-18T09:46:48Z</time>
</trkpt>
<trkpt lat="46.053483" lon="13.474195">
<time>2021-07-18T09:46:49Z</time>
</trkpt>
<trkpt lat="46.05348" lon="13.474206">
<time>2021-07-18T09:46:50Z</time>
</trkpt>
<trkpt lat="46.053475" lon="13.474218">
<time>2021-07-18T09:46:51Z</time>
</trkpt>
<trkpt lat="46.053471" lon="13.474228">
<time>2021-07-18T09:46:52Z</time>
</trkpt>
<trkpt lat="46.05347" lon="13.474238">
<time>2021-07-18T09:46:53Z</time>
</trkpt>
<trkpt lat="46.053463" lon="13.474253">
<time>2021-07-18T09:46:54Z</time>
</trkpt>
<trkpt lat="46.053455" lon="13.474266">
<time>2021-07-18T09:46:55Z</time>
</trkpt>
<trkpt lat="46.053448" lon="13.474278">
<time>2021-07-18T09:46:56Z</time>
</trkpt>
<trkpt lat="46.053445" lon="13.474291">
<time>2021-07-18T09:46:57Z</time>
</trkpt>
<trkpt lat="46.05345" lon="13.474305">
<time>2021-07-18T09:46:58Z</time>
</trkpt>
<trkpt lat="46.053461" lon="13.474313">
<time>2021-07-18T09:46:59Z</time>
</trkpt>
<trkpt lat="46.05348" lon="13.474316">
<time>2021-07-18T09:47:00Z</time>
</trkpt>
<trkpt lat="46.053503" lon="13.474303">
<time>2021-07-18T09:47:01Z</time>
</trkpt>
<trkpt lat="46.053535" lon="13.474303">
<time>2021-07-18T09:47:02Z</time>
</trkpt>
<trkpt lat="46.053565" lon="13.474308">
<time>2021-07-18T09:47:03Z</time>
</trkpt>
<trkpt lat="46.053593" lon="13.474315">
<time>2021-07-18T09:47:04Z</time>
</trkpt>
<trkpt lat="46.053623" lon="13.474323">
<time>2021-07-18T09:47:05Z</time>
</trkpt>
<trkpt lat="46.053655" lon="13.474333">
<time>2021-07-18T09:47:06Z</time>
</trkpt>
<trkpt lat="46.053686" lon="13.474348">
<time>2021-07-18T09:47:07Z</time>
</trkpt>
<trkpt lat="46.053716" lon="13.47437">
<time>2021-07-18T09:47:08Z</time>
</trkpt>
<trkpt lat="46.053741" lon="13.474395">
<time>2021-07-18T09:47:09Z</time>
</trkpt>
<trkpt lat="46.05377" lon="13.474416">
<time>2021-07-18T09:47:10Z</time>
</trkpt>
<trkpt lat="46.053803" lon="13.474438">
<time>2021-07-18T09:47:11Z</time>
</trkpt>
<trkpt lat="46.053835" lon="13.474461">
<time>2021-07-18T09:47:12Z</time>
</trkpt>
<trkpt lat="46.053861" lon="13.474485">
<time>2021-07-18T09:47:13Z</time>
</trkpt>
<trkpt lat="46.0539" lon="13.474501">
<time>2021-07-18T09:47:14Z</time>
</trkpt>
<trkpt lat="46.053945" lon="13.474518">
<time>2021-07-18T09:47:15Z</time>
</trkpt>
<trkpt lat="46.053993" lon="13.474536">
<time>2021-07-18T09:47:16Z</time>
</trkpt>
<trkpt lat="46.054048" lon="13.474555">
<time>2021-07-18T09:47:17Z</time>
</trkpt>
<trkpt lat="46.054103" lon="13.474578">
<time>2021-07-18T09:47:18Z</time>
</trkpt>
<trkpt lat="46.054156" lon="13.474605">
<time>2021-07-18T09:47:19Z</time>
</trkpt>
<trkpt lat="46.0542" lon="13.474615">
<time>2021-07-18T09:47:20Z</time>
</trkpt>
<trkpt lat="46.054261" lon="13.474611">
<time>2021-07-18T09:47:21Z</time>
</trkpt>
<trkpt lat="46.054311" lon="13.474596">
<time>2021-07-18T09:47:22Z</time>
</trkpt>
<trkpt lat="46.054363" lon="13.474573">
<time>2021-07-18T09:47:23Z</time>
</trkpt>
<trkpt lat="46.054411" lon="13.474545">
<time>2021-07-18T09:47:24Z</time>
</trkpt>
<trkpt lat="46.054455" lon="13.474518">
<time>2021-07-18T09:47:25Z</time>
</trkpt>
<trkpt lat="46.05449" lon="13.47449">
<time>2021-07-18T09:47:26Z</time>
</trkpt>
<trkpt lat="46.054523" lon="13.474456">
<time>2021-07-18T09:47:27Z</time>
</trkpt>
<trkpt lat="46.05456" lon="13.47443">
<time>2021-07-18T09:47:28Z</time>
</trkpt>
<trkpt lat="46.054601" lon="13.47441">
<time>2021-07-18T09:47:29Z</time>
</trkpt>
<trkpt lat="46.054646" lon="13.474393">
<time>2021-07-18T09:47:30Z</time>
</trkpt>
<trkpt lat="46.054693" lon="13.474376">
<time>2021-07-18T09:47:31Z</time>
</trkpt>
<trkpt lat="46.054741" lon="13.474363">
<time>2021-07-18T09:47:32Z</time>
</trkpt>
<trkpt lat="46.05479" lon="13.474348">
<time>2021-07-18T09:47:33Z</time>
</trkpt>
<trkpt lat="46.054838" lon="13.474331">
<time>2021-07-18T09:47:34Z</time>
</trkpt>
<trkpt lat="46.054886" lon="13.474313">
<time>2021-07-18T09:47:35Z</time>
</trkpt>
<trkpt lat="46.054935" lon="13.474291">
<time>2021-07-18T09:47:36Z</time>
</trkpt>
<trkpt lat="46.054983" lon="13.47427">
<time>2021-07-18T09:47:37Z</time>
</trkpt>
<trkpt lat="46.055031" lon="13.474248">
<time>2021-07-18T09:47:38Z</time>
</trkpt>
<trkpt lat="46.055078" lon="13.474225">
<time>2021-07-18T09:47:39Z</time>
</trkpt>
<trkpt lat="46.055125" lon="13.474198">
<time>2021-07-18T09:47:40Z</time>
</trkpt>
<trkpt lat="46.055171" lon="13.474173">
<time>2021-07-18T09:47:41Z</time>
</trkpt>
<trkpt lat="46.055218" lon="13.474153">
<time>2021-07-18T09:47:42Z</time>
</trkpt>
<trkpt lat="46.055263" lon="13.47414">
<time>2021-07-18T09:47:43Z</time>
</trkpt>
<trkpt lat="46.055308" lon="13.474138">
<time>2021-07-18T09:47:44Z</time>
</trkpt>
<trkpt lat="46.055348" lon="13.474146">
<time>2021-07-18T09:47:45Z</time>
</trkpt>
<trkpt lat="46.05539" lon="13.474158">
<time>2021-07-18T09:47:46Z</time>
</trkpt>
<trkpt lat="46.05543" lon="13.474165">
<time>2021-07-18T09:47:47Z</time>
</trkpt>
<trkpt lat="46.055468" lon="13.47417">
<time>2021-07-18T09:47:48Z</time>
</trkpt>
<trkpt lat="46.05551" lon="13.474173">
<time>2021-07-18T09:47:49Z</time>
</trkpt>
<trkpt lat="46.055555" lon="13.474173">
<time>2021-07-18T09:47:50Z</time>
</trkpt>
<trkpt lat="46.055596" lon="13.474178">
<time>2021-07-18T09:47:51Z</time>
</trkpt>
<trkpt lat="46.05564" lon="13.47419">
<time>2021-07-18T09:47:52Z</time>
</trkpt>
<trkpt lat="46.055683" lon="13.474206">
<time>2021-07-18T09:47:53Z</time>
</trkpt>
<trkpt lat="46.055728" lon="13.474226">
<time>2021-07-18T09:47:54Z</time>
</trkpt>
<trkpt lat="46.055773" lon="13.474251">
<time>2021-07-18T09:47:55Z</time>
</trkpt>
<trkpt lat="46.055821" lon="13.474275">
<time>2021-07-18T09:47:56Z</time>
</trkpt>
<trkpt lat="46.055871" lon="13.474296">
<time>2021-07-18T09:47:57Z</time>
</trkpt>
<trkpt lat="46.055925" lon="13.47432">
<time>2021-07-18T09:47:58Z</time>
</trkpt>
<trkpt lat="46.055978" lon="13.474345">
<time>2021-07-18T09:47:59Z</time>
</trkpt>
<trkpt lat="46.056033" lon="13.474368">
<time>2021-07-18T09:48:00Z</time>
</trkpt>
<trkpt lat="46.056093" lon="13.474395">
<time>2021-07-18T09:48:01Z</time>
</trkpt>
<trkpt lat="46.05615" lon="13.47442">
<time>2021-07-18T09:48:02Z</time>
</trkpt>
<trkpt lat="46.056206" lon="13.47444">
<time>2021-07-18T09:48:03Z</time>
</trkpt>
<trkpt lat="46.056261" lon="13.474455">
<time>2021-07-18T09:48:04Z</time>
</trkpt>
<trkpt lat="46.056306" lon="13.474465">
<time>2021-07-18T09:48:05Z</time>
</trkpt>
<trkpt lat="46.05635" lon="13.474473">
<time>2021-07-18T09:48:06Z</time>
</trkpt>
<trkpt lat="46.056391" lon="13.474485">
<time>2021-07-18T09:48:07Z</time>
</trkpt>
<trkpt lat="46.056433" lon="13.474493">
<time>2021-07-18T09:48:08Z</time>
</trkpt>
<trkpt lat="46.056468" lon="13.474493">
<time>2021-07-18T09:48:09Z</time>
</trkpt>
<trkpt lat="46.056498" lon="13.474491">
<time>2021-07-18T09:48:10Z</time>
</trkpt>
<trkpt lat="46.056528" lon="13.47449">
<time>2021-07-18T09:48:11Z</time>
</trkpt>
<trkpt lat="46.056563" lon="13.474493">
<time>2021-07-18T09:48:12Z</time>
</trkpt>
<trkpt lat="46.05661" lon="13.474503">
<time>2021-07-18T09:48:13Z</time>
</trkpt>
<trkpt lat="46.056665" lon="13.47451">
<time>2021-07-18T09:48:14Z</time>
</trkpt>
<trkpt lat="46.056726" lon="13.47451">
<time>2021-07-18T09:48:15Z</time>
</trkpt>
<trkpt lat="46.056796" lon="13.474506">
<time>2021-07-18T09:48:16Z</time>
</trkpt>
<trkpt lat="46.056875" lon="13.474505">
<time>2021-07-18T09:48:17Z</time>
</trkpt>
<trkpt lat="46.056938" lon="13.474496">
<time>2021-07-18T09:48:18Z</time>
</trkpt>
<trkpt lat="46.057001" lon="13.47449">
<time>2021-07-18T09:48:19Z</time>
</trkpt>
<trkpt lat="46.057061" lon="13.474491">
<time>2021-07-18T09:48:20Z</time>
</trkpt>
<trkpt lat="46.057113" lon="13.474506">
<time>2021-07-18T09:48:21Z</time>
</trkpt>
<trkpt lat="46.057166" lon="13.474521">
<time>2021-07-18T09:48:22Z</time>
</trkpt>
<trkpt lat="46.05722" lon="13.474525">
<time>2021-07-18T09:48:23Z</time>
</trkpt>
<trkpt lat="46.057268" lon="13.474528">
<time>2021-07-18T09:48:24Z</time>
</trkpt>
<trkpt lat="46.05731" lon="13.47452">
<time>2021-07-18T09:48:25Z</time>
</trkpt>
<trkpt lat="46.05735" lon="13.474491">
<time>2021-07-18T09:48:26Z</time>
</trkpt>
<trkpt lat="46.05738" lon="13.474453">
<time>2021-07-18T09:48:27Z</time>
</trkpt>
<trkpt lat="46.057411" lon="13.474395">
<time>2021-07-18T09:48:28Z</time>
</trkpt>
<trkpt lat="46.057441" lon="13.47434">
<time>2021-07-18T09:48:29Z</time>
</trkpt>
<trkpt lat="46.057466" lon="13.474281">
<time>2021-07-18T09:48:30Z</time>
</trkpt>
<trkpt lat="46.057486" lon="13.474216">
<time>2021-07-18T09:48:31Z</time>
</trkpt>
<trkpt lat="46.057511" lon="13.474143">
<time>2021-07-18T09:48:32Z</time>
</trkpt>
<trkpt lat="46.05753" lon="13.474073">
<time>2021-07-18T09:48:33Z</time>
</trkpt>
<trkpt lat="46.057553" lon="13.474003">
<time>2021-07-18T09:48:34Z</time>
</trkpt>
<trkpt lat="46.057585" lon="13.473938">
<time>2021-07-18T09:48:35Z</time>
</trkpt>
<trkpt lat="46.057621" lon="13.473878">
<time>2021-07-18T09:48:36Z</time>
</trkpt>
<trkpt lat="46.057656" lon="13.473823">
<time>2021-07-18T09:48:37Z</time>
</trkpt>
<trkpt lat="46.057693" lon="13.473771">
<time>2021-07-18T09:48:38Z</time>
</trkpt>
<trkpt lat="46.057723" lon="13.473715">
<time>2021-07-18T09:48:39Z</time>
</trkpt>
<trkpt lat="46.057765" lon="13.473663">
<time>2021-07-18T09:48:40Z</time>
</trkpt>
<trkpt lat="46.057803" lon="13.473615">
<time>2021-07-18T09:48:41Z</time>
</trkpt>
<trkpt lat="46.057838" lon="13.473561">
<time>2021-07-18T09:48:42Z</time>
</trkpt>
<trkpt lat="46.057871" lon="13.473516">
<time>2021-07-18T09:48:43Z</time>
</trkpt>
<trkpt lat="46.057906" lon="13.473468">
<time>2021-07-18T09:48:44Z</time>
</trkpt>
<trkpt lat="46.05794" lon="13.473423">
<time>2021-07-18T09:48:45Z</time>
</trkpt>
<trkpt lat="46.057968" lon="13.473375">
<time>2021-07-18T09:48:46Z</time>
</trkpt>
<trkpt lat="46.057998" lon="13.47333">
<time>2021-07-18T09:48:47Z</time>
</trkpt>
<trkpt lat="46.058028" lon="13.473281">
<time>2021-07-18T09:48:48Z</time>
</trkpt>
<trkpt lat="46.058048" lon="13.473233">
<time>2021-07-18T09:48:49Z</time>
</trkpt>
<trkpt lat="46.058071" lon="13.473183">
<time>2021-07-18T09:48:50Z</time>
</trkpt>
<trkpt lat="46.05809" lon="13.473135">
<time>2021-07-18T09:48:51Z</time>
</trkpt>
<trkpt lat="46.058101" lon="13.473086">
<time>2021-07-18T09:48:52Z</time>
</trkpt>
<trkpt lat="46.058113" lon="13.473026">
<time>2021-07-18T09:48:53Z</time>
</trkpt>
<trkpt lat="46.058125" lon="13.472943">
<time>2021-07-18T09:48:54Z</time>
</trkpt>
<trkpt lat="46.058141" lon="13.472866">
<time>2021-07-18T09:48:55Z</time>
</trkpt>
<trkpt lat="46.058156" lon="13.472796">
<time>2021-07-18T09:48:56Z</time>
</trkpt>
<trkpt lat="46.058163" lon="13.47272">
<time>2021-07-18T09:48:57Z</time>
</trkpt>
<trkpt lat="46.058178" lon="13.472655">
<time>2021-07-18T09:48:58Z</time>
</trkpt>
<trkpt lat="46.058205" lon="13.472598">
<time>2021-07-18T09:48:59Z</time>
</trkpt>
<trkpt lat="46.05823" lon="13.472553">
<time>2021-07-18T09:49:00Z</time>
</trkpt>
<trkpt lat="46.058256" lon="13.472516">
<time>2021-07-18T09:49:01Z</time>
</trkpt>
<trkpt lat="46.058278" lon="13.472485">
<time>2021-07-18T09:49:02Z</time>
</trkpt>
<trkpt lat="46.058305" lon="13.472456">
<time>2021-07-18T09:49:03Z</time>
</trkpt>
<trkpt lat="46.058328" lon="13.472426">
<time>2021-07-18T09:49:04Z</time>
</trkpt>
<trkpt lat="46.058351" lon="13.472401">
<time>2021-07-18T09:49:05Z</time>
</trkpt>
<trkpt lat="46.058371" lon="13.472383">
<time>2021-07-18T09:49:06Z</time>
</trkpt>
<trkpt lat="46.058396" lon="13.472366">
<time>2021-07-18T09:49:07Z</time>
</trkpt>
<trkpt lat="46.058433" lon="13.472353">
<time>2021-07-18T09:49:08Z</time>
</trkpt>
<trkpt lat="46.05847" lon="13.472333">
<time>2021-07-18T09:49:09Z</time>
</trkpt>
<trkpt lat="46.058498" lon="13.472313">
<time>2021-07-18T09:49:10Z</time>
</trkpt>
<trkpt lat="46.058521" lon="13.47229">
<time>2021-07-18T09:49:11Z</time>
</trkpt>
<trkpt lat="46.058543" lon="13.472276">
<time>2021-07-18T09:49:12Z</time>
</trkpt>
<trkpt lat="46.058563" lon="13.47226">
<time>2021-07-18T09:49:13Z</time>
</trkpt>
<trkpt lat="46.058585" lon="13.47224">
<time>2021-07-18T09:49:14Z</time>
</trkpt>
<trkpt lat="46.058608" lon="13.47222">
<time>2021-07-18T09:49:15Z</time>
</trkpt>
<trkpt lat="46.05863" lon="13.472201">
<time>2021-07-18T09:49:16Z</time>
</trkpt>
<trkpt lat="46.05865" lon="13.472185">
<time>2021-07-18T09:49:17Z</time>
</trkpt>
<trkpt lat="46.058675" lon="13.472171">
<time>2021-07-18T09:49:18Z</time>
</trkpt>
<trkpt lat="46.058696" lon="13.47216">
<time>2021-07-18T09:49:19Z</time>
</trkpt>
<trkpt lat="46.058723" lon="13.472153">
<time>2021-07-18T09:49:20Z</time>
</trkpt>
<trkpt lat="46.058743" lon="13.472138">
<time>2021-07-18T09:49:21Z</time>
</trkpt>
<trkpt lat="46.058765" lon="13.47212">
<time>2021-07-18T09:49:22Z</time>
</trkpt>
<trkpt lat="46.058783" lon="13.4721">
<time>2021-07-18T09:49:23Z</time>
</trkpt>
<trkpt lat="46.058795" lon="13.472078">
<time>2021-07-18T09:49:24Z</time>
</trkpt>
<trkpt lat="46.058796" lon="13.472055">
<time>2021-07-18T09:49:25Z</time>
</trkpt>
<trkpt lat="46.058801" lon="13.47203">
<time>2021-07-18T09:49:26Z</time>
</trkpt>
<trkpt lat="46.058803" lon="13.472003">
<time>2021-07-18T09:49:27Z</time>
</trkpt>
<trkpt lat="46.058806" lon="13.471981">
<time>2021-07-18T09:49:28Z</time>
</trkpt>
<trkpt lat="46.058811" lon="13.471966">
<time>2021-07-18T09:49:29Z</time>
</trkpt>
<trkpt lat="46.058818" lon="13.471965">
<time>2021-07-18T09:49:30Z</time>
</trkpt>
<trkpt lat="46.058823" lon="13.471971">
<time>2021-07-18T09:49:31Z</time>
</trkpt>
<trkpt lat="46.058833" lon="13.471988">
<time>2021-07-18T09:49:32Z</time>
</trkpt>
<trkpt lat="46.05885" lon="13.472011">
<time>2021-07-18T09:49:33Z</time>
</trkpt>
<trkpt lat="46.058871" lon="13.472038">
<time>2021-07-18T09:49:34Z</time>
</trkpt>
<trkpt lat="46.058896" lon="13.472065">
<time>2021-07-18T09:49:35Z</time>
</trkpt>
<trkpt lat="46.058923" lon="13.472083">
<time>2021-07-18T09:49:36Z</time>
</trkpt>
<trkpt lat="46.05895" lon="13.472091">
<time>2021-07-18T09:49:37Z</time>
</trkpt>
<trkpt lat="46.058983" lon="13.472075">
<time>2021-07-18T09:49:38Z</time>
</trkpt>
<trkpt lat="46.05903" lon="13.472046">
<time>2021-07-18T09:49:39Z</time>
</trkpt>
<trkpt lat="46.059081" lon="13.472011">
<time>2021-07-18T09:49:40Z</time>
</trkpt>
<trkpt lat="46.059133" lon="13.471975">
<time>2021-07-18T09:49:41Z</time>
</trkpt>
<trkpt lat="46.059178" lon="13.47192">
<time>2021-07-18T09:49:42Z</time>
</trkpt>
<trkpt lat="46.059205" lon="13.471878">
<time>2021-07-18T09:49:43Z</time>
</trkpt>
<trkpt lat="46.059233" lon="13.471828">
<time>2021-07-18T09:49:44Z</time>
</trkpt>
<trkpt lat="46.059258" lon="13.471783">
<time>2021-07-18T09:49:45Z</time>
</trkpt>
<trkpt lat="46.05929" lon="13.471741">
<time>2021-07-18T09:49:46Z</time>
</trkpt>
<trkpt lat="46.05933" lon="13.471691">
<time>2021-07-18T09:49:47Z</time>
</trkpt>
<trkpt lat="46.059365" lon="13.471656">
<time>2021-07-18T09:49:48Z</time>
</trkpt>
<trkpt lat="46.059396" lon="13.471598">
<time>2021-07-18T09:49:49Z</time>
</trkpt>
<trkpt lat="46.05943" lon="13.47152">
<time>2021-07-18T09:49:50Z</time>
</trkpt>
<trkpt lat="46.059455" lon="13.47146">
<time>2021-07-18T09:49:51Z</time>
</trkpt>
<trkpt lat="46.059493" lon="13.471381">
<time>2021-07-18T09:49:52Z</time>
</trkpt>
<trkpt lat="46.05951" lon="13.471321">
<time>2021-07-18T09:49:53Z</time>
</trkpt>
<trkpt lat="46.05952" lon="13.471243">
<time>2021-07-18T09:49:54Z</time>
</trkpt>
<trkpt lat="46.059513" lon="13.471161">
<time>2021-07-18T09:49:55Z</time>
</trkpt>
<trkpt lat="46.05951" lon="13.471068">
<time>2021-07-18T09:49:56Z</time>
</trkpt>
<trkpt lat="46.059501" lon="13.470981">
<time>2021-07-18T09:49:57Z</time>
</trkpt>
<trkpt lat="46.059491" lon="13.47091">
<time>2021-07-18T09:49:58Z</time>
</trkpt>
<trkpt lat="46.059491" lon="13.47083">
<time>2021-07-18T09:49:59Z</time>
</trkpt>
<trkpt lat="46.05948" lon="13.470748">
<time>2021-07-18T09:50:00Z</time>
</trkpt>
<trkpt lat="46.059468" lon="13.470668">
<time>2021-07-18T09:50:01Z</time>
</trkpt>
<trkpt lat="46.059445" lon="13.470591">
<time>2021-07-18T09:50:02Z</time>
</trkpt>
<trkpt lat="46.059425" lon="13.470521">
<time>2021-07-18T09:50:03Z</time>
</trkpt>
<trkpt lat="46.059391" lon="13.470453">
<time>2021-07-18T09:50:04Z</time>
</trkpt>
<trkpt lat="46.059365" lon="13.470368">
<time>2021-07-18T09:50:05Z</time>
</trkpt>
<trkpt lat="46.05934" lon="13.470291">
<time>2021-07-18T09:50:06Z</time>
</trkpt>
<trkpt lat="46.059311" lon="13.470218">
<time>2021-07-18T09:50:07Z</time>
</trkpt>
<trkpt lat="46.059286" lon="13.47015">
<time>2021-07-18T09:50:08Z</time>
</trkpt>
<trkpt lat="46.059263" lon="13.470096">
<time>2021-07-18T09:50:09Z</time>
</trkpt>
<trkpt lat="46.059231" lon="13.47001">
<time>2021-07-18T09:50:10Z</time>
</trkpt>
<trkpt lat="46.059198" lon="13.469935">
<time>2021-07-18T09:50:11Z</time>
</trkpt>
<trkpt lat="46.059163" lon="13.469855">
<time>2021-07-18T09:50:12Z</time>
</trkpt>
<trkpt lat="46.059138" lon="13.469788">
<time>2021-07-18T09:50:13Z</time>
</trkpt>
<trkpt lat="46.05911" lon="13.469701">
<time>2021-07-18T09:50:14Z</time>
</trkpt>
<trkpt lat="46.059083" lon="13.469606">
<time>2021-07-18T09:50:15Z</time>
</trkpt>
<trkpt lat="46.059051" lon="13.469493">
<time>2021-07-18T09:50:16Z</time>
</trkpt>
<trkpt lat="46.05903" lon="13.469408">
<time>2021-07-18T09:50:17Z</time>
</trkpt>
<trkpt lat="46.059006" lon="13.469308">
<time>2021-07-18T09:50:18Z</time>
</trkpt>
<trkpt lat="46.05898" lon="13.469198">
<time>2021-07-18T09:50:19Z</time>
</trkpt>
<trkpt lat="46.05896" lon="13.469108">
<time>2021-07-18T09:50:20Z</time>
</trkpt>
<trkpt lat="46.058935" lon="13.469018">
<time>2021-07-18T09:50:21Z</time>
</trkpt>
<trkpt lat="46.058911" lon="13.468935">
<time>2021-07-18T09:50:22Z</time>
</trkpt>
<trkpt lat="46.058883" lon="13.468856">
<time>2021-07-18T09:50:23Z</time>
</trkpt>
<trkpt lat="46.058848" lon="13.468783">
<time>2021-07-18T09:50:24Z</time>
</trkpt>
<trkpt lat="46.058803" lon="13.468711">
<time>2021-07-18T09:50:25Z</time>
</trkpt>
<trkpt lat="46.058755" lon="13.468641">
<time>2021-07-18T09:50:26Z</time>
</trkpt>
<trkpt lat="46.058705" lon="13.46857">
<time>2021-07-18T09:50:27Z</time>
</trkpt>
<trkpt lat="46.058656" lon="13.468493">
<time>2021-07-18T09:50:28Z</time>
</trkpt>
<trkpt lat="46.058613" lon="13.468411">
<time>2021-07-18T09:50:29Z</time>
</trkpt>
<trkpt lat="46.05857" lon="13.468323">
<time>2021-07-18T09:50:30Z</time>
</trkpt>
<trkpt lat="46.058531" lon="13.468236">
<time>2021-07-18T09:50:31Z</time>
</trkpt>
<trkpt lat="46.058495" lon="13.468138">
<time>2021-07-18T09:50:32Z</time>
</trkpt>
<trkpt lat="46.058458" lon="13.468033">
<time>2021-07-18T09:50:33Z</time>
</trkpt>
<trkpt lat="46.058431" lon="13.467931">
<time>2021-07-18T09:50:34Z</time>
</trkpt>
<trkpt lat="46.058403" lon="13.467831">
<time>2021-07-18T09:50:35Z</time>
</trkpt>
<trkpt lat="46.058378" lon="13.467735">
<time>2021-07-18T09:50:36Z</time>
</trkpt>
<trkpt lat="46.05835" lon="13.467636">
<time>2021-07-18T09:50:37Z</time>
</trkpt>
<trkpt lat="46.058323" lon="13.46754">
<time>2021-07-18T09:50:38Z</time>
</trkpt>
<trkpt lat="46.058295" lon="13.467441">
<time>2021-07-18T09:50:39Z</time>
</trkpt>
<trkpt lat="46.058268" lon="13.467351">
<time>2021-07-18T09:50:40Z</time>
</trkpt>
<trkpt lat="46.05824" lon="13.467255">
<time>2021-07-18T09:50:41Z</time>
</trkpt>
<trkpt lat="46.058205" lon="13.467168">
<time>2021-07-18T09:50:42Z</time>
</trkpt>
<trkpt lat="46.058171" lon="13.467071">
<time>2021-07-18T09:50:43Z</time>
</trkpt>
<trkpt lat="46.058141" lon="13.46698">
<time>2021-07-18T09:50:44Z</time>
</trkpt>
<trkpt lat="46.058106" lon="13.466893">
<time>2021-07-18T09:50:45Z</time>
</trkpt>
<trkpt lat="46.058083" lon="13.466816">
<time>2021-07-18T09:50:46Z</time>
</trkpt>
<trkpt lat="46.058056" lon="13.466713">
<time>2021-07-18T09:50:47Z</time>
</trkpt>
<trkpt lat="46.05804" lon="13.466648">
<time>2021-07-18T09:50:48Z</time>
</trkpt>
<trkpt lat="46.058026" lon="13.466566">
<time>2021-07-18T09:50:49Z</time>
</trkpt>
<trkpt lat="46.05802" lon="13.466493">
<time>2021-07-18T09:50:50Z</time>
</trkpt>
<trkpt lat="46.058018" lon="13.466421">
<time>2021-07-18T09:50:51Z</time>
</trkpt>
<trkpt lat="46.058013" lon="13.466353">
<time>2021-07-18T09:50:52Z</time>
</trkpt>
<trkpt lat="46.058006" lon="13.466295">
<time>2021-07-18T09:50:53Z</time>
</trkpt>
<trkpt lat="46.05799" lon="13.46624">
<time>2021-07-18T09:50:54Z</time>
</trkpt>
<trkpt lat="46.057963" lon="13.46619">
<time>2021-07-18T09:50:55Z</time>
</trkpt>
<trkpt lat="46.057941" lon="13.466146">
<time>2021-07-18T09:50:56Z</time>
</trkpt>
<trkpt lat="46.057921" lon="13.466108">
<time>2021-07-18T09:50:57Z</time>
</trkpt>
<trkpt lat="46.057901" lon="13.46607">
<time>2021-07-18T09:50:58Z</time>
</trkpt>
<trkpt lat="46.057883" lon="13.466033">
<time>2021-07-18T09:50:59Z</time>
</trkpt>
<trkpt lat="46.057861" lon="13.465995">
<time>2021-07-18T09:51:00Z</time>
</trkpt>
<trkpt lat="46.057836" lon="13.465955">
<time>2021-07-18T09:51:01Z</time>
</trkpt>
<trkpt lat="46.05781" lon="13.465911">
<time>2021-07-18T09:51:02Z</time>
</trkpt>
<trkpt lat="46.057778" lon="13.465861">
<time>2021-07-18T09:51:03Z</time>
</trkpt>
<trkpt lat="46.057745" lon="13.465806">
<time>2021-07-18T09:51:04Z</time>
</trkpt>
<trkpt lat="46.057706" lon="13.46575">
<time>2021-07-18T09:51:05Z</time>
</trkpt>
<trkpt lat="46.057661" lon="13.465686">
<time>2021-07-18T09:51:06Z</time>
</trkpt>
<trkpt lat="46.057613" lon="13.46562">
<time>2021-07-18T09:51:07Z</time>
</trkpt>
<trkpt lat="46.057558" lon="13.465548">
<time>2021-07-18T09:51:08Z</time>
</trkpt>
<trkpt lat="46.057503" lon="13.465471">
<time>2021-07-18T09:51:09Z</time>
</trkpt>
<trkpt lat="46.05745" lon="13.46539">
<time>2021-07-18T09:51:10Z</time>
</trkpt>
<trkpt lat="46.057396" lon="13.465311">
<time>2021-07-18T09:51:11Z</time>
</trkpt>
<trkpt lat="46.057346" lon="13.465228">
<time>2021-07-18T09:51:12Z</time>
</trkpt>
<trkpt lat="46.0573" lon="13.46514">
<time>2021-07-18T09:51:13Z</time>
</trkpt>
<trkpt lat="46.05726" lon="13.465055">
<time>2021-07-18T09:51:14Z</time>
</trkpt>
<trkpt lat="46.057228" lon="13.464981">
<time>2021-07-18T09:51:15Z</time>
</trkpt>
<trkpt lat="46.0572" lon="13.464925">
<time>2021-07-18T09:51:16Z</time>
</trkpt>
<trkpt lat="46.05718" lon="13.464886">
<time>2021-07-18T09:51:17Z</time>
</trkpt>
<trkpt lat="46.057166" lon="13.464866">
<time>2021-07-18T09:51:18Z</time>
</trkpt>
<trkpt lat="46.057155" lon="13.464858">
<time>2021-07-18T09:51:19Z</time>
</trkpt>
<trkpt lat="46.057138" lon="13.46486">
<time>2021-07-18T09:51:20Z</time>
</trkpt>
<trkpt lat="46.057111" lon="13.464861">
<time>2021-07-18T09:51:21Z</time>
</trkpt>
<trkpt lat="46.057061" lon="13.464858">
<time>2021-07-18T09:51:22Z</time>
</trkpt>
<trkpt lat="46.057015" lon="13.464856">
<time>2021-07-18T09:51:23Z</time>
</trkpt>
<trkpt lat="46.056978" lon="13.46485">
<time>2021-07-18T09:51:24Z</time>
</trkpt>
<trkpt lat="46.056931" lon="13.464846">
<time>2021-07-18T09:51:25Z</time>
</trkpt>
<trkpt lat="46.056888" lon="13.464843">
<time>2021-07-18T09:51:26Z</time>
</trkpt>
<trkpt lat="46.05685" lon="13.464836">
<time>2021-07-18T09:51:27Z</time>
</trkpt>
<trkpt lat="46.056828" lon="13.46483">
<time>2021-07-18T09:51:28Z</time>
</trkpt>
<trkpt lat="46.056798" lon="13.46482">
<time>2021-07-18T09:51:29Z</time>
</trkpt>
<trkpt lat="46.056771" lon="13.46482">
<time>2021-07-18T09:51:30Z</time>
</trkpt>
<trkpt lat="46.056738" lon="13.46482">
<time>2021-07-18T09:51:31Z</time>
</trkpt>
<trkpt lat="46.0567" lon="13.464826">
<time>2021-07-18T09:51:32Z</time>
</trkpt>
<trkpt lat="46.056661" lon="13.464841">
<time>2021-07-18T09:51:33Z</time>
</trkpt>
<trkpt lat="46.056625" lon="13.464856">
<time>2021-07-18T09:51:34Z</time>
</trkpt>
<trkpt lat="46.056593" lon="13.464865">
<time>2021-07-18T09:51:35Z</time>
</trkpt>
<trkpt lat="46.056565" lon="13.46487">
<time>2021-07-18T09:51:36Z</time>
</trkpt>
<trkpt lat="46.056548" lon="13.464873">
<time>2021-07-18T09:51:37Z</time>
</trkpt>
<trkpt lat="46.056541" lon="13.464873">
<time>2021-07-18T09:51:38Z</time>
</trkpt>
<trkpt lat="46.056538" lon="13.464875">
<time>2021-07-18T09:51:39Z</time>
</trkpt>
<trkpt lat="46.056536" lon="13.464875">
<time>2021-07-18T09:51:40Z</time>
</trkpt>
<trkpt lat="46.056535" lon="13.464868">
<time>2021-07-18T09:51:41Z</time>
</trkpt>
<trkpt lat="46.056533" lon="13.46485">
<time>2021-07-18T09:51:42Z</time>
</trkpt>
<trkpt lat="46.056526" lon="13.464826">
<time>2021-07-18T09:51:43Z</time>
</trkpt>
<trkpt lat="46.056518" lon="13.464805">
<time>2021-07-18T09:51:44Z</time>
</trkpt>
<trkpt lat="46.056506" lon="13.46478">
<time>2021-07-18T09:51:45Z</time>
</trkpt>
<trkpt lat="46.056491" lon="13.46475">
<time>2021-07-18T09:51:46Z</time>
</trkpt>
<trkpt lat="46.056473" lon="13.464716">
<time>2021-07-18T09:51:47Z</time>
</trkpt>
<trkpt lat="46.05645" lon="13.464681">
<time>2021-07-18T09:51:48Z</time>
</trkpt>
<trkpt lat="46.056423" lon="13.464643">
<time>2021-07-18T09:51:49Z</time>
</trkpt>
<trkpt lat="46.056395" lon="13.464601">
<time>2021-07-18T09:51:50Z</time>
</trkpt>
<trkpt lat="46.056365" lon="13.464555">
<time>2021-07-18T09:51:51Z</time>
</trkpt>
<trkpt lat="46.056336" lon="13.464508">
<time>2021-07-18T09:51:52Z</time>
</trkpt>
<trkpt lat="46.056308" lon="13.464465">
<time>2021-07-18T09:51:53Z</time>
</trkpt>
<trkpt lat="46.056285" lon="13.464421">
<time>2021-07-18T09:51:54Z</time>
</trkpt>
<trkpt lat="46.056263" lon="13.464386">
<time>2021-07-18T09:51:55Z</time>
</trkpt>
<trkpt lat="46.056241" lon="13.46437">
<time>2021-07-18T09:51:56Z</time>
</trkpt>
<trkpt lat="46.056223" lon="13.464368">
<time>2021-07-18T09:51:57Z</time>
</trkpt>
<trkpt lat="46.056213" lon="13.464375">
<time>2021-07-18T09:51:58Z</time>
</trkpt>
<trkpt lat="46.056213" lon="13.464391">
<time>2021-07-18T09:51:59Z</time>
</trkpt>
<trkpt lat="46.056216" lon="13.464406">
<time>2021-07-18T09:52:00Z</time>
</trkpt>
<trkpt lat="46.05622" lon="13.464418">
<time>2021-07-18T09:52:01Z</time>
</trkpt>
<trkpt lat="46.056225" lon="13.464423">
<time>2021-07-18T09:52:02Z</time>
</trkpt>
<trkpt lat="46.056221" lon="13.464418">
<time>2021-07-18T09:52:03Z</time>
</trkpt>
<trkpt lat="46.05622" lon="13.464411">
<time>2021-07-18T09:52:04Z</time>
</trkpt>
<trkpt lat="46.056218" lon="13.4644">
<time>2021-07-18T09:52:05Z</time>
</trkpt>
<trkpt lat="46.05622" lon="13.464385">
<time>2021-07-18T09:52:06Z</time>
</trkpt>
<trkpt lat="46.056226" lon="13.464371">
<time>2021-07-18T09:52:07Z</time>
</trkpt>
<trkpt lat="46.056236" lon="13.464356">
<time>2021-07-18T09:52:08Z</time>
</trkpt>
<trkpt lat="46.056251" lon="13.464341">
<time>2021-07-18T09:52:09Z</time>
</trkpt>
<trkpt lat="46.056266" lon="13.46433">
<time>2021-07-18T09:52:10Z</time>
</trkpt>
<trkpt lat="46.056285" lon="13.464315">
<time>2021-07-18T09:52:11Z</time>
</trkpt>
<trkpt lat="46.0563" lon="13.464298">
<time>2021-07-18T09:52:12Z</time>
</trkpt>
<trkpt lat="46.056315" lon="13.464283">
<time>2021-07-18T09:52:13Z</time>
</trkpt>
<trkpt lat="46.056328" lon="13.464268">
<time>2021-07-18T09:52:14Z</time>
</trkpt>
<trkpt lat="46.05634" lon="13.464251">
<time>2021-07-18T09:52:15Z</time>
</trkpt>
<trkpt lat="46.056355" lon="13.464235">
<time>2021-07-18T09:52:16Z</time>
</trkpt>
<trkpt lat="46.056366" lon="13.464218">
<time>2021-07-18T09:52:17Z</time>
</trkpt>
<trkpt lat="46.056378" lon="13.464201">
<time>2021-07-18T09:52:18Z</time>
</trkpt>
<trkpt lat="46.056391" lon="13.464185">
<time>2021-07-18T09:52:19Z</time>
</trkpt>
<trkpt lat="46.056403" lon="13.464168">
<time>2021-07-18T09:52:20Z</time>
</trkpt>
<trkpt lat="46.056416" lon="13.464155">
<time>2021-07-18T09:52:21Z</time>
</trkpt>
<trkpt lat="46.05643" lon="13.464141">
<time>2021-07-18T09:52:22Z</time>
</trkpt>
<trkpt lat="46.05644" lon="13.464128">
<time>2021-07-18T09:52:23Z</time>
</trkpt>
<trkpt lat="46.05645" lon="13.464111">
<time>2021-07-18T09:52:24Z</time>
</trkpt>
<trkpt lat="46.056461" lon="13.464096">
<time>2021-07-18T09:52:25Z</time>
</trkpt>
<trkpt lat="46.056475" lon="13.464078">
<time>2021-07-18T09:52:26Z</time>
</trkpt>
<trkpt lat="46.056488" lon="13.464063">
<time>2021-07-18T09:52:27Z</time>
</trkpt>
<trkpt lat="46.056503" lon="13.46405">
<time>2021-07-18T09:52:28Z</time>
</trkpt>
<trkpt lat="46.056518" lon="13.464038">
<time>2021-07-18T09:52:29Z</time>
</trkpt>
<trkpt lat="46.056535" lon="13.464031">
<time>2021-07-18T09:52:30Z</time>
</trkpt>
<trkpt lat="46.056555" lon="13.464031">
<time>2021-07-18T09:52:31Z</time>
</trkpt>
<trkpt lat="46.056573" lon="13.46404">
<time>2021-07-18T09:52:32Z</time>
</trkpt>
<trkpt lat="46.056591" lon="13.464056">
<time>2021-07-18T09:52:33Z</time>
</trkpt>
<trkpt lat="46.056611" lon="13.464076">
<time>2021-07-18T09:52:34Z</time>
</trkpt>
<trkpt lat="46.056635" lon="13.464103">
<time>2021-07-18T09:52:35Z</time>
</trkpt>
<trkpt lat="46.056656" lon="13.464136">
<time>2021-07-18T09:52:36Z</time>
</trkpt>
<trkpt lat="46.05668" lon="13.464171">
<time>2021-07-18T09:52:37Z</time>
</trkpt>
<trkpt lat="46.056706" lon="13.464206">
<time>2021-07-18T09:52:38Z</time>
</trkpt>
<trkpt lat="46.056733" lon="13.46424">
<time>2021-07-18T09:52:39Z</time>
</trkpt>
<trkpt lat="46.056761" lon="13.464275">
<time>2021-07-18T09:52:40Z</time>
</trkpt>
<trkpt lat="46.056788" lon="13.464313">
<time>2021-07-18T09:52:41Z</time>
</trkpt>
<trkpt lat="46.056816" lon="13.464351">
<time>2021-07-18T09:52:42Z</time>
</trkpt>
<trkpt lat="46.056846" lon="13.464391">
<time>2021-07-18T09:52:43Z</time>
</trkpt>
<trkpt lat="46.056875" lon="13.464431">
<time>2021-07-18T09:52:44Z</time>
</trkpt>
<trkpt lat="46.056905" lon="13.464468">
<time>2021-07-18T09:52:45Z</time>
</trkpt>
<trkpt lat="46.056933" lon="13.464506">
<time>2021-07-18T09:52:46Z</time>
</trkpt>
<trkpt lat="46.05696" lon="13.464543">
<time>2021-07-18T09:52:47Z</time>
</trkpt>
<trkpt lat="46.056986" lon="13.46458">
<time>2021-07-18T09:52:48Z</time>
</trkpt>
<trkpt lat="46.057011" lon="13.464618">
<time>2021-07-18T09:52:49Z</time>
</trkpt>
<trkpt lat="46.057035" lon="13.464655">
<time>2021-07-18T09:52:50Z</time>
</trkpt>
<trkpt lat="46.057063" lon="13.46469">
<time>2021-07-18T09:52:51Z</time>
</trkpt>
<trkpt lat="46.057091" lon="13.464726">
<time>2021-07-18T09:52:52Z</time>
</trkpt>
<trkpt lat="46.057116" lon="13.464765">
<time>2021-07-18T09:52:53Z</time>
</trkpt>
<trkpt lat="46.057141" lon="13.464806">
<time>2021-07-18T09:52:54Z</time>
</trkpt>
<trkpt lat="46.057166" lon="13.46485">
<time>2021-07-18T09:52:55Z</time>
</trkpt>
<trkpt lat="46.05719" lon="13.464891">
<time>2021-07-18T09:52:56Z</time>
</trkpt>
<trkpt lat="46.057216" lon="13.464931">
<time>2021-07-18T09:52:57Z</time>
</trkpt>
<trkpt lat="46.057241" lon="13.464973">
<time>2021-07-18T09:52:58Z</time>
</trkpt>
<trkpt lat="46.057268" lon="13.465018">
<time>2021-07-18T09:52:59Z</time>
</trkpt>
<trkpt lat="46.05729" lon="13.465068">
<time>2021-07-18T09:53:00Z</time>
</trkpt>
<trkpt lat="46.05731" lon="13.465116">
<time>2021-07-18T09:53:01Z</time>
</trkpt>
<trkpt lat="46.057328" lon="13.465163">
<time>2021-07-18T09:53:02Z</time>
</trkpt>
<trkpt lat="46.05735" lon="13.465208">
<time>2021-07-18T09:53:03Z</time>
</trkpt>
<trkpt lat="46.057373" lon="13.465253">
<time>2021-07-18T09:53:04Z</time>
</trkpt>
<trkpt lat="46.057391" lon="13.4653">
<time>2021-07-18T09:53:05Z</time>
</trkpt>
<trkpt lat="46.057408" lon="13.465343">
<time>2021-07-18T09:53:06Z</time>
</trkpt>
<trkpt lat="46.057428" lon="13.465385">
<time>2021-07-18T09:53:07Z</time>
</trkpt>
<trkpt lat="46.05745" lon="13.46542">
<time>2021-07-18T09:53:08Z</time>
</trkpt>
<trkpt lat="46.057476" lon="13.46545">
<time>2021-07-18T09:53:09Z</time>
</trkpt>
<trkpt lat="46.057501" lon="13.465478">
<time>2021-07-18T09:53:10Z</time>
</trkpt>
<trkpt lat="46.057528" lon="13.46551">
<time>2021-07-18T09:53:11Z</time>
</trkpt>
<trkpt lat="46.057553" lon="13.465543">
<time>2021-07-18T09:53:12Z</time>
</trkpt>
<trkpt lat="46.057578" lon="13.46558">
<time>2021-07-18T09:53:13Z</time>
</trkpt>
<trkpt lat="46.057605" lon="13.465611">
<time>2021-07-18T09:53:14Z</time>
</trkpt>
<trkpt lat="46.05763" lon="13.46564">
<time>2021-07-18T09:53:15Z</time>
</trkpt>
<trkpt lat="46.057655" lon="13.465668">
<time>2021-07-18T09:53:16Z</time>
</trkpt>
<trkpt lat="46.057676" lon="13.465698">
<time>2021-07-18T09:53:17Z</time>
</trkpt>
<trkpt lat="46.057698" lon="13.46573">
<time>2021-07-18T09:53:18Z</time>
</trkpt>
<trkpt lat="46.05772" lon="13.465765">
<time>2021-07-18T09:53:19Z</time>
</trkpt>
<trkpt lat="46.057741" lon="13.4658">
<time>2021-07-18T09:53:20Z</time>
</trkpt>
<trkpt lat="46.057761" lon="13.465831">
<time>2021-07-18T09:53:21Z</time>
</trkpt>
<trkpt lat="46.057783" lon="13.465865">
<time>2021-07-18T09:53:22Z</time>
</trkpt>
<trkpt lat="46.057805" lon="13.465898">
<time>2021-07-18T09:53:23Z</time>
</trkpt>
<trkpt lat="46.057826" lon="13.465935">
<time>2021-07-18T09:53:24Z</time>
</trkpt>
<trkpt lat="46.057848" lon="13.465973">
<time>2021-07-18T09:53:25Z</time>
</trkpt>
<trkpt lat="46.057871" lon="13.466015">
<time>2021-07-18T09:53:26Z</time>
</trkpt>
<trkpt lat="46.057895" lon="13.466055">
<time>2021-07-18T09:53:27Z</time>
</trkpt>
<trkpt lat="46.057918" lon="13.466096">
<time>2021-07-18T09:53:28Z</time>
</trkpt>
<trkpt lat="46.05794" lon="13.46614">
<time>2021-07-18T09:53:29Z</time>
</trkpt>
<trkpt lat="46.057965" lon="13.466183">
<time>2021-07-18T09:53:30Z</time>
</trkpt>
<trkpt lat="46.057988" lon="13.466221">
<time>2021-07-18T09:53:31Z</time>
</trkpt>
<trkpt lat="46.058013" lon="13.46626">
<time>2021-07-18T09:53:32Z</time>
</trkpt>
<trkpt lat="46.058036" lon="13.4663">
<time>2021-07-18T09:53:33Z</time>
</trkpt>
<trkpt lat="46.058055" lon="13.466338">
<time>2021-07-18T09:53:34Z</time>
</trkpt>
<trkpt lat="46.058068" lon="13.466375">
<time>2021-07-18T09:53:35Z</time>
</trkpt>
<trkpt lat="46.058076" lon="13.466418">
<time>2021-07-18T09:53:36Z</time>
</trkpt>
<trkpt lat="46.05808" lon="13.466468">
<time>2021-07-18T09:53:37Z</time>
</trkpt>
<trkpt lat="46.058078" lon="13.466525">
<time>2021-07-18T09:53:38Z</time>
</trkpt>
<trkpt lat="46.058078" lon="13.466586">
<time>2021-07-18T09:53:39Z</time>
</trkpt>
<trkpt lat="46.058081" lon="13.466655">
<time>2021-07-18T09:53:40Z</time>
</trkpt>
<trkpt lat="46.05809" lon="13.466723">
<time>2021-07-18T09:53:41Z</time>
</trkpt>
<trkpt lat="46.058105" lon="13.466793">
<time>2021-07-18T09:53:42Z</time>
</trkpt>
<trkpt lat="46.058126" lon="13.466865">
<time>2021-07-18T09:53:43Z</time>
</trkpt>
<trkpt lat="46.058151" lon="13.466936">
<time>2021-07-18T09:53:44Z</time>
</trkpt>
<trkpt lat="46.05818" lon="13.467015">
<time>2021-07-18T09:53:45Z</time>
</trkpt>
<trkpt lat="46.05821" lon="13.467093">
<time>2021-07-18T09:53:46Z</time>
</trkpt>
<trkpt lat="46.058235" lon="13.467185">
<time>2021-07-18T09:53:47Z</time>
</trkpt>
<trkpt lat="46.058258" lon="13.46728">
<time>2021-07-18T09:53:48Z</time>
</trkpt>
<trkpt lat="46.058288" lon="13.467368">
<time>2021-07-18T09:53:49Z</time>
</trkpt>
<trkpt lat="46.058325" lon="13.467445">
<time>2021-07-18T09:53:50Z</time>
</trkpt>
<trkpt lat="46.058363" lon="13.467496">
<time>2021-07-18T09:53:51Z</time>
</trkpt>
<trkpt lat="46.0584" lon="13.467535">
<time>2021-07-18T09:53:52Z</time>
</trkpt>
<trkpt lat="46.058435" lon="13.467566">
<time>2021-07-18T09:53:53Z</time>
</trkpt>
<trkpt lat="46.058471" lon="13.46759">
<time>2021-07-18T09:53:54Z</time>
</trkpt>
<trkpt lat="46.058498" lon="13.467606">
<time>2021-07-18T09:53:55Z</time>
</trkpt>
<trkpt lat="46.058523" lon="13.467618">
<time>2021-07-18T09:53:56Z</time>
</trkpt>
<trkpt lat="46.058543" lon="13.467626">
<time>2021-07-18T09:53:57Z</time>
</trkpt>
<trkpt lat="46.058565" lon="13.467635">
<time>2021-07-18T09:53:58Z</time>
</trkpt>
<trkpt lat="46.05859" lon="13.467643">
<time>2021-07-18T09:53:59Z</time>
</trkpt>
<trkpt lat="46.058616" lon="13.467648">
<time>2021-07-18T09:54:00Z</time>
</trkpt>
<trkpt lat="46.058641" lon="13.467655">
<time>2021-07-18T09:54:01Z</time>
</trkpt>
<trkpt lat="46.058665" lon="13.467665">
<time>2021-07-18T09:54:02Z</time>
</trkpt>
<trkpt lat="46.058688" lon="13.467673">
<time>2021-07-18T09:54:03Z</time>
</trkpt>
<trkpt lat="46.058713" lon="13.46768">
<time>2021-07-18T09:54:04Z</time>
</trkpt>
<trkpt lat="46.05874" lon="13.467686">
<time>2021-07-18T09:54:05Z</time>
</trkpt>
<trkpt lat="46.058761" lon="13.467706">
<time>2021-07-18T09:54:06Z</time>
</trkpt>
<trkpt lat="46.058778" lon="13.467735">
<time>2021-07-18T09:54:07Z</time>
</trkpt>
<trkpt lat="46.05879" lon="13.467766">
<time>2021-07-18T09:54:08Z</time>
</trkpt>
<trkpt lat="46.058796" lon="13.4678">
<time>2021-07-18T09:54:09Z</time>
</trkpt>
<trkpt lat="46.058798" lon="13.467833">
<time>2021-07-18T09:54:10Z</time>
</trkpt>
<trkpt lat="46.058798" lon="13.467865">
<time>2021-07-18T09:54:11Z</time>
</trkpt>
<trkpt lat="46.058796" lon="13.467896">
<time>2021-07-18T09:54:12Z</time>
</trkpt>
<trkpt lat="46.058793" lon="13.467925">
<time>2021-07-18T09:54:13Z</time>
</trkpt>
<trkpt lat="46.058795" lon="13.467958">
<time>2021-07-18T09:54:14Z</time>
</trkpt>
<trkpt lat="46.058796" lon="13.467988">
<time>2021-07-18T09:54:15Z</time>
</trkpt>
<trkpt lat="46.058796" lon="13.468018">
<time>2021-07-18T09:54:16Z</time>
</trkpt>
<trkpt lat="46.058801" lon="13.468046">
<time>2021-07-18T09:54:17Z</time>
</trkpt>
<trkpt lat="46.05881" lon="13.468073">
<time>2021-07-18T09:54:18Z</time>
</trkpt>
<trkpt lat="46.058823" lon="13.468098">
<time>2021-07-18T09:54:19Z</time>
</trkpt>
<trkpt lat="46.05884" lon="13.468118">
<time>2021-07-18T09:54:20Z</time>
</trkpt>
<trkpt lat="46.058856" lon="13.468138">
<time>2021-07-18T09:54:21Z</time>
</trkpt>
<trkpt lat="46.058878" lon="13.468151">
<time>2021-07-18T09:54:22Z</time>
</trkpt>
<trkpt lat="46.058896" lon="13.468168">
<time>2021-07-18T09:54:23Z</time>
</trkpt>
<trkpt lat="46.058921" lon="13.468185">
<time>2021-07-18T09:54:24Z</time>
</trkpt>
<trkpt lat="46.058943" lon="13.46821">
<time>2021-07-18T09:54:25Z</time>
</trkpt>
<trkpt lat="46.058961" lon="13.46824">
<time>2021-07-18T09:54:26Z</time>
</trkpt>
<trkpt lat="46.058978" lon="13.468273">
<time>2021-07-18T09:54:27Z</time>
</trkpt>
<trkpt lat="46.058991" lon="13.468306">
<time>2021-07-18T09:54:28Z</time>
</trkpt>
<trkpt lat="46.059" lon="13.468336">
<time>2021-07-18T09:54:29Z</time>
</trkpt>
<trkpt lat="46.05901" lon="13.468363">
<time>2021-07-18T09:54:30Z</time>
</trkpt>
<trkpt lat="46.059023" lon="13.468396">
<time>2021-07-18T09:54:31Z</time>
</trkpt>
<trkpt lat="46.059041" lon="13.468428">
<time>2021-07-18T09:54:32Z</time>
</trkpt>
<trkpt lat="46.059065" lon="13.468465">
<time>2021-07-18T09:54:33Z</time>
</trkpt>
<trkpt lat="46.059086" lon="13.468506">
<time>2021-07-18T09:54:34Z</time>
</trkpt>
<trkpt lat="46.059105" lon="13.468551">
<time>2021-07-18T09:54:35Z</time>
</trkpt>
<trkpt lat="46.059125" lon="13.468601">
<time>2021-07-18T09:54:36Z</time>
</trkpt>
<trkpt lat="46.059146" lon="13.46866">
<time>2021-07-18T09:54:37Z</time>
</trkpt>
<trkpt lat="46.059166" lon="13.468718">
<time>2021-07-18T09:54:38Z</time>
</trkpt>
<trkpt lat="46.059183" lon="13.468775">
<time>2021-07-18T09:54:39Z</time>
</trkpt>
<trkpt lat="46.059201" lon="13.468828">
<time>2021-07-18T09:54:40Z</time>
</trkpt>
<trkpt lat="46.059221" lon="13.46888">
<time>2021-07-18T09:54:41Z</time>
</trkpt>
<trkpt lat="46.059238" lon="13.46893">
<time>2021-07-18T09:54:42Z</time>
</trkpt>
<trkpt lat="46.05926" lon="13.468975">
<time>2021-07-18T09:54:43Z</time>
</trkpt>
<trkpt lat="46.059283" lon="13.46902">
<time>2021-07-18T09:54:44Z</time>
</trkpt>
<trkpt lat="46.05931" lon="13.46906">
<time>2021-07-18T09:54:45Z</time>
</trkpt>
<trkpt lat="46.059335" lon="13.469101">
<time>2021-07-18T09:54:46Z</time>
</trkpt>
<trkpt lat="46.059358" lon="13.469146">
<time>2021-07-18T09:54:47Z</time>
</trkpt>
<trkpt lat="46.059378" lon="13.469198">
<time>2021-07-18T09:54:48Z</time>
</trkpt>
<trkpt lat="46.05939" lon="13.469251">
<time>2021-07-18T09:54:49Z</time>
</trkpt>
<trkpt lat="46.059403" lon="13.469303">
<time>2021-07-18T09:54:50Z</time>
</trkpt>
<trkpt lat="46.059418" lon="13.469346">
<time>2021-07-18T09:54:51Z</time>
</trkpt>
<trkpt lat="46.05944" lon="13.469373">
<time>2021-07-18T09:54:52Z</time>
</trkpt>
<trkpt lat="46.059471" lon="13.469395">
<time>2021-07-18T09:54:53Z</time>
</trkpt>
<trkpt lat="46.059508" lon="13.469418">
<time>2021-07-18T09:54:54Z</time>
</trkpt>
<trkpt lat="46.059545" lon="13.469451">
<time>2021-07-18T09:54:55Z</time>
</trkpt>
<trkpt lat="46.059568" lon="13.469496">
<time>2021-07-18T09:54:56Z</time>
</trkpt>
<trkpt lat="46.059575" lon="13.469541">
<time>2021-07-18T09:54:57Z</time>
</trkpt>
<trkpt lat="46.059571" lon="13.469581">
<time>2021-07-18T09:54:58Z</time>
</trkpt>
<trkpt lat="46.059563" lon="13.469623">
<time>2021-07-18T09:54:59Z</time>
</trkpt>
<trkpt lat="46.059555" lon="13.469668">
<time>2021-07-18T09:55:00Z</time>
</trkpt>
<trkpt lat="46.059543" lon="13.46971">
<time>2021-07-18T09:55:01Z</time>
</trkpt>
<trkpt lat="46.059538" lon="13.469758">
<time>2021-07-18T09:55:02Z</time>
</trkpt>
<trkpt lat="46.059538" lon="13.469813">
<time>2021-07-18T09:55:03Z</time>
</trkpt>
<trkpt lat="46.059543" lon="13.46987">
<time>2021-07-18T09:55:04Z</time>
</trkpt>
<trkpt lat="46.059553" lon="13.469928">
<time>2021-07-18T09:55:05Z</time>
</trkpt>
<trkpt lat="46.059561" lon="13.469971">
<time>2021-07-18T09:55:06Z</time>
</trkpt>
<trkpt lat="46.05958" lon="13.470015">
<time>2021-07-18T09:55:07Z</time>
</trkpt>
<trkpt lat="46.059605" lon="13.470058">
<time>2021-07-18T09:55:08Z</time>
</trkpt>
<trkpt lat="46.059635" lon="13.470095">
<time>2021-07-18T09:55:09Z</time>
</trkpt>
<trkpt lat="46.059663" lon="13.470136">
<time>2021-07-18T09:55:10Z</time>
</trkpt>
<trkpt lat="46.0597" lon="13.470181">
<time>2021-07-18T09:55:11Z</time>
</trkpt>
<trkpt lat="46.059736" lon="13.470225">
<time>2021-07-18T09:55:12Z</time>
</trkpt>
<trkpt lat="46.059763" lon="13.470278">
<time>2021-07-18T09:55:13Z</time>
</trkpt>
<trkpt lat="46.059781" lon="13.470328">
<time>2021-07-18T09:55:14Z</time>
</trkpt>
<trkpt lat="46.05979" lon="13.470376">
<time>2021-07-18T09:55:15Z</time>
</trkpt>
<trkpt lat="46.059791" lon="13.47042">
<time>2021-07-18T09:55:16Z</time>
</trkpt>
<trkpt lat="46.059796" lon="13.470465">
<time>2021-07-18T09:55:17Z</time>
</trkpt>
<trkpt lat="46.059805" lon="13.470501">
<time>2021-07-18T09:55:18Z</time>
</trkpt>
<trkpt lat="46.059806" lon="13.470531">
<time>2021-07-18T09:55:19Z</time>
</trkpt>
<trkpt lat="46.05981" lon="13.470565">
<time>2021-07-18T09:55:20Z</time>
</trkpt>
<trkpt lat="46.059811" lon="13.470585">
<time>2021-07-18T09:55:21Z</time>
</trkpt>
<trkpt lat="46.059816" lon="13.470608">
<time>2021-07-18T09:55:22Z</time>
</trkpt>
<trkpt lat="46.059818" lon="13.470625">
<time>2021-07-18T09:55:23Z</time>
</trkpt>
<trkpt lat="46.059818" lon="13.470646">
<time>2021-07-18T09:55:24Z</time>
</trkpt>
<trkpt lat="46.059821" lon="13.470668">
<time>2021-07-18T09:55:25Z</time>
</trkpt>
<trkpt lat="46.059826" lon="13.47069">
<time>2021-07-18T09:55:26Z</time>
</trkpt>
<trkpt lat="46.059831" lon="13.47071">
<time>2021-07-18T09:55:27Z</time>
</trkpt>
<trkpt lat="46.05984" lon="13.470733">
<time>2021-07-18T09:55:28Z</time>
</trkpt>
<trkpt lat="46.059851" lon="13.470756">
<time>2021-07-18T09:55:29Z</time>
</trkpt>
<trkpt lat="46.059861" lon="13.47078">
<time>2021-07-18T09:55:30Z</time>
</trkpt>
<trkpt lat="46.059871" lon="13.470805">
<time>2021-07-18T09:55:31Z</time>
</trkpt>
<trkpt lat="46.059878" lon="13.470828">
<time>2021-07-18T09:55:32Z</time>
</trkpt>
<trkpt lat="46.059886" lon="13.470851">
<time>2021-07-18T09:55:33Z</time>
</trkpt>
<trkpt lat="46.059893" lon="13.470878">
<time>2021-07-18T09:55:34Z</time>
</trkpt>
<trkpt lat="46.059898" lon="13.4709">
<time>2021-07-18T09:55:35Z</time>
</trkpt>
<trkpt lat="46.059905" lon="13.470921">
<time>2021-07-18T09:55:36Z</time>
</trkpt>
<trkpt lat="46.059911" lon="13.470938">
<time>2021-07-18T09:55:37Z</time>
</trkpt>
<trkpt lat="46.059918" lon="13.470963">
<time>2021-07-18T09:55:38Z</time>
</trkpt>
<trkpt lat="46.059923" lon="13.47099">
<time>2021-07-18T09:55:39Z</time>
</trkpt>
<trkpt lat="46.059928" lon="13.471015">
<time>2021-07-18T09:55:40Z</time>
</trkpt>
<trkpt lat="46.059936" lon="13.471041">
<time>2021-07-18T09:55:41Z</time>
</trkpt>
<trkpt lat="46.059943" lon="13.471061">
<time>2021-07-18T09:55:42Z</time>
</trkpt>
<trkpt lat="46.05995" lon="13.471088">
<time>2021-07-18T09:55:43Z</time>
</trkpt>
<trkpt lat="46.059958" lon="13.471123">
<time>2021-07-18T09:55:44Z</time>
</trkpt>
<trkpt lat="46.059966" lon="13.47115">
<time>2021-07-18T09:55:45Z</time>
</trkpt>
<trkpt lat="46.059978" lon="13.471176">
<time>2021-07-18T09:55:46Z</time>
</trkpt>
<trkpt lat="46.059986" lon="13.471198">
<time>2021-07-18T09:55:47Z</time>
</trkpt>
<trkpt lat="46.059993" lon="13.471225">
<time>2021-07-18T09:55:48Z</time>
</trkpt>
<trkpt lat="46.060001" lon="13.47126">
<time>2021-07-18T09:55:49Z</time>
</trkpt>
<trkpt lat="46.060003" lon="13.471293">
<time>2021-07-18T09:55:50Z</time>
</trkpt>
<trkpt lat="46.060006" lon="13.471328">
<time>2021-07-18T09:55:51Z</time>
</trkpt>
<trkpt lat="46.06001" lon="13.471355">
<time>2021-07-18T09:55:52Z</time>
</trkpt>
<trkpt lat="46.060015" lon="13.471396">
<time>2021-07-18T09:55:53Z</time>
</trkpt>
<trkpt lat="46.060018" lon="13.471426">
<time>2021-07-18T09:55:54Z</time>
</trkpt>
<trkpt lat="46.060021" lon="13.47146">
<time>2021-07-18T09:55:55Z</time>
</trkpt>
<trkpt lat="46.060026" lon="13.471491">
<time>2021-07-18T09:55:56Z</time>
</trkpt>
<trkpt lat="46.060031" lon="13.471516">
<time>2021-07-18T09:55:57Z</time>
</trkpt>
<trkpt lat="46.060033" lon="13.471555">
<time>2021-07-18T09:55:58Z</time>
</trkpt>
<trkpt lat="46.060025" lon="13.47159">
<time>2021-07-18T09:55:59Z</time>
</trkpt>
<trkpt lat="46.060016" lon="13.471626">
<time>2021-07-18T09:56:00Z</time>
</trkpt>
<trkpt lat="46.060011" lon="13.471655">
<time>2021-07-18T09:56:01Z</time>
</trkpt>
<trkpt lat="46.06001" lon="13.471676">
<time>2021-07-18T09:56:02Z</time>
</trkpt>
<trkpt lat="46.060006" lon="13.471706">
<time>2021-07-18T09:56:03Z</time>
</trkpt>
<trkpt lat="46.060001" lon="13.471735">
<time>2021-07-18T09:56:04Z</time>
</trkpt>
<trkpt lat="46.06" lon="13.471756">
<time>2021-07-18T09:56:05Z</time>
</trkpt>
<trkpt lat="46.059996" lon="13.471775">
<time>2021-07-18T09:56:06Z</time>
</trkpt>
<trkpt lat="46.059996" lon="13.471793">
<time>2021-07-18T09:56:07Z</time>
</trkpt>
<trkpt lat="46.059998" lon="13.471818">
<time>2021-07-18T09:56:08Z</time>
</trkpt>
<trkpt lat="46.060003" lon="13.471845">
<time>2021-07-18T09:56:09Z</time>
</trkpt>
<trkpt lat="46.060011" lon="13.471873">
<time>2021-07-18T09:56:10Z</time>
</trkpt>
<trkpt lat="46.060016" lon="13.471896">
<time>2021-07-18T09:56:11Z</time>
</trkpt>
<trkpt lat="46.060021" lon="13.471923">
<time>2021-07-18T09:56:12Z</time>
</trkpt>
<trkpt lat="46.060025" lon="13.471943">
<time>2021-07-18T09:56:13Z</time>
</trkpt>
<trkpt lat="46.060028" lon="13.471966">
<time>2021-07-18T09:56:14Z</time>
</trkpt>
<trkpt lat="46.060033" lon="13.471993">
<time>2021-07-18T09:56:15Z</time>
</trkpt>
<trkpt lat="46.060041" lon="13.47202">
<time>2021-07-18T09:56:16Z</time>
</trkpt>
<trkpt lat="46.060046" lon="13.472041">
<time>2021-07-18T09:56:17Z</time>
</trkpt>
<trkpt lat="46.060055" lon="13.472058">
<time>2021-07-18T09:56:18Z</time>
</trkpt>
<trkpt lat="46.060056" lon="13.472068">
<time>2021-07-18T09:56:19Z</time>
</trkpt>
<trkpt lat="46.06006" lon="13.472083">
<time>2021-07-18T09:56:20Z</time>
</trkpt>
<trkpt lat="46.060066" lon="13.472105">
<time>2021-07-18T09:56:21Z</time>
</trkpt>
<trkpt lat="46.060073" lon="13.472135">
<time>2021-07-18T09:56:22Z</time>
</trkpt>
<trkpt lat="46.060075" lon="13.472175">
<time>2021-07-18T09:56:23Z</time>
</trkpt>
<trkpt lat="46.060075" lon="13.472218">
<time>2021-07-18T09:56:24Z</time>
</trkpt>
<trkpt lat="46.06007" lon="13.472256">
<time>2021-07-18T09:56:25Z</time>
</trkpt>
<trkpt lat="46.060051" lon="13.472301">
<time>2021-07-18T09:56:26Z</time>
</trkpt>
<trkpt lat="46.060033" lon="13.472343">
<time>2021-07-18T09:56:27Z</time>
</trkpt>
<trkpt lat="46.060016" lon="13.472385">
<time>2021-07-18T09:56:28Z</time>
</trkpt>
<trkpt lat="46.060006" lon="13.472428">
<time>2021-07-18T09:56:29Z</time>
</trkpt>
<trkpt lat="46.059995" lon="13.472465">
<time>2021-07-18T09:56:30Z</time>
</trkpt>
<trkpt lat="46.059981" lon="13.472498">
<time>2021-07-18T09:56:31Z</time>
</trkpt>
<trkpt lat="46.059975" lon="13.472528">
<time>2021-07-18T09:56:32Z</time>
</trkpt>
<trkpt lat="46.059968" lon="13.472568">
<time>2021-07-18T09:56:33Z</time>
</trkpt>
<trkpt lat="46.059963" lon="13.472605">
<time>2021-07-18T09:56:34Z</time>
</trkpt>
<trkpt lat="46.059955" lon="13.472636">
<time>2021-07-18T09:56:35Z</time>
</trkpt>
<trkpt lat="46.05995" lon="13.472676">
<time>2021-07-18T09:56:36Z</time>
</trkpt>
<trkpt lat="46.059946" lon="13.47272">
<time>2021-07-18T09:56:37Z</time>
</trkpt>
<trkpt lat="46.059946" lon="13.472761">
<time>2021-07-18T09:56:38Z</time>
</trkpt>
<trkpt lat="46.059946" lon="13.472806">
<time>2021-07-18T09:56:39Z</time>
</trkpt>
<trkpt lat="46.059945" lon="13.472855">
<time>2021-07-18T09:56:40Z</time>
</trkpt>
<trkpt lat="46.059935" lon="13.472908">
<time>2021-07-18T09:56:41Z</time>
</trkpt>
<trkpt lat="46.059916" lon="13.472963">
<time>2021-07-18T09:56:42Z</time>
</trkpt>
<trkpt lat="46.059906" lon="13.473028">
<time>2021-07-18T09:56:43Z</time>
</trkpt>
<trkpt lat="46.059898" lon="13.473093">
<time>2021-07-18T09:56:44Z</time>
</trkpt>
<trkpt lat="46.059895" lon="13.473161">
<time>2021-07-18T09:56:45Z</time>
</trkpt>
<trkpt lat="46.059893" lon="13.473226">
<time>2021-07-18T09:56:46Z</time>
</trkpt>
<trkpt lat="46.059885" lon="13.473293">
<time>2021-07-18T09:56:47Z</time>
</trkpt>
<trkpt lat="46.059871" lon="13.473366">
<time>2021-07-18T09:56:48Z</time>
</trkpt>
<trkpt lat="46.059861" lon="13.473443">
<time>2021-07-18T09:56:49Z</time>
</trkpt>
<trkpt lat="46.05986" lon="13.473516">
<time>2021-07-18T09:56:50Z</time>
</trkpt>
<trkpt lat="46.059861" lon="13.473588">
<time>2021-07-18T09:56:51Z</time>
</trkpt>
<trkpt lat="46.059855" lon="13.473661">
<time>2021-07-18T09:56:52Z</time>
</trkpt>
<trkpt lat="46.059841" lon="13.47374">
<time>2021-07-18T09:56:53Z</time>
</trkpt>
<trkpt lat="46.059831" lon="13.473821">
<time>2021-07-18T09:56:54Z</time>
</trkpt>
<trkpt lat="46.059823" lon="13.473905">
<time>2021-07-18T09:56:55Z</time>
</trkpt>
<trkpt lat="46.059813" lon="13.473983">
<time>2021-07-18T09:56:56Z</time>
</trkpt>
<trkpt lat="46.059808" lon="13.474055">
<time>2021-07-18T09:56:57Z</time>
</trkpt>
<trkpt lat="46.05981" lon="13.474131">
<time>2021-07-18T09:56:58Z</time>
</trkpt>
<trkpt lat="46.059808" lon="13.474218">
<time>2021-07-18T09:56:59Z</time>
</trkpt>
<trkpt lat="46.059816" lon="13.474308">
<time>2021-07-18T09:57:00Z</time>
</trkpt>
<trkpt lat="46.059828" lon="13.474403">
<time>2021-07-18T09:57:01Z</time>
</trkpt>
<trkpt lat="46.059836" lon="13.474493">
<time>2021-07-18T09:57:02Z</time>
</trkpt>
<trkpt lat="46.059841" lon="13.474583">
<time>2021-07-18T09:57:03Z</time>
</trkpt>
<trkpt lat="46.059838" lon="13.47468">
<time>2021-07-18T09:57:04Z</time>
</trkpt>
<trkpt lat="46.059826" lon="13.474783">
<time>2021-07-18T09:57:05Z</time>
</trkpt>
<trkpt lat="46.059815" lon="13.47489">
<time>2021-07-18T09:57:06Z</time>
</trkpt>
<trkpt lat="46.059796" lon="13.474998">
<time>2021-07-18T09:57:07Z</time>
</trkpt>
<trkpt lat="46.05977" lon="13.47511">
<time>2021-07-18T09:57:08Z</time>
</trkpt>
<trkpt lat="46.059745" lon="13.475223">
<time>2021-07-18T09:57:09Z</time>
</trkpt>
<trkpt lat="46.059725" lon="13.475323">
<time>2021-07-18T09:57:10Z</time>
</trkpt>
<trkpt lat="46.0597" lon="13.475413">
<time>2021-07-18T09:57:11Z</time>
</trkpt>
<trkpt lat="46.059673" lon="13.475501">
<time>2021-07-18T09:57:12Z</time>
</trkpt>
<trkpt lat="46.059641" lon="13.475578">
<time>2021-07-18T09:57:13Z</time>
</trkpt>
<trkpt lat="46.05961" lon="13.475661">
<time>2021-07-18T09:57:14Z</time>
</trkpt>
<trkpt lat="46.059581" lon="13.47575">
<time>2021-07-18T09:57:15Z</time>
</trkpt>
<trkpt lat="46.059558" lon="13.475845">
<time>2021-07-18T09:57:16Z</time>
</trkpt>
<trkpt lat="46.059538" lon="13.475945">
<time>2021-07-18T09:57:17Z</time>
</trkpt>
<trkpt lat="46.059521" lon="13.476048">
<time>2021-07-18T09:57:18Z</time>
</trkpt>
<trkpt lat="46.059498" lon="13.476146">
<time>2021-07-18T09:57:19Z</time>
</trkpt>
<trkpt lat="46.05947" lon="13.476236">
<time>2021-07-18T09:57:20Z</time>
</trkpt>
<trkpt lat="46.059443" lon="13.47633">
<time>2021-07-18T09:57:21Z</time>
</trkpt>
<trkpt lat="46.059423" lon="13.476428">
<time>2021-07-18T09:57:22Z</time>
</trkpt>
<trkpt lat="46.05941" lon="13.47652">
<time>2021-07-18T09:57:23Z</time>
</trkpt>
<trkpt lat="46.059391" lon="13.476598">
<time>2021-07-18T09:57:24Z</time>
</trkpt>
<trkpt lat="46.059371" lon="13.476646">
<time>2021-07-18T09:57:25Z</time>
</trkpt>
<trkpt lat="46.059351" lon="13.476668">
<time>2021-07-18T09:57:26Z</time>
</trkpt>
<trkpt lat="46.059338" lon="13.476671">
<time>2021-07-18T09:57:27Z</time>
</trkpt>
<trkpt lat="46.059331" lon="13.476648">
<time>2021-07-18T09:57:28Z</time>
</trkpt>
<trkpt lat="46.059331" lon="13.47661">
<time>2021-07-18T09:57:29Z</time>
</trkpt>
<trkpt lat="46.059341" lon="13.476553">
<time>2021-07-18T09:57:30Z</time>
</trkpt>
<trkpt lat="46.059341" lon="13.476485">
<time>2021-07-18T09:57:31Z</time>
</trkpt>
<trkpt lat="46.05934" lon="13.476406">
<time>2021-07-18T09:57:32Z</time>
</trkpt>
<trkpt lat="46.059331" lon="13.47631">
<time>2021-07-18T09:57:33Z</time>
</trkpt>
<trkpt lat="46.05933" lon="13.476208">
<time>2021-07-18T09:57:34Z</time>
</trkpt>
<trkpt lat="46.059331" lon="13.476096">
<time>2021-07-18T09:57:35Z</time>
</trkpt>
<trkpt lat="46.059333" lon="13.475986">
<time>2021-07-18T09:57:36Z</time>
</trkpt>
<trkpt lat="46.059331" lon="13.475875">
<time>2021-07-18T09:57:37Z</time>
</trkpt>
<trkpt lat="46.05933" lon="13.475753">
<time>2021-07-18T09:57:38Z</time>
</trkpt>
<trkpt lat="46.05933" lon="13.475631">
<time>2021-07-18T09:57:39Z</time>
</trkpt>
<trkpt lat="46.059335" lon="13.47551">
<time>2021-07-18T09:57:40Z</time>
</trkpt>
<trkpt lat="46.059345" lon="13.475395">
<time>2021-07-18T09:57:41Z</time>
</trkpt>
<trkpt lat="46.05935" lon="13.47529">
<time>2021-07-18T09:57:42Z</time>
</trkpt>
<trkpt lat="46.059331" lon="13.475175">
<time>2021-07-18T09:57:43Z</time>
</trkpt>
<trkpt lat="46.059316" lon="13.475068">
<time>2021-07-18T09:57:44Z</time>
</trkpt>
<trkpt lat="46.059303" lon="13.474968">
<time>2021-07-18T09:57:45Z</time>
</trkpt>
<trkpt lat="46.05927" lon="13.474871">
<time>2021-07-18T09:57:46Z</time>
</trkpt>
<trkpt lat="46.05924" lon="13.47478">
<time>2021-07-18T09:57:47Z</time>
</trkpt>
<trkpt lat="46.059211" lon="13.474701">
<time>2021-07-18T09:57:48Z</time>
</trkpt>
<trkpt lat="46.059191" lon="13.47462">
<time>2021-07-18T09:57:49Z</time>
</trkpt>
<trkpt lat="46.059168" lon="13.474536">
<time>2021-07-18T09:57:50Z</time>
</trkpt>
<trkpt lat="46.059138" lon="13.474468">
<time>2021-07-18T09:57:51Z</time>
</trkpt>
<trkpt lat="46.059098" lon="13.4744">
<time>2021-07-18T09:57:52Z</time>
</trkpt>
<trkpt lat="46.05905" lon="13.47432">
<time>2021-07-18T09:57:53Z</time>
</trkpt>
<trkpt lat="46.059001" lon="13.474241">
<time>2021-07-18T09:57:54Z</time>
</trkpt>
<trkpt lat="46.058975" lon="13.474178">
<time>2021-07-18T09:57:55Z</time>
</trkpt>
<trkpt lat="46.058951" lon="13.4741">
<time>2021-07-18T09:57:56Z</time>
</trkpt>
<trkpt lat="46.058956" lon="13.474028">
<time>2021-07-18T09:57:57Z</time>
</trkpt>
<trkpt lat="46.058978" lon="13.473963">
<time>2021-07-18T09:57:58Z</time>
</trkpt>
<trkpt lat="46.059016" lon="13.473901">
<time>2021-07-18T09:57:59Z</time>
</trkpt>
<trkpt lat="46.059051" lon="13.473848">
<time>2021-07-18T09:58:00Z</time>
</trkpt>
<trkpt lat="46.059088" lon="13.473775">
<time>2021-07-18T09:58:01Z</time>
</trkpt>
<trkpt lat="46.059091" lon="13.473681">
<time>2021-07-18T09:58:02Z</time>
</trkpt>
<trkpt lat="46.059083" lon="13.47359">
<time>2021-07-18T09:58:03Z</time>
</trkpt>
<trkpt lat="46.059065" lon="13.473503">
<time>2021-07-18T09:58:04Z</time>
</trkpt>
<trkpt lat="46.059053" lon="13.47345">
<time>2021-07-18T09:58:05Z</time>
</trkpt>
<trkpt lat="46.059038" lon="13.473378">
<time>2021-07-18T09:58:06Z</time>
</trkpt>
<trkpt lat="46.059026" lon="13.473323">
<time>2021-07-18T09:58:07Z</time>
</trkpt>
<trkpt lat="46.059015" lon="13.473266">
<time>2021-07-18T09:58:08Z</time>
</trkpt>
<trkpt lat="46.059008" lon="13.473208">
<time>2021-07-18T09:58:09Z</time>
</trkpt>
<trkpt lat="46.059003" lon="13.473145">
<time>2021-07-18T09:58:10Z</time>
</trkpt>
<trkpt lat="46.059001" lon="13.473085">
<time>2021-07-18T09:58:11Z</time>
</trkpt>
<trkpt lat="46.059001" lon="13.473028">
<time>2021-07-18T09:58:12Z</time>
</trkpt>
<trkpt lat="46.058998" lon="13.472973">
<time>2021-07-18T09:58:13Z</time>
</trkpt>
<trkpt lat="46.058993" lon="13.472921">
<time>2021-07-18T09:58:14Z</time>
</trkpt>
<trkpt lat="46.05899" lon="13.472866">
<time>2021-07-18T09:58:15Z</time>
</trkpt>
<trkpt lat="46.058986" lon="13.472813">
<time>2021-07-18T09:58:16Z</time>
</trkpt>
<trkpt lat="46.058985" lon="13.472761">
<time>2021-07-18T09:58:17Z</time>
</trkpt>
<trkpt lat="46.058985" lon="13.472706">
<time>2021-07-18T09:58:18Z</time>
</trkpt>
<trkpt lat="46.058986" lon="13.472665">
<time>2021-07-18T09:58:19Z</time>
</trkpt>
<trkpt lat="46.058988" lon="13.472621">
<time>2021-07-18T09:58:20Z</time>
</trkpt>
<trkpt lat="46.05899" lon="13.472581">
<time>2021-07-18T09:58:21Z</time>
</trkpt>
<trkpt lat="46.058985" lon="13.472538">
<time>2021-07-18T09:58:22Z</time>
</trkpt>
<trkpt lat="46.058975" lon="13.472501">
<time>2021-07-18T09:58:23Z</time>
</trkpt>
<trkpt lat="46.058965" lon="13.472475">
<time>2021-07-18T09:58:24Z</time>
</trkpt>
<trkpt lat="46.058941" lon="13.472441">
<time>2021-07-18T09:58:25Z</time>
</trkpt>
<trkpt lat="46.058916" lon="13.472421">
<time>2021-07-18T09:58:26Z</time>
</trkpt>
<trkpt lat="46.058888" lon="13.472411">
<time>2021-07-18T09:58:27Z</time>
</trkpt>
<trkpt lat="46.05886" lon="13.472401">
<time>2021-07-18T09:58:28Z</time>
</trkpt>
<trkpt lat="46.058838" lon="13.472391">
<time>2021-07-18T09:58:29Z</time>
</trkpt>
<trkpt lat="46.058805" lon="13.472373">
<time>2021-07-18T09:58:30Z</time>
</trkpt>
<trkpt lat="46.05878" lon="13.47236">
<time>2021-07-18T09:58:31Z</time>
</trkpt>
<trkpt lat="46.058751" lon="13.472343">
<time>2021-07-18T09:58:32Z</time>
</trkpt>
<trkpt lat="46.058726" lon="13.47233">
<time>2021-07-18T09:58:33Z</time>
</trkpt>
<trkpt lat="46.058706" lon="13.472318">
<time>2021-07-18T09:58:34Z</time>
</trkpt>
<trkpt lat="46.058676" lon="13.472298">
<time>2021-07-18T09:58:35Z</time>
</trkpt>
<trkpt lat="46.058653" lon="13.472285">
<time>2021-07-18T09:58:36Z</time>
</trkpt>
<trkpt lat="46.058633" lon="13.472266">
<time>2021-07-18T09:58:37Z</time>
</trkpt>
<trkpt lat="46.058621" lon="13.472248">
<time>2021-07-18T09:58:38Z</time>
</trkpt>
<trkpt lat="46.058618" lon="13.47222">
<time>2021-07-18T09:58:39Z</time>
</trkpt>
<trkpt lat="46.058621" lon="13.472186">
<time>2021-07-18T09:58:40Z</time>
</trkpt>
<trkpt lat="46.058636" lon="13.472165">
<time>2021-07-18T09:58:41Z</time>
</trkpt>
<trkpt lat="46.05866" lon="13.472155">
<time>2021-07-18T09:58:42Z</time>
</trkpt>
<trkpt lat="46.058681" lon="13.472148">
<time>2021-07-18T09:58:43Z</time>
</trkpt>
<trkpt lat="46.05871" lon="13.472143">
<time>2021-07-18T09:58:44Z</time>
</trkpt>
<trkpt lat="46.058738" lon="13.472126">
<time>2021-07-18T09:58:45Z</time>
</trkpt>
<trkpt lat="46.058761" lon="13.472103">
<time>2021-07-18T09:58:46Z</time>
</trkpt>
<trkpt lat="46.058785" lon="13.472068">
<time>2021-07-18T09:58:47Z</time>
</trkpt>
<trkpt lat="46.058796" lon="13.472036">
<time>2021-07-18T09:58:48Z</time>
</trkpt>
<trkpt lat="46.058801" lon="13.472011">
<time>2021-07-18T09:58:49Z</time>
</trkpt>
<trkpt lat="46.058803" lon="13.471971">
<time>2021-07-18T09:58:50Z</time>
</trkpt>
<trkpt lat="46.058796" lon="13.471936">
<time>2021-07-18T09:58:51Z</time>
</trkpt>
<trkpt lat="46.058783" lon="13.471908">
<time>2021-07-18T09:58:52Z</time>
</trkpt>
<trkpt lat="46.05877" lon="13.471885">
<time>2021-07-18T09:58:53Z</time>
</trkpt>
<trkpt lat="46.05875" lon="13.471855">
<time>2021-07-18T09:58:54Z</time>
</trkpt>
<trkpt lat="46.058718" lon="13.471813">
<time>2021-07-18T09:58:55Z</time>
</trkpt>
<trkpt lat="46.058688" lon="13.471773">
<time>2021-07-18T09:58:56Z</time>
</trkpt>
<trkpt lat="46.058656" lon="13.471736">
<time>2021-07-18T09:58:57Z</time>
</trkpt>
<trkpt lat="46.058626" lon="13.47171">
<time>2021-07-18T09:58:58Z</time>
</trkpt>
<trkpt lat="46.058585" lon="13.47168">
<time>2021-07-18T09:58:59Z</time>
</trkpt>
<trkpt lat="46.058551" lon="13.471663">
<time>2021-07-18T09:59:00Z</time>
</trkpt>
<trkpt lat="46.058511" lon="13.471653">
<time>2021-07-18T09:59:01Z</time>
</trkpt>
<trkpt lat="46.05847" lon="13.471651">
<time>2021-07-18T09:59:02Z</time>
</trkpt>
<trkpt lat="46.058431" lon="13.471656">
<time>2021-07-18T09:59:03Z</time>
</trkpt>
<trkpt lat="46.05838" lon="13.471665">
<time>2021-07-18T09:59:04Z</time>
</trkpt>
<trkpt lat="46.058315" lon="13.471673">
<time>2021-07-18T09:59:05Z</time>
</trkpt>
<trkpt lat="46.058251" lon="13.471653">
<time>2021-07-18T09:59:06Z</time>
</trkpt>
<trkpt lat="46.058188" lon="13.471618">
<time>2021-07-18T09:59:07Z</time>
</trkpt>
<trkpt lat="46.058128" lon="13.471563">
<time>2021-07-18T09:59:08Z</time>
</trkpt>
<trkpt lat="46.05807" lon="13.471496">
<time>2021-07-18T09:59:09Z</time>
</trkpt>
<trkpt lat="46.058013" lon="13.471426">
<time>2021-07-18T09:59:10Z</time>
</trkpt>
<trkpt lat="46.057963" lon="13.471351">
<time>2021-07-18T09:59:11Z</time>
</trkpt>
<trkpt lat="46.057915" lon="13.47128">
<time>2021-07-18T09:59:12Z</time>
</trkpt>
<trkpt lat="46.057875" lon="13.471226">
<time>2021-07-18T09:59:13Z</time>
</trkpt>
<trkpt lat="46.057815" lon="13.471163">
<time>2021-07-18T09:59:14Z</time>
</trkpt>
<trkpt lat="46.057755" lon="13.471131">
<time>2021-07-18T09:59:15Z</time>
</trkpt>
<trkpt lat="46.057695" lon="13.471126">
<time>2021-07-18T09:59:16Z</time>
</trkpt>
<trkpt lat="46.057628" lon="13.471135">
<time>2021-07-18T09:59:17Z</time>
</trkpt>
<trkpt lat="46.05756" lon="13.471148">
<time>2021-07-18T09:59:18Z</time>
</trkpt>
<trkpt lat="46.057486" lon="13.471156">
<time>2021-07-18T09:59:19Z</time>
</trkpt>
<trkpt lat="46.057421" lon="13.47116">
<time>2021-07-18T09:59:20Z</time>
</trkpt>
<trkpt lat="46.057358" lon="13.471155">
<time>2021-07-18T09:59:21Z</time>
</trkpt>
<trkpt lat="46.0573" lon="13.47115">
<time>2021-07-18T09:59:22Z</time>
</trkpt>
<trkpt lat="46.057243" lon="13.47114">
<time>2021-07-18T09:59:23Z</time>
</trkpt>
<trkpt lat="46.057191" lon="13.471125">
<time>2021-07-18T09:59:24Z</time>
</trkpt>
<trkpt lat="46.057145" lon="13.471105">
<time>2021-07-18T09:59:25Z</time>
</trkpt>
<trkpt lat="46.057116" lon="13.471091">
<time>2021-07-18T09:59:26Z</time>
</trkpt>
<trkpt lat="46.057096" lon="13.471088">
<time>2021-07-18T09:59:27Z</time>
</trkpt>
<trkpt lat="46.05709" lon="13.471086">
<time>2021-07-18T09:59:28Z</time>
</trkpt>
<trkpt lat="46.057101" lon="13.47109">
<time>2021-07-18T09:59:29Z</time>
</trkpt>
<trkpt lat="46.057121" lon="13.471095">
<time>2021-07-18T09:59:30Z</time>
</trkpt>
<trkpt lat="46.057153" lon="13.47111">
<time>2021-07-18T09:59:31Z</time>
</trkpt>
<trkpt lat="46.057188" lon="13.471126">
<time>2021-07-18T09:59:32Z</time>
</trkpt>
<trkpt lat="46.057238" lon="13.471143">
<time>2021-07-18T09:59:33Z</time>
</trkpt>
<trkpt lat="46.057286" lon="13.471153">
<time>2021-07-18T09:59:34Z</time>
</trkpt>
<trkpt lat="46.05733" lon="13.471156">
<time>2021-07-18T09:59:35Z</time>
</trkpt>
<trkpt lat="46.057386" lon="13.47116">
<time>2021-07-18T09:59:36Z</time>
</trkpt>
<trkpt lat="46.057448" lon="13.47116">
<time>2021-07-18T09:59:37Z</time>
</trkpt>
<trkpt lat="46.057525" lon="13.47115">
<time>2021-07-18T09:59:38Z</time>
</trkpt>
<trkpt lat="46.057593" lon="13.471141">
<time>2021-07-18T09:59:39Z</time>
</trkpt>
<trkpt lat="46.057658" lon="13.471135">
<time>2021-07-18T09:59:40Z</time>
</trkpt>
<trkpt lat="46.057718" lon="13.471133">
<time>2021-07-18T09:59:41Z</time>
</trkpt>
<trkpt lat="46.057763" lon="13.471143">
<time>2021-07-18T09:59:42Z</time>
</trkpt>
<trkpt lat="46.057825" lon="13.471171">
<time>2021-07-18T09:59:43Z</time>
</trkpt>
<trkpt lat="46.05787" lon="13.471216">
<time>2021-07-18T09:59:44Z</time>
</trkpt>
<trkpt lat="46.057916" lon="13.471273">
<time>2021-07-18T09:59:45Z</time>
</trkpt>
<trkpt lat="46.05795" lon="13.471323">
<time>2021-07-18T09:59:46Z</time>
</trkpt>
<trkpt lat="46.057995" lon="13.47139">
<time>2021-07-18T09:59:47Z</time>
</trkpt>
<trkpt lat="46.058036" lon="13.471455">
<time>2021-07-18T09:59:48Z</time>
</trkpt>
<trkpt lat="46.058088" lon="13.471536">
<time>2021-07-18T09:59:49Z</time>
</trkpt>
<trkpt lat="46.058126" lon="13.47159">
<time>2021-07-18T09:59:50Z</time>
</trkpt>
<trkpt lat="46.058185" lon="13.471656">
<time>2021-07-18T09:59:51Z</time>
</trkpt>
<trkpt lat="46.058223" lon="13.471685">
<time>2021-07-18T09:59:52Z</time>
</trkpt>
<trkpt lat="46.058261" lon="13.471708">
<time>2021-07-18T09:59:53Z</time>
</trkpt>
<trkpt lat="46.058303" lon="13.471726">
<time>2021-07-18T09:59:54Z</time>
</trkpt>
<trkpt lat="46.058333" lon="13.471731">
<time>2021-07-18T09:59:55Z</time>
</trkpt>
<trkpt lat="46.05839" lon="13.471726">
<time>2021-07-18T09:59:56Z</time>
</trkpt>
<trkpt lat="46.058428" lon="13.47171">
<time>2021-07-18T09:59:57Z</time>
</trkpt>
<trkpt lat="46.058463" lon="13.471701">
<time>2021-07-18T09:59:58Z</time>
</trkpt>
<trkpt lat="46.058505" lon="13.471695">
<time>2021-07-18T09:59:59Z</time>
</trkpt>
<trkpt lat="46.058541" lon="13.471693">
<time>2021-07-18T10:00:00Z</time>
</trkpt>
<trkpt lat="46.058576" lon="13.471696">
<time>2021-07-18T10:00:01Z</time>
</trkpt>
<trkpt lat="46.058621" lon="13.471706">
<time>2021-07-18T10:00:02Z</time>
</trkpt>
<trkpt lat="46.058666" lon="13.471746">
<time>2021-07-18T10:00:03Z</time>
</trkpt>
<trkpt lat="46.058705" lon="13.471795">
<time>2021-07-18T10:00:04Z</time>
</trkpt>
<trkpt lat="46.058741" lon="13.47185">
<time>2021-07-18T10:00:05Z</time>
</trkpt>
<trkpt lat="46.058776" lon="13.471903">
<time>2021-07-18T10:00:06Z</time>
</trkpt>
<trkpt lat="46.058801" lon="13.471963">
<time>2021-07-18T10:00:07Z</time>
</trkpt>
<trkpt lat="46.058815" lon="13.472016">
<time>2021-07-18T10:00:08Z</time>
</trkpt>
<trkpt lat="46.058816" lon="13.472066">
<time>2021-07-18T10:00:09Z</time>
</trkpt>
<trkpt lat="46.058803" lon="13.472111">
<time>2021-07-18T10:00:10Z</time>
</trkpt>
<trkpt lat="46.058773" lon="13.472146">
<time>2021-07-18T10:00:11Z</time>
</trkpt>
<trkpt lat="46.058733" lon="13.47217">
<time>2021-07-18T10:00:12Z</time>
</trkpt>
<trkpt lat="46.058698" lon="13.472191">
<time>2021-07-18T10:00:13Z</time>
</trkpt>
<trkpt lat="46.058668" lon="13.472211">
<time>2021-07-18T10:00:14Z</time>
</trkpt>
<trkpt lat="46.058648" lon="13.472238">
<time>2021-07-18T10:00:15Z</time>
</trkpt>
<trkpt lat="46.058641" lon="13.472275">
<time>2021-07-18T10:00:16Z</time>
</trkpt>
<trkpt lat="46.05865" lon="13.472311">
<time>2021-07-18T10:00:17Z</time>
</trkpt>
<trkpt lat="46.058678" lon="13.472343">
<time>2021-07-18T10:00:18Z</time>
</trkpt>
<trkpt lat="46.058713" lon="13.47237">
<time>2021-07-18T10:00:19Z</time>
</trkpt>
<trkpt lat="46.058753" lon="13.472395">
<time>2021-07-18T10:00:20Z</time>
</trkpt>
<trkpt lat="46.058808" lon="13.472416">
<time>2021-07-18T10:00:21Z</time>
</trkpt>
<trkpt lat="46.058863" lon="13.472443">
<time>2021-07-18T10:00:22Z</time>
</trkpt>
<trkpt lat="46.058913" lon="13.47248">
<time>2021-07-18T10:00:23Z</time>
</trkpt>
<trkpt lat="46.058948" lon="13.472528">
<time>2021-07-18T10:00:24Z</time>
</trkpt>
<trkpt lat="46.05897" lon="13.472593">
<time>2021-07-18T10:00:25Z</time>
</trkpt>
<trkpt lat="46.058978" lon="13.47267">
<time>2021-07-18T10:00:26Z</time>
</trkpt>
<trkpt lat="46.05898" lon="13.472756">
<time>2021-07-18T10:00:27Z</time>
</trkpt>
<trkpt lat="46.058981" lon="13.472845">
<time>2021-07-18T10:00:28Z</time>
</trkpt>
<trkpt lat="46.058986" lon="13.472963">
<time>2021-07-18T10:00:29Z</time>
</trkpt>
<trkpt lat="46.058996" lon="13.473065">
<time>2021-07-18T10:00:30Z</time>
</trkpt>
<trkpt lat="46.059008" lon="13.473146">
<time>2021-07-18T10:00:31Z</time>
</trkpt>
<trkpt lat="46.059035" lon="13.473261">
<time>2021-07-18T10:00:32Z</time>
</trkpt>
<trkpt lat="46.05906" lon="13.473361">
<time>2021-07-18T10:00:33Z</time>
</trkpt>
<trkpt lat="46.059093" lon="13.473463">
<time>2021-07-18T10:00:34Z</time>
</trkpt>
<trkpt lat="46.059113" lon="13.473546">
<time>2021-07-18T10:00:35Z</time>
</trkpt>
<trkpt lat="46.059128" lon="13.473641">
<time>2021-07-18T10:00:36Z</time>
</trkpt>
<trkpt lat="46.059126" lon="13.473726">
<time>2021-07-18T10:00:37Z</time>
</trkpt>
<trkpt lat="46.059111" lon="13.473823">
<time>2021-07-18T10:00:38Z</time>
</trkpt>
<trkpt lat="46.059088" lon="13.47391">
<time>2021-07-18T10:00:39Z</time>
</trkpt>
<trkpt lat="46.05906" lon="13.473995">
<time>2021-07-18T10:00:40Z</time>
</trkpt>
<trkpt lat="46.059036" lon="13.474061">
<time>2021-07-18T10:00:41Z</time>
</trkpt>
<trkpt lat="46.059023" lon="13.474161">
<time>2021-07-18T10:00:42Z</time>
</trkpt>
<trkpt lat="46.059035" lon="13.474228">
<time>2021-07-18T10:00:43Z</time>
</trkpt>
<trkpt lat="46.059058" lon="13.474281">
<time>2021-07-18T10:00:44Z</time>
</trkpt>
<trkpt lat="46.05909" lon="13.474333">
<time>2021-07-18T10:00:45Z</time>
</trkpt>
<trkpt lat="46.059113" lon="13.474368">
<time>2021-07-18T10:00:46Z</time>
</trkpt>
<trkpt lat="46.059136" lon="13.47442">
<time>2021-07-18T10:00:47Z</time>
</trkpt>
<trkpt lat="46.059153" lon="13.474468">
<time>2021-07-18T10:00:48Z</time>
</trkpt>
<trkpt lat="46.059173" lon="13.474515">
<time>2021-07-18T10:00:49Z</time>
</trkpt>
<trkpt lat="46.05919" lon="13.474565">
<time>2021-07-18T10:00:50Z</time>
</trkpt>
<trkpt lat="46.059206" lon="13.474611">
<time>2021-07-18T10:00:51Z</time>
</trkpt>
<trkpt lat="46.059233" lon="13.474683">
<time>2021-07-18T10:00:52Z</time>
</trkpt>
<trkpt lat="46.059248" lon="13.474743">
<time>2021-07-18T10:00:53Z</time>
</trkpt>
<trkpt lat="46.059255" lon="13.474811">
<time>2021-07-18T10:00:54Z</time>
</trkpt>
<trkpt lat="46.059276" lon="13.474885">
<time>2021-07-18T10:00:55Z</time>
</trkpt>
<trkpt lat="46.059295" lon="13.474956">
<time>2021-07-18T10:00:56Z</time>
</trkpt>
<trkpt lat="46.059321" lon="13.475048">
<time>2021-07-18T10:00:57Z</time>
</trkpt>
<trkpt lat="46.059351" lon="13.4751">
<time>2021-07-18T10:00:58Z</time>
</trkpt>
<trkpt lat="46.059365" lon="13.475215">
<time>2021-07-18T10:00:59Z</time>
</trkpt>
<trkpt lat="46.059363" lon="13.475316">
<time>2021-07-18T10:01:00Z</time>
</trkpt>
<trkpt lat="46.05936" lon="13.47541">
<time>2021-07-18T10:01:01Z</time>
</trkpt>
<trkpt lat="46.059356" lon="13.475513">
<time>2021-07-18T10:01:02Z</time>
</trkpt>
<trkpt lat="46.059355" lon="13.4756">
<time>2021-07-18T10:01:03Z</time>
</trkpt>
<trkpt lat="46.059348" lon="13.475698">
<time>2021-07-18T10:01:04Z</time>
</trkpt>
<trkpt lat="46.059338" lon="13.475786">
<time>2021-07-18T10:01:05Z</time>
</trkpt>
<trkpt lat="46.059338" lon="13.475855">
<time>2021-07-18T10:01:06Z</time>
</trkpt>
<trkpt lat="46.059336" lon="13.475953">
<time>2021-07-18T10:01:07Z</time>
</trkpt>
<trkpt lat="46.05933" lon="13.476048">
<time>2021-07-18T10:01:08Z</time>
</trkpt>
<trkpt lat="46.059333" lon="13.47614">
<time>2021-07-18T10:01:09Z</time>
</trkpt>
<trkpt lat="46.05933" lon="13.476221">
<time>2021-07-18T10:01:10Z</time>
</trkpt>
<trkpt lat="46.059323" lon="13.4763">
<time>2021-07-18T10:01:11Z</time>
</trkpt>
<trkpt lat="46.059323" lon="13.476366">
<time>2021-07-18T10:01:12Z</time>
</trkpt>
<trkpt lat="46.059323" lon="13.476433">
<time>2021-07-18T10:01:13Z</time>
</trkpt>
<trkpt lat="46.059325" lon="13.476503">
<time>2021-07-18T10:01:14Z</time>
</trkpt>
<trkpt lat="46.059323" lon="13.476556">
<time>2021-07-18T10:01:15Z</time>
</trkpt>
<trkpt lat="46.059326" lon="13.476636">
<time>2021-07-18T10:01:16Z</time>
</trkpt>
<trkpt lat="46.059325" lon="13.476706">
<time>2021-07-18T10:01:17Z</time>
</trkpt>
<trkpt lat="46.059321" lon="13.476775">
<time>2021-07-18T10:01:18Z</time>
</trkpt>
<trkpt lat="46.059318" lon="13.476848">
<time>2021-07-18T10:01:19Z</time>
</trkpt>
<trkpt lat="46.05932" lon="13.476906">
<time>2021-07-18T10:01:20Z</time>
</trkpt>
<trkpt lat="46.059315" lon="13.476976">
<time>2021-07-18T10:01:21Z</time>
</trkpt>
<trkpt lat="46.059308" lon="13.477045">
<time>2021-07-18T10:01:22Z</time>
</trkpt>
<trkpt lat="46.059298" lon="13.47712">
<time>2021-07-18T10:01:23Z</time>
</trkpt>
<trkpt lat="46.059286" lon="13.477206">
<time>2021-07-18T10:01:24Z</time>
</trkpt>
<trkpt lat="46.059265" lon="13.477293">
<time>2021-07-18T10:01:25Z</time>
</trkpt>
<trkpt lat="46.059245" lon="13.477386">
<time>2021-07-18T10:01:26Z</time>
</trkpt>
<trkpt lat="46.059223" lon="13.477493">
<time>2021-07-18T10:01:27Z</time>
</trkpt>
<trkpt lat="46.059208" lon="13.47761">
<time>2021-07-18T10:01:28Z</time>
</trkpt>
<trkpt lat="46.05919" lon="13.477738">
<time>2021-07-18T10:01:29Z</time>
</trkpt>
<trkpt lat="46.059173" lon="13.477868">
<time>2021-07-18T10:01:30Z</time>
</trkpt>
<trkpt lat="46.059163" lon="13.478">
<time>2021-07-18T10:01:31Z</time>
</trkpt>
<trkpt lat="46.059153" lon="13.478135">
<time>2021-07-18T10:01:32Z</time>
</trkpt>
<trkpt lat="46.059146" lon="13.478265">
<time>2021-07-18T10:01:33Z</time>
</trkpt>
<trkpt lat="46.059131" lon="13.478388">
<time>2021-07-18T10:01:34Z</time>
</trkpt>
<trkpt lat="46.059121" lon="13.478515">
<time>2021-07-18T10:01:35Z</time>
</trkpt>
<trkpt lat="46.059113" lon="13.478641">
<time>2021-07-18T10:01:36Z</time>
</trkpt>
<trkpt lat="46.059095" lon="13.478768">
<time>2021-07-18T10:01:37Z</time>
</trkpt>
<trkpt lat="46.059076" lon="13.478895">
<time>2021-07-18T10:01:38Z</time>
</trkpt>
<trkpt lat="46.059063" lon="13.479013">
<time>2021-07-18T10:01:39Z</time>
</trkpt>
<trkpt lat="46.059046" lon="13.479125">
<time>2021-07-18T10:01:40Z</time>
</trkpt>
<trkpt lat="46.059023" lon="13.479223">
<time>2021-07-18T10:01:41Z</time>
</trkpt>
<trkpt lat="46.059" lon="13.479323">
<time>2021-07-18T10:01:42Z</time>
</trkpt>
<trkpt lat="46.05897" lon="13.479435">
<time>2021-07-18T10:01:43Z</time>
</trkpt>
<trkpt lat="46.058943" lon="13.479525">
<time>2021-07-18T10:01:44Z</time>
</trkpt>
<trkpt lat="46.058896" lon="13.479608">
<time>2021-07-18T10:01:45Z</time>
</trkpt>
<trkpt lat="46.058851" lon="13.47967">
<time>2021-07-18T10:01:46Z</time>
</trkpt>
<trkpt lat="46.058793" lon="13.479715">
<time>2021-07-18T10:01:47Z</time>
</trkpt>
<trkpt lat="46.058738" lon="13.47975">
<time>2021-07-18T10:01:48Z</time>
</trkpt>
<trkpt lat="46.058686" lon="13.479766">
<time>2021-07-18T10:01:49Z</time>
</trkpt>
<trkpt lat="46.058643" lon="13.479771">
<time>2021-07-18T10:01:50Z</time>
</trkpt>
<trkpt lat="46.058606" lon="13.47978">
<time>2021-07-18T10:01:51Z</time>
</trkpt>
<trkpt lat="46.058566" lon="13.47979">
<time>2021-07-18T10:01:52Z</time>
</trkpt>
<trkpt lat="46.058515" lon="13.479793">
<time>2021-07-18T10:01:53Z</time>
</trkpt>
<trkpt lat="46.058465" lon="13.479808">
<time>2021-07-18T10:01:54Z</time>
</trkpt>
<trkpt lat="46.058418" lon="13.479821">
<time>2021-07-18T10:01:55Z</time>
</trkpt>
<trkpt lat="46.058365" lon="13.479825">
<time>2021-07-18T10:01:56Z</time>
</trkpt>
<trkpt lat="46.058316" lon="13.479833">
<time>2021-07-18T10:01:57Z</time>
</trkpt>
<trkpt lat="46.058258" lon="13.479846">
<time>2021-07-18T10:01:58Z</time>
</trkpt>
<trkpt lat="46.058218" lon="13.479855">
<time>2021-07-18T10:01:59Z</time>
</trkpt>
<trkpt lat="46.058156" lon="13.479883">
<time>2021-07-18T10:02:00Z</time>
</trkpt>
<trkpt lat="46.058115" lon="13.479913">
<time>2021-07-18T10:02:01Z</time>
</trkpt>
<trkpt lat="46.058081" lon="13.479973">
<time>2021-07-18T10:02:02Z</time>
</trkpt>
<trkpt lat="46.058046" lon="13.480013">
<time>2021-07-18T10:02:03Z</time>
</trkpt>
<trkpt lat="46.058023" lon="13.480045">
<time>2021-07-18T10:02:04Z</time>
</trkpt>
<trkpt lat="46.057995" lon="13.480078">
<time>2021-07-18T10:02:05Z</time>
</trkpt>
<trkpt lat="46.057946" lon="13.48011">
<time>2021-07-18T10:02:06Z</time>
</trkpt>
<trkpt lat="46.057901" lon="13.48013">
<time>2021-07-18T10:02:07Z</time>
</trkpt>
<trkpt lat="46.05785" lon="13.48013">
<time>2021-07-18T10:02:08Z</time>
</trkpt>
<trkpt lat="46.057806" lon="13.480123">
<time>2021-07-18T10:02:09Z</time>
</trkpt>
<trkpt lat="46.05775" lon="13.480105">
<time>2021-07-18T10:02:10Z</time>
</trkpt>
<trkpt lat="46.057716" lon="13.480088">
<time>2021-07-18T10:02:11Z</time>
</trkpt>
<trkpt lat="46.057666" lon="13.480068">
<time>2021-07-18T10:02:12Z</time>
</trkpt>
<trkpt lat="46.057625" lon="13.480058">
<time>2021-07-18T10:02:13Z</time>
</trkpt>
<trkpt lat="46.057596" lon="13.480053">
<time>2021-07-18T10:02:14Z</time>
</trkpt>
<trkpt lat="46.05756" lon="13.480031">
<time>2021-07-18T10:02:15Z</time>
</trkpt>
<trkpt lat="46.057533" lon="13.48002">
<time>2021-07-18T10:02:16Z</time>
</trkpt>
<trkpt lat="46.057508" lon="13.480011">
<time>2021-07-18T10:02:17Z</time>
</trkpt>
<trkpt lat="46.057485" lon="13.479998">
<time>2021-07-18T10:02:18Z</time>
</trkpt>
<trkpt lat="46.057461" lon="13.479998">
<time>2021-07-18T10:02:19Z</time>
</trkpt>
<trkpt lat="46.057441" lon="13.479996">
<time>2021-07-18T10:02:20Z</time>
</trkpt>
<trkpt lat="46.057423" lon="13.479996">
<time>2021-07-18T10:02:21Z</time>
</trkpt>
<trkpt lat="46.057406" lon="13.479998">
<time>2021-07-18T10:02:22Z</time>
</trkpt>
<trkpt lat="46.05739" lon="13.48">
<time>2021-07-18T10:02:23Z</time>
</trkpt>
<trkpt lat="46.057375" lon="13.480005">
<time>2021-07-18T10:02:24Z</time>
</trkpt>
<trkpt lat="46.057363" lon="13.480008">
<time>2021-07-18T10:02:25Z</time>
</trkpt>
<trkpt lat="46.057346" lon="13.480011">
<time>2021-07-18T10:02:26Z</time>
</trkpt>
<trkpt lat="46.057331" lon="13.480018">
<time>2021-07-18T10:02:27Z</time>
</trkpt>
<trkpt lat="46.05731" lon="13.480021">
<time>2021-07-18T10:02:28Z</time>
</trkpt>
<trkpt lat="46.057288" lon="13.48003">
<time>2021-07-18T10:02:29Z</time>
</trkpt>
<trkpt lat="46.057266" lon="13.48004">
<time>2021-07-18T10:02:30Z</time>
</trkpt>
<trkpt lat="46.057241" lon="13.48007">
<time>2021-07-18T10:02:31Z</time>
</trkpt>
<trkpt lat="46.057221" lon="13.480121">
<time>2021-07-18T10:02:32Z</time>
</trkpt>
<trkpt lat="46.057206" lon="13.48018">
<time>2021-07-18T10:02:33Z</time>
</trkpt>
<trkpt lat="46.057196" lon="13.480248">
<time>2021-07-18T10:02:34Z</time>
</trkpt>
<trkpt lat="46.057191" lon="13.480316">
<time>2021-07-18T10:02:35Z</time>
</trkpt>
<trkpt lat="46.057183" lon="13.480395">
<time>2021-07-18T10:02:36Z</time>
</trkpt>
<trkpt lat="46.05718" lon="13.480455">
<time>2021-07-18T10:02:37Z</time>
</trkpt>
<trkpt lat="46.057175" lon="13.480535">
<time>2021-07-18T10:02:38Z</time>
</trkpt>
<trkpt lat="46.057173" lon="13.480631">
<time>2021-07-18T10:02:39Z</time>
</trkpt>
<trkpt lat="46.057173" lon="13.48072">
<time>2021-07-18T10:02:40Z</time>
</trkpt>
<trkpt lat="46.057166" lon="13.480815">
<time>2021-07-18T10:02:41Z</time>
</trkpt>
<trkpt lat="46.057155" lon="13.480895">
<time>2021-07-18T10:02:42Z</time>
</trkpt>
<trkpt lat="46.057136" lon="13.48099">
<time>2021-07-18T10:02:43Z</time>
</trkpt>
<trkpt lat="46.057111" lon="13.481093">
<time>2021-07-18T10:02:44Z</time>
</trkpt>
<trkpt lat="46.057095" lon="13.481176">
<time>2021-07-18T10:02:45Z</time>
</trkpt>
<trkpt lat="46.057086" lon="13.481238">
<time>2021-07-18T10:02:46Z</time>
</trkpt>
<trkpt lat="46.057078" lon="13.481311">
<time>2021-07-18T10:02:47Z</time>
</trkpt>
<trkpt lat="46.057071" lon="13.481371">
<time>2021-07-18T10:02:48Z</time>
</trkpt>
<trkpt lat="46.05707" lon="13.48142">
<time>2021-07-18T10:02:49Z</time>
</trkpt>
<trkpt lat="46.057063" lon="13.481466">
<time>2021-07-18T10:02:50Z</time>
</trkpt>
<trkpt lat="46.057056" lon="13.48151">
<time>2021-07-18T10:02:51Z</time>
</trkpt>
<trkpt lat="46.057048" lon="13.481553">
<time>2021-07-18T10:02:52Z</time>
</trkpt>
<trkpt lat="46.057038" lon="13.481596">
<time>2021-07-18T10:02:53Z</time>
</trkpt>
<trkpt lat="46.057036" lon="13.48163">
<time>2021-07-18T10:02:54Z</time>
</trkpt>
<trkpt lat="46.057036" lon="13.481656">
<time>2021-07-18T10:02:55Z</time>
</trkpt>
<trkpt lat="46.057033" lon="13.481678">
<time>2021-07-18T10:02:56Z</time>
</trkpt>
<trkpt lat="46.057025" lon="13.481688">
<time>2021-07-18T10:02:57Z</time>
</trkpt>
<trkpt lat="46.057003" lon="13.481695">
<time>2021-07-18T10:02:58Z</time>
</trkpt>
<trkpt lat="46.05697" lon="13.481703">
<time>2021-07-18T10:02:59Z</time>
</trkpt>
<trkpt lat="46.056938" lon="13.481688">
<time>2021-07-18T10:03:00Z</time>
</trkpt>
<trkpt lat="46.0569" lon="13.481678">
<time>2021-07-18T10:03:01Z</time>
</trkpt>
<trkpt lat="46.05687" lon="13.481665">
<time>2021-07-18T10:03:02Z</time>
</trkpt>
<trkpt lat="46.05683" lon="13.481655">
<time>2021-07-18T10:03:03Z</time>
</trkpt>
<trkpt lat="46.056793" lon="13.48164">
<time>2021-07-18T10:03:04Z</time>
</trkpt>
<trkpt lat="46.056758" lon="13.48163">
<time>2021-07-18T10:03:05Z</time>
</trkpt>
<trkpt lat="46.056716" lon="13.481623">
<time>2021-07-18T10:03:06Z</time>
</trkpt>
<trkpt lat="46.056676" lon="13.481611">
<time>2021-07-18T10:03:07Z</time>
</trkpt>
<trkpt lat="46.056636" lon="13.481606">
<time>2021-07-18T10:03:08Z</time>
</trkpt>
<trkpt lat="46.0566" lon="13.481588">
<time>2021-07-18T10:03:09Z</time>
</trkpt>
<trkpt lat="46.056565" lon="13.481566">
<time>2021-07-18T10:03:10Z</time>
</trkpt>
<trkpt lat="46.056528" lon="13.481545">
<time>2021-07-18T10:03:11Z</time>
</trkpt>
<trkpt lat="46.056493" lon="13.481528">
<time>2021-07-18T10:03:12Z</time>
</trkpt>
<trkpt lat="46.056461" lon="13.481511">
<time>2021-07-18T10:03:13Z</time>
</trkpt>
<trkpt lat="46.056421" lon="13.481495">
<time>2021-07-18T10:03:14Z</time>
</trkpt>
<trkpt lat="46.05638" lon="13.481483">
<time>2021-07-18T10:03:15Z</time>
</trkpt>
<trkpt lat="46.056331" lon="13.48147">
<time>2021-07-18T10:03:16Z</time>
</trkpt>
<trkpt lat="46.05629" lon="13.481456">
<time>2021-07-18T10:03:17Z</time>
</trkpt>
<trkpt lat="46.05625" lon="13.481448">
<time>2021-07-18T10:03:18Z</time>
</trkpt>
<trkpt lat="46.056215" lon="13.481441">
<time>2021-07-18T10:03:19Z</time>
</trkpt>
<trkpt lat="46.056181" lon="13.481443">
<time>2021-07-18T10:03:20Z</time>
</trkpt>
<trkpt lat="46.056153" lon="13.481443">
<time>2021-07-18T10:03:21Z</time>
</trkpt>
<trkpt lat="46.056125" lon="13.481446">
<time>2021-07-18T10:03:22Z</time>
</trkpt>
<trkpt lat="46.056095" lon="13.48145">
<time>2021-07-18T10:03:23Z</time>
</trkpt>
<trkpt lat="46.056066" lon="13.48145">
<time>2021-07-18T10:03:24Z</time>
</trkpt>
<trkpt lat="46.056036" lon="13.481455">
<time>2021-07-18T10:03:25Z</time>
</trkpt>
<trkpt lat="46.056021" lon="13.481458">
<time>2021-07-18T10:03:26Z</time>
</trkpt>
<trkpt lat="46.056011" lon="13.48146">
<time>2021-07-18T10:03:27Z</time>
</trkpt>
<trkpt lat="46.056008" lon="13.481463">
<time>2021-07-18T10:03:28Z</time>
</trkpt>
<trkpt lat="46.056016" lon="13.481463">
<time>2021-07-18T10:03:29Z</time>
</trkpt>
<trkpt lat="46.056033" lon="13.48147">
<time>2021-07-18T10:03:30Z</time>
</trkpt>
<trkpt lat="46.056053" lon="13.48147">
<time>2021-07-18T10:03:31Z</time>
</trkpt>
<trkpt lat="46.05608" lon="13.481463">
<time>2021-07-18T10:03:32Z</time>
</trkpt>
<trkpt lat="46.056115" lon="13.481461">
<time>2021-07-18T10:03:33Z</time>
</trkpt>
<trkpt lat="46.056158" lon="13.481463">
<time>2021-07-18T10:03:34Z</time>
</trkpt>
<trkpt lat="46.056211" lon="13.481468">
<time>2021-07-18T10:03:35Z</time>
</trkpt>
<trkpt lat="46.05627" lon="13.481486">
<time>2021-07-18T10:03:36Z</time>
</trkpt>
<trkpt lat="46.056331" lon="13.481505">
<time>2021-07-18T10:03:37Z</time>
</trkpt>
<trkpt lat="46.056398" lon="13.481528">
<time>2021-07-18T10:03:38Z</time>
</trkpt>
<trkpt lat="46.056458" lon="13.481553">
<time>2021-07-18T10:03:39Z</time>
</trkpt>
<trkpt lat="46.056523" lon="13.481583">
<time>2021-07-18T10:03:40Z</time>
</trkpt>
<trkpt lat="46.05659" lon="13.481615">
<time>2021-07-18T10:03:41Z</time>
</trkpt>
<trkpt lat="46.056665" lon="13.481646">
<time>2021-07-18T10:03:42Z</time>
</trkpt>
<trkpt lat="46.056741" lon="13.481671">
<time>2021-07-18T10:03:43Z</time>
</trkpt>
<trkpt lat="46.05682" lon="13.48169">
<time>2021-07-18T10:03:44Z</time>
</trkpt>
<trkpt lat="46.0569" lon="13.481713">
<time>2021-07-18T10:03:45Z</time>
</trkpt>
<trkpt lat="46.056985" lon="13.481743">
<time>2021-07-18T10:03:46Z</time>
</trkpt>
<trkpt lat="46.057065" lon="13.481775">
<time>2021-07-18T10:03:47Z</time>
</trkpt>
<trkpt lat="46.057125" lon="13.481808">
<time>2021-07-18T10:03:48Z</time>
</trkpt>
<trkpt lat="46.057176" lon="13.481823">
<time>2021-07-18T10:03:49Z</time>
</trkpt>
<trkpt lat="46.057238" lon="13.48185">
<time>2021-07-18T10:03:50Z</time>
</trkpt>
<trkpt lat="46.057271" lon="13.48187">
<time>2021-07-18T10:03:51Z</time>
</trkpt>
<trkpt lat="46.05732" lon="13.481875">
<time>2021-07-18T10:03:52Z</time>
</trkpt>
<trkpt lat="46.05737" lon="13.481873">
<time>2021-07-18T10:03:53Z</time>
</trkpt>
<trkpt lat="46.05742" lon="13.481863">
<time>2021-07-18T10:03:54Z</time>
</trkpt>
<trkpt lat="46.05747" lon="13.481853">
<time>2021-07-18T10:03:55Z</time>
</trkpt>
<trkpt lat="46.057516" lon="13.481845">
<time>2021-07-18T10:03:56Z</time>
</trkpt>
<trkpt lat="46.05757" lon="13.481845">
<time>2021-07-18T10:03:57Z</time>
</trkpt>
<trkpt lat="46.057628" lon="13.481846">
<time>2021-07-18T10:03:58Z</time>
</trkpt>
<trkpt lat="46.057686" lon="13.481865">
<time>2021-07-18T10:03:59Z</time>
</trkpt>
<trkpt lat="46.057755" lon="13.48188">
<time>2021-07-18T10:04:00Z</time>
</trkpt>
<trkpt lat="46.057808" lon="13.481898">
<time>2021-07-18T10:04:01Z</time>
</trkpt>
<trkpt lat="46.057858" lon="13.48192">
<time>2021-07-18T10:04:02Z</time>
</trkpt>
<trkpt lat="46.057908" lon="13.48196">
<time>2021-07-18T10:04:03Z</time>
</trkpt>
<trkpt lat="46.057945" lon="13.482006">
<time>2021-07-18T10:04:04Z</time>
</trkpt>
<trkpt lat="46.057976" lon="13.482066">
<time>2021-07-18T10:04:05Z</time>
</trkpt>
<trkpt lat="46.058006" lon="13.482131">
<time>2021-07-18T10:04:06Z</time>
</trkpt>
<trkpt lat="46.05803" lon="13.482201">
<time>2021-07-18T10:04:07Z</time>
</trkpt>
<trkpt lat="46.05805" lon="13.482276">
<time>2021-07-18T10:04:08Z</time>
</trkpt>
<trkpt lat="46.058063" lon="13.482363">
<time>2021-07-18T10:04:09Z</time>
</trkpt>
<trkpt lat="46.058083" lon="13.48244">
<time>2021-07-18T10:04:10Z</time>
</trkpt>
<trkpt lat="46.058113" lon="13.482511">
<time>2021-07-18T10:04:11Z</time>
</trkpt>
<trkpt lat="46.05814" lon="13.482581">
<time>2021-07-18T10:04:12Z</time>
</trkpt>
<trkpt lat="46.058176" lon="13.482645">
<time>2021-07-18T10:04:13Z</time>
</trkpt>
<trkpt lat="46.058215" lon="13.482701">
<time>2021-07-18T10:04:14Z</time>
</trkpt>
<trkpt lat="46.05825" lon="13.48276">
<time>2021-07-18T10:04:15Z</time>
</trkpt>
<trkpt lat="46.058275" lon="13.482825">
<time>2021-07-18T10:04:16Z</time>
</trkpt>
<trkpt lat="46.058291" lon="13.482893">
<time>2021-07-18T10:04:17Z</time>
</trkpt>
<trkpt lat="46.058301" lon="13.482961">
<time>2021-07-18T10:04:18Z</time>
</trkpt>
<trkpt lat="46.05831" lon="13.483031">
<time>2021-07-18T10:04:19Z</time>
</trkpt>
<trkpt lat="46.058308" lon="13.483101">
<time>2021-07-18T10:04:20Z</time>
</trkpt>
<trkpt lat="46.058306" lon="13.483175">
<time>2021-07-18T10:04:21Z</time>
</trkpt>
<trkpt lat="46.058298" lon="13.483268">
<time>2021-07-18T10:04:22Z</time>
</trkpt>
<trkpt lat="46.058286" lon="13.483363">
<time>2021-07-18T10:04:23Z</time>
</trkpt>
<trkpt lat="46.05827" lon="13.483451">
<time>2021-07-18T10:04:24Z</time>
</trkpt>
<trkpt lat="46.058245" lon="13.483545">
<time>2021-07-18T10:04:25Z</time>
</trkpt>
<trkpt lat="46.058215" lon="13.483643">
<time>2021-07-18T10:04:26Z</time>
</trkpt>
<trkpt lat="46.058176" lon="13.483745">
<time>2021-07-18T10:04:27Z</time>
</trkpt>
<trkpt lat="46.058136" lon="13.483846">
<time>2021-07-18T10:04:28Z</time>
</trkpt>
<trkpt lat="46.0581" lon="13.48395">
<time>2021-07-18T10:04:29Z</time>
</trkpt>
<trkpt lat="46.058061" lon="13.484073">
<time>2021-07-18T10:04:30Z</time>
</trkpt>
<trkpt lat="46.058041" lon="13.484183">
<time>2021-07-18T10:04:31Z</time>
</trkpt>
<trkpt lat="46.058031" lon="13.484296">
<time>2021-07-18T10:04:32Z</time>
</trkpt>
<trkpt lat="46.058025" lon="13.484408">
<time>2021-07-18T10:04:33Z</time>
</trkpt>
<trkpt lat="46.058018" lon="13.484516">
<time>2021-07-18T10:04:34Z</time>
</trkpt>
<trkpt lat="46.058015" lon="13.484615">
<time>2021-07-18T10:04:35Z</time>
</trkpt>
<trkpt lat="46.05801" lon="13.484695">
<time>2021-07-18T10:04:36Z</time>
</trkpt>
<trkpt lat="46.058005" lon="13.484825">
<time>2021-07-18T10:04:37Z</time>
</trkpt>
<trkpt lat="46.058001" lon="13.484951">
<time>2021-07-18T10:04:38Z</time>
</trkpt>
<trkpt lat="46.058" lon="13.485068">
<time>2021-07-18T10:04:39Z</time>
</trkpt>
<trkpt lat="46.057988" lon="13.485183">
<time>2021-07-18T10:04:40Z</time>
</trkpt>
<trkpt lat="46.057965" lon="13.485316">
<time>2021-07-18T10:04:41Z</time>
</trkpt>
<trkpt lat="46.057946" lon="13.485396">
<time>2021-07-18T10:04:42Z</time>
</trkpt>
<trkpt lat="46.05793" lon="13.48549">
<time>2021-07-18T10:04:43Z</time>
</trkpt>
<trkpt lat="46.05792" lon="13.485596">
<time>2021-07-18T10:04:44Z</time>
</trkpt>
<trkpt lat="46.05792" lon="13.485673">
<time>2021-07-18T10:04:45Z</time>
</trkpt>
<trkpt lat="46.057926" lon="13.48573">
<time>2021-07-18T10:04:46Z</time>
</trkpt>
<trkpt lat="46.057948" lon="13.485808">
<time>2021-07-18T10:04:47Z</time>
</trkpt>
<trkpt lat="46.057971" lon="13.48586">
<time>2021-07-18T10:04:48Z</time>
</trkpt>
<trkpt lat="46.057993" lon="13.485908">
<time>2021-07-18T10:04:49Z</time>
</trkpt>
<trkpt lat="46.058011" lon="13.48595">
<time>2021-07-18T10:04:50Z</time>
</trkpt>
<trkpt lat="46.058023" lon="13.485985">
<time>2021-07-18T10:04:51Z</time>
</trkpt>
<trkpt lat="46.05803" lon="13.486048">
<time>2021-07-18T10:04:52Z</time>
</trkpt>
<trkpt lat="46.058026" lon="13.486108">
<time>2021-07-18T10:04:53Z</time>
</trkpt>
<trkpt lat="46.058011" lon="13.48616">
<time>2021-07-18T10:04:54Z</time>
</trkpt>
<trkpt lat="46.057995" lon="13.486235">
<time>2021-07-18T10:04:55Z</time>
</trkpt>
<trkpt lat="46.05798" lon="13.486318">
<time>2021-07-18T10:04:56Z</time>
</trkpt>
<trkpt lat="46.05798" lon="13.486416">
<time>2021-07-18T10:04:57Z</time>
</trkpt>
<trkpt lat="46.057988" lon="13.486501">
<time>2021-07-18T10:04:58Z</time>
</trkpt>
<trkpt lat="46.058003" lon="13.4866">
<time>2021-07-18T10:04:59Z</time>
</trkpt>
<trkpt lat="46.058011" lon="13.486678">
<time>2021-07-18T10:05:00Z</time>
</trkpt>
<trkpt lat="46.058016" lon="13.486796">
<time>2021-07-18T10:05:01Z</time>
</trkpt>
<trkpt lat="46.058016" lon="13.486888">
<time>2021-07-18T10:05:02Z</time>
</trkpt>
<trkpt lat="46.058013" lon="13.486985">
<time>2021-07-18T10:05:03Z</time>
</trkpt>
<trkpt lat="46.05801" lon="13.487076">
<time>2021-07-18T10:05:04Z</time>
</trkpt>
<trkpt lat="46.058003" lon="13.487156">
<time>2021-07-18T10:05:05Z</time>
</trkpt>
<trkpt lat="46.058001" lon="13.487276">
<time>2021-07-18T10:05:06Z</time>
</trkpt>
<trkpt lat="46.057996" lon="13.487373">
<time>2021-07-18T10:05:07Z</time>
</trkpt>
<trkpt lat="46.057981" lon="13.487456">
<time>2021-07-18T10:05:08Z</time>
</trkpt>
<trkpt lat="46.057968" lon="13.487508">
<time>2021-07-18T10:05:09Z</time>
</trkpt>
<trkpt lat="46.057935" lon="13.487575">
<time>2021-07-18T10:05:10Z</time>
</trkpt>
<trkpt lat="46.057903" lon="13.487623">
<time>2021-07-18T10:05:11Z</time>
</trkpt>
<trkpt lat="46.057881" lon="13.487676">
<time>2021-07-18T10:05:12Z</time>
</trkpt>
<trkpt lat="46.05787" lon="13.487721">
<time>2021-07-18T10:05:13Z</time>
</trkpt>
<trkpt lat="46.057863" lon="13.487775">
<time>2021-07-18T10:05:14Z</time>
</trkpt>
<trkpt lat="46.057866" lon="13.487841">
<time>2021-07-18T10:05:15Z</time>
</trkpt>
<trkpt lat="46.057881" lon="13.487913">
<time>2021-07-18T10:05:16Z</time>
</trkpt>
<trkpt lat="46.057895" lon="13.487996">
<time>2021-07-18T10:05:17Z</time>
</trkpt>
<trkpt lat="46.057903" lon="13.488066">
<time>2021-07-18T10:05:18Z</time>
</trkpt>
<trkpt lat="46.057901" lon="13.488166">
<time>2021-07-18T10:05:19Z</time>
</trkpt>
<trkpt lat="46.057885" lon="13.488236">
<time>2021-07-18T10:05:20Z</time>
</trkpt>
<trkpt lat="46.057863" lon="13.488293">
<time>2021-07-18T10:05:21Z</time>
</trkpt>
<trkpt lat="46.057826" lon="13.48836">
<time>2021-07-18T10:05:22Z</time>
</trkpt>
<trkpt lat="46.05778" lon="13.488426">
<time>2021-07-18T10:05:23Z</time>
</trkpt>
<trkpt lat="46.057728" lon="13.488511">
<time>2021-07-18T10:05:24Z</time>
</trkpt>
<trkpt lat="46.057678" lon="13.488583">
<time>2021-07-18T10:05:25Z</time>
</trkpt>
<trkpt lat="46.057616" lon="13.488681">
<time>2021-07-18T10:05:26Z</time>
</trkpt>
<trkpt lat="46.057573" lon="13.488745">
<time>2021-07-18T10:05:27Z</time>
</trkpt>
<trkpt lat="46.057538" lon="13.48878">
<time>2021-07-18T10:05:28Z</time>
</trkpt>
<trkpt lat="46.057486" lon="13.488806">
<time>2021-07-18T10:05:29Z</time>
</trkpt>
<trkpt lat="46.057436" lon="13.488806">
<time>2021-07-18T10:05:30Z</time>
</trkpt>
<trkpt lat="46.057368" lon="13.488786">
<time>2021-07-18T10:05:31Z</time>
</trkpt>
<trkpt lat="46.0573" lon="13.488765">
<time>2021-07-18T10:05:32Z</time>
</trkpt>
<trkpt lat="46.057235" lon="13.488745">
<time>2021-07-18T10:05:33Z</time>
</trkpt>
<trkpt lat="46.057153" lon="13.48873">
<time>2021-07-18T10:05:34Z</time>
</trkpt>
<trkpt lat="46.057073" lon="13.488718">
<time>2021-07-18T10:05:35Z</time>
</trkpt>
<trkpt lat="46.05702" lon="13.488713">
<time>2021-07-18T10:05:36Z</time>
</trkpt>
<trkpt lat="46.056978" lon="13.488716">
<time>2021-07-18T10:05:37Z</time>
</trkpt>
<trkpt lat="46.056926" lon="13.488728">
<time>2021-07-18T10:05:38Z</time>
</trkpt>
<trkpt lat="46.056885" lon="13.488753">
<time>2021-07-18T10:05:39Z</time>
</trkpt>
<trkpt lat="46.056843" lon="13.48878">
<time>2021-07-18T10:05:40Z</time>
</trkpt>
<trkpt lat="46.056801" lon="13.4888">
<time>2021-07-18T10:05:41Z</time>
</trkpt>
<trkpt lat="46.056771" lon="13.488801">
<time>2021-07-18T10:05:42Z</time>
</trkpt>
<trkpt lat="46.056735" lon="13.488783">
<time>2021-07-18T10:05:43Z</time>
</trkpt>
<trkpt lat="46.056708" lon="13.488761">
<time>2021-07-18T10:05:44Z</time>
</trkpt>
<trkpt lat="46.056686" lon="13.488733">
<time>2021-07-18T10:05:45Z</time>
</trkpt>
<trkpt lat="46.05667" lon="13.4887">
<time>2021-07-18T10:05:46Z</time>
</trkpt>
<trkpt lat="46.056655" lon="13.488675">
<time>2021-07-18T10:05:47Z</time>
</trkpt>
<trkpt lat="46.05664" lon="13.48866">
<time>2021-07-18T10:05:48Z</time>
</trkpt>
<trkpt lat="46.056625" lon="13.488658">
<time>2021-07-18T10:05:49Z</time>
</trkpt>
<trkpt lat="46.056613" lon="13.488671">
<time>2021-07-18T10:05:50Z</time>
</trkpt>
<trkpt lat="46.056606" lon="13.488688">
<time>2021-07-18T10:05:51Z</time>
</trkpt>
<trkpt lat="46.056593" lon="13.48872">
<time>2021-07-18T10:05:52Z</time>
</trkpt>
<trkpt lat="46.056585" lon="13.488751">
<time>2021-07-18T10:05:53Z</time>
</trkpt>
<trkpt lat="46.056573" lon="13.488783">
<time>2021-07-18T10:05:54Z</time>
</trkpt>
<trkpt lat="46.056576" lon="13.488826">
<time>2021-07-18T10:05:55Z</time>
</trkpt>
<trkpt lat="46.056581" lon="13.488861">
<time>2021-07-18T10:05:56Z</time>
</trkpt>
<trkpt lat="46.056576" lon="13.4889">
<time>2021-07-18T10:05:57Z</time>
</trkpt>
<trkpt lat="46.056578" lon="13.488926">
<time>2021-07-18T10:05:58Z</time>
</trkpt>
<trkpt lat="46.056578" lon="13.488951">
<time>2021-07-18T10:05:59Z</time>
</trkpt>
<trkpt lat="46.056575" lon="13.48899">
<time>2021-07-18T10:06:00Z</time>
</trkpt>
<trkpt lat="46.056556" lon="13.489035">
<time>2021-07-18T10:06:01Z</time>
</trkpt>
<trkpt lat="46.056523" lon="13.489081">
<time>2021-07-18T10:06:02Z</time>
</trkpt>
<trkpt lat="46.056468" lon="13.489151">
<time>2021-07-18T10:06:03Z</time>
</trkpt>
<trkpt lat="46.056411" lon="13.489216">
<time>2021-07-18T10:06:04Z</time>
</trkpt>
<trkpt lat="46.056358" lon="13.489276">
<time>2021-07-18T10:06:05Z</time>
</trkpt>
<trkpt lat="46.056308" lon="13.489366">
<time>2021-07-18T10:06:06Z</time>
</trkpt>
<trkpt lat="46.056256" lon="13.489493">
<time>2021-07-18T10:06:07Z</time>
</trkpt>
<trkpt lat="46.056215" lon="13.489608">
<time>2021-07-18T10:06:08Z</time>
</trkpt>
<trkpt lat="46.056175" lon="13.489726">
<time>2021-07-18T10:06:09Z</time>
</trkpt>
<trkpt lat="46.056146" lon="13.489821">
<time>2021-07-18T10:06:10Z</time>
</trkpt>
<trkpt lat="46.056108" lon="13.489928">
<time>2021-07-18T10:06:11Z</time>
</trkpt>
<trkpt lat="46.056076" lon="13.489975">
<time>2021-07-18T10:06:12Z</time>
</trkpt>
<trkpt lat="46.056036" lon="13.489983">
<time>2021-07-18T10:06:13Z</time>
</trkpt>
<trkpt lat="46.055993" lon="13.489963">
<time>2021-07-18T10:06:14Z</time>
</trkpt>
<trkpt lat="46.05596" lon="13.489931">
<time>2021-07-18T10:06:15Z</time>
</trkpt>
<trkpt lat="46.05591" lon="13.489868">
<time>2021-07-18T10:06:16Z</time>
</trkpt>
<trkpt lat="46.055883" lon="13.489825">
<time>2021-07-18T10:06:17Z</time>
</trkpt>
<trkpt lat="46.055865" lon="13.489796">
<time>2021-07-18T10:06:18Z</time>
</trkpt>
<trkpt lat="46.05584" lon="13.489758">
<time>2021-07-18T10:06:19Z</time>
</trkpt>
<trkpt lat="46.055806" lon="13.489703">
<time>2021-07-18T10:06:20Z</time>
</trkpt>
<trkpt lat="46.055783" lon="13.48967">
<time>2021-07-18T10:06:21Z</time>
</trkpt>
<trkpt lat="46.055755" lon="13.489655">
<time>2021-07-18T10:06:22Z</time>
</trkpt>
<trkpt lat="46.05573" lon="13.489661">
<time>2021-07-18T10:06:23Z</time>
</trkpt>
<trkpt lat="46.055706" lon="13.489681">
<time>2021-07-18T10:06:24Z</time>
</trkpt>
<trkpt lat="46.055673" lon="13.489713">
<time>2021-07-18T10:06:25Z</time>
</trkpt>
<trkpt lat="46.055638" lon="13.489748">
<time>2021-07-18T10:06:26Z</time>
</trkpt>
<trkpt lat="46.055603" lon="13.489781">
<time>2021-07-18T10:06:27Z</time>
</trkpt>
<trkpt lat="46.055565" lon="13.489821">
<time>2021-07-18T10:06:28Z</time>
</trkpt>
<trkpt lat="46.055526" lon="13.489865">
<time>2021-07-18T10:06:29Z</time>
</trkpt>
<trkpt lat="46.05549" lon="13.489911">
<time>2021-07-18T10:06:30Z</time>
</trkpt>
<trkpt lat="46.055456" lon="13.48996">
<time>2021-07-18T10:06:31Z</time>
</trkpt>
<trkpt lat="46.055421" lon="13.490013">
<time>2021-07-18T10:06:32Z</time>
</trkpt>
<trkpt lat="46.05539" lon="13.490071">
<time>2021-07-18T10:06:33Z</time>
</trkpt>
<trkpt lat="46.055355" lon="13.490143">
<time>2021-07-18T10:06:34Z</time>
</trkpt>
<trkpt lat="46.055326" lon="13.490203">
<time>2021-07-18T10:06:35Z</time>
</trkpt>
<trkpt lat="46.055303" lon="13.490253">
<time>2021-07-18T10:06:36Z</time>
</trkpt>
<trkpt lat="46.055278" lon="13.490318">
<time>2021-07-18T10:06:37Z</time>
</trkpt>
<trkpt lat="46.055256" lon="13.490386">
<time>2021-07-18T10:06:38Z</time>
</trkpt>
<trkpt lat="46.055235" lon="13.490463">
<time>2021-07-18T10:06:39Z</time>
</trkpt>
<trkpt lat="46.055211" lon="13.49056">
<time>2021-07-18T10:06:40Z</time>
</trkpt>
<trkpt lat="46.055196" lon="13.490641">
<time>2021-07-18T10:06:41Z</time>
</trkpt>
<trkpt lat="46.055185" lon="13.49071">
<time>2021-07-18T10:06:42Z</time>
</trkpt>
<trkpt lat="46.055166" lon="13.490795">
<time>2021-07-18T10:06:43Z</time>
</trkpt>
<trkpt lat="46.055143" lon="13.490903">
<time>2021-07-18T10:06:44Z</time>
</trkpt>
<trkpt lat="46.055133" lon="13.490978">
<time>2021-07-18T10:06:45Z</time>
</trkpt>
<trkpt lat="46.055123" lon="13.491055">
<time>2021-07-18T10:06:46Z</time>
</trkpt>
<trkpt lat="46.055118" lon="13.491113">
<time>2021-07-18T10:06:47Z</time>
</trkpt>
<trkpt lat="46.055116" lon="13.491151">
<time>2021-07-18T10:06:48Z</time>
</trkpt>
<trkpt lat="46.055115" lon="13.49117">
<time>2021-07-18T10:06:49Z</time>
</trkpt>
<trkpt lat="46.055115" lon="13.491175">
<time>2021-07-18T10:06:50Z</time>
</trkpt>
<trkpt lat="46.055116" lon="13.491176">
<time>2021-07-18T10:06:51Z</time>
</trkpt>
<trkpt lat="46.055116" lon="13.491171">
<time>2021-07-18T10:06:52Z</time>
</trkpt>
<trkpt lat="46.055118" lon="13.49117">
<time>2021-07-18T10:06:53Z</time>
</trkpt>
<trkpt lat="46.05512" lon="13.491168">
<time>2021-07-18T10:06:54Z</time>
</trkpt>
<trkpt lat="46.055121" lon="13.491166">
<time>2021-07-18T10:06:55Z</time>
</trkpt>
<trkpt lat="46.055123" lon="13.491165">
<time>2021-07-18T10:06:56Z</time>
</trkpt>
<trkpt lat="46.055126" lon="13.491161">
<time>2021-07-18T10:06:57Z</time>
</trkpt>
<trkpt lat="46.055126" lon="13.49116">
<time>2021-07-18T10:06:58Z</time>
</trkpt>
<trkpt lat="46.055125" lon="13.491163">
<time>2021-07-18T10:06:59Z</time>
</trkpt>
<trkpt lat="46.055123" lon="13.491166">
<time>2021-07-18T10:07:00Z</time>
</trkpt>
<trkpt lat="46.055115" lon="13.491166">
<time>2021-07-18T10:07:01Z</time>
</trkpt>
<trkpt lat="46.055098" lon="13.491153">
<time>2021-07-18T10:07:02Z</time>
</trkpt>
<trkpt lat="46.055086" lon="13.49114">
<time>2021-07-18T10:07:03Z</time>
</trkpt>
<trkpt lat="46.055076" lon="13.491126">
<time>2021-07-18T10:07:04Z</time>
</trkpt>
<trkpt lat="46.055071" lon="13.491116">
<time>2021-07-18T10:07:05Z</time>
</trkpt>
<trkpt lat="46.055071" lon="13.491113">
<time>2021-07-18T10:07:06Z</time>
</trkpt>
<trkpt lat="46.055078" lon="13.491113">
<time>2021-07-18T10:07:07Z</time>
</trkpt>
<trkpt lat="46.055095" lon="13.49112">
<time>2021-07-18T10:07:08Z</time>
</trkpt>
<trkpt lat="46.055113" lon="13.491131">
<time>2021-07-18T10:07:09Z</time>
</trkpt>
<trkpt lat="46.055128" lon="13.491141">
<time>2021-07-18T10:07:10Z</time>
</trkpt>
<trkpt lat="46.055148" lon="13.491161">
<time>2021-07-18T10:07:11Z</time>
</trkpt>
<trkpt lat="46.05516" lon="13.491183">
<time>2021-07-18T10:07:12Z</time>
</trkpt>
<trkpt lat="46.055173" lon="13.491208">
<time>2021-07-18T10:07:13Z</time>
</trkpt>
<trkpt lat="46.055186" lon="13.491226">
<time>2021-07-18T10:07:14Z</time>
</trkpt>
<trkpt lat="46.055205" lon="13.491248">
<time>2021-07-18T10:07:15Z</time>
</trkpt>
<trkpt lat="46.055225" lon="13.491273">
<time>2021-07-18T10:07:16Z</time>
</trkpt>
<trkpt lat="46.055236" lon="13.491291">
<time>2021-07-18T10:07:17Z</time>
</trkpt>
<trkpt lat="46.055251" lon="13.491318">
<time>2021-07-18T10:07:18Z</time>
</trkpt>
<trkpt lat="46.055263" lon="13.491333">
<time>2021-07-18T10:07:19Z</time>
</trkpt>
<trkpt lat="46.055285" lon="13.491355">
<time>2021-07-18T10:07:20Z</time>
</trkpt>
<trkpt lat="46.055298" lon="13.491368">
<time>2021-07-18T10:07:21Z</time>
</trkpt>
<trkpt lat="46.055311" lon="13.49139">
<time>2021-07-18T10:07:22Z</time>
</trkpt>
<trkpt lat="46.055318" lon="13.491411">
<time>2021-07-18T10:07:23Z</time>
</trkpt>
<trkpt lat="46.055321" lon="13.491425">
<time>2021-07-18T10:07:24Z</time>
</trkpt>
<trkpt lat="46.055323" lon="13.491433">
<time>2021-07-18T10:07:25Z</time>
</trkpt>
<trkpt lat="46.055323" lon="13.491435">
<time>2021-07-18T10:07:26Z</time>
</trkpt>
<trkpt lat="46.055323" lon="13.491435">
<time>2021-07-18T10:07:27Z</time>
</trkpt>
<trkpt lat="46.055321" lon="13.491435">
<time>2021-07-18T10:07:28Z</time>
</trkpt>
<trkpt lat="46.055321" lon="13.491433">
<time>2021-07-18T10:07:29Z</time>
</trkpt>
<trkpt lat="46.055321" lon="13.491433">
<time>2021-07-18T10:07:30Z</time>
</trkpt>
<trkpt lat="46.055318" lon="13.491436">
<time>2021-07-18T10:07:31Z</time>
</trkpt>
<trkpt lat="46.055315" lon="13.491441">
<time>2021-07-18T10:07:32Z</time>
</trkpt>
<trkpt lat="46.05531" lon="13.491451">
<time>2021-07-18T10:07:33Z</time>
</trkpt>
<trkpt lat="46.055306" lon="13.491461">
<time>2021-07-18T10:07:34Z</time>
</trkpt>
<trkpt lat="46.055303" lon="13.491466">
<time>2021-07-18T10:07:35Z</time>
</trkpt>
<trkpt lat="46.055301" lon="13.491468">
<time>2021-07-18T10:07:36Z</time>
</trkpt>
<trkpt lat="46.055301" lon="13.491468">
<time>2021-07-18T10:07:37Z</time>
</trkpt>
<trkpt lat="46.055301" lon="13.491468">
<time>2021-07-18T10:07:38Z</time>
</trkpt>
<trkpt lat="46.055301" lon="13.491468">
<time>2021-07-18T10:07:39Z</time>
</trkpt>
<trkpt lat="46.055301" lon="13.491468">
<time>2021-07-18T10:07:40Z</time>
</trkpt>
<trkpt lat="46.055301" lon="13.491468">
<time>2021-07-18T10:07:41Z</time>
</trkpt>
<trkpt lat="46.055298" lon="13.491473">
<time>2021-07-18T10:07:42Z</time>
</trkpt>
<trkpt lat="46.055275" lon="13.491515">
<time>2021-07-18T10:07:43Z</time>
</trkpt>
<trkpt lat="46.055251" lon="13.491556">
<time>2021-07-18T10:07:44Z</time>
</trkpt>
<trkpt lat="46.055225" lon="13.491601">
<time>2021-07-18T10:07:45Z</time>
</trkpt>
<trkpt lat="46.055201" lon="13.491645">
<time>2021-07-18T10:07:46Z</time>
</trkpt>
<trkpt lat="46.055165" lon="13.491698">
<time>2021-07-18T10:07:47Z</time>
</trkpt>
<trkpt lat="46.055135" lon="13.491738">
<time>2021-07-18T10:07:48Z</time>
</trkpt>
<trkpt lat="46.055116" lon="13.491771">
<time>2021-07-18T10:07:49Z</time>
</trkpt>
<trkpt lat="46.055098" lon="13.49181">
<time>2021-07-18T10:07:50Z</time>
</trkpt>
<trkpt lat="46.055083" lon="13.491835">
<time>2021-07-18T10:07:51Z</time>
</trkpt>
<trkpt lat="46.055066" lon="13.491841">
<time>2021-07-18T10:07:52Z</time>
</trkpt>
<trkpt lat="46.055048" lon="13.491825">
<time>2021-07-18T10:07:53Z</time>
</trkpt>
<trkpt lat="46.055025" lon="13.491798">
<time>2021-07-18T10:07:54Z</time>
</trkpt>
<trkpt lat="46.055003" lon="13.491773">
<time>2021-07-18T10:07:55Z</time>
</trkpt>
<trkpt lat="46.054975" lon="13.49174">
<time>2021-07-18T10:07:56Z</time>
</trkpt>
<trkpt lat="46.054948" lon="13.491716">
<time>2021-07-18T10:07:57Z</time>
</trkpt>
<trkpt lat="46.054923" lon="13.491703">
<time>2021-07-18T10:07:58Z</time>
</trkpt>
<trkpt lat="46.054906" lon="13.491696">
<time>2021-07-18T10:07:59Z</time>
</trkpt>
<trkpt lat="46.054898" lon="13.491698">
<time>2021-07-18T10:08:00Z</time>
</trkpt>
<trkpt lat="46.054896" lon="13.491696">
<time>2021-07-18T10:08:01Z</time>
</trkpt>
<trkpt lat="46.054895" lon="13.491696">
<time>2021-07-18T10:08:02Z</time>
</trkpt>
<trkpt lat="46.054895" lon="13.491698">
<time>2021-07-18T10:08:03Z</time>
</trkpt>
<trkpt lat="46.054896" lon="13.491691">
<time>2021-07-18T10:08:04Z</time>
</trkpt>
<trkpt lat="46.054898" lon="13.491691">
<time>2021-07-18T10:08:05Z</time>
</trkpt>
<trkpt lat="46.0549" lon="13.491695">
<time>2021-07-18T10:08:06Z</time>
</trkpt>
<trkpt lat="46.054896" lon="13.491695">
<time>2021-07-18T10:08:07Z</time>
</trkpt>
<trkpt lat="46.054888" lon="13.491695">
<time>2021-07-18T10:08:08Z</time>
</trkpt>
<trkpt lat="46.05487" lon="13.491696">
<time>2021-07-18T10:08:09Z</time>
</trkpt>
<trkpt lat="46.054846" lon="13.491708">
<time>2021-07-18T10:08:10Z</time>
</trkpt>
<trkpt lat="46.054815" lon="13.491725">
<time>2021-07-18T10:08:11Z</time>
</trkpt>
<trkpt lat="46.054778" lon="13.491748">
<time>2021-07-18T10:08:12Z</time>
</trkpt>
<trkpt lat="46.054738" lon="13.491778">
<time>2021-07-18T10:08:13Z</time>
</trkpt>
<trkpt lat="46.054691" lon="13.491813">
<time>2021-07-18T10:08:14Z</time>
</trkpt>
<trkpt lat="46.054656" lon="13.491841">
<time>2021-07-18T10:08:15Z</time>
</trkpt>
<trkpt lat="46.054631" lon="13.491858">
<time>2021-07-18T10:08:16Z</time>
</trkpt>
<trkpt lat="46.054608" lon="13.49186">
<time>2021-07-18T10:08:17Z</time>
</trkpt>
<trkpt lat="46.054588" lon="13.491855">
<time>2021-07-18T10:08:18Z</time>
</trkpt>
<trkpt lat="46.054576" lon="13.491848">
<time>2021-07-18T10:08:19Z</time>
</trkpt>
<trkpt lat="46.054568" lon="13.491838">
<time>2021-07-18T10:08:20Z</time>
</trkpt>
<trkpt lat="46.05456" lon="13.491821">
<time>2021-07-18T10:08:21Z</time>
</trkpt>
<trkpt lat="46.054551" lon="13.491798">
<time>2021-07-18T10:08:22Z</time>
</trkpt>
<trkpt lat="46.05454" lon="13.491761">
<time>2021-07-18T10:08:23Z</time>
</trkpt>
<trkpt lat="46.054528" lon="13.491721">
<time>2021-07-18T10:08:24Z</time>
</trkpt>
<trkpt lat="46.054513" lon="13.491676">
<time>2021-07-18T10:08:25Z</time>
</trkpt>
<trkpt lat="46.054501" lon="13.49164">
<time>2021-07-18T10:08:26Z</time>
</trkpt>
<trkpt lat="46.054483" lon="13.491588">
<time>2021-07-18T10:08:27Z</time>
</trkpt>
<trkpt lat="46.05446" lon="13.491516">
<time>2021-07-18T10:08:28Z</time>
</trkpt>
<trkpt lat="46.05444" lon="13.491453">
<time>2021-07-18T10:08:29Z</time>
</trkpt>
<trkpt lat="46.054423" lon="13.491396">
<time>2021-07-18T10:08:30Z</time>
</trkpt>
<trkpt lat="46.0544" lon="13.491326">
<time>2021-07-18T10:08:31Z</time>
</trkpt>
<trkpt lat="46.054376" lon="13.49125">
<time>2021-07-18T10:08:32Z</time>
</trkpt>
<trkpt lat="46.054348" lon="13.491161">
<time>2021-07-18T10:08:33Z</time>
</trkpt>
<trkpt lat="46.054323" lon="13.49109">
<time>2021-07-18T10:08:34Z</time>
</trkpt>
<trkpt lat="46.054305" lon="13.491035">
<time>2021-07-18T10:08:35Z</time>
</trkpt>
<trkpt lat="46.054291" lon="13.490973">
<time>2021-07-18T10:08:36Z</time>
</trkpt>
<trkpt lat="46.054291" lon="13.490905">
<time>2021-07-18T10:08:37Z</time>
</trkpt>
<trkpt lat="46.054311" lon="13.490856">
<time>2021-07-18T10:08:38Z</time>
</trkpt>
<trkpt lat="46.054338" lon="13.490825">
<time>2021-07-18T10:08:39Z</time>
</trkpt>
<trkpt lat="46.054376" lon="13.490791">
<time>2021-07-18T10:08:40Z</time>
</trkpt>
<trkpt lat="46.05442" lon="13.490766">
<time>2021-07-18T10:08:41Z</time>
</trkpt>
<trkpt lat="46.054475" lon="13.490738">
<time>2021-07-18T10:08:42Z</time>
</trkpt>
<trkpt lat="46.054513" lon="13.490723">
<time>2021-07-18T10:08:43Z</time>
</trkpt>
<trkpt lat="46.054558" lon="13.4907">
<time>2021-07-18T10:08:44Z</time>
</trkpt>
<trkpt lat="46.054601" lon="13.490671">
<time>2021-07-18T10:08:45Z</time>
</trkpt>
<trkpt lat="46.054643" lon="13.490638">
<time>2021-07-18T10:08:46Z</time>
</trkpt>
<trkpt lat="46.054693" lon="13.4906">
<time>2021-07-18T10:08:47Z</time>
</trkpt>
<trkpt lat="46.054725" lon="13.490575">
<time>2021-07-18T10:08:48Z</time>
</trkpt>
<trkpt lat="46.05476" lon="13.490546">
<time>2021-07-18T10:08:49Z</time>
</trkpt>
<trkpt lat="46.054788" lon="13.49052">
<time>2021-07-18T10:08:50Z</time>
</trkpt>
<trkpt lat="46.054811" lon="13.490501">
<time>2021-07-18T10:08:51Z</time>
</trkpt>
<trkpt lat="46.054838" lon="13.490483">
<time>2021-07-18T10:08:52Z</time>
</trkpt>
<trkpt lat="46.05485" lon="13.49048">
<time>2021-07-18T10:08:53Z</time>
</trkpt>
<trkpt lat="46.05486" lon="13.490475">
<time>2021-07-18T10:08:54Z</time>
</trkpt>
<trkpt lat="46.054866" lon="13.490468">
<time>2021-07-18T10:08:55Z</time>
</trkpt>
<trkpt lat="46.054868" lon="13.490456">
<time>2021-07-18T10:08:56Z</time>
</trkpt>
<trkpt lat="46.054866" lon="13.49044">
<time>2021-07-18T10:08:57Z</time>
</trkpt>
<trkpt lat="46.054853" lon="13.490425">
<time>2021-07-18T10:08:58Z</time>
</trkpt>
<trkpt lat="46.054833" lon="13.490423">
<time>2021-07-18T10:08:59Z</time>
</trkpt>
<trkpt lat="46.05482" lon="13.490425">
<time>2021-07-18T10:09:00Z</time>
</trkpt>
<trkpt lat="46.054811" lon="13.490431">
<time>2021-07-18T10:09:01Z</time>
</trkpt>
<trkpt lat="46.054808" lon="13.490446">
<time>2021-07-18T10:09:02Z</time>
</trkpt>
<trkpt lat="46.054801" lon="13.490465">
<time>2021-07-18T10:09:03Z</time>
</trkpt>
<trkpt lat="46.054783" lon="13.490481">
<time>2021-07-18T10:09:04Z</time>
</trkpt>
<trkpt lat="46.054751" lon="13.490506">
<time>2021-07-18T10:09:05Z</time>
</trkpt>
<trkpt lat="46.05471" lon="13.490538">
<time>2021-07-18T10:09:06Z</time>
</trkpt>
<trkpt lat="46.054663" lon="13.490578">
<time>2021-07-18T10:09:07Z</time>
</trkpt>
<trkpt lat="46.054605" lon="13.490635">
<time>2021-07-18T10:09:08Z</time>
</trkpt>
<trkpt lat="46.054566" lon="13.49067">
<time>2021-07-18T10:09:09Z</time>
</trkpt>
<trkpt lat="46.054508" lon="13.49072">
<time>2021-07-18T10:09:10Z</time>
</trkpt>
<trkpt lat="46.05447" lon="13.490755">
<time>2021-07-18T10:09:11Z</time>
</trkpt>
<trkpt lat="46.054423" lon="13.490796">
<time>2021-07-18T10:09:12Z</time>
</trkpt>
<trkpt lat="46.054371" lon="13.490846">
<time>2021-07-18T10:09:13Z</time>
</trkpt>
<trkpt lat="46.054328" lon="13.490886">
<time>2021-07-18T10:09:14Z</time>
</trkpt>
<trkpt lat="46.054295" lon="13.490911">
<time>2021-07-18T10:09:15Z</time>
</trkpt>
<trkpt lat="46.054255" lon="13.490928">
<time>2021-07-18T10:09:16Z</time>
</trkpt>
<trkpt lat="46.054216" lon="13.490923">
<time>2021-07-18T10:09:17Z</time>
</trkpt>
<trkpt lat="46.054185" lon="13.490893">
<time>2021-07-18T10:09:18Z</time>
</trkpt>
<trkpt lat="46.054161" lon="13.490845">
<time>2021-07-18T10:09:19Z</time>
</trkpt>
<trkpt lat="46.054138" lon="13.490785">
<time>2021-07-18T10:09:20Z</time>
</trkpt>
<trkpt lat="46.054113" lon="13.490715">
<time>2021-07-18T10:09:21Z</time>
</trkpt>
<trkpt lat="46.054095" lon="13.490625">
<time>2021-07-18T10:09:22Z</time>
</trkpt>
<trkpt lat="46.05407" lon="13.490523">
<time>2021-07-18T10:09:23Z</time>
</trkpt>
<trkpt lat="46.054048" lon="13.490455">
<time>2021-07-18T10:09:24Z</time>
</trkpt>
<trkpt lat="46.054021" lon="13.49037">
<time>2021-07-18T10:09:25Z</time>
</trkpt>
<trkpt lat="46.05399" lon="13.490281">
<time>2021-07-18T10:09:26Z</time>
</trkpt>
<trkpt lat="46.053961" lon="13.490193">
<time>2021-07-18T10:09:27Z</time>
</trkpt>
<trkpt lat="46.053933" lon="13.490105">
<time>2021-07-18T10:09:28Z</time>
</trkpt>
<trkpt lat="46.053903" lon="13.490011">
<time>2021-07-18T10:09:29Z</time>
</trkpt>
<trkpt lat="46.053871" lon="13.489918">
<time>2021-07-18T10:09:30Z</time>
</trkpt>
<trkpt lat="46.053838" lon="13.489823">
<time>2021-07-18T10:09:31Z</time>
</trkpt>
<trkpt lat="46.053806" lon="13.48973">
<time>2021-07-18T10:09:32Z</time>
</trkpt>
<trkpt lat="46.053775" lon="13.489635">
<time>2021-07-18T10:09:33Z</time>
</trkpt>
<trkpt lat="46.053745" lon="13.489538">
<time>2021-07-18T10:09:34Z</time>
</trkpt>
<trkpt lat="46.053713" lon="13.489441">
<time>2021-07-18T10:09:35Z</time>
</trkpt>
<trkpt lat="46.053681" lon="13.489343">
<time>2021-07-18T10:09:36Z</time>
</trkpt>
<trkpt lat="46.053646" lon="13.489245">
<time>2021-07-18T10:09:37Z</time>
</trkpt>
<trkpt lat="46.053606" lon="13.489155">
<time>2021-07-18T10:09:38Z</time>
</trkpt>
<trkpt lat="46.053556" lon="13.489073">
<time>2021-07-18T10:09:39Z</time>
</trkpt>
<trkpt lat="46.053498" lon="13.489003">
<time>2021-07-18T10:09:40Z</time>
</trkpt>
<trkpt lat="46.053431" lon="13.488938">
<time>2021-07-18T10:09:41Z</time>
</trkpt>
<trkpt lat="46.05336" lon="13.48888">
<time>2021-07-18T10:09:42Z</time>
</trkpt>
<trkpt lat="46.053286" lon="13.488823">
<time>2021-07-18T10:09:43Z</time>
</trkpt>
<trkpt lat="46.053215" lon="13.488768">
<time>2021-07-18T10:09:44Z</time>
</trkpt>
<trkpt lat="46.053141" lon="13.488715">
<time>2021-07-18T10:09:45Z</time>
</trkpt>
<trkpt lat="46.053066" lon="13.48866">
<time>2021-07-18T10:09:46Z</time>
</trkpt>
<trkpt lat="46.052991" lon="13.488606">
<time>2021-07-18T10:09:47Z</time>
</trkpt>
<trkpt lat="46.052915" lon="13.488553">
<time>2021-07-18T10:09:48Z</time>
</trkpt>
<trkpt lat="46.052841" lon="13.4885">
<time>2021-07-18T10:09:49Z</time>
</trkpt>
<trkpt lat="46.052753" lon="13.488438">
<time>2021-07-18T10:09:50Z</time>
</trkpt>
<trkpt lat="46.052683" lon="13.488386">
<time>2021-07-18T10:09:51Z</time>
</trkpt>
<trkpt lat="46.052615" lon="13.488335">
<time>2021-07-18T10:09:52Z</time>
</trkpt>
<trkpt lat="46.05256" lon="13.488293">
<time>2021-07-18T10:09:53Z</time>
</trkpt>
<trkpt lat="46.052476" lon="13.488231">
<time>2021-07-18T10:09:54Z</time>
</trkpt>
<trkpt lat="46.05242" lon="13.48819">
<time>2021-07-18T10:09:55Z</time>
</trkpt>
<trkpt lat="46.052346" lon="13.488138">
<time>2021-07-18T10:09:56Z</time>
</trkpt>
<trkpt lat="46.052273" lon="13.488085">
<time>2021-07-18T10:09:57Z</time>
</trkpt>
<trkpt lat="46.0522" lon="13.488033">
<time>2021-07-18T10:09:58Z</time>
</trkpt>
<trkpt lat="46.052111" lon="13.487971">
<time>2021-07-18T10:09:59Z</time>
</trkpt>
<trkpt lat="46.052051" lon="13.48793">
<time>2021-07-18T10:10:00Z</time>
</trkpt>
<trkpt lat="46.051978" lon="13.487876">
<time>2021-07-18T10:10:01Z</time>
</trkpt>
<trkpt lat="46.051905" lon="13.487825">
<time>2021-07-18T10:10:02Z</time>
</trkpt>
<trkpt lat="46.05183" lon="13.487766">
<time>2021-07-18T10:10:03Z</time>
</trkpt>
<trkpt lat="46.051761" lon="13.487701">
<time>2021-07-18T10:10:04Z</time>
</trkpt>
<trkpt lat="46.051681" lon="13.48761">
<time>2021-07-18T10:10:05Z</time>
</trkpt>
<trkpt lat="46.051636" lon="13.487538">
<time>2021-07-18T10:10:06Z</time>
</trkpt>
<trkpt lat="46.051591" lon="13.48744">
<time>2021-07-18T10:10:07Z</time>
</trkpt>
<trkpt lat="46.051545" lon="13.487311">
<time>2021-07-18T10:10:08Z</time>
</trkpt>
<trkpt lat="46.051511" lon="13.4872">
<time>2021-07-18T10:10:09Z</time>
</trkpt>
<trkpt lat="46.05148" lon="13.487085">
<time>2021-07-18T10:10:10Z</time>
</trkpt>
<trkpt lat="46.051458" lon="13.486991">
<time>2021-07-18T10:10:11Z</time>
</trkpt>
<trkpt lat="46.051433" lon="13.486878">
<time>2021-07-18T10:10:12Z</time>
</trkpt>
<trkpt lat="46.051406" lon="13.486746">
<time>2021-07-18T10:10:13Z</time>
</trkpt>
<trkpt lat="46.051381" lon="13.486638">
<time>2021-07-18T10:10:14Z</time>
</trkpt>
<trkpt lat="46.051365" lon="13.486555">
<time>2021-07-18T10:10:15Z</time>
</trkpt>
<trkpt lat="46.051348" lon="13.486453">
<time>2021-07-18T10:10:16Z</time>
</trkpt>
<trkpt lat="46.051351" lon="13.486341">
<time>2021-07-18T10:10:17Z</time>
</trkpt>
<trkpt lat="46.05137" lon="13.486273">
<time>2021-07-18T10:10:18Z</time>
</trkpt>
<trkpt lat="46.051395" lon="13.486196">
<time>2021-07-18T10:10:19Z</time>
</trkpt>
<trkpt lat="46.051425" lon="13.486121">
<time>2021-07-18T10:10:20Z</time>
</trkpt>
<trkpt lat="46.051458" lon="13.486043">
<time>2021-07-18T10:10:21Z</time>
</trkpt>
<trkpt lat="46.051498" lon="13.485955">
<time>2021-07-18T10:10:22Z</time>
</trkpt>
<trkpt lat="46.051525" lon="13.485895">
<time>2021-07-18T10:10:23Z</time>
</trkpt>
<trkpt lat="46.05155" lon="13.485815">
<time>2021-07-18T10:10:24Z</time>
</trkpt>
<trkpt lat="46.051575" lon="13.485731">
<time>2021-07-18T10:10:25Z</time>
</trkpt>
<trkpt lat="46.051605" lon="13.485643">
<time>2021-07-18T10:10:26Z</time>
</trkpt>
<trkpt lat="46.051631" lon="13.485548">
<time>2021-07-18T10:10:27Z</time>
</trkpt>
<trkpt lat="46.051641" lon="13.485481">
<time>2021-07-18T10:10:28Z</time>
</trkpt>
<trkpt lat="46.051636" lon="13.48539">
<time>2021-07-18T10:10:29Z</time>
</trkpt>
<trkpt lat="46.051623" lon="13.485308">
<time>2021-07-18T10:10:30Z</time>
</trkpt>
<trkpt lat="46.0516" lon="13.485208">
<time>2021-07-18T10:10:31Z</time>
</trkpt>
<trkpt lat="46.051583" lon="13.485141">
<time>2021-07-18T10:10:32Z</time>
</trkpt>
<trkpt lat="46.051568" lon="13.485055">
<time>2021-07-18T10:10:33Z</time>
</trkpt>
<trkpt lat="46.051563" lon="13.484965">
<time>2021-07-18T10:10:34Z</time>
</trkpt>
<trkpt lat="46.05157" lon="13.484875">
<time>2021-07-18T10:10:35Z</time>
</trkpt>
<trkpt lat="46.051591" lon="13.484793">
<time>2021-07-18T10:10:36Z</time>
</trkpt>
<trkpt lat="46.051626" lon="13.484718">
<time>2021-07-18T10:10:37Z</time>
</trkpt>
<trkpt lat="46.051666" lon="13.484648">
<time>2021-07-18T10:10:38Z</time>
</trkpt>
<trkpt lat="46.051708" lon="13.484576">
<time>2021-07-18T10:10:39Z</time>
</trkpt>
<trkpt lat="46.051753" lon="13.484506">
<time>2021-07-18T10:10:40Z</time>
</trkpt>
<trkpt lat="46.051796" lon="13.484435">
<time>2021-07-18T10:10:41Z</time>
</trkpt>
<trkpt lat="46.05184" lon="13.484363">
<time>2021-07-18T10:10:42Z</time>
</trkpt>
<trkpt lat="46.051881" lon="13.484291">
<time>2021-07-18T10:10:43Z</time>
</trkpt>
<trkpt lat="46.05192" lon="13.484218">
<time>2021-07-18T10:10:44Z</time>
</trkpt>
<trkpt lat="46.051955" lon="13.484145">
<time>2021-07-18T10:10:45Z</time>
</trkpt>
<trkpt lat="46.051991" lon="13.48408">
<time>2021-07-18T10:10:46Z</time>
</trkpt>
<trkpt lat="46.05204" lon="13.484026">
<time>2021-07-18T10:10:47Z</time>
</trkpt>
<trkpt lat="46.052075" lon="13.484015">
<time>2021-07-18T10:10:48Z</time>
</trkpt>
<trkpt lat="46.052116" lon="13.484016">
<time>2021-07-18T10:10:49Z</time>
</trkpt>
<trkpt lat="46.052158" lon="13.484031">
<time>2021-07-18T10:10:50Z</time>
</trkpt>
<trkpt lat="46.05221" lon="13.48405">
<time>2021-07-18T10:10:51Z</time>
</trkpt>
<trkpt lat="46.052246" lon="13.48406">
<time>2021-07-18T10:10:52Z</time>
</trkpt>
<trkpt lat="46.052291" lon="13.48407">
<time>2021-07-18T10:10:53Z</time>
</trkpt>
<trkpt lat="46.052343" lon="13.484085">
<time>2021-07-18T10:10:54Z</time>
</trkpt>
<trkpt lat="46.052393" lon="13.484088">
<time>2021-07-18T10:10:55Z</time>
</trkpt>
<trkpt lat="46.052438" lon="13.484081">
<time>2021-07-18T10:10:56Z</time>
</trkpt>
<trkpt lat="46.052483" lon="13.48407">
<time>2021-07-18T10:10:57Z</time>
</trkpt>
<trkpt lat="46.052526" lon="13.484056">
<time>2021-07-18T10:10:58Z</time>
</trkpt>
<trkpt lat="46.052573" lon="13.484035">
<time>2021-07-18T10:10:59Z</time>
</trkpt>
<trkpt lat="46.05261" lon="13.484013">
<time>2021-07-18T10:11:00Z</time>
</trkpt>
<trkpt lat="46.052645" lon="13.483988">
<time>2021-07-18T10:11:01Z</time>
</trkpt>
<trkpt lat="46.05267" lon="13.48397">
<time>2021-07-18T10:11:02Z</time>
</trkpt>
<trkpt lat="46.0527" lon="13.483945">
<time>2021-07-18T10:11:03Z</time>
</trkpt>
<trkpt lat="46.052726" lon="13.48392">
<time>2021-07-18T10:11:04Z</time>
</trkpt>
<trkpt lat="46.052753" lon="13.483891">
<time>2021-07-18T10:11:05Z</time>
</trkpt>
<trkpt lat="46.052771" lon="13.483873">
<time>2021-07-18T10:11:06Z</time>
</trkpt>
<trkpt lat="46.052781" lon="13.483855">
<time>2021-07-18T10:11:07Z</time>
</trkpt>
<trkpt lat="46.052795" lon="13.483831">
<time>2021-07-18T10:11:08Z</time>
</trkpt>
<trkpt lat="46.052808" lon="13.4838">
<time>2021-07-18T10:11:09Z</time>
</trkpt>
<trkpt lat="46.052816" lon="13.483771">
<time>2021-07-18T10:11:10Z</time>
</trkpt>
<trkpt lat="46.052821" lon="13.483741">
<time>2021-07-18T10:11:11Z</time>
</trkpt>
<trkpt lat="46.052825" lon="13.48372">
<time>2021-07-18T10:11:12Z</time>
</trkpt>
<trkpt lat="46.052821" lon="13.483688">
<time>2021-07-18T10:11:13Z</time>
</trkpt>
<trkpt lat="46.052818" lon="13.48367">
<time>2021-07-18T10:11:14Z</time>
</trkpt>
<trkpt lat="46.052815" lon="13.483643">
<time>2021-07-18T10:11:15Z</time>
</trkpt>
<trkpt lat="46.052818" lon="13.483628">
<time>2021-07-18T10:11:16Z</time>
</trkpt>
<trkpt lat="46.052826" lon="13.483613">
<time>2021-07-18T10:11:17Z</time>
</trkpt>
<trkpt lat="46.052843" lon="13.483603">
<time>2021-07-18T10:11:18Z</time>
</trkpt>
<trkpt lat="46.052861" lon="13.483596">
<time>2021-07-18T10:11:19Z</time>
</trkpt>
<trkpt lat="46.052881" lon="13.483595">
<time>2021-07-18T10:11:20Z</time>
</trkpt>
<trkpt lat="46.052891" lon="13.483593">
<time>2021-07-18T10:11:21Z</time>
</trkpt>
<trkpt lat="46.052898" lon="13.483595">
<time>2021-07-18T10:11:22Z</time>
</trkpt>
<trkpt lat="46.052895" lon="13.483598">
<time>2021-07-18T10:11:23Z</time>
</trkpt>
<trkpt lat="46.052886" lon="13.483605">
<time>2021-07-18T10:11:24Z</time>
</trkpt>
<trkpt lat="46.052873" lon="13.48361">
<time>2021-07-18T10:11:25Z</time>
</trkpt>
<trkpt lat="46.052855" lon="13.483618">
<time>2021-07-18T10:11:26Z</time>
</trkpt>
<trkpt lat="46.052825" lon="13.48363">
<time>2021-07-18T10:11:27Z</time>
</trkpt>
<trkpt lat="46.052791" lon="13.483643">
<time>2021-07-18T10:11:28Z</time>
</trkpt>
<trkpt lat="46.052775" lon="13.483645">
<time>2021-07-18T10:11:29Z</time>
</trkpt>
<trkpt lat="46.052758" lon="13.483643">
<time>2021-07-18T10:11:30Z</time>
</trkpt>
<trkpt lat="46.052743" lon="13.483633">
<time>2021-07-18T10:11:31Z</time>
</trkpt>
<trkpt lat="46.052731" lon="13.48363">
<time>2021-07-18T10:11:32Z</time>
</trkpt>
<trkpt lat="46.052723" lon="13.483623">
<time>2021-07-18T10:11:33Z</time>
</trkpt>
<trkpt lat="46.05272" lon="13.483616">
<time>2021-07-18T10:11:34Z</time>
</trkpt>
<trkpt lat="46.052716" lon="13.483605">
<time>2021-07-18T10:11:35Z</time>
</trkpt>
<trkpt lat="46.052718" lon="13.483595">
<time>2021-07-18T10:11:36Z</time>
</trkpt>
<trkpt lat="46.052723" lon="13.483585">
<time>2021-07-18T10:11:37Z</time>
</trkpt>
<trkpt lat="46.052731" lon="13.483576">
<time>2021-07-18T10:11:38Z</time>
</trkpt>
<trkpt lat="46.052743" lon="13.483566">
<time>2021-07-18T10:11:39Z</time>
</trkpt>
<trkpt lat="46.052756" lon="13.483558">
<time>2021-07-18T10:11:40Z</time>
</trkpt>
<trkpt lat="46.052768" lon="13.483546">
<time>2021-07-18T10:11:41Z</time>
</trkpt>
<trkpt lat="46.052781" lon="13.483535">
<time>2021-07-18T10:11:42Z</time>
</trkpt>
<trkpt lat="46.052793" lon="13.483521">
<time>2021-07-18T10:11:43Z</time>
</trkpt>
<trkpt lat="46.052805" lon="13.48351">
<time>2021-07-18T10:11:44Z</time>
</trkpt>
<trkpt lat="46.052816" lon="13.4835">
<time>2021-07-18T10:11:45Z</time>
</trkpt>
<trkpt lat="46.052826" lon="13.483488">
<time>2021-07-18T10:11:46Z</time>
</trkpt>
<trkpt lat="46.052838" lon="13.483476">
<time>2021-07-18T10:11:47Z</time>
</trkpt>
<trkpt lat="46.052853" lon="13.483463">
<time>2021-07-18T10:11:48Z</time>
</trkpt>
<trkpt lat="46.052863" lon="13.483453">
<time>2021-07-18T10:11:49Z</time>
</trkpt>
<trkpt lat="46.052875" lon="13.483438">
<time>2021-07-18T10:11:50Z</time>
</trkpt>
<trkpt lat="46.052893" lon="13.483416">
<time>2021-07-18T10:11:51Z</time>
</trkpt>
<trkpt lat="46.052905" lon="13.4834">
<time>2021-07-18T10:11:52Z</time>
</trkpt>
<trkpt lat="46.052921" lon="13.483376">
<time>2021-07-18T10:11:53Z</time>
</trkpt>
<trkpt lat="46.052933" lon="13.48336">
<time>2021-07-18T10:11:54Z</time>
</trkpt>
<trkpt lat="46.05295" lon="13.483331">
<time>2021-07-18T10:11:55Z</time>
</trkpt>
<trkpt lat="46.052966" lon="13.48331">
<time>2021-07-18T10:11:56Z</time>
</trkpt>
<trkpt lat="46.05298" lon="13.483295">
<time>2021-07-18T10:11:57Z</time>
</trkpt>
<trkpt lat="46.052998" lon="13.483276">
<time>2021-07-18T10:11:58Z</time>
</trkpt>
<trkpt lat="46.053015" lon="13.483258">
<time>2021-07-18T10:11:59Z</time>
</trkpt>
<trkpt lat="46.05303" lon="13.483236">
<time>2021-07-18T10:12:00Z</time>
</trkpt>
<trkpt lat="46.053048" lon="13.483211">
<time>2021-07-18T10:12:01Z</time>
</trkpt>
<trkpt lat="46.053061" lon="13.483191">
<time>2021-07-18T10:12:02Z</time>
</trkpt>
<trkpt lat="46.053073" lon="13.483173">
<time>2021-07-18T10:12:03Z</time>
</trkpt>
<trkpt lat="46.05309" lon="13.483143">
<time>2021-07-18T10:12:04Z</time>
</trkpt>
<trkpt lat="46.0531" lon="13.483121">
<time>2021-07-18T10:12:05Z</time>
</trkpt>
<trkpt lat="46.053113" lon="13.483096">
<time>2021-07-18T10:12:06Z</time>
</trkpt>
<trkpt lat="46.05313" lon="13.48307">
<time>2021-07-18T10:12:07Z</time>
</trkpt>
<trkpt lat="46.053143" lon="13.483051">
<time>2021-07-18T10:12:08Z</time>
</trkpt>
<trkpt lat="46.053158" lon="13.483033">
<time>2021-07-18T10:12:09Z</time>
</trkpt>
<trkpt lat="46.053173" lon="13.48301">
<time>2021-07-18T10:12:10Z</time>
</trkpt>
<trkpt lat="46.053188" lon="13.482988">
<time>2021-07-18T10:12:11Z</time>
</trkpt>
<trkpt lat="46.053203" lon="13.482966">
<time>2021-07-18T10:12:12Z</time>
</trkpt>
<trkpt lat="46.053213" lon="13.482941">
<time>2021-07-18T10:12:13Z</time>
</trkpt>
<trkpt lat="46.053223" lon="13.482916">
<time>2021-07-18T10:12:14Z</time>
</trkpt>
<trkpt lat="46.053231" lon="13.482891">
<time>2021-07-18T10:12:15Z</time>
</trkpt>
<trkpt lat="46.05324" lon="13.482863">
<time>2021-07-18T10:12:16Z</time>
</trkpt>
<trkpt lat="46.053248" lon="13.482831">
<time>2021-07-18T10:12:17Z</time>
</trkpt>
<trkpt lat="46.053255" lon="13.482798">
<time>2021-07-18T10:12:18Z</time>
</trkpt>
<trkpt lat="46.053263" lon="13.482768">
<time>2021-07-18T10:12:19Z</time>
</trkpt>
<trkpt lat="46.053273" lon="13.482738">
<time>2021-07-18T10:12:20Z</time>
</trkpt>
<trkpt lat="46.05328" lon="13.482706">
<time>2021-07-18T10:12:21Z</time>
</trkpt>
<trkpt lat="46.053285" lon="13.482678">
<time>2021-07-18T10:12:22Z</time>
</trkpt>
<trkpt lat="46.053285" lon="13.482646">
<time>2021-07-18T10:12:23Z</time>
</trkpt>
<trkpt lat="46.05328" lon="13.482615">
<time>2021-07-18T10:12:24Z</time>
</trkpt>
<trkpt lat="46.053268" lon="13.482586">
<time>2021-07-18T10:12:25Z</time>
</trkpt>
<trkpt lat="46.053256" lon="13.48256">
<time>2021-07-18T10:12:26Z</time>
</trkpt>
<trkpt lat="46.053251" lon="13.482533">
<time>2021-07-18T10:12:27Z</time>
</trkpt>
<trkpt lat="46.053256" lon="13.482506">
<time>2021-07-18T10:12:28Z</time>
</trkpt>
<trkpt lat="46.053263" lon="13.482478">
<time>2021-07-18T10:12:29Z</time>
</trkpt>
<trkpt lat="46.053261" lon="13.48246">
<time>2021-07-18T10:12:30Z</time>
</trkpt>
<trkpt lat="46.05325" lon="13.48244">
<time>2021-07-18T10:12:31Z</time>
</trkpt>
<trkpt lat="46.053231" lon="13.482423">
<time>2021-07-18T10:12:32Z</time>
</trkpt>
<trkpt lat="46.053205" lon="13.482408">
<time>2021-07-18T10:12:33Z</time>
</trkpt>
<trkpt lat="46.053175" lon="13.482393">
<time>2021-07-18T10:12:34Z</time>
</trkpt>
<trkpt lat="46.05314" lon="13.482373">
<time>2021-07-18T10:12:35Z</time>
</trkpt>
<trkpt lat="46.0531" lon="13.482341">
<time>2021-07-18T10:12:36Z</time>
</trkpt>
<trkpt lat="46.053058" lon="13.48231">
<time>2021-07-18T10:12:37Z</time>
</trkpt>
<trkpt lat="46.053013" lon="13.482275">
<time>2021-07-18T10:12:38Z</time>
</trkpt>
<trkpt lat="46.052968" lon="13.48224">
<time>2021-07-18T10:12:39Z</time>
</trkpt>
<trkpt lat="46.05292" lon="13.482201">
<time>2021-07-18T10:12:40Z</time>
</trkpt>
<trkpt lat="46.052868" lon="13.48217">
<time>2021-07-18T10:12:41Z</time>
</trkpt>
<trkpt lat="46.052815" lon="13.482151">
<time>2021-07-18T10:12:42Z</time>
</trkpt>
<trkpt lat="46.052768" lon="13.48215">
<time>2021-07-18T10:12:43Z</time>
</trkpt>
<trkpt lat="46.05273" lon="13.482165">
<time>2021-07-18T10:12:44Z</time>
</trkpt>
<trkpt lat="46.052695" lon="13.482181">
<time>2021-07-18T10:12:45Z</time>
</trkpt>
<trkpt lat="46.05266" lon="13.482181">
<time>2021-07-18T10:12:46Z</time>
</trkpt>
<trkpt lat="46.052623" lon="13.482168">
<time>2021-07-18T10:12:47Z</time>
</trkpt>
<trkpt lat="46.052583" lon="13.482143">
<time>2021-07-18T10:12:48Z</time>
</trkpt>
<trkpt lat="46.05254" lon="13.48211">
<time>2021-07-18T10:12:49Z</time>
</trkpt>
<trkpt lat="46.052493" lon="13.482075">
<time>2021-07-18T10:12:50Z</time>
</trkpt>
<trkpt lat="46.052443" lon="13.482035">
<time>2021-07-18T10:12:51Z</time>
</trkpt>
<trkpt lat="46.052396" lon="13.481995">
<time>2021-07-18T10:12:52Z</time>
</trkpt>
<trkpt lat="46.05235" lon="13.481958">
<time>2021-07-18T10:12:53Z</time>
</trkpt>
<trkpt lat="46.052305" lon="13.481926">
<time>2021-07-18T10:12:54Z</time>
</trkpt>
<trkpt lat="46.052265" lon="13.4819">
<time>2021-07-18T10:12:55Z</time>
</trkpt>
<trkpt lat="46.052231" lon="13.481876">
<time>2021-07-18T10:12:56Z</time>
</trkpt>
<trkpt lat="46.052201" lon="13.481856">
<time>2021-07-18T10:12:57Z</time>
</trkpt>
<trkpt lat="46.052176" lon="13.481838">
<time>2021-07-18T10:12:58Z</time>
</trkpt>
<trkpt lat="46.052151" lon="13.481818">
<time>2021-07-18T10:12:59Z</time>
</trkpt>
<trkpt lat="46.052123" lon="13.481801">
<time>2021-07-18T10:13:00Z</time>
</trkpt>
<trkpt lat="46.052095" lon="13.481786">
<time>2021-07-18T10:13:01Z</time>
</trkpt>
<trkpt lat="46.052068" lon="13.48177">
<time>2021-07-18T10:13:02Z</time>
</trkpt>
<trkpt lat="46.052041" lon="13.481756">
<time>2021-07-18T10:13:03Z</time>
</trkpt>
<trkpt lat="46.05202" lon="13.48174">
<time>2021-07-18T10:13:04Z</time>
</trkpt>
<trkpt lat="46.051996" lon="13.481721">
<time>2021-07-18T10:13:05Z</time>
</trkpt>
<trkpt lat="46.051975" lon="13.481705">
<time>2021-07-18T10:13:06Z</time>
</trkpt>
<trkpt lat="46.051948" lon="13.481688">
<time>2021-07-18T10:13:07Z</time>
</trkpt>
<trkpt lat="46.051923" lon="13.481671">
<time>2021-07-18T10:13:08Z</time>
</trkpt>
<trkpt lat="46.051895" lon="13.481653">
<time>2021-07-18T10:13:09Z</time>
</trkpt>
<trkpt lat="46.051868" lon="13.481635">
<time>2021-07-18T10:13:10Z</time>
</trkpt>
<trkpt lat="46.051841" lon="13.481616">
<time>2021-07-18T10:13:11Z</time>
</trkpt>
<trkpt lat="46.051815" lon="13.4816">
<time>2021-07-18T10:13:12Z</time>
</trkpt>
<trkpt lat="46.05179" lon="13.481583">
<time>2021-07-18T10:13:13Z</time>
</trkpt>
<trkpt lat="46.051765" lon="13.481566">
<time>2021-07-18T10:13:14Z</time>
</trkpt>
<trkpt lat="46.05174" lon="13.481548">
<time>2021-07-18T10:13:15Z</time>
</trkpt>
<trkpt lat="46.051711" lon="13.481535">
<time>2021-07-18T10:13:16Z</time>
</trkpt>
<trkpt lat="46.051685" lon="13.481518">
<time>2021-07-18T10:13:17Z</time>
</trkpt>
<trkpt lat="46.05166" lon="13.481503">
<time>2021-07-18T10:13:18Z</time>
</trkpt>
<trkpt lat="46.051633" lon="13.48149">
<time>2021-07-18T10:13:19Z</time>
</trkpt>
<trkpt lat="46.051608" lon="13.481476">
<time>2021-07-18T10:13:20Z</time>
</trkpt>
<trkpt lat="46.051581" lon="13.481468">
<time>2021-07-18T10:13:21Z</time>
</trkpt>
<trkpt lat="46.051556" lon="13.481461">
<time>2021-07-18T10:13:22Z</time>
</trkpt>
<trkpt lat="46.051533" lon="13.481455">
<time>2021-07-18T10:13:23Z</time>
</trkpt>
<trkpt lat="46.05151" lon="13.481448">
<time>2021-07-18T10:13:24Z</time>
</trkpt>
<trkpt lat="46.051485" lon="13.48144">
<time>2021-07-18T10:13:25Z</time>
</trkpt>
<trkpt lat="46.051463" lon="13.481435">
<time>2021-07-18T10:13:26Z</time>
</trkpt>
<trkpt lat="46.051441" lon="13.481426">
<time>2021-07-18T10:13:27Z</time>
</trkpt>
<trkpt lat="46.05142" lon="13.48142">
<time>2021-07-18T10:13:28Z</time>
</trkpt>
<trkpt lat="46.051398" lon="13.481411">
<time>2021-07-18T10:13:29Z</time>
</trkpt>
<trkpt lat="46.051378" lon="13.481401">
<time>2021-07-18T10:13:30Z</time>
</trkpt>
<trkpt lat="46.051358" lon="13.481391">
<time>2021-07-18T10:13:31Z</time>
</trkpt>
<trkpt lat="46.051336" lon="13.481381">
<time>2021-07-18T10:13:32Z</time>
</trkpt>
<trkpt lat="46.051318" lon="13.481373">
<time>2021-07-18T10:13:33Z</time>
</trkpt>
<trkpt lat="46.0513" lon="13.481358">
<time>2021-07-18T10:13:34Z</time>
</trkpt>
<trkpt lat="46.051286" lon="13.481341">
<time>2021-07-18T10:13:35Z</time>
</trkpt>
<trkpt lat="46.051273" lon="13.481323">
<time>2021-07-18T10:13:36Z</time>
</trkpt>
<trkpt lat="46.051263" lon="13.481306">
<time>2021-07-18T10:13:37Z</time>
</trkpt>
<trkpt lat="46.051253" lon="13.481288">
<time>2021-07-18T10:13:38Z</time>
</trkpt>
<trkpt lat="46.051243" lon="13.481266">
<time>2021-07-18T10:13:39Z</time>
</trkpt>
<trkpt lat="46.051231" lon="13.481248">
<time>2021-07-18T10:13:40Z</time>
</trkpt>
<trkpt lat="46.051221" lon="13.481233">
<time>2021-07-18T10:13:41Z</time>
</trkpt>
<trkpt lat="46.051206" lon="13.481216">
<time>2021-07-18T10:13:42Z</time>
</trkpt>
<trkpt lat="46.05119" lon="13.4812">
<time>2021-07-18T10:13:43Z</time>
</trkpt>
<trkpt lat="46.051168" lon="13.481178">
<time>2021-07-18T10:13:44Z</time>
</trkpt>
<trkpt lat="46.051153" lon="13.481168">
<time>2021-07-18T10:13:45Z</time>
</trkpt>
<trkpt lat="46.051135" lon="13.481158">
<time>2021-07-18T10:13:46Z</time>
</trkpt>
<trkpt lat="46.051115" lon="13.481148">
<time>2021-07-18T10:13:47Z</time>
</trkpt>
<trkpt lat="46.051096" lon="13.481141">
<time>2021-07-18T10:13:48Z</time>
</trkpt>
<trkpt lat="46.051076" lon="13.481135">
<time>2021-07-18T10:13:49Z</time>
</trkpt>
<trkpt lat="46.051056" lon="13.481128">
<time>2021-07-18T10:13:50Z</time>
</trkpt>
<trkpt lat="46.051036" lon="13.48112">
<time>2021-07-18T10:13:51Z</time>
</trkpt>
<trkpt lat="46.051016" lon="13.481115">
<time>2021-07-18T10:13:52Z</time>
</trkpt>
<trkpt lat="46.050996" lon="13.481108">
<time>2021-07-18T10:13:53Z</time>
</trkpt>
<trkpt lat="46.050978" lon="13.481101">
<time>2021-07-18T10:13:54Z</time>
</trkpt>
<trkpt lat="46.050956" lon="13.481096">
<time>2021-07-18T10:13:55Z</time>
</trkpt>
<trkpt lat="46.050931" lon="13.481091">
<time>2021-07-18T10:13:56Z</time>
</trkpt>
<trkpt lat="46.050908" lon="13.481088">
<time>2021-07-18T10:13:57Z</time>
</trkpt>
<trkpt lat="46.050885" lon="13.481083">
<time>2021-07-18T10:13:58Z</time>
</trkpt>
<trkpt lat="46.050858" lon="13.48108">
<time>2021-07-18T10:13:59Z</time>
</trkpt>
<trkpt lat="46.05083" lon="13.481073">
<time>2021-07-18T10:14:00Z</time>
</trkpt>
<trkpt lat="46.0508" lon="13.481061">
<time>2021-07-18T10:14:01Z</time>
</trkpt>
<trkpt lat="46.050771" lon="13.481046">
<time>2021-07-18T10:14:02Z</time>
</trkpt>
<trkpt lat="46.050743" lon="13.481025">
<time>2021-07-18T10:14:03Z</time>
</trkpt>
<trkpt lat="46.050711" lon="13.481001">
<time>2021-07-18T10:14:04Z</time>
</trkpt>
<trkpt lat="46.05068" lon="13.480978">
<time>2021-07-18T10:14:05Z</time>
</trkpt>
<trkpt lat="46.050645" lon="13.480953">
<time>2021-07-18T10:14:06Z</time>
</trkpt>
<trkpt lat="46.050596" lon="13.480923">
<time>2021-07-18T10:14:07Z</time>
</trkpt>
<trkpt lat="46.050553" lon="13.480908">
<time>2021-07-18T10:14:08Z</time>
</trkpt>
<trkpt lat="46.050495" lon="13.480886">
<time>2021-07-18T10:14:09Z</time>
</trkpt>
<trkpt lat="46.050433" lon="13.480861">
<time>2021-07-18T10:14:10Z</time>
</trkpt>
<trkpt lat="46.050363" lon="13.480836">
<time>2021-07-18T10:14:11Z</time>
</trkpt>
<trkpt lat="46.05029" lon="13.480823">
<time>2021-07-18T10:14:12Z</time>
</trkpt>
<trkpt lat="46.050213" lon="13.480818">
<time>2021-07-18T10:14:13Z</time>
</trkpt>
<trkpt lat="46.050135" lon="13.480813">
<time>2021-07-18T10:14:14Z</time>
</trkpt>
<trkpt lat="46.050038" lon="13.480803">
<time>2021-07-18T10:14:15Z</time>
</trkpt>
<trkpt lat="46.049956" lon="13.480788">
<time>2021-07-18T10:14:16Z</time>
</trkpt>
<trkpt lat="46.049893" lon="13.48077">
<time>2021-07-18T10:14:17Z</time>
</trkpt>
<trkpt lat="46.049813" lon="13.480733">
<time>2021-07-18T10:14:18Z</time>
</trkpt>
<trkpt lat="46.049733" lon="13.480676">
<time>2021-07-18T10:14:19Z</time>
</trkpt>
<trkpt lat="46.04966" lon="13.48061">
<time>2021-07-18T10:14:20Z</time>
</trkpt>
<trkpt lat="46.049585" lon="13.480536">
<time>2021-07-18T10:14:21Z</time>
</trkpt>
<trkpt lat="46.049513" lon="13.480465">
<time>2021-07-18T10:14:22Z</time>
</trkpt>
<trkpt lat="46.049445" lon="13.480396">
<time>2021-07-18T10:14:23Z</time>
</trkpt>
<trkpt lat="46.04938" lon="13.480333">
<time>2021-07-18T10:14:24Z</time>
</trkpt>
<trkpt lat="46.049321" lon="13.480271">
<time>2021-07-18T10:14:25Z</time>
</trkpt>
<trkpt lat="46.049266" lon="13.480208">
<time>2021-07-18T10:14:26Z</time>
</trkpt>
<trkpt lat="46.049213" lon="13.480128">
<time>2021-07-18T10:14:27Z</time>
</trkpt>
<trkpt lat="46.04918" lon="13.480065">
<time>2021-07-18T10:14:28Z</time>
</trkpt>
<trkpt lat="46.049158" lon="13.480001">
<time>2021-07-18T10:14:29Z</time>
</trkpt>
<trkpt lat="46.049151" lon="13.479948">
<time>2021-07-18T10:14:30Z</time>
</trkpt>
<trkpt lat="46.04915" lon="13.479885">
<time>2021-07-18T10:14:31Z</time>
</trkpt>
<trkpt lat="46.049155" lon="13.4798">
<time>2021-07-18T10:14:32Z</time>
</trkpt>
<trkpt lat="46.049161" lon="13.479693">
<time>2021-07-18T10:14:33Z</time>
</trkpt>
<trkpt lat="46.049173" lon="13.479575">
<time>2021-07-18T10:14:34Z</time>
</trkpt>
<trkpt lat="46.04918" lon="13.479456">
<time>2021-07-18T10:14:35Z</time>
</trkpt>
<trkpt lat="46.049181" lon="13.479345">
<time>2021-07-18T10:14:36Z</time>
</trkpt>
<trkpt lat="46.049178" lon="13.479246">
<time>2021-07-18T10:14:37Z</time>
</trkpt>
<trkpt lat="46.049176" lon="13.47916">
<time>2021-07-18T10:14:38Z</time>
</trkpt>
<trkpt lat="46.049173" lon="13.479071">
<time>2021-07-18T10:14:39Z</time>
</trkpt>
<trkpt lat="46.049166" lon="13.478976">
<time>2021-07-18T10:14:40Z</time>
</trkpt>
<trkpt lat="46.049153" lon="13.478886">
<time>2021-07-18T10:14:41Z</time>
</trkpt>
<trkpt lat="46.049135" lon="13.478806">
<time>2021-07-18T10:14:42Z</time>
</trkpt>
<trkpt lat="46.049095" lon="13.478758">
<time>2021-07-18T10:14:43Z</time>
</trkpt>
<trkpt lat="46.04906" lon="13.478758">
<time>2021-07-18T10:14:44Z</time>
</trkpt>
<trkpt lat="46.04903" lon="13.47877">
<time>2021-07-18T10:14:45Z</time>
</trkpt>
<trkpt lat="46.049013" lon="13.478803">
<time>2021-07-18T10:14:46Z</time>
</trkpt>
<trkpt lat="46.049013" lon="13.478863">
<time>2021-07-18T10:14:47Z</time>
</trkpt>
<trkpt lat="46.049015" lon="13.478926">
<time>2021-07-18T10:14:48Z</time>
</trkpt>
<trkpt lat="46.049011" lon="13.479001">
<time>2021-07-18T10:14:49Z</time>
</trkpt>
<trkpt lat="46.049015" lon="13.47907">
<time>2021-07-18T10:14:50Z</time>
</trkpt>
<trkpt lat="46.049023" lon="13.479135">
<time>2021-07-18T10:14:51Z</time>
</trkpt>
<trkpt lat="46.049033" lon="13.479195">
<time>2021-07-18T10:14:52Z</time>
</trkpt>
<trkpt lat="46.049035" lon="13.479261">
<time>2021-07-18T10:14:53Z</time>
</trkpt>
<trkpt lat="46.049025" lon="13.479321">
<time>2021-07-18T10:14:54Z</time>
</trkpt>
<trkpt lat="46.049005" lon="13.47937">
<time>2021-07-18T10:14:55Z</time>
</trkpt>
<trkpt lat="46.048973" lon="13.479415">
<time>2021-07-18T10:14:56Z</time>
</trkpt>
<trkpt lat="46.048926" lon="13.479455">
<time>2021-07-18T10:14:57Z</time>
</trkpt>
<trkpt lat="46.048881" lon="13.479475">
<time>2021-07-18T10:14:58Z</time>
</trkpt>
<trkpt lat="46.048836" lon="13.47948">
<time>2021-07-18T10:14:59Z</time>
</trkpt>
<trkpt lat="46.048795" lon="13.47948">
<time>2021-07-18T10:15:00Z</time>
</trkpt>
<trkpt lat="46.048755" lon="13.479465">
<time>2021-07-18T10:15:01Z</time>
</trkpt>
<trkpt lat="46.048698" lon="13.479411">
<time>2021-07-18T10:15:02Z</time>
</trkpt>
<trkpt lat="46.048643" lon="13.479363">
<time>2021-07-18T10:15:03Z</time>
</trkpt>
<trkpt lat="46.048591" lon="13.479313">
<time>2021-07-18T10:15:04Z</time>
</trkpt>
<trkpt lat="46.048536" lon="13.479253">
<time>2021-07-18T10:15:05Z</time>
</trkpt>
<trkpt lat="46.048475" lon="13.47919">
<time>2021-07-18T10:15:06Z</time>
</trkpt>
<trkpt lat="46.04841" lon="13.479126">
<time>2021-07-18T10:15:07Z</time>
</trkpt>
<trkpt lat="46.048336" lon="13.479063">
<time>2021-07-18T10:15:08Z</time>
</trkpt>
<trkpt lat="46.048263" lon="13.47899">
<time>2021-07-18T10:15:09Z</time>
</trkpt>
<trkpt lat="46.048193" lon="13.478905">
<time>2021-07-18T10:15:10Z</time>
</trkpt>
<trkpt lat="46.048128" lon="13.478821">
<time>2021-07-18T10:15:11Z</time>
</trkpt>
<trkpt lat="46.048068" lon="13.478743">
<time>2021-07-18T10:15:12Z</time>
</trkpt>
<trkpt lat="46.04801" lon="13.478671">
<time>2021-07-18T10:15:13Z</time>
</trkpt>
<trkpt lat="46.047948" lon="13.478606">
<time>2021-07-18T10:15:14Z</time>
</trkpt>
<trkpt lat="46.04788" lon="13.478551">
<time>2021-07-18T10:15:15Z</time>
</trkpt>
<trkpt lat="46.047805" lon="13.478505">
<time>2021-07-18T10:15:16Z</time>
</trkpt>
<trkpt lat="46.047728" lon="13.478468">
<time>2021-07-18T10:15:17Z</time>
</trkpt>
<trkpt lat="46.047648" lon="13.478438">
<time>2021-07-18T10:15:18Z</time>
</trkpt>
<trkpt lat="46.047565" lon="13.478415">
<time>2021-07-18T10:15:19Z</time>
</trkpt>
<trkpt lat="46.04748" lon="13.478395">
<time>2021-07-18T10:15:20Z</time>
</trkpt>
<trkpt lat="46.047391" lon="13.47838">
<time>2021-07-18T10:15:21Z</time>
</trkpt>
<trkpt lat="46.047308" lon="13.478361">
<time>2021-07-18T10:15:22Z</time>
</trkpt>
<trkpt lat="46.047228" lon="13.47834">
<time>2021-07-18T10:15:23Z</time>
</trkpt>
<trkpt lat="46.04715" lon="13.47831">
<time>2021-07-18T10:15:24Z</time>
</trkpt>
<trkpt lat="46.047073" lon="13.478276">
<time>2021-07-18T10:15:25Z</time>
</trkpt>
<trkpt lat="46.047001" lon="13.478236">
<time>2021-07-18T10:15:26Z</time>
</trkpt>
<trkpt lat="46.046931" lon="13.478188">
<time>2021-07-18T10:15:27Z</time>
</trkpt>
<trkpt lat="46.046856" lon="13.478131">
<time>2021-07-18T10:15:28Z</time>
</trkpt>
<trkpt lat="46.046781" lon="13.478081">
<time>2021-07-18T10:15:29Z</time>
</trkpt>
<trkpt lat="46.046711" lon="13.478041">
<time>2021-07-18T10:15:30Z</time>
</trkpt>
<trkpt lat="46.04665" lon="13.47802">
<time>2021-07-18T10:15:31Z</time>
</trkpt>
<trkpt lat="46.046595" lon="13.478023">
<time>2021-07-18T10:15:32Z</time>
</trkpt>
<trkpt lat="46.046551" lon="13.478045">
<time>2021-07-18T10:15:33Z</time>
</trkpt>
<trkpt lat="46.046526" lon="13.478088">
<time>2021-07-18T10:15:34Z</time>
</trkpt>
<trkpt lat="46.046518" lon="13.478141">
<time>2021-07-18T10:15:35Z</time>
</trkpt>
<trkpt lat="46.04654" lon="13.478226">
<time>2021-07-18T10:15:36Z</time>
</trkpt>
<trkpt lat="46.046563" lon="13.478315">
<time>2021-07-18T10:15:37Z</time>
</trkpt>
<trkpt lat="46.046586" lon="13.478403">
<time>2021-07-18T10:15:38Z</time>
</trkpt>
<trkpt lat="46.046616" lon="13.478501">
<time>2021-07-18T10:15:39Z</time>
</trkpt>
<trkpt lat="46.04665" lon="13.478613">
<time>2021-07-18T10:15:40Z</time>
</trkpt>
<trkpt lat="46.046683" lon="13.47874">
<time>2021-07-18T10:15:41Z</time>
</trkpt>
<trkpt lat="46.046723" lon="13.478873">
<time>2021-07-18T10:15:42Z</time>
</trkpt>
<trkpt lat="46.046766" lon="13.47901">
<time>2021-07-18T10:15:43Z</time>
</trkpt>
<trkpt lat="46.04681" lon="13.479153">
<time>2021-07-18T10:15:44Z</time>
</trkpt>
<trkpt lat="46.046851" lon="13.479305">
<time>2021-07-18T10:15:45Z</time>
</trkpt>
<trkpt lat="46.046885" lon="13.479458">
<time>2021-07-18T10:15:46Z</time>
</trkpt>
<trkpt lat="46.046908" lon="13.479593">
<time>2021-07-18T10:15:47Z</time>
</trkpt>
<trkpt lat="46.046923" lon="13.47972">
<time>2021-07-18T10:15:48Z</time>
</trkpt>
<trkpt lat="46.04693" lon="13.479836">
<time>2021-07-18T10:15:49Z</time>
</trkpt>
<trkpt lat="46.046923" lon="13.47995">
<time>2021-07-18T10:15:50Z</time>
</trkpt>
<trkpt lat="46.0469" lon="13.480056">
<time>2021-07-18T10:15:51Z</time>
</trkpt>
<trkpt lat="46.046866" lon="13.480153">
<time>2021-07-18T10:15:52Z</time>
</trkpt>
<trkpt lat="46.046833" lon="13.480236">
<time>2021-07-18T10:15:53Z</time>
</trkpt>
<trkpt lat="46.046806" lon="13.480298">
<time>2021-07-18T10:15:54Z</time>
</trkpt>
<trkpt lat="46.04679" lon="13.480335">
<time>2021-07-18T10:15:55Z</time>
</trkpt>
<trkpt lat="46.046775" lon="13.480351">
<time>2021-07-18T10:15:56Z</time>
</trkpt>
<trkpt lat="46.046756" lon="13.480353">
<time>2021-07-18T10:15:57Z</time>
</trkpt>
<trkpt lat="46.046735" lon="13.480328">
<time>2021-07-18T10:15:58Z</time>
</trkpt>
<trkpt lat="46.046711" lon="13.480288">
<time>2021-07-18T10:15:59Z</time>
</trkpt>
<trkpt lat="46.04669" lon="13.480236">
<time>2021-07-18T10:16:00Z</time>
</trkpt>
<trkpt lat="46.046663" lon="13.480168">
<time>2021-07-18T10:16:01Z</time>
</trkpt>
<trkpt lat="46.046636" lon="13.48009">
<time>2021-07-18T10:16:02Z</time>
</trkpt>
<trkpt lat="46.046608" lon="13.480006">
<time>2021-07-18T10:16:03Z</time>
</trkpt>
<trkpt lat="46.046575" lon="13.479925">
<time>2021-07-18T10:16:04Z</time>
</trkpt>
<trkpt lat="46.046535" lon="13.479856">
<time>2021-07-18T10:16:05Z</time>
</trkpt>
<trkpt lat="46.04649" lon="13.479821">
<time>2021-07-18T10:16:06Z</time>
</trkpt>
<trkpt lat="46.04645" lon="13.479811">
<time>2021-07-18T10:16:07Z</time>
</trkpt>
<trkpt lat="46.046411" lon="13.479823">
<time>2021-07-18T10:16:08Z</time>
</trkpt>
<trkpt lat="46.046383" lon="13.479846">
<time>2021-07-18T10:16:09Z</time>
</trkpt>
</trkseg>
<name>Piero Turra (giusto)</name>
</trk>
</gpx>